<?xml version="1.0" encoding="UTF-8" standalone="no" ?>
<gpx xmlns="http://www.topografix.com/GPX/1/1" xmlns:xsi="http://www.w3.org/2001/XMLSchema-instance" xsi:schemaLocation="http://www.topografix.com/GPX/1/1 http://www.topografix.com/GPX/1/1/gpx.xsd" version="1.1" creator="VisuGPX - https://www.visugpx.com">
  <metadata>
    <name>WE Volvic : jour 1 boucle St Ours-Vulcania</name>
    <desc><![CDATA[WE Volvic 19/05/2018 : jour 1 boucle St Ours-Vulcania
plutôt roulant]]></desc>
  </metadata>
  <trk>
    <name><![CDATA[2018-05-19 14:30]]></name>
    <desc><![CDATA[<p>Heure de départ: 05/19/2018 14:31</p><p>Heure d'arrivée: 05/19/2018 18:43</p><p>Distance: 38 km (04:11)</p><p>Temps déplacement: 02:56</p><p>Vitesse moyenne: 9,08 km/h</p><p>Vitesse moyenne mouv.: 12,95 km/h</p><p>Vitesse Max.: 40,62km/h</p><p>Altitude minimale: 726 m</p><p>Altitude maximale: 1086 m</p><p>Vitesse de montée: 356,5 m/h</p><p>Vitesse de descente: -589,3 m/h</p><p>Gain d'altitude: 878 m</p><p>Perte d'altitude: -879 m</p><p>Temps de montée: 02:27</p><p>Temps de descente: 01:29</p><hr align="center" width="480" style="height: 2px; width: 517px"/>]]></desc>
    <trkseg>
      <trkpt lat="45.83802" lon="2.88281">
        <ele>830</ele>
        <time>2018-05-19T12:31:44Z</time>
      </trkpt>
      <trkpt lat="45.83806" lon="2.88273">
        <ele>829</ele>
        <time>2018-05-19T12:31:52Z</time>
      </trkpt>
      <trkpt lat="45.83808" lon="2.88266">
        <ele>828</ele>
        <time>2018-05-19T12:31:54Z</time>
      </trkpt>
      <trkpt lat="45.83808" lon="2.88254">
        <ele>829</ele>
        <time>2018-05-19T12:31:56Z</time>
      </trkpt>
      <trkpt lat="45.8381" lon="2.88242">
        <ele>830</ele>
        <time>2018-05-19T12:31:58Z</time>
      </trkpt>
      <trkpt lat="45.83811" lon="2.88231">
        <ele>830</ele>
        <time>2018-05-19T12:32:00Z</time>
      </trkpt>
      <trkpt lat="45.8381" lon="2.8822">
        <ele>830</ele>
        <time>2018-05-19T12:32:02Z</time>
      </trkpt>
      <trkpt lat="45.83811" lon="2.88207">
        <ele>831</ele>
        <time>2018-05-19T12:32:04Z</time>
      </trkpt>
      <trkpt lat="45.83814" lon="2.88192">
        <ele>830</ele>
        <time>2018-05-19T12:32:06Z</time>
      </trkpt>
      <trkpt lat="45.83819" lon="2.88177">
        <ele>831</ele>
        <time>2018-05-19T12:32:08Z</time>
      </trkpt>
      <trkpt lat="45.83822" lon="2.88161">
        <ele>832</ele>
        <time>2018-05-19T12:32:10Z</time>
      </trkpt>
      <trkpt lat="45.83824" lon="2.88145">
        <ele>833</ele>
        <time>2018-05-19T12:32:12Z</time>
      </trkpt>
      <trkpt lat="45.83824" lon="2.8813">
        <ele>830</ele>
        <time>2018-05-19T12:32:14Z</time>
      </trkpt>
      <trkpt lat="45.83829" lon="2.88115">
        <ele>830</ele>
        <time>2018-05-19T12:32:16Z</time>
      </trkpt>
      <trkpt lat="45.83835" lon="2.88102">
        <ele>829</ele>
        <time>2018-05-19T12:32:18Z</time>
      </trkpt>
      <trkpt lat="45.83842" lon="2.88088">
        <ele>829</ele>
        <time>2018-05-19T12:32:20Z</time>
      </trkpt>
      <trkpt lat="45.83845" lon="2.88071">
        <ele>828</ele>
        <time>2018-05-19T12:32:22Z</time>
      </trkpt>
      <trkpt lat="45.83844" lon="2.88057">
        <ele>827</ele>
        <time>2018-05-19T12:32:24Z</time>
      </trkpt>
      <trkpt lat="45.83841" lon="2.88043">
        <ele>828</ele>
        <time>2018-05-19T12:32:26Z</time>
      </trkpt>
      <trkpt lat="45.83837" lon="2.8803">
        <ele>828</ele>
        <time>2018-05-19T12:32:28Z</time>
      </trkpt>
      <trkpt lat="45.83835" lon="2.88015">
        <ele>827</ele>
        <time>2018-05-19T12:32:30Z</time>
      </trkpt>
      <trkpt lat="45.8384" lon="2.88002">
        <ele>826</ele>
        <time>2018-05-19T12:32:32Z</time>
      </trkpt>
      <trkpt lat="45.83847" lon="2.87988">
        <ele>826</ele>
        <time>2018-05-19T12:32:34Z</time>
      </trkpt>
      <trkpt lat="45.83851" lon="2.87972">
        <ele>825</ele>
        <time>2018-05-19T12:32:36Z</time>
      </trkpt>
      <trkpt lat="45.83854" lon="2.87955">
        <ele>825</ele>
        <time>2018-05-19T12:32:38Z</time>
      </trkpt>
      <trkpt lat="45.83858" lon="2.8794">
        <ele>824</ele>
        <time>2018-05-19T12:32:40Z</time>
      </trkpt>
      <trkpt lat="45.83862" lon="2.87926">
        <ele>826</ele>
        <time>2018-05-19T12:32:42Z</time>
      </trkpt>
      <trkpt lat="45.83868" lon="2.8791">
        <ele>827</ele>
        <time>2018-05-19T12:32:44Z</time>
      </trkpt>
      <trkpt lat="45.83875" lon="2.87899">
        <ele>825</ele>
        <time>2018-05-19T12:32:46Z</time>
      </trkpt>
      <trkpt lat="45.83885" lon="2.87892">
        <ele>826</ele>
        <time>2018-05-19T12:32:48Z</time>
      </trkpt>
      <trkpt lat="45.83893" lon="2.87883">
        <ele>827</ele>
        <time>2018-05-19T12:32:50Z</time>
      </trkpt>
      <trkpt lat="45.839" lon="2.87873">
        <ele>828</ele>
        <time>2018-05-19T12:32:52Z</time>
      </trkpt>
      <trkpt lat="45.83905" lon="2.87865">
        <ele>826</ele>
        <time>2018-05-19T12:32:54Z</time>
      </trkpt>
      <trkpt lat="45.83913" lon="2.87855">
        <ele>827</ele>
        <time>2018-05-19T12:32:56Z</time>
      </trkpt>
      <trkpt lat="45.83923" lon="2.87846">
        <ele>826</ele>
        <time>2018-05-19T12:32:58Z</time>
      </trkpt>
      <trkpt lat="45.83932" lon="2.8784">
        <ele>826</ele>
        <time>2018-05-19T12:33:00Z</time>
      </trkpt>
      <trkpt lat="45.83939" lon="2.87834">
        <ele>825</ele>
        <time>2018-05-19T12:33:02Z</time>
      </trkpt>
      <trkpt lat="45.83946" lon="2.87826">
        <ele>825</ele>
        <time>2018-05-19T12:33:04Z</time>
      </trkpt>
      <trkpt lat="45.83952" lon="2.87815">
        <ele>824</ele>
        <time>2018-05-19T12:33:06Z</time>
      </trkpt>
      <trkpt lat="45.83958" lon="2.87803">
        <ele>824</ele>
        <time>2018-05-19T12:33:08Z</time>
      </trkpt>
      <trkpt lat="45.83962" lon="2.87791">
        <ele>825</ele>
        <time>2018-05-19T12:33:10Z</time>
      </trkpt>
      <trkpt lat="45.83967" lon="2.87778">
        <ele>824</ele>
        <time>2018-05-19T12:33:12Z</time>
      </trkpt>
      <trkpt lat="45.83971" lon="2.87767">
        <ele>823</ele>
        <time>2018-05-19T12:33:14Z</time>
      </trkpt>
      <trkpt lat="45.83974" lon="2.87755">
        <ele>822</ele>
        <time>2018-05-19T12:33:16Z</time>
      </trkpt>
      <trkpt lat="45.83978" lon="2.87743">
        <ele>821</ele>
        <time>2018-05-19T12:33:18Z</time>
      </trkpt>
      <trkpt lat="45.83981" lon="2.87729">
        <ele>821</ele>
        <time>2018-05-19T12:33:20Z</time>
      </trkpt>
      <trkpt lat="45.83983" lon="2.87715">
        <ele>821</ele>
        <time>2018-05-19T12:33:22Z</time>
      </trkpt>
      <trkpt lat="45.83985" lon="2.87701">
        <ele>821</ele>
        <time>2018-05-19T12:33:24Z</time>
      </trkpt>
      <trkpt lat="45.83985" lon="2.87687">
        <ele>821</ele>
        <time>2018-05-19T12:33:26Z</time>
      </trkpt>
      <trkpt lat="45.83987" lon="2.87674">
        <ele>819</ele>
        <time>2018-05-19T12:33:28Z</time>
      </trkpt>
      <trkpt lat="45.83992" lon="2.87662">
        <ele>816</ele>
        <time>2018-05-19T12:33:30Z</time>
      </trkpt>
      <trkpt lat="45.83998" lon="2.87646">
        <ele>815</ele>
        <time>2018-05-19T12:33:32Z</time>
      </trkpt>
      <trkpt lat="45.84" lon="2.87629">
        <ele>815</ele>
        <time>2018-05-19T12:33:34Z</time>
      </trkpt>
      <trkpt lat="45.84001" lon="2.87612">
        <ele>815</ele>
        <time>2018-05-19T12:33:36Z</time>
      </trkpt>
      <trkpt lat="45.84002" lon="2.87594">
        <ele>815</ele>
        <time>2018-05-19T12:33:38Z</time>
      </trkpt>
      <trkpt lat="45.84002" lon="2.87577">
        <ele>815</ele>
        <time>2018-05-19T12:33:40Z</time>
      </trkpt>
      <trkpt lat="45.84004" lon="2.87559">
        <ele>815</ele>
        <time>2018-05-19T12:33:42Z</time>
      </trkpt>
      <trkpt lat="45.84003" lon="2.87545">
        <ele>815</ele>
        <time>2018-05-19T12:33:44Z</time>
      </trkpt>
      <trkpt lat="45.84001" lon="2.87531">
        <ele>815</ele>
        <time>2018-05-19T12:33:46Z</time>
      </trkpt>
      <trkpt lat="45.83995" lon="2.8752">
        <ele>816</ele>
        <time>2018-05-19T12:33:48Z</time>
      </trkpt>
      <trkpt lat="45.83987" lon="2.8751">
        <ele>816</ele>
        <time>2018-05-19T12:33:50Z</time>
      </trkpt>
      <trkpt lat="45.83983" lon="2.87497">
        <ele>815</ele>
        <time>2018-05-19T12:33:52Z</time>
      </trkpt>
      <trkpt lat="45.8398" lon="2.87482">
        <ele>815</ele>
        <time>2018-05-19T12:33:54Z</time>
      </trkpt>
      <trkpt lat="45.83979" lon="2.87466">
        <ele>815</ele>
        <time>2018-05-19T12:33:56Z</time>
      </trkpt>
      <trkpt lat="45.83979" lon="2.8745">
        <ele>815</ele>
        <time>2018-05-19T12:33:58Z</time>
      </trkpt>
      <trkpt lat="45.83977" lon="2.87433">
        <ele>814</ele>
        <time>2018-05-19T12:34:00Z</time>
      </trkpt>
      <trkpt lat="45.83975" lon="2.87416">
        <ele>813</ele>
        <time>2018-05-19T12:34:02Z</time>
      </trkpt>
      <trkpt lat="45.83972" lon="2.87398">
        <ele>812</ele>
        <time>2018-05-19T12:34:04Z</time>
      </trkpt>
      <trkpt lat="45.8397" lon="2.87381">
        <ele>812</ele>
        <time>2018-05-19T12:34:06Z</time>
      </trkpt>
      <trkpt lat="45.83967" lon="2.87362">
        <ele>811</ele>
        <time>2018-05-19T12:34:08Z</time>
      </trkpt>
      <trkpt lat="45.83964" lon="2.87344">
        <ele>810</ele>
        <time>2018-05-19T12:34:10Z</time>
      </trkpt>
      <trkpt lat="45.83963" lon="2.87325">
        <ele>810</ele>
        <time>2018-05-19T12:34:12Z</time>
      </trkpt>
      <trkpt lat="45.8396" lon="2.87305">
        <ele>809</ele>
        <time>2018-05-19T12:34:14Z</time>
      </trkpt>
      <trkpt lat="45.83957" lon="2.87286">
        <ele>809</ele>
        <time>2018-05-19T12:34:16Z</time>
      </trkpt>
      <trkpt lat="45.83957" lon="2.87266">
        <ele>809</ele>
        <time>2018-05-19T12:34:18Z</time>
      </trkpt>
      <trkpt lat="45.83961" lon="2.87249">
        <ele>809</ele>
        <time>2018-05-19T12:34:20Z</time>
      </trkpt>
      <trkpt lat="45.83966" lon="2.87234">
        <ele>808</ele>
        <time>2018-05-19T12:34:22Z</time>
      </trkpt>
      <trkpt lat="45.83971" lon="2.87225">
        <ele>807</ele>
        <time>2018-05-19T12:34:24Z</time>
      </trkpt>
      <trkpt lat="45.83981" lon="2.87224">
        <ele>806</ele>
        <time>2018-05-19T12:34:26Z</time>
      </trkpt>
      <trkpt lat="45.83993" lon="2.87227">
        <ele>806</ele>
        <time>2018-05-19T12:34:28Z</time>
      </trkpt>
      <trkpt lat="45.84004" lon="2.87229">
        <ele>806</ele>
        <time>2018-05-19T12:34:30Z</time>
      </trkpt>
      <trkpt lat="45.84015" lon="2.8723">
        <ele>806</ele>
        <time>2018-05-19T12:34:32Z</time>
      </trkpt>
      <trkpt lat="45.84026" lon="2.87227">
        <ele>806</ele>
        <time>2018-05-19T12:34:34Z</time>
      </trkpt>
      <trkpt lat="45.84037" lon="2.8722">
        <ele>804</ele>
        <time>2018-05-19T12:34:36Z</time>
      </trkpt>
      <trkpt lat="45.84049" lon="2.87209">
        <ele>804</ele>
        <time>2018-05-19T12:34:38Z</time>
      </trkpt>
      <trkpt lat="45.84059" lon="2.87199">
        <ele>804</ele>
        <time>2018-05-19T12:34:40Z</time>
      </trkpt>
      <trkpt lat="45.8407" lon="2.87186">
        <ele>804</ele>
        <time>2018-05-19T12:34:42Z</time>
      </trkpt>
      <trkpt lat="45.84079" lon="2.87173">
        <ele>806</ele>
        <time>2018-05-19T12:34:44Z</time>
      </trkpt>
      <trkpt lat="45.84085" lon="2.87158">
        <ele>806</ele>
        <time>2018-05-19T12:34:46Z</time>
      </trkpt>
      <trkpt lat="45.84087" lon="2.87151">
        <ele>806</ele>
        <time>2018-05-19T12:34:48Z</time>
      </trkpt>
      <trkpt lat="45.8409" lon="2.87142">
        <ele>807</ele>
        <time>2018-05-19T12:34:56Z</time>
      </trkpt>
      <trkpt lat="45.84092" lon="2.87134">
        <ele>806</ele>
        <time>2018-05-19T12:34:58Z</time>
      </trkpt>
      <trkpt lat="45.84096" lon="2.87124">
        <ele>806</ele>
        <time>2018-05-19T12:35:00Z</time>
      </trkpt>
      <trkpt lat="45.841" lon="2.87114">
        <ele>806</ele>
        <time>2018-05-19T12:35:02Z</time>
      </trkpt>
      <trkpt lat="45.84106" lon="2.87106">
        <ele>805</ele>
        <time>2018-05-19T12:35:04Z</time>
      </trkpt>
      <trkpt lat="45.84114" lon="2.87097">
        <ele>805</ele>
        <time>2018-05-19T12:35:06Z</time>
      </trkpt>
      <trkpt lat="45.84122" lon="2.8709">
        <ele>806</ele>
        <time>2018-05-19T12:35:08Z</time>
      </trkpt>
      <trkpt lat="45.84128" lon="2.87082">
        <ele>806</ele>
        <time>2018-05-19T12:35:10Z</time>
      </trkpt>
      <trkpt lat="45.84134" lon="2.87074">
        <ele>806</ele>
        <time>2018-05-19T12:35:12Z</time>
      </trkpt>
      <trkpt lat="45.8414" lon="2.87066">
        <ele>806</ele>
        <time>2018-05-19T12:35:14Z</time>
      </trkpt>
      <trkpt lat="45.84147" lon="2.87058">
        <ele>805</ele>
        <time>2018-05-19T12:35:16Z</time>
      </trkpt>
      <trkpt lat="45.84152" lon="2.87048">
        <ele>805</ele>
        <time>2018-05-19T12:35:18Z</time>
      </trkpt>
      <trkpt lat="45.84158" lon="2.87037">
        <ele>805</ele>
        <time>2018-05-19T12:35:20Z</time>
      </trkpt>
      <trkpt lat="45.84162" lon="2.87025">
        <ele>804</ele>
        <time>2018-05-19T12:35:22Z</time>
      </trkpt>
      <trkpt lat="45.84165" lon="2.8701">
        <ele>803</ele>
        <time>2018-05-19T12:35:24Z</time>
      </trkpt>
      <trkpt lat="45.84167" lon="2.86992">
        <ele>802</ele>
        <time>2018-05-19T12:35:26Z</time>
      </trkpt>
      <trkpt lat="45.84169" lon="2.86971">
        <ele>800</ele>
        <time>2018-05-19T12:35:28Z</time>
      </trkpt>
      <trkpt lat="45.84171" lon="2.86946">
        <ele>799</ele>
        <time>2018-05-19T12:35:30Z</time>
      </trkpt>
      <trkpt lat="45.84172" lon="2.86921">
        <ele>799</ele>
        <time>2018-05-19T12:35:32Z</time>
      </trkpt>
      <trkpt lat="45.84174" lon="2.869">
        <ele>800</ele>
        <time>2018-05-19T12:35:34Z</time>
      </trkpt>
      <trkpt lat="45.84177" lon="2.86883">
        <ele>802</ele>
        <time>2018-05-19T12:35:36Z</time>
      </trkpt>
      <trkpt lat="45.84181" lon="2.86871">
        <ele>803</ele>
        <time>2018-05-19T12:35:38Z</time>
      </trkpt>
      <trkpt lat="45.84185" lon="2.86862">
        <ele>803</ele>
        <time>2018-05-19T12:35:40Z</time>
      </trkpt>
      <trkpt lat="45.8419" lon="2.86855">
        <ele>803</ele>
        <time>2018-05-19T12:35:42Z</time>
      </trkpt>
      <trkpt lat="45.84194" lon="2.86848">
        <ele>803</ele>
        <time>2018-05-19T12:35:44Z</time>
      </trkpt>
      <trkpt lat="45.84199" lon="2.8684">
        <ele>803</ele>
        <time>2018-05-19T12:35:46Z</time>
      </trkpt>
      <trkpt lat="45.84204" lon="2.86833">
        <ele>803</ele>
        <time>2018-05-19T12:35:48Z</time>
      </trkpt>
      <trkpt lat="45.8421" lon="2.86825">
        <ele>803</ele>
        <time>2018-05-19T12:35:50Z</time>
      </trkpt>
      <trkpt lat="45.84216" lon="2.86817">
        <ele>802</ele>
        <time>2018-05-19T12:35:52Z</time>
      </trkpt>
      <trkpt lat="45.84222" lon="2.86809">
        <ele>803</ele>
        <time>2018-05-19T12:35:54Z</time>
      </trkpt>
      <trkpt lat="45.84229" lon="2.868">
        <ele>802</ele>
        <time>2018-05-19T12:35:56Z</time>
      </trkpt>
      <trkpt lat="45.84236" lon="2.86789">
        <ele>802</ele>
        <time>2018-05-19T12:35:58Z</time>
      </trkpt>
      <trkpt lat="45.84242" lon="2.86779">
        <ele>802</ele>
        <time>2018-05-19T12:36:00Z</time>
      </trkpt>
      <trkpt lat="45.84246" lon="2.86769">
        <ele>802</ele>
        <time>2018-05-19T12:36:02Z</time>
      </trkpt>
      <trkpt lat="45.8425" lon="2.86758">
        <ele>802</ele>
        <time>2018-05-19T12:36:04Z</time>
      </trkpt>
      <trkpt lat="45.84255" lon="2.86746">
        <ele>801</ele>
        <time>2018-05-19T12:36:06Z</time>
      </trkpt>
      <trkpt lat="45.84258" lon="2.86734">
        <ele>802</ele>
        <time>2018-05-19T12:36:08Z</time>
      </trkpt>
      <trkpt lat="45.84262" lon="2.86722">
        <ele>802</ele>
        <time>2018-05-19T12:36:10Z</time>
      </trkpt>
      <trkpt lat="45.84265" lon="2.8671">
        <ele>802</ele>
        <time>2018-05-19T12:36:12Z</time>
      </trkpt>
      <trkpt lat="45.84268" lon="2.86697">
        <ele>801</ele>
        <time>2018-05-19T12:36:14Z</time>
      </trkpt>
      <trkpt lat="45.84272" lon="2.86685">
        <ele>801</ele>
        <time>2018-05-19T12:36:16Z</time>
      </trkpt>
      <trkpt lat="45.84278" lon="2.86675">
        <ele>801</ele>
        <time>2018-05-19T12:36:18Z</time>
      </trkpt>
      <trkpt lat="45.84286" lon="2.86664">
        <ele>800</ele>
        <time>2018-05-19T12:36:20Z</time>
      </trkpt>
      <trkpt lat="45.84294" lon="2.86656">
        <ele>800</ele>
        <time>2018-05-19T12:36:22Z</time>
      </trkpt>
      <trkpt lat="45.84302" lon="2.86648">
        <ele>802</ele>
        <time>2018-05-19T12:36:24Z</time>
      </trkpt>
      <trkpt lat="45.84309" lon="2.86643">
        <ele>804</ele>
        <time>2018-05-19T12:36:26Z</time>
      </trkpt>
      <trkpt lat="45.84318" lon="2.86638">
        <ele>805</ele>
        <time>2018-05-19T12:36:28Z</time>
      </trkpt>
      <trkpt lat="45.84325" lon="2.86632">
        <ele>805</ele>
        <time>2018-05-19T12:36:30Z</time>
      </trkpt>
      <trkpt lat="45.84332" lon="2.86627">
        <ele>806</ele>
        <time>2018-05-19T12:36:32Z</time>
      </trkpt>
      <trkpt lat="45.84339" lon="2.86622">
        <ele>806</ele>
        <time>2018-05-19T12:36:34Z</time>
      </trkpt>
      <trkpt lat="45.84347" lon="2.86616">
        <ele>806</ele>
        <time>2018-05-19T12:36:36Z</time>
      </trkpt>
      <trkpt lat="45.84355" lon="2.86609">
        <ele>806</ele>
        <time>2018-05-19T12:36:38Z</time>
      </trkpt>
      <trkpt lat="45.84362" lon="2.86601">
        <ele>805</ele>
        <time>2018-05-19T12:36:40Z</time>
      </trkpt>
      <trkpt lat="45.8437" lon="2.86593">
        <ele>805</ele>
        <time>2018-05-19T12:36:42Z</time>
      </trkpt>
      <trkpt lat="45.8438" lon="2.86588">
        <ele>803</ele>
        <time>2018-05-19T12:36:44Z</time>
      </trkpt>
      <trkpt lat="45.8439" lon="2.86582">
        <ele>803</ele>
        <time>2018-05-19T12:36:46Z</time>
      </trkpt>
      <trkpt lat="45.84401" lon="2.86577">
        <ele>802</ele>
        <time>2018-05-19T12:36:48Z</time>
      </trkpt>
      <trkpt lat="45.84413" lon="2.86573">
        <ele>801</ele>
        <time>2018-05-19T12:36:50Z</time>
      </trkpt>
      <trkpt lat="45.84426" lon="2.86569">
        <ele>800</ele>
        <time>2018-05-19T12:36:52Z</time>
      </trkpt>
      <trkpt lat="45.84438" lon="2.86567">
        <ele>800</ele>
        <time>2018-05-19T12:36:54Z</time>
      </trkpt>
      <trkpt lat="45.8445" lon="2.86562">
        <ele>799</ele>
        <time>2018-05-19T12:36:56Z</time>
      </trkpt>
      <trkpt lat="45.84463" lon="2.86556">
        <ele>800</ele>
        <time>2018-05-19T12:36:58Z</time>
      </trkpt>
      <trkpt lat="45.84475" lon="2.8655">
        <ele>800</ele>
        <time>2018-05-19T12:37:00Z</time>
      </trkpt>
      <trkpt lat="45.84486" lon="2.8654">
        <ele>798</ele>
        <time>2018-05-19T12:37:02Z</time>
      </trkpt>
      <trkpt lat="45.84496" lon="2.86528">
        <ele>798</ele>
        <time>2018-05-19T12:37:04Z</time>
      </trkpt>
      <trkpt lat="45.84505" lon="2.86515">
        <ele>796</ele>
        <time>2018-05-19T12:37:06Z</time>
      </trkpt>
      <trkpt lat="45.84511" lon="2.86502">
        <ele>794</ele>
        <time>2018-05-19T12:37:08Z</time>
      </trkpt>
      <trkpt lat="45.84517" lon="2.8649">
        <ele>794</ele>
        <time>2018-05-19T12:37:10Z</time>
      </trkpt>
      <trkpt lat="45.8452" lon="2.86478">
        <ele>793</ele>
        <time>2018-05-19T12:37:12Z</time>
      </trkpt>
      <trkpt lat="45.84524" lon="2.86465">
        <ele>792</ele>
        <time>2018-05-19T12:37:14Z</time>
      </trkpt>
      <trkpt lat="45.84527" lon="2.86452">
        <ele>791</ele>
        <time>2018-05-19T12:37:16Z</time>
      </trkpt>
      <trkpt lat="45.84532" lon="2.8644">
        <ele>789</ele>
        <time>2018-05-19T12:37:18Z</time>
      </trkpt>
      <trkpt lat="45.84538" lon="2.86429">
        <ele>789</ele>
        <time>2018-05-19T12:37:20Z</time>
      </trkpt>
      <trkpt lat="45.84544" lon="2.8642">
        <ele>786</ele>
        <time>2018-05-19T12:37:22Z</time>
      </trkpt>
      <trkpt lat="45.84549" lon="2.86411">
        <ele>785</ele>
        <time>2018-05-19T12:37:24Z</time>
      </trkpt>
      <trkpt lat="45.84554" lon="2.86401">
        <ele>784</ele>
        <time>2018-05-19T12:37:26Z</time>
      </trkpt>
      <trkpt lat="45.8456" lon="2.86396">
        <ele>784</ele>
        <time>2018-05-19T12:37:28Z</time>
      </trkpt>
      <trkpt lat="45.84568" lon="2.86398">
        <ele>784</ele>
        <time>2018-05-19T12:37:30Z</time>
      </trkpt>
      <trkpt lat="45.84574" lon="2.86397">
        <ele>786</ele>
        <time>2018-05-19T12:37:32Z</time>
      </trkpt>
      <trkpt lat="45.84581" lon="2.86397">
        <ele>786</ele>
        <time>2018-05-19T12:37:34Z</time>
      </trkpt>
      <trkpt lat="45.84588" lon="2.86396">
        <ele>786</ele>
        <time>2018-05-19T12:37:36Z</time>
      </trkpt>
      <trkpt lat="45.84596" lon="2.86397">
        <ele>787</ele>
        <time>2018-05-19T12:37:38Z</time>
      </trkpt>
      <trkpt lat="45.84603" lon="2.86402">
        <ele>787</ele>
        <time>2018-05-19T12:37:40Z</time>
      </trkpt>
      <trkpt lat="45.84608" lon="2.86408">
        <ele>787</ele>
        <time>2018-05-19T12:37:42Z</time>
      </trkpt>
      <trkpt lat="45.84611" lon="2.86414">
        <ele>787</ele>
        <time>2018-05-19T12:37:44Z</time>
      </trkpt>
      <trkpt lat="45.84616" lon="2.86424">
        <ele>788</ele>
        <time>2018-05-19T12:37:48Z</time>
      </trkpt>
      <trkpt lat="45.8462" lon="2.86432">
        <ele>788</ele>
        <time>2018-05-19T12:37:52Z</time>
      </trkpt>
      <trkpt lat="45.84623" lon="2.8644">
        <ele>790</ele>
        <time>2018-05-19T12:37:56Z</time>
      </trkpt>
      <trkpt lat="45.84628" lon="2.86446">
        <ele>790</ele>
        <time>2018-05-19T12:38:00Z</time>
      </trkpt>
      <trkpt lat="45.84634" lon="2.86453">
        <ele>791</ele>
        <time>2018-05-19T12:38:04Z</time>
      </trkpt>
      <trkpt lat="45.84641" lon="2.86463">
        <ele>792</ele>
        <time>2018-05-19T12:38:08Z</time>
      </trkpt>
      <trkpt lat="45.84644" lon="2.86468">
        <ele>792</ele>
        <time>2018-05-19T12:38:10Z</time>
      </trkpt>
      <trkpt lat="45.84648" lon="2.86473">
        <ele>793</ele>
        <time>2018-05-19T12:38:12Z</time>
      </trkpt>
      <trkpt lat="45.84654" lon="2.86481">
        <ele>793</ele>
        <time>2018-05-19T12:38:16Z</time>
      </trkpt>
      <trkpt lat="45.84654" lon="2.86487">
        <ele>794</ele>
        <time>2018-05-19T12:38:24Z</time>
      </trkpt>
      <trkpt lat="45.84659" lon="2.86492">
        <ele>793</ele>
        <time>2018-05-19T12:43:58Z</time>
      </trkpt>
      <trkpt lat="45.84663" lon="2.86501">
        <ele>794</ele>
        <time>2018-05-19T12:44:02Z</time>
      </trkpt>
      <trkpt lat="45.84668" lon="2.8651">
        <ele>794</ele>
        <time>2018-05-19T12:44:06Z</time>
      </trkpt>
      <trkpt lat="45.84674" lon="2.86519">
        <ele>795</ele>
        <time>2018-05-19T12:44:10Z</time>
      </trkpt>
      <trkpt lat="45.84677" lon="2.86524">
        <ele>795</ele>
        <time>2018-05-19T12:44:12Z</time>
      </trkpt>
      <trkpt lat="45.8468" lon="2.86529">
        <ele>796</ele>
        <time>2018-05-19T12:44:14Z</time>
      </trkpt>
      <trkpt lat="45.84685" lon="2.86539">
        <ele>797</ele>
        <time>2018-05-19T12:44:18Z</time>
      </trkpt>
      <trkpt lat="45.84688" lon="2.86544">
        <ele>797</ele>
        <time>2018-05-19T12:44:20Z</time>
      </trkpt>
      <trkpt lat="45.84692" lon="2.86549">
        <ele>797</ele>
        <time>2018-05-19T12:44:22Z</time>
      </trkpt>
      <trkpt lat="45.84695" lon="2.86554">
        <ele>798</ele>
        <time>2018-05-19T12:44:24Z</time>
      </trkpt>
      <trkpt lat="45.84698" lon="2.8656">
        <ele>798</ele>
        <time>2018-05-19T12:44:26Z</time>
      </trkpt>
      <trkpt lat="45.84702" lon="2.86568">
        <ele>799</ele>
        <time>2018-05-19T12:44:30Z</time>
      </trkpt>
      <trkpt lat="45.84707" lon="2.86576">
        <ele>800</ele>
        <time>2018-05-19T12:44:34Z</time>
      </trkpt>
      <trkpt lat="45.84711" lon="2.86586">
        <ele>798</ele>
        <time>2018-05-19T12:44:38Z</time>
      </trkpt>
      <trkpt lat="45.84716" lon="2.86594">
        <ele>799</ele>
        <time>2018-05-19T12:44:42Z</time>
      </trkpt>
      <trkpt lat="45.84719" lon="2.86604">
        <ele>800</ele>
        <time>2018-05-19T12:44:46Z</time>
      </trkpt>
      <trkpt lat="45.84722" lon="2.86616">
        <ele>800</ele>
        <time>2018-05-19T12:44:50Z</time>
      </trkpt>
      <trkpt lat="45.84725" lon="2.86622">
        <ele>800</ele>
        <time>2018-05-19T12:44:52Z</time>
      </trkpt>
      <trkpt lat="45.84727" lon="2.86628">
        <ele>800</ele>
        <time>2018-05-19T12:44:54Z</time>
      </trkpt>
      <trkpt lat="45.84729" lon="2.86634">
        <ele>801</ele>
        <time>2018-05-19T12:44:56Z</time>
      </trkpt>
      <trkpt lat="45.84732" lon="2.8664">
        <ele>800</ele>
        <time>2018-05-19T12:44:58Z</time>
      </trkpt>
      <trkpt lat="45.84735" lon="2.86647">
        <ele>800</ele>
        <time>2018-05-19T12:45:00Z</time>
      </trkpt>
      <trkpt lat="45.84737" lon="2.86653">
        <ele>800</ele>
        <time>2018-05-19T12:45:02Z</time>
      </trkpt>
      <trkpt lat="45.8474" lon="2.86664">
        <ele>800</ele>
        <time>2018-05-19T12:45:06Z</time>
      </trkpt>
      <trkpt lat="45.84742" lon="2.86674">
        <ele>801</ele>
        <time>2018-05-19T12:45:10Z</time>
      </trkpt>
      <trkpt lat="45.84744" lon="2.86683">
        <ele>803</ele>
        <time>2018-05-19T12:45:14Z</time>
      </trkpt>
      <trkpt lat="45.84744" lon="2.86693">
        <ele>803</ele>
        <time>2018-05-19T12:45:18Z</time>
      </trkpt>
      <trkpt lat="45.8475" lon="2.86702">
        <ele>807</ele>
        <time>2018-05-19T12:45:22Z</time>
      </trkpt>
      <trkpt lat="45.84755" lon="2.86712">
        <ele>809</ele>
        <time>2018-05-19T12:45:26Z</time>
      </trkpt>
      <trkpt lat="45.8476" lon="2.86722">
        <ele>812</ele>
        <time>2018-05-19T12:45:30Z</time>
      </trkpt>
      <trkpt lat="45.84763" lon="2.86732">
        <ele>812</ele>
        <time>2018-05-19T12:45:34Z</time>
      </trkpt>
      <trkpt lat="45.84766" lon="2.86743">
        <ele>812</ele>
        <time>2018-05-19T12:45:38Z</time>
      </trkpt>
      <trkpt lat="45.8477" lon="2.86752">
        <ele>812</ele>
        <time>2018-05-19T12:45:42Z</time>
      </trkpt>
      <trkpt lat="45.84775" lon="2.86761">
        <ele>813</ele>
        <time>2018-05-19T12:45:46Z</time>
      </trkpt>
      <trkpt lat="45.84779" lon="2.86771">
        <ele>814</ele>
        <time>2018-05-19T12:45:50Z</time>
      </trkpt>
      <trkpt lat="45.84782" lon="2.86783">
        <ele>813</ele>
        <time>2018-05-19T12:45:54Z</time>
      </trkpt>
      <trkpt lat="45.84784" lon="2.86789">
        <ele>813</ele>
        <time>2018-05-19T12:45:56Z</time>
      </trkpt>
      <trkpt lat="45.84786" lon="2.86795">
        <ele>812</ele>
        <time>2018-05-19T12:45:58Z</time>
      </trkpt>
      <trkpt lat="45.84789" lon="2.86801">
        <ele>812</ele>
        <time>2018-05-19T12:46:00Z</time>
      </trkpt>
      <trkpt lat="45.84791" lon="2.86808">
        <ele>811</ele>
        <time>2018-05-19T12:46:02Z</time>
      </trkpt>
      <trkpt lat="45.84794" lon="2.86816">
        <ele>811</ele>
        <time>2018-05-19T12:46:04Z</time>
      </trkpt>
      <trkpt lat="45.84797" lon="2.86823">
        <ele>811</ele>
        <time>2018-05-19T12:46:06Z</time>
      </trkpt>
      <trkpt lat="45.848" lon="2.86831">
        <ele>811</ele>
        <time>2018-05-19T12:46:08Z</time>
      </trkpt>
      <trkpt lat="45.84803" lon="2.86839">
        <ele>810</ele>
        <time>2018-05-19T12:46:10Z</time>
      </trkpt>
      <trkpt lat="45.84806" lon="2.86847">
        <ele>810</ele>
        <time>2018-05-19T12:46:12Z</time>
      </trkpt>
      <trkpt lat="45.84809" lon="2.86855">
        <ele>810</ele>
        <time>2018-05-19T12:46:14Z</time>
      </trkpt>
      <trkpt lat="45.84813" lon="2.86863">
        <ele>810</ele>
        <time>2018-05-19T12:46:16Z</time>
      </trkpt>
      <trkpt lat="45.84816" lon="2.86871">
        <ele>810</ele>
        <time>2018-05-19T12:46:18Z</time>
      </trkpt>
      <trkpt lat="45.84819" lon="2.86879">
        <ele>810</ele>
        <time>2018-05-19T12:46:20Z</time>
      </trkpt>
      <trkpt lat="45.84822" lon="2.86886">
        <ele>809</ele>
        <time>2018-05-19T12:46:22Z</time>
      </trkpt>
      <trkpt lat="45.84826" lon="2.86893">
        <ele>809</ele>
        <time>2018-05-19T12:46:24Z</time>
      </trkpt>
      <trkpt lat="45.84829" lon="2.86901">
        <ele>810</ele>
        <time>2018-05-19T12:46:26Z</time>
      </trkpt>
      <trkpt lat="45.84832" lon="2.86909">
        <ele>810</ele>
        <time>2018-05-19T12:46:28Z</time>
      </trkpt>
      <trkpt lat="45.84836" lon="2.86917">
        <ele>810</ele>
        <time>2018-05-19T12:46:30Z</time>
      </trkpt>
      <trkpt lat="45.84839" lon="2.86926">
        <ele>810</ele>
        <time>2018-05-19T12:46:32Z</time>
      </trkpt>
      <trkpt lat="45.84842" lon="2.86933">
        <ele>811</ele>
        <time>2018-05-19T12:46:34Z</time>
      </trkpt>
      <trkpt lat="45.84847" lon="2.86941">
        <ele>811</ele>
        <time>2018-05-19T12:46:36Z</time>
      </trkpt>
      <trkpt lat="45.8485" lon="2.86948">
        <ele>811</ele>
        <time>2018-05-19T12:46:38Z</time>
      </trkpt>
      <trkpt lat="45.84852" lon="2.86956">
        <ele>812</ele>
        <time>2018-05-19T12:46:40Z</time>
      </trkpt>
      <trkpt lat="45.84855" lon="2.86964">
        <ele>813</ele>
        <time>2018-05-19T12:46:42Z</time>
      </trkpt>
      <trkpt lat="45.84859" lon="2.86971">
        <ele>813</ele>
        <time>2018-05-19T12:46:44Z</time>
      </trkpt>
      <trkpt lat="45.84862" lon="2.86979">
        <ele>811</ele>
        <time>2018-05-19T12:46:46Z</time>
      </trkpt>
      <trkpt lat="45.84865" lon="2.86985">
        <ele>811</ele>
        <time>2018-05-19T12:46:48Z</time>
      </trkpt>
      <trkpt lat="45.84868" lon="2.86993">
        <ele>811</ele>
        <time>2018-05-19T12:46:50Z</time>
      </trkpt>
      <trkpt lat="45.84872" lon="2.87001">
        <ele>812</ele>
        <time>2018-05-19T12:46:52Z</time>
      </trkpt>
      <trkpt lat="45.84874" lon="2.87009">
        <ele>812</ele>
        <time>2018-05-19T12:46:54Z</time>
      </trkpt>
      <trkpt lat="45.84877" lon="2.87017">
        <ele>812</ele>
        <time>2018-05-19T12:46:56Z</time>
      </trkpt>
      <trkpt lat="45.84879" lon="2.87026">
        <ele>812</ele>
        <time>2018-05-19T12:46:58Z</time>
      </trkpt>
      <trkpt lat="45.84882" lon="2.87034">
        <ele>811</ele>
        <time>2018-05-19T12:47:00Z</time>
      </trkpt>
      <trkpt lat="45.84883" lon="2.87043">
        <ele>811</ele>
        <time>2018-05-19T12:47:02Z</time>
      </trkpt>
      <trkpt lat="45.84886" lon="2.87053">
        <ele>811</ele>
        <time>2018-05-19T12:47:04Z</time>
      </trkpt>
      <trkpt lat="45.84888" lon="2.87062">
        <ele>810</ele>
        <time>2018-05-19T12:47:06Z</time>
      </trkpt>
      <trkpt lat="45.8489" lon="2.87073">
        <ele>810</ele>
        <time>2018-05-19T12:47:08Z</time>
      </trkpt>
      <trkpt lat="45.84891" lon="2.87082">
        <ele>812</ele>
        <time>2018-05-19T12:47:10Z</time>
      </trkpt>
      <trkpt lat="45.84892" lon="2.8709">
        <ele>812</ele>
        <time>2018-05-19T12:47:12Z</time>
      </trkpt>
      <trkpt lat="45.84892" lon="2.871">
        <ele>812</ele>
        <time>2018-05-19T12:47:14Z</time>
      </trkpt>
      <trkpt lat="45.84892" lon="2.87109">
        <ele>813</ele>
        <time>2018-05-19T12:47:16Z</time>
      </trkpt>
      <trkpt lat="45.84892" lon="2.87117">
        <ele>813</ele>
        <time>2018-05-19T12:47:18Z</time>
      </trkpt>
      <trkpt lat="45.84891" lon="2.87126">
        <ele>812</ele>
        <time>2018-05-19T12:47:20Z</time>
      </trkpt>
      <trkpt lat="45.8489" lon="2.87136">
        <ele>813</ele>
        <time>2018-05-19T12:47:22Z</time>
      </trkpt>
      <trkpt lat="45.84893" lon="2.87146">
        <ele>813</ele>
        <time>2018-05-19T12:47:24Z</time>
      </trkpt>
      <trkpt lat="45.84893" lon="2.87159">
        <ele>813</ele>
        <time>2018-05-19T12:47:26Z</time>
      </trkpt>
      <trkpt lat="45.84894" lon="2.87175">
        <ele>812</ele>
        <time>2018-05-19T12:47:28Z</time>
      </trkpt>
      <trkpt lat="45.84899" lon="2.8719">
        <ele>812</ele>
        <time>2018-05-19T12:47:30Z</time>
      </trkpt>
      <trkpt lat="45.84901" lon="2.87208">
        <ele>809</ele>
        <time>2018-05-19T12:47:32Z</time>
      </trkpt>
      <trkpt lat="45.84905" lon="2.87225">
        <ele>810</ele>
        <time>2018-05-19T12:47:34Z</time>
      </trkpt>
      <trkpt lat="45.84907" lon="2.8724">
        <ele>808</ele>
        <time>2018-05-19T12:47:36Z</time>
      </trkpt>
      <trkpt lat="45.84914" lon="2.87252">
        <ele>809</ele>
        <time>2018-05-19T12:47:38Z</time>
      </trkpt>
      <trkpt lat="45.84918" lon="2.87265">
        <ele>808</ele>
        <time>2018-05-19T12:47:40Z</time>
      </trkpt>
      <trkpt lat="45.84922" lon="2.87277">
        <ele>809</ele>
        <time>2018-05-19T12:47:42Z</time>
      </trkpt>
      <trkpt lat="45.84927" lon="2.87287">
        <ele>809</ele>
        <time>2018-05-19T12:47:44Z</time>
      </trkpt>
      <trkpt lat="45.84932" lon="2.87297">
        <ele>809</ele>
        <time>2018-05-19T12:47:46Z</time>
      </trkpt>
      <trkpt lat="45.84936" lon="2.87306">
        <ele>809</ele>
        <time>2018-05-19T12:47:48Z</time>
      </trkpt>
      <trkpt lat="45.8494" lon="2.87315">
        <ele>809</ele>
        <time>2018-05-19T12:47:50Z</time>
      </trkpt>
      <trkpt lat="45.84944" lon="2.87324">
        <ele>810</ele>
        <time>2018-05-19T12:47:52Z</time>
      </trkpt>
      <trkpt lat="45.84948" lon="2.87332">
        <ele>810</ele>
        <time>2018-05-19T12:47:54Z</time>
      </trkpt>
      <trkpt lat="45.84952" lon="2.8734">
        <ele>810</ele>
        <time>2018-05-19T12:47:56Z</time>
      </trkpt>
      <trkpt lat="45.84957" lon="2.87348">
        <ele>810</ele>
        <time>2018-05-19T12:47:58Z</time>
      </trkpt>
      <trkpt lat="45.84961" lon="2.87356">
        <ele>810</ele>
        <time>2018-05-19T12:48:00Z</time>
      </trkpt>
      <trkpt lat="45.84965" lon="2.87365">
        <ele>810</ele>
        <time>2018-05-19T12:48:02Z</time>
      </trkpt>
      <trkpt lat="45.8497" lon="2.87374">
        <ele>810</ele>
        <time>2018-05-19T12:48:04Z</time>
      </trkpt>
      <trkpt lat="45.84975" lon="2.87384">
        <ele>810</ele>
        <time>2018-05-19T12:48:06Z</time>
      </trkpt>
      <trkpt lat="45.8498" lon="2.87395">
        <ele>811</ele>
        <time>2018-05-19T12:48:08Z</time>
      </trkpt>
      <trkpt lat="45.84986" lon="2.87408">
        <ele>809</ele>
        <time>2018-05-19T12:48:10Z</time>
      </trkpt>
      <trkpt lat="45.84993" lon="2.87421">
        <ele>809</ele>
        <time>2018-05-19T12:48:12Z</time>
      </trkpt>
      <trkpt lat="45.85" lon="2.87435">
        <ele>808</ele>
        <time>2018-05-19T12:48:14Z</time>
      </trkpt>
      <trkpt lat="45.85007" lon="2.87449">
        <ele>807</ele>
        <time>2018-05-19T12:48:16Z</time>
      </trkpt>
      <trkpt lat="45.85013" lon="2.87463">
        <ele>806</ele>
        <time>2018-05-19T12:48:18Z</time>
      </trkpt>
      <trkpt lat="45.85019" lon="2.87479">
        <ele>806</ele>
        <time>2018-05-19T12:48:20Z</time>
      </trkpt>
      <trkpt lat="45.85024" lon="2.87494">
        <ele>806</ele>
        <time>2018-05-19T12:48:22Z</time>
      </trkpt>
      <trkpt lat="45.85028" lon="2.87511">
        <ele>805</ele>
        <time>2018-05-19T12:48:24Z</time>
      </trkpt>
      <trkpt lat="45.85032" lon="2.87529">
        <ele>804</ele>
        <time>2018-05-19T12:48:26Z</time>
      </trkpt>
      <trkpt lat="45.85035" lon="2.87548">
        <ele>804</ele>
        <time>2018-05-19T12:48:28Z</time>
      </trkpt>
      <trkpt lat="45.85037" lon="2.87567">
        <ele>803</ele>
        <time>2018-05-19T12:48:30Z</time>
      </trkpt>
      <trkpt lat="45.85039" lon="2.87586">
        <ele>802</ele>
        <time>2018-05-19T12:48:32Z</time>
      </trkpt>
      <trkpt lat="45.8504" lon="2.87604">
        <ele>802</ele>
        <time>2018-05-19T12:48:34Z</time>
      </trkpt>
      <trkpt lat="45.85041" lon="2.87623">
        <ele>802</ele>
        <time>2018-05-19T12:48:36Z</time>
      </trkpt>
      <trkpt lat="45.85044" lon="2.87641">
        <ele>801</ele>
        <time>2018-05-19T12:48:38Z</time>
      </trkpt>
      <trkpt lat="45.85047" lon="2.87659">
        <ele>800</ele>
        <time>2018-05-19T12:48:40Z</time>
      </trkpt>
      <trkpt lat="45.85049" lon="2.87678">
        <ele>800</ele>
        <time>2018-05-19T12:48:42Z</time>
      </trkpt>
      <trkpt lat="45.85051" lon="2.87696">
        <ele>800</ele>
        <time>2018-05-19T12:48:44Z</time>
      </trkpt>
      <trkpt lat="45.85054" lon="2.87714">
        <ele>799</ele>
        <time>2018-05-19T12:48:46Z</time>
      </trkpt>
      <trkpt lat="45.85056" lon="2.87732">
        <ele>799</ele>
        <time>2018-05-19T12:48:48Z</time>
      </trkpt>
      <trkpt lat="45.85056" lon="2.87751">
        <ele>797</ele>
        <time>2018-05-19T12:48:50Z</time>
      </trkpt>
      <trkpt lat="45.85054" lon="2.87772">
        <ele>797</ele>
        <time>2018-05-19T12:48:52Z</time>
      </trkpt>
      <trkpt lat="45.85052" lon="2.8779">
        <ele>795</ele>
        <time>2018-05-19T12:48:54Z</time>
      </trkpt>
      <trkpt lat="45.85049" lon="2.87808">
        <ele>794</ele>
        <time>2018-05-19T12:48:56Z</time>
      </trkpt>
      <trkpt lat="45.85049" lon="2.87824">
        <ele>793</ele>
        <time>2018-05-19T12:48:58Z</time>
      </trkpt>
      <trkpt lat="45.85049" lon="2.87839">
        <ele>792</ele>
        <time>2018-05-19T12:49:00Z</time>
      </trkpt>
      <trkpt lat="45.85045" lon="2.87853">
        <ele>790</ele>
        <time>2018-05-19T12:49:02Z</time>
      </trkpt>
      <trkpt lat="45.85039" lon="2.87861">
        <ele>789</ele>
        <time>2018-05-19T12:49:04Z</time>
      </trkpt>
      <trkpt lat="45.85032" lon="2.87867">
        <ele>789</ele>
        <time>2018-05-19T12:49:06Z</time>
      </trkpt>
      <trkpt lat="45.85027" lon="2.87878">
        <ele>789</ele>
        <time>2018-05-19T12:49:08Z</time>
      </trkpt>
      <trkpt lat="45.85027" lon="2.87891">
        <ele>788</ele>
        <time>2018-05-19T12:49:10Z</time>
      </trkpt>
      <trkpt lat="45.85035" lon="2.87901">
        <ele>788</ele>
        <time>2018-05-19T12:49:12Z</time>
      </trkpt>
      <trkpt lat="45.85044" lon="2.87908">
        <ele>787</ele>
        <time>2018-05-19T12:49:14Z</time>
      </trkpt>
      <trkpt lat="45.85055" lon="2.87915">
        <ele>787</ele>
        <time>2018-05-19T12:49:16Z</time>
      </trkpt>
      <trkpt lat="45.85066" lon="2.87921">
        <ele>785</ele>
        <time>2018-05-19T12:49:18Z</time>
      </trkpt>
      <trkpt lat="45.85072" lon="2.87925">
        <ele>785</ele>
        <time>2018-05-19T12:49:20Z</time>
      </trkpt>
      <trkpt lat="45.85074" lon="2.87931">
        <ele>784</ele>
        <time>2018-05-19T12:49:24Z</time>
      </trkpt>
      <trkpt lat="45.85077" lon="2.87937">
        <ele>783</ele>
        <time>2018-05-19T12:49:28Z</time>
      </trkpt>
      <trkpt lat="45.85079" lon="2.87948">
        <ele>786</ele>
        <time>2018-05-19T12:49:32Z</time>
      </trkpt>
      <trkpt lat="45.8508" lon="2.87955">
        <ele>786</ele>
        <time>2018-05-19T12:49:34Z</time>
      </trkpt>
      <trkpt lat="45.85079" lon="2.87962">
        <ele>786</ele>
        <time>2018-05-19T12:49:36Z</time>
      </trkpt>
      <trkpt lat="45.85077" lon="2.87971">
        <ele>786</ele>
        <time>2018-05-19T12:49:40Z</time>
      </trkpt>
      <trkpt lat="45.85072" lon="2.87978">
        <ele>787</ele>
        <time>2018-05-19T12:49:46Z</time>
      </trkpt>
      <trkpt lat="45.85066" lon="2.87983">
        <ele>791</ele>
        <time>2018-05-19T12:49:52Z</time>
      </trkpt>
      <trkpt lat="45.85057" lon="2.87986">
        <ele>790</ele>
        <time>2018-05-19T12:49:58Z</time>
      </trkpt>
      <trkpt lat="45.85048" lon="2.87991">
        <ele>788</ele>
        <time>2018-05-19T12:50:02Z</time>
      </trkpt>
      <trkpt lat="45.85042" lon="2.87994">
        <ele>788</ele>
        <time>2018-05-19T12:50:06Z</time>
      </trkpt>
      <trkpt lat="45.85037" lon="2.87997">
        <ele>787</ele>
        <time>2018-05-19T12:50:10Z</time>
      </trkpt>
      <trkpt lat="45.85032" lon="2.88002">
        <ele>787</ele>
        <time>2018-05-19T12:50:14Z</time>
      </trkpt>
      <trkpt lat="45.85026" lon="2.88005">
        <ele>786</ele>
        <time>2018-05-19T12:50:18Z</time>
      </trkpt>
      <trkpt lat="45.85021" lon="2.88008">
        <ele>788</ele>
        <time>2018-05-19T12:50:22Z</time>
      </trkpt>
      <trkpt lat="45.85016" lon="2.88014">
        <ele>787</ele>
        <time>2018-05-19T12:50:26Z</time>
      </trkpt>
      <trkpt lat="45.8501" lon="2.88019">
        <ele>790</ele>
        <time>2018-05-19T12:50:30Z</time>
      </trkpt>
      <trkpt lat="45.85005" lon="2.88023">
        <ele>791</ele>
        <time>2018-05-19T12:50:34Z</time>
      </trkpt>
      <trkpt lat="45.85002" lon="2.88031">
        <ele>792</ele>
        <time>2018-05-19T12:50:38Z</time>
      </trkpt>
      <trkpt lat="45.84999" lon="2.88037">
        <ele>794</ele>
        <time>2018-05-19T12:50:42Z</time>
      </trkpt>
      <trkpt lat="45.84997" lon="2.88045">
        <ele>795</ele>
        <time>2018-05-19T12:50:46Z</time>
      </trkpt>
      <trkpt lat="45.84994" lon="2.88051">
        <ele>797</ele>
        <time>2018-05-19T12:50:50Z</time>
      </trkpt>
      <trkpt lat="45.84991" lon="2.88056">
        <ele>800</ele>
        <time>2018-05-19T12:50:54Z</time>
      </trkpt>
      <trkpt lat="45.84988" lon="2.88063">
        <ele>801</ele>
        <time>2018-05-19T12:50:58Z</time>
      </trkpt>
      <trkpt lat="45.84986" lon="2.8807">
        <ele>802</ele>
        <time>2018-05-19T12:51:02Z</time>
      </trkpt>
      <trkpt lat="45.84984" lon="2.88077">
        <ele>802</ele>
        <time>2018-05-19T12:51:06Z</time>
      </trkpt>
      <trkpt lat="45.84984" lon="2.88086">
        <ele>803</ele>
        <time>2018-05-19T12:51:10Z</time>
      </trkpt>
      <trkpt lat="45.84983" lon="2.88093">
        <ele>804</ele>
        <time>2018-05-19T12:51:14Z</time>
      </trkpt>
      <trkpt lat="45.84983" lon="2.88102">
        <ele>804</ele>
        <time>2018-05-19T12:51:18Z</time>
      </trkpt>
      <trkpt lat="45.84983" lon="2.88109">
        <ele>805</ele>
        <time>2018-05-19T12:51:22Z</time>
      </trkpt>
      <trkpt lat="45.84983" lon="2.88115">
        <ele>807</ele>
        <time>2018-05-19T12:51:26Z</time>
      </trkpt>
      <trkpt lat="45.84986" lon="2.88122">
        <ele>808</ele>
        <time>2018-05-19T12:51:30Z</time>
      </trkpt>
      <trkpt lat="45.84988" lon="2.8813">
        <ele>808</ele>
        <time>2018-05-19T12:51:34Z</time>
      </trkpt>
      <trkpt lat="45.84989" lon="2.88139">
        <ele>808</ele>
        <time>2018-05-19T12:51:38Z</time>
      </trkpt>
      <trkpt lat="45.8499" lon="2.88149">
        <ele>808</ele>
        <time>2018-05-19T12:51:42Z</time>
      </trkpt>
      <trkpt lat="45.84991" lon="2.88159">
        <ele>808</ele>
        <time>2018-05-19T12:51:46Z</time>
      </trkpt>
      <trkpt lat="45.84994" lon="2.88169">
        <ele>808</ele>
        <time>2018-05-19T12:51:50Z</time>
      </trkpt>
      <trkpt lat="45.84996" lon="2.88179">
        <ele>808</ele>
        <time>2018-05-19T12:51:54Z</time>
      </trkpt>
      <trkpt lat="45.84998" lon="2.88189">
        <ele>809</ele>
        <time>2018-05-19T12:51:58Z</time>
      </trkpt>
      <trkpt lat="45.85" lon="2.88197">
        <ele>809</ele>
        <time>2018-05-19T12:52:02Z</time>
      </trkpt>
      <trkpt lat="45.85001" lon="2.88205">
        <ele>810</ele>
        <time>2018-05-19T12:52:06Z</time>
      </trkpt>
      <trkpt lat="45.85003" lon="2.88215">
        <ele>810</ele>
        <time>2018-05-19T12:52:10Z</time>
      </trkpt>
      <trkpt lat="45.85004" lon="2.88224">
        <ele>810</ele>
        <time>2018-05-19T12:52:14Z</time>
      </trkpt>
      <trkpt lat="45.85005" lon="2.88233">
        <ele>810</ele>
        <time>2018-05-19T12:52:18Z</time>
      </trkpt>
      <trkpt lat="45.85006" lon="2.88241">
        <ele>810</ele>
        <time>2018-05-19T12:52:22Z</time>
      </trkpt>
      <trkpt lat="45.85008" lon="2.88248">
        <ele>811</ele>
        <time>2018-05-19T12:52:26Z</time>
      </trkpt>
      <trkpt lat="45.8501" lon="2.88257">
        <ele>812</ele>
        <time>2018-05-19T12:52:30Z</time>
      </trkpt>
      <trkpt lat="45.85012" lon="2.88266">
        <ele>812</ele>
        <time>2018-05-19T12:52:34Z</time>
      </trkpt>
      <trkpt lat="45.85012" lon="2.88277">
        <ele>813</ele>
        <time>2018-05-19T12:52:38Z</time>
      </trkpt>
      <trkpt lat="45.85011" lon="2.88288">
        <ele>815</ele>
        <time>2018-05-19T12:52:42Z</time>
      </trkpt>
      <trkpt lat="45.85009" lon="2.88299">
        <ele>817</ele>
        <time>2018-05-19T12:52:46Z</time>
      </trkpt>
      <trkpt lat="45.85008" lon="2.88311">
        <ele>819</ele>
        <time>2018-05-19T12:52:50Z</time>
      </trkpt>
      <trkpt lat="45.85007" lon="2.88326">
        <ele>820</ele>
        <time>2018-05-19T12:52:55Z</time>
      </trkpt>
      <trkpt lat="45.85006" lon="2.88332">
        <ele>820</ele>
        <time>2018-05-19T12:52:57Z</time>
      </trkpt>
      <trkpt lat="45.85005" lon="2.88339">
        <ele>821</ele>
        <time>2018-05-19T12:52:59Z</time>
      </trkpt>
      <trkpt lat="45.85004" lon="2.88351">
        <ele>821</ele>
        <time>2018-05-19T12:53:03Z</time>
      </trkpt>
      <trkpt lat="45.85002" lon="2.88362">
        <ele>822</ele>
        <time>2018-05-19T12:53:07Z</time>
      </trkpt>
      <trkpt lat="45.85" lon="2.88373">
        <ele>824</ele>
        <time>2018-05-19T12:53:11Z</time>
      </trkpt>
      <trkpt lat="45.84999" lon="2.88384">
        <ele>824</ele>
        <time>2018-05-19T12:53:15Z</time>
      </trkpt>
      <trkpt lat="45.84998" lon="2.88395">
        <ele>825</ele>
        <time>2018-05-19T12:53:19Z</time>
      </trkpt>
      <trkpt lat="45.84997" lon="2.88407">
        <ele>825</ele>
        <time>2018-05-19T12:53:23Z</time>
      </trkpt>
      <trkpt lat="45.84995" lon="2.88418">
        <ele>825</ele>
        <time>2018-05-19T12:53:27Z</time>
      </trkpt>
      <trkpt lat="45.84993" lon="2.8843">
        <ele>826</ele>
        <time>2018-05-19T12:53:31Z</time>
      </trkpt>
      <trkpt lat="45.84992" lon="2.88436">
        <ele>826</ele>
        <time>2018-05-19T12:53:33Z</time>
      </trkpt>
      <trkpt lat="45.84991" lon="2.88443">
        <ele>826</ele>
        <time>2018-05-19T12:53:35Z</time>
      </trkpt>
      <trkpt lat="45.84988" lon="2.88454">
        <ele>827</ele>
        <time>2018-05-19T12:53:39Z</time>
      </trkpt>
      <trkpt lat="45.84987" lon="2.88461">
        <ele>827</ele>
        <time>2018-05-19T12:53:41Z</time>
      </trkpt>
      <trkpt lat="45.84985" lon="2.88472">
        <ele>828</ele>
        <time>2018-05-19T12:53:45Z</time>
      </trkpt>
      <trkpt lat="45.84983" lon="2.88484">
        <ele>828</ele>
        <time>2018-05-19T12:53:49Z</time>
      </trkpt>
      <trkpt lat="45.84982" lon="2.8849">
        <ele>829</ele>
        <time>2018-05-19T12:53:51Z</time>
      </trkpt>
      <trkpt lat="45.84981" lon="2.88496">
        <ele>829</ele>
        <time>2018-05-19T12:53:53Z</time>
      </trkpt>
      <trkpt lat="45.84978" lon="2.88506">
        <ele>831</ele>
        <time>2018-05-19T12:53:57Z</time>
      </trkpt>
      <trkpt lat="45.84976" lon="2.88512">
        <ele>831</ele>
        <time>2018-05-19T12:53:59Z</time>
      </trkpt>
      <trkpt lat="45.84972" lon="2.88523">
        <ele>832</ele>
        <time>2018-05-19T12:54:03Z</time>
      </trkpt>
      <trkpt lat="45.84968" lon="2.88531">
        <ele>832</ele>
        <time>2018-05-19T12:54:05Z</time>
      </trkpt>
      <trkpt lat="45.84965" lon="2.88539">
        <ele>833</ele>
        <time>2018-05-19T12:54:07Z</time>
      </trkpt>
      <trkpt lat="45.84962" lon="2.88546">
        <ele>834</ele>
        <time>2018-05-19T12:54:09Z</time>
      </trkpt>
      <trkpt lat="45.8496" lon="2.88553">
        <ele>834</ele>
        <time>2018-05-19T12:54:11Z</time>
      </trkpt>
      <trkpt lat="45.84958" lon="2.88559">
        <ele>835</ele>
        <time>2018-05-19T12:54:13Z</time>
      </trkpt>
      <trkpt lat="45.84957" lon="2.88566">
        <ele>836</ele>
        <time>2018-05-19T12:54:15Z</time>
      </trkpt>
      <trkpt lat="45.84956" lon="2.88577">
        <ele>836</ele>
        <time>2018-05-19T12:54:19Z</time>
      </trkpt>
      <trkpt lat="45.84954" lon="2.88589">
        <ele>837</ele>
        <time>2018-05-19T12:54:23Z</time>
      </trkpt>
      <trkpt lat="45.84953" lon="2.88596">
        <ele>837</ele>
        <time>2018-05-19T12:54:25Z</time>
      </trkpt>
      <trkpt lat="45.84952" lon="2.88602">
        <ele>837</ele>
        <time>2018-05-19T12:54:27Z</time>
      </trkpt>
      <trkpt lat="45.8495" lon="2.88609">
        <ele>837</ele>
        <time>2018-05-19T12:54:29Z</time>
      </trkpt>
      <trkpt lat="45.8495" lon="2.88616">
        <ele>837</ele>
        <time>2018-05-19T12:54:31Z</time>
      </trkpt>
      <trkpt lat="45.8495" lon="2.88623">
        <ele>838</ele>
        <time>2018-05-19T12:54:33Z</time>
      </trkpt>
      <trkpt lat="45.8495" lon="2.8863">
        <ele>837</ele>
        <time>2018-05-19T12:54:35Z</time>
      </trkpt>
      <trkpt lat="45.84949" lon="2.88636">
        <ele>838</ele>
        <time>2018-05-19T12:54:37Z</time>
      </trkpt>
      <trkpt lat="45.84948" lon="2.88649">
        <ele>838</ele>
        <time>2018-05-19T12:54:41Z</time>
      </trkpt>
      <trkpt lat="45.84948" lon="2.88656">
        <ele>838</ele>
        <time>2018-05-19T12:54:43Z</time>
      </trkpt>
      <trkpt lat="45.84948" lon="2.88664">
        <ele>838</ele>
        <time>2018-05-19T12:54:45Z</time>
      </trkpt>
      <trkpt lat="45.84947" lon="2.8867">
        <ele>839</ele>
        <time>2018-05-19T12:54:47Z</time>
      </trkpt>
      <trkpt lat="45.84947" lon="2.88683">
        <ele>842</ele>
        <time>2018-05-19T12:54:51Z</time>
      </trkpt>
      <trkpt lat="45.84946" lon="2.88696">
        <ele>845</ele>
        <time>2018-05-19T12:54:55Z</time>
      </trkpt>
      <trkpt lat="45.84946" lon="2.88703">
        <ele>845</ele>
        <time>2018-05-19T12:54:57Z</time>
      </trkpt>
      <trkpt lat="45.84945" lon="2.8871">
        <ele>845</ele>
        <time>2018-05-19T12:54:59Z</time>
      </trkpt>
      <trkpt lat="45.84945" lon="2.88717">
        <ele>846</ele>
        <time>2018-05-19T12:55:01Z</time>
      </trkpt>
      <trkpt lat="45.84944" lon="2.88723">
        <ele>845</ele>
        <time>2018-05-19T12:55:03Z</time>
      </trkpt>
      <trkpt lat="45.84944" lon="2.8873">
        <ele>845</ele>
        <time>2018-05-19T12:55:05Z</time>
      </trkpt>
      <trkpt lat="45.84946" lon="2.88737">
        <ele>844</ele>
        <time>2018-05-19T12:55:07Z</time>
      </trkpt>
      <trkpt lat="45.84947" lon="2.88743">
        <ele>844</ele>
        <time>2018-05-19T12:55:09Z</time>
      </trkpt>
      <trkpt lat="45.8495" lon="2.88751">
        <ele>844</ele>
        <time>2018-05-19T12:55:11Z</time>
      </trkpt>
      <trkpt lat="45.84952" lon="2.88757">
        <ele>844</ele>
        <time>2018-05-19T12:55:13Z</time>
      </trkpt>
      <trkpt lat="45.84956" lon="2.88769">
        <ele>847</ele>
        <time>2018-05-19T12:55:17Z</time>
      </trkpt>
      <trkpt lat="45.8496" lon="2.88781">
        <ele>846</ele>
        <time>2018-05-19T12:55:21Z</time>
      </trkpt>
      <trkpt lat="45.8496" lon="2.88788">
        <ele>846</ele>
        <time>2018-05-19T12:55:23Z</time>
      </trkpt>
      <trkpt lat="45.84961" lon="2.88801">
        <ele>846</ele>
        <time>2018-05-19T12:55:27Z</time>
      </trkpt>
      <trkpt lat="45.84963" lon="2.88808">
        <ele>845</ele>
        <time>2018-05-19T12:55:29Z</time>
      </trkpt>
      <trkpt lat="45.84962" lon="2.88815">
        <ele>846</ele>
        <time>2018-05-19T12:55:31Z</time>
      </trkpt>
      <trkpt lat="45.84961" lon="2.88826">
        <ele>847</ele>
        <time>2018-05-19T12:55:35Z</time>
      </trkpt>
      <trkpt lat="45.84961" lon="2.88838">
        <ele>848</ele>
        <time>2018-05-19T12:55:39Z</time>
      </trkpt>
      <trkpt lat="45.84959" lon="2.88849">
        <ele>848</ele>
        <time>2018-05-19T12:55:43Z</time>
      </trkpt>
      <trkpt lat="45.84958" lon="2.8886">
        <ele>849</ele>
        <time>2018-05-19T12:55:47Z</time>
      </trkpt>
      <trkpt lat="45.84955" lon="2.88872">
        <ele>848</ele>
        <time>2018-05-19T12:55:51Z</time>
      </trkpt>
      <trkpt lat="45.84951" lon="2.88883">
        <ele>848</ele>
        <time>2018-05-19T12:55:55Z</time>
      </trkpt>
      <trkpt lat="45.84949" lon="2.88892">
        <ele>847</ele>
        <time>2018-05-19T12:55:59Z</time>
      </trkpt>
      <trkpt lat="45.84948" lon="2.889">
        <ele>847</ele>
        <time>2018-05-19T12:56:03Z</time>
      </trkpt>
      <trkpt lat="45.84946" lon="2.88909">
        <ele>849</ele>
        <time>2018-05-19T12:56:07Z</time>
      </trkpt>
      <trkpt lat="45.84944" lon="2.88919">
        <ele>850</ele>
        <time>2018-05-19T12:56:11Z</time>
      </trkpt>
      <trkpt lat="45.84941" lon="2.88927">
        <ele>851</ele>
        <time>2018-05-19T12:56:15Z</time>
      </trkpt>
      <trkpt lat="45.84936" lon="2.88934">
        <ele>852</ele>
        <time>2018-05-19T12:56:19Z</time>
      </trkpt>
      <trkpt lat="45.84932" lon="2.88944">
        <ele>852</ele>
        <time>2018-05-19T12:56:23Z</time>
      </trkpt>
      <trkpt lat="45.84928" lon="2.88952">
        <ele>854</ele>
        <time>2018-05-19T12:56:27Z</time>
      </trkpt>
      <trkpt lat="45.84923" lon="2.8896">
        <ele>854</ele>
        <time>2018-05-19T12:56:31Z</time>
      </trkpt>
      <trkpt lat="45.84919" lon="2.88967">
        <ele>855</ele>
        <time>2018-05-19T12:56:35Z</time>
      </trkpt>
      <trkpt lat="45.84914" lon="2.88975">
        <ele>856</ele>
        <time>2018-05-19T12:56:39Z</time>
      </trkpt>
      <trkpt lat="45.8491" lon="2.88982">
        <ele>857</ele>
        <time>2018-05-19T12:56:43Z</time>
      </trkpt>
      <trkpt lat="45.84906" lon="2.88989">
        <ele>858</ele>
        <time>2018-05-19T12:56:47Z</time>
      </trkpt>
      <trkpt lat="45.84903" lon="2.89002">
        <ele>859</ele>
        <time>2018-05-19T12:56:51Z</time>
      </trkpt>
      <trkpt lat="45.84901" lon="2.89008">
        <ele>860</ele>
        <time>2018-05-19T12:56:53Z</time>
      </trkpt>
      <trkpt lat="45.849" lon="2.89015">
        <ele>860</ele>
        <time>2018-05-19T12:56:55Z</time>
      </trkpt>
      <trkpt lat="45.84898" lon="2.89026">
        <ele>861</ele>
        <time>2018-05-19T12:56:59Z</time>
      </trkpt>
      <trkpt lat="45.84896" lon="2.89038">
        <ele>861</ele>
        <time>2018-05-19T12:57:03Z</time>
      </trkpt>
      <trkpt lat="45.84895" lon="2.89049">
        <ele>861</ele>
        <time>2018-05-19T12:57:07Z</time>
      </trkpt>
      <trkpt lat="45.84893" lon="2.8906">
        <ele>862</ele>
        <time>2018-05-19T12:57:11Z</time>
      </trkpt>
      <trkpt lat="45.84891" lon="2.89071">
        <ele>862</ele>
        <time>2018-05-19T12:57:15Z</time>
      </trkpt>
      <trkpt lat="45.84889" lon="2.89082">
        <ele>862</ele>
        <time>2018-05-19T12:57:19Z</time>
      </trkpt>
      <trkpt lat="45.84887" lon="2.89094">
        <ele>863</ele>
        <time>2018-05-19T12:57:23Z</time>
      </trkpt>
      <trkpt lat="45.84885" lon="2.89106">
        <ele>863</ele>
        <time>2018-05-19T12:57:27Z</time>
      </trkpt>
      <trkpt lat="45.84884" lon="2.89117">
        <ele>863</ele>
        <time>2018-05-19T12:57:31Z</time>
      </trkpt>
      <trkpt lat="45.84883" lon="2.89128">
        <ele>864</ele>
        <time>2018-05-19T12:57:35Z</time>
      </trkpt>
      <trkpt lat="45.84882" lon="2.8914">
        <ele>864</ele>
        <time>2018-05-19T12:57:39Z</time>
      </trkpt>
      <trkpt lat="45.84881" lon="2.89152">
        <ele>866</ele>
        <time>2018-05-19T12:57:43Z</time>
      </trkpt>
      <trkpt lat="45.8488" lon="2.89163">
        <ele>866</ele>
        <time>2018-05-19T12:57:47Z</time>
      </trkpt>
      <trkpt lat="45.84881" lon="2.89174">
        <ele>866</ele>
        <time>2018-05-19T12:57:51Z</time>
      </trkpt>
      <trkpt lat="45.84882" lon="2.89186">
        <ele>867</ele>
        <time>2018-05-19T12:57:55Z</time>
      </trkpt>
      <trkpt lat="45.8488" lon="2.89196">
        <ele>867</ele>
        <time>2018-05-19T12:57:59Z</time>
      </trkpt>
      <trkpt lat="45.84879" lon="2.89208">
        <ele>867</ele>
        <time>2018-05-19T12:58:03Z</time>
      </trkpt>
      <trkpt lat="45.84877" lon="2.8922">
        <ele>867</ele>
        <time>2018-05-19T12:58:07Z</time>
      </trkpt>
      <trkpt lat="45.84876" lon="2.89226">
        <ele>867</ele>
        <time>2018-05-19T12:58:09Z</time>
      </trkpt>
      <trkpt lat="45.84875" lon="2.89233">
        <ele>867</ele>
        <time>2018-05-19T12:58:11Z</time>
      </trkpt>
      <trkpt lat="45.84874" lon="2.89242">
        <ele>867</ele>
        <time>2018-05-19T12:58:15Z</time>
      </trkpt>
      <trkpt lat="45.84869" lon="2.89245">
        <ele>868</ele>
        <time>2018-05-19T13:02:07Z</time>
      </trkpt>
      <trkpt lat="45.84866" lon="2.89253">
        <ele>868</ele>
        <time>2018-05-19T13:02:23Z</time>
      </trkpt>
      <trkpt lat="45.84862" lon="2.89264">
        <ele>868</ele>
        <time>2018-05-19T13:02:27Z</time>
      </trkpt>
      <trkpt lat="45.84862" lon="2.89271">
        <ele>868</ele>
        <time>2018-05-19T13:02:29Z</time>
      </trkpt>
      <trkpt lat="45.84862" lon="2.89278">
        <ele>867</ele>
        <time>2018-05-19T13:02:31Z</time>
      </trkpt>
      <trkpt lat="45.84863" lon="2.89289">
        <ele>870</ele>
        <time>2018-05-19T13:02:35Z</time>
      </trkpt>
      <trkpt lat="45.84864" lon="2.89296">
        <ele>871</ele>
        <time>2018-05-19T13:02:37Z</time>
      </trkpt>
      <trkpt lat="45.84865" lon="2.89303">
        <ele>871</ele>
        <time>2018-05-19T13:02:39Z</time>
      </trkpt>
      <trkpt lat="45.84866" lon="2.8931">
        <ele>872</ele>
        <time>2018-05-19T13:02:41Z</time>
      </trkpt>
      <trkpt lat="45.84868" lon="2.89322">
        <ele>872</ele>
        <time>2018-05-19T13:02:45Z</time>
      </trkpt>
      <trkpt lat="45.8487" lon="2.89334">
        <ele>873</ele>
        <time>2018-05-19T13:02:49Z</time>
      </trkpt>
      <trkpt lat="45.84873" lon="2.89341">
        <ele>873</ele>
        <time>2018-05-19T13:02:51Z</time>
      </trkpt>
      <trkpt lat="45.84874" lon="2.89348">
        <ele>873</ele>
        <time>2018-05-19T13:02:53Z</time>
      </trkpt>
      <trkpt lat="45.84877" lon="2.89354">
        <ele>874</ele>
        <time>2018-05-19T13:02:55Z</time>
      </trkpt>
      <trkpt lat="45.8488" lon="2.89361">
        <ele>874</ele>
        <time>2018-05-19T13:02:57Z</time>
      </trkpt>
      <trkpt lat="45.84885" lon="2.89366">
        <ele>874</ele>
        <time>2018-05-19T13:02:59Z</time>
      </trkpt>
      <trkpt lat="45.8489" lon="2.89368">
        <ele>873</ele>
        <time>2018-05-19T13:03:01Z</time>
      </trkpt>
      <trkpt lat="45.84896" lon="2.89369">
        <ele>873</ele>
        <time>2018-05-19T13:03:03Z</time>
      </trkpt>
      <trkpt lat="45.84902" lon="2.89369">
        <ele>873</ele>
        <time>2018-05-19T13:03:05Z</time>
      </trkpt>
      <trkpt lat="45.84908" lon="2.89369">
        <ele>874</ele>
        <time>2018-05-19T13:03:07Z</time>
      </trkpt>
      <trkpt lat="45.84914" lon="2.89368">
        <ele>874</ele>
        <time>2018-05-19T13:03:09Z</time>
      </trkpt>
      <trkpt lat="45.84921" lon="2.89367">
        <ele>873</ele>
        <time>2018-05-19T13:03:11Z</time>
      </trkpt>
      <trkpt lat="45.84929" lon="2.89364">
        <ele>872</ele>
        <time>2018-05-19T13:03:13Z</time>
      </trkpt>
      <trkpt lat="45.84937" lon="2.8936">
        <ele>872</ele>
        <time>2018-05-19T13:03:15Z</time>
      </trkpt>
      <trkpt lat="45.84945" lon="2.89358">
        <ele>872</ele>
        <time>2018-05-19T13:03:17Z</time>
      </trkpt>
      <trkpt lat="45.84953" lon="2.89355">
        <ele>871</ele>
        <time>2018-05-19T13:03:19Z</time>
      </trkpt>
      <trkpt lat="45.8496" lon="2.89352">
        <ele>870</ele>
        <time>2018-05-19T13:03:21Z</time>
      </trkpt>
      <trkpt lat="45.84967" lon="2.89347">
        <ele>870</ele>
        <time>2018-05-19T13:03:23Z</time>
      </trkpt>
      <trkpt lat="45.84975" lon="2.89344">
        <ele>870</ele>
        <time>2018-05-19T13:03:25Z</time>
      </trkpt>
      <trkpt lat="45.84983" lon="2.89339">
        <ele>871</ele>
        <time>2018-05-19T13:03:27Z</time>
      </trkpt>
      <trkpt lat="45.8499" lon="2.89335">
        <ele>872</ele>
        <time>2018-05-19T13:03:29Z</time>
      </trkpt>
      <trkpt lat="45.84997" lon="2.89331">
        <ele>873</ele>
        <time>2018-05-19T13:03:31Z</time>
      </trkpt>
      <trkpt lat="45.85005" lon="2.89329">
        <ele>873</ele>
        <time>2018-05-19T13:03:33Z</time>
      </trkpt>
      <trkpt lat="45.85012" lon="2.89326">
        <ele>873</ele>
        <time>2018-05-19T13:03:35Z</time>
      </trkpt>
      <trkpt lat="45.85019" lon="2.89322">
        <ele>875</ele>
        <time>2018-05-19T13:03:37Z</time>
      </trkpt>
      <trkpt lat="45.85025" lon="2.8932">
        <ele>877</ele>
        <time>2018-05-19T13:03:39Z</time>
      </trkpt>
      <trkpt lat="45.8503" lon="2.89319">
        <ele>876</ele>
        <time>2018-05-19T13:03:41Z</time>
      </trkpt>
      <trkpt lat="45.85036" lon="2.89315">
        <ele>875</ele>
        <time>2018-05-19T13:03:45Z</time>
      </trkpt>
      <trkpt lat="45.85038" lon="2.8931">
        <ele>874</ele>
        <time>2018-05-19T13:03:47Z</time>
      </trkpt>
      <trkpt lat="45.85042" lon="2.89303">
        <ele>874</ele>
        <time>2018-05-19T13:03:49Z</time>
      </trkpt>
      <trkpt lat="45.85047" lon="2.893">
        <ele>873</ele>
        <time>2018-05-19T13:03:51Z</time>
      </trkpt>
      <trkpt lat="45.85052" lon="2.89296">
        <ele>872</ele>
        <time>2018-05-19T13:03:53Z</time>
      </trkpt>
      <trkpt lat="45.85056" lon="2.8929">
        <ele>872</ele>
        <time>2018-05-19T13:03:55Z</time>
      </trkpt>
      <trkpt lat="45.85059" lon="2.89284">
        <ele>873</ele>
        <time>2018-05-19T13:03:57Z</time>
      </trkpt>
      <trkpt lat="45.85065" lon="2.89279">
        <ele>872</ele>
        <time>2018-05-19T13:03:59Z</time>
      </trkpt>
      <trkpt lat="45.85069" lon="2.89273">
        <ele>873</ele>
        <time>2018-05-19T13:04:01Z</time>
      </trkpt>
      <trkpt lat="45.85075" lon="2.89267">
        <ele>871</ele>
        <time>2018-05-19T13:04:03Z</time>
      </trkpt>
      <trkpt lat="45.8508" lon="2.89261">
        <ele>870</ele>
        <time>2018-05-19T13:04:05Z</time>
      </trkpt>
      <trkpt lat="45.85084" lon="2.89256">
        <ele>870</ele>
        <time>2018-05-19T13:04:07Z</time>
      </trkpt>
      <trkpt lat="45.85091" lon="2.89248">
        <ele>870</ele>
        <time>2018-05-19T13:04:11Z</time>
      </trkpt>
      <trkpt lat="45.85097" lon="2.89242">
        <ele>870</ele>
        <time>2018-05-19T13:04:13Z</time>
      </trkpt>
      <trkpt lat="45.85102" lon="2.89237">
        <ele>869</ele>
        <time>2018-05-19T13:04:15Z</time>
      </trkpt>
      <trkpt lat="45.85108" lon="2.89239">
        <ele>868</ele>
        <time>2018-05-19T13:04:17Z</time>
      </trkpt>
      <trkpt lat="45.85113" lon="2.89245">
        <ele>868</ele>
        <time>2018-05-19T13:04:19Z</time>
      </trkpt>
      <trkpt lat="45.85118" lon="2.89252">
        <ele>868</ele>
        <time>2018-05-19T13:04:21Z</time>
      </trkpt>
      <trkpt lat="45.85123" lon="2.89261">
        <ele>868</ele>
        <time>2018-05-19T13:04:23Z</time>
      </trkpt>
      <trkpt lat="45.85129" lon="2.89266">
        <ele>867</ele>
        <time>2018-05-19T13:04:25Z</time>
      </trkpt>
      <trkpt lat="45.85135" lon="2.89263">
        <ele>867</ele>
        <time>2018-05-19T13:04:27Z</time>
      </trkpt>
      <trkpt lat="45.85142" lon="2.89259">
        <ele>867</ele>
        <time>2018-05-19T13:04:29Z</time>
      </trkpt>
      <trkpt lat="45.85149" lon="2.89257">
        <ele>867</ele>
        <time>2018-05-19T13:04:31Z</time>
      </trkpt>
      <trkpt lat="45.85158" lon="2.89255">
        <ele>867</ele>
        <time>2018-05-19T13:04:33Z</time>
      </trkpt>
      <trkpt lat="45.85167" lon="2.89253">
        <ele>867</ele>
        <time>2018-05-19T13:04:35Z</time>
      </trkpt>
      <trkpt lat="45.85176" lon="2.89251">
        <ele>867</ele>
        <time>2018-05-19T13:04:37Z</time>
      </trkpt>
      <trkpt lat="45.85186" lon="2.89247">
        <ele>866</ele>
        <time>2018-05-19T13:04:39Z</time>
      </trkpt>
      <trkpt lat="45.85195" lon="2.89242">
        <ele>865</ele>
        <time>2018-05-19T13:04:41Z</time>
      </trkpt>
      <trkpt lat="45.85206" lon="2.89236">
        <ele>864</ele>
        <time>2018-05-19T13:04:43Z</time>
      </trkpt>
      <trkpt lat="45.85218" lon="2.89231">
        <ele>862</ele>
        <time>2018-05-19T13:04:45Z</time>
      </trkpt>
      <trkpt lat="45.8523" lon="2.89227">
        <ele>862</ele>
        <time>2018-05-19T13:04:47Z</time>
      </trkpt>
      <trkpt lat="45.85244" lon="2.89227">
        <ele>860</ele>
        <time>2018-05-19T13:04:49Z</time>
      </trkpt>
      <trkpt lat="45.85259" lon="2.89228">
        <ele>859</ele>
        <time>2018-05-19T13:04:51Z</time>
      </trkpt>
      <trkpt lat="45.85275" lon="2.89229">
        <ele>857</ele>
        <time>2018-05-19T13:04:53Z</time>
      </trkpt>
      <trkpt lat="45.85292" lon="2.89231">
        <ele>855</ele>
        <time>2018-05-19T13:04:55Z</time>
      </trkpt>
      <trkpt lat="45.85309" lon="2.89234">
        <ele>854</ele>
        <time>2018-05-19T13:04:57Z</time>
      </trkpt>
      <trkpt lat="45.85326" lon="2.89236">
        <ele>852</ele>
        <time>2018-05-19T13:04:59Z</time>
      </trkpt>
      <trkpt lat="45.85344" lon="2.89237">
        <ele>851</ele>
        <time>2018-05-19T13:05:01Z</time>
      </trkpt>
      <trkpt lat="45.85363" lon="2.8924">
        <ele>851</ele>
        <time>2018-05-19T13:05:03Z</time>
      </trkpt>
      <trkpt lat="45.8538" lon="2.89243">
        <ele>850</ele>
        <time>2018-05-19T13:05:05Z</time>
      </trkpt>
      <trkpt lat="45.85397" lon="2.8924">
        <ele>849</ele>
        <time>2018-05-19T13:05:07Z</time>
      </trkpt>
      <trkpt lat="45.85412" lon="2.89233">
        <ele>848</ele>
        <time>2018-05-19T13:05:09Z</time>
      </trkpt>
      <trkpt lat="45.85425" lon="2.89223">
        <ele>847</ele>
        <time>2018-05-19T13:05:11Z</time>
      </trkpt>
      <trkpt lat="45.85437" lon="2.89213">
        <ele>847</ele>
        <time>2018-05-19T13:05:13Z</time>
      </trkpt>
      <trkpt lat="45.85449" lon="2.89203">
        <ele>847</ele>
        <time>2018-05-19T13:05:15Z</time>
      </trkpt>
      <trkpt lat="45.85462" lon="2.89194">
        <ele>846</ele>
        <time>2018-05-19T13:05:17Z</time>
      </trkpt>
      <trkpt lat="45.85473" lon="2.89187">
        <ele>846</ele>
        <time>2018-05-19T13:05:19Z</time>
      </trkpt>
      <trkpt lat="45.85484" lon="2.8918">
        <ele>845</ele>
        <time>2018-05-19T13:05:21Z</time>
      </trkpt>
      <trkpt lat="45.85493" lon="2.89174">
        <ele>846</ele>
        <time>2018-05-19T13:05:23Z</time>
      </trkpt>
      <trkpt lat="45.85502" lon="2.8917">
        <ele>846</ele>
        <time>2018-05-19T13:05:25Z</time>
      </trkpt>
      <trkpt lat="45.85511" lon="2.89165">
        <ele>846</ele>
        <time>2018-05-19T13:05:27Z</time>
      </trkpt>
      <trkpt lat="45.85521" lon="2.89161">
        <ele>845</ele>
        <time>2018-05-19T13:05:29Z</time>
      </trkpt>
      <trkpt lat="45.85531" lon="2.89157">
        <ele>844</ele>
        <time>2018-05-19T13:05:31Z</time>
      </trkpt>
      <trkpt lat="45.8554" lon="2.89154">
        <ele>845</ele>
        <time>2018-05-19T13:05:33Z</time>
      </trkpt>
      <trkpt lat="45.8555" lon="2.89152">
        <ele>846</ele>
        <time>2018-05-19T13:05:35Z</time>
      </trkpt>
      <trkpt lat="45.85561" lon="2.8915">
        <ele>846</ele>
        <time>2018-05-19T13:05:37Z</time>
      </trkpt>
      <trkpt lat="45.85572" lon="2.89146">
        <ele>847</ele>
        <time>2018-05-19T13:05:39Z</time>
      </trkpt>
      <trkpt lat="45.85582" lon="2.89141">
        <ele>846</ele>
        <time>2018-05-19T13:05:41Z</time>
      </trkpt>
      <trkpt lat="45.85592" lon="2.89135">
        <ele>846</ele>
        <time>2018-05-19T13:05:43Z</time>
      </trkpt>
      <trkpt lat="45.85602" lon="2.89128">
        <ele>845</ele>
        <time>2018-05-19T13:05:45Z</time>
      </trkpt>
      <trkpt lat="45.85611" lon="2.89119">
        <ele>845</ele>
        <time>2018-05-19T13:05:47Z</time>
      </trkpt>
      <trkpt lat="45.85621" lon="2.89112">
        <ele>845</ele>
        <time>2018-05-19T13:05:49Z</time>
      </trkpt>
      <trkpt lat="45.85631" lon="2.89106">
        <ele>843</ele>
        <time>2018-05-19T13:05:51Z</time>
      </trkpt>
      <trkpt lat="45.85641" lon="2.891">
        <ele>842</ele>
        <time>2018-05-19T13:05:53Z</time>
      </trkpt>
      <trkpt lat="45.85651" lon="2.89092">
        <ele>841</ele>
        <time>2018-05-19T13:05:55Z</time>
      </trkpt>
      <trkpt lat="45.85663" lon="2.89083">
        <ele>839</ele>
        <time>2018-05-19T13:05:57Z</time>
      </trkpt>
      <trkpt lat="45.85676" lon="2.89073">
        <ele>838</ele>
        <time>2018-05-19T13:05:59Z</time>
      </trkpt>
      <trkpt lat="45.85692" lon="2.89062">
        <ele>836</ele>
        <time>2018-05-19T13:06:01Z</time>
      </trkpt>
      <trkpt lat="45.85711" lon="2.89055">
        <ele>834</ele>
        <time>2018-05-19T13:06:03Z</time>
      </trkpt>
      <trkpt lat="45.85729" lon="2.89048">
        <ele>831</ele>
        <time>2018-05-19T13:06:05Z</time>
      </trkpt>
      <trkpt lat="45.85747" lon="2.89039">
        <ele>829</ele>
        <time>2018-05-19T13:06:07Z</time>
      </trkpt>
      <trkpt lat="45.85764" lon="2.89034">
        <ele>828</ele>
        <time>2018-05-19T13:06:09Z</time>
      </trkpt>
      <trkpt lat="45.85782" lon="2.89029">
        <ele>827</ele>
        <time>2018-05-19T13:06:11Z</time>
      </trkpt>
      <trkpt lat="45.85797" lon="2.89027">
        <ele>825</ele>
        <time>2018-05-19T13:06:13Z</time>
      </trkpt>
      <trkpt lat="45.85816" lon="2.89026">
        <ele>824</ele>
        <time>2018-05-19T13:06:15Z</time>
      </trkpt>
      <trkpt lat="45.85835" lon="2.8902">
        <ele>823</ele>
        <time>2018-05-19T13:06:17Z</time>
      </trkpt>
      <trkpt lat="45.85854" lon="2.89007">
        <ele>822</ele>
        <time>2018-05-19T13:06:19Z</time>
      </trkpt>
      <trkpt lat="45.8587" lon="2.88992">
        <ele>822</ele>
        <time>2018-05-19T13:06:21Z</time>
      </trkpt>
      <trkpt lat="45.85878" lon="2.88974">
        <ele>819</ele>
        <time>2018-05-19T13:06:23Z</time>
      </trkpt>
      <trkpt lat="45.85885" lon="2.88964">
        <ele>816</ele>
        <time>2018-05-19T13:06:25Z</time>
      </trkpt>
      <trkpt lat="45.85892" lon="2.8896">
        <ele>817</ele>
        <time>2018-05-19T13:06:27Z</time>
      </trkpt>
      <trkpt lat="45.85899" lon="2.88956">
        <ele>817</ele>
        <time>2018-05-19T13:06:29Z</time>
      </trkpt>
      <trkpt lat="45.85906" lon="2.88948">
        <ele>816</ele>
        <time>2018-05-19T13:06:31Z</time>
      </trkpt>
      <trkpt lat="45.85914" lon="2.88942">
        <ele>817</ele>
        <time>2018-05-19T13:06:33Z</time>
      </trkpt>
      <trkpt lat="45.85924" lon="2.88935">
        <ele>817</ele>
        <time>2018-05-19T13:06:35Z</time>
      </trkpt>
      <trkpt lat="45.85933" lon="2.88927">
        <ele>817</ele>
        <time>2018-05-19T13:06:37Z</time>
      </trkpt>
      <trkpt lat="45.85945" lon="2.88925">
        <ele>815</ele>
        <time>2018-05-19T13:06:39Z</time>
      </trkpt>
      <trkpt lat="45.85955" lon="2.88926">
        <ele>814</ele>
        <time>2018-05-19T13:06:41Z</time>
      </trkpt>
      <trkpt lat="45.85966" lon="2.88927">
        <ele>815</ele>
        <time>2018-05-19T13:06:43Z</time>
      </trkpt>
      <trkpt lat="45.85977" lon="2.88929">
        <ele>813</ele>
        <time>2018-05-19T13:06:45Z</time>
      </trkpt>
      <trkpt lat="45.85989" lon="2.88931">
        <ele>811</ele>
        <time>2018-05-19T13:06:47Z</time>
      </trkpt>
      <trkpt lat="45.86002" lon="2.88932">
        <ele>809</ele>
        <time>2018-05-19T13:06:49Z</time>
      </trkpt>
      <trkpt lat="45.86016" lon="2.88931">
        <ele>809</ele>
        <time>2018-05-19T13:06:51Z</time>
      </trkpt>
      <trkpt lat="45.86029" lon="2.88929">
        <ele>807</ele>
        <time>2018-05-19T13:06:53Z</time>
      </trkpt>
      <trkpt lat="45.8604" lon="2.88927">
        <ele>806</ele>
        <time>2018-05-19T13:06:55Z</time>
      </trkpt>
      <trkpt lat="45.8605" lon="2.88924">
        <ele>808</ele>
        <time>2018-05-19T13:06:57Z</time>
      </trkpt>
      <trkpt lat="45.86062" lon="2.88928">
        <ele>807</ele>
        <time>2018-05-19T13:06:59Z</time>
      </trkpt>
      <trkpt lat="45.86075" lon="2.88935">
        <ele>806</ele>
        <time>2018-05-19T13:07:01Z</time>
      </trkpt>
      <trkpt lat="45.86087" lon="2.88942">
        <ele>805</ele>
        <time>2018-05-19T13:07:03Z</time>
      </trkpt>
      <trkpt lat="45.861" lon="2.88948">
        <ele>804</ele>
        <time>2018-05-19T13:07:05Z</time>
      </trkpt>
      <trkpt lat="45.86112" lon="2.88951">
        <ele>804</ele>
        <time>2018-05-19T13:07:07Z</time>
      </trkpt>
      <trkpt lat="45.86122" lon="2.88951">
        <ele>804</ele>
        <time>2018-05-19T13:07:09Z</time>
      </trkpt>
      <trkpt lat="45.86131" lon="2.88947">
        <ele>804</ele>
        <time>2018-05-19T13:07:11Z</time>
      </trkpt>
      <trkpt lat="45.86138" lon="2.88944">
        <ele>805</ele>
        <time>2018-05-19T13:07:13Z</time>
      </trkpt>
      <trkpt lat="45.86144" lon="2.8894">
        <ele>805</ele>
        <time>2018-05-19T13:07:15Z</time>
      </trkpt>
      <trkpt lat="45.86148" lon="2.88937">
        <ele>805</ele>
        <time>2018-05-19T13:07:17Z</time>
      </trkpt>
      <trkpt lat="45.86154" lon="2.8893">
        <ele>806</ele>
        <time>2018-05-19T13:07:21Z</time>
      </trkpt>
      <trkpt lat="45.8616" lon="2.88924">
        <ele>807</ele>
        <time>2018-05-19T13:07:25Z</time>
      </trkpt>
      <trkpt lat="45.86166" lon="2.88917">
        <ele>808</ele>
        <time>2018-05-19T13:07:29Z</time>
      </trkpt>
      <trkpt lat="45.86169" lon="2.8891">
        <ele>810</ele>
        <time>2018-05-19T13:07:33Z</time>
      </trkpt>
      <trkpt lat="45.86173" lon="2.88902">
        <ele>812</ele>
        <time>2018-05-19T13:07:37Z</time>
      </trkpt>
      <trkpt lat="45.86178" lon="2.88896">
        <ele>812</ele>
        <time>2018-05-19T13:07:41Z</time>
      </trkpt>
      <trkpt lat="45.86182" lon="2.8889">
        <ele>813</ele>
        <time>2018-05-19T13:07:45Z</time>
      </trkpt>
      <trkpt lat="45.86187" lon="2.88882">
        <ele>813</ele>
        <time>2018-05-19T13:07:49Z</time>
      </trkpt>
      <trkpt lat="45.86191" lon="2.88876">
        <ele>813</ele>
        <time>2018-05-19T13:07:53Z</time>
      </trkpt>
      <trkpt lat="45.86195" lon="2.8887">
        <ele>813</ele>
        <time>2018-05-19T13:07:57Z</time>
      </trkpt>
      <trkpt lat="45.862" lon="2.88864">
        <ele>814</ele>
        <time>2018-05-19T13:08:01Z</time>
      </trkpt>
      <trkpt lat="45.86204" lon="2.88857">
        <ele>815</ele>
        <time>2018-05-19T13:08:05Z</time>
      </trkpt>
      <trkpt lat="45.86209" lon="2.8885">
        <ele>816</ele>
        <time>2018-05-19T13:08:09Z</time>
      </trkpt>
      <trkpt lat="45.86214" lon="2.88844">
        <ele>816</ele>
        <time>2018-05-19T13:08:13Z</time>
      </trkpt>
      <trkpt lat="45.86219" lon="2.88839">
        <ele>816</ele>
        <time>2018-05-19T13:08:17Z</time>
      </trkpt>
      <trkpt lat="45.86225" lon="2.88833">
        <ele>816</ele>
        <time>2018-05-19T13:08:21Z</time>
      </trkpt>
      <trkpt lat="45.86232" lon="2.88828">
        <ele>818</ele>
        <time>2018-05-19T13:08:25Z</time>
      </trkpt>
      <trkpt lat="45.86238" lon="2.88824">
        <ele>818</ele>
        <time>2018-05-19T13:08:29Z</time>
      </trkpt>
      <trkpt lat="45.86245" lon="2.88818">
        <ele>819</ele>
        <time>2018-05-19T13:08:33Z</time>
      </trkpt>
      <trkpt lat="45.8625" lon="2.88811">
        <ele>821</ele>
        <time>2018-05-19T13:08:37Z</time>
      </trkpt>
      <trkpt lat="45.86256" lon="2.88806">
        <ele>822</ele>
        <time>2018-05-19T13:08:41Z</time>
      </trkpt>
      <trkpt lat="45.86262" lon="2.888">
        <ele>823</ele>
        <time>2018-05-19T13:08:45Z</time>
      </trkpt>
      <trkpt lat="45.86268" lon="2.88794">
        <ele>824</ele>
        <time>2018-05-19T13:08:49Z</time>
      </trkpt>
      <trkpt lat="45.86272" lon="2.88787">
        <ele>826</ele>
        <time>2018-05-19T13:08:53Z</time>
      </trkpt>
      <trkpt lat="45.86277" lon="2.88782">
        <ele>828</ele>
        <time>2018-05-19T13:08:57Z</time>
      </trkpt>
      <trkpt lat="45.86282" lon="2.88777">
        <ele>827</ele>
        <time>2018-05-19T13:09:01Z</time>
      </trkpt>
      <trkpt lat="45.86287" lon="2.88772">
        <ele>827</ele>
        <time>2018-05-19T13:09:05Z</time>
      </trkpt>
      <trkpt lat="45.86292" lon="2.88766">
        <ele>827</ele>
        <time>2018-05-19T13:09:09Z</time>
      </trkpt>
      <trkpt lat="45.86296" lon="2.88758">
        <ele>827</ele>
        <time>2018-05-19T13:09:13Z</time>
      </trkpt>
      <trkpt lat="45.86301" lon="2.88753">
        <ele>828</ele>
        <time>2018-05-19T13:09:19Z</time>
      </trkpt>
      <trkpt lat="45.86308" lon="2.88753">
        <ele>828</ele>
        <time>2018-05-19T13:09:25Z</time>
      </trkpt>
      <trkpt lat="45.86313" lon="2.88759">
        <ele>828</ele>
        <time>2018-05-19T13:09:29Z</time>
      </trkpt>
      <trkpt lat="45.86316" lon="2.88767">
        <ele>828</ele>
        <time>2018-05-19T13:09:33Z</time>
      </trkpt>
      <trkpt lat="45.86319" lon="2.88775">
        <ele>828</ele>
        <time>2018-05-19T13:09:37Z</time>
      </trkpt>
      <trkpt lat="45.86322" lon="2.88782">
        <ele>829</ele>
        <time>2018-05-19T13:09:41Z</time>
      </trkpt>
      <trkpt lat="45.86325" lon="2.8879">
        <ele>829</ele>
        <time>2018-05-19T13:09:45Z</time>
      </trkpt>
      <trkpt lat="45.86326" lon="2.88799">
        <ele>829</ele>
        <time>2018-05-19T13:09:49Z</time>
      </trkpt>
      <trkpt lat="45.86326" lon="2.88808">
        <ele>830</ele>
        <time>2018-05-19T13:09:53Z</time>
      </trkpt>
      <trkpt lat="45.86327" lon="2.88817">
        <ele>830</ele>
        <time>2018-05-19T13:09:57Z</time>
      </trkpt>
      <trkpt lat="45.86327" lon="2.88824">
        <ele>831</ele>
        <time>2018-05-19T13:10:01Z</time>
      </trkpt>
      <trkpt lat="45.86328" lon="2.88832">
        <ele>832</ele>
        <time>2018-05-19T13:10:05Z</time>
      </trkpt>
      <trkpt lat="45.86328" lon="2.8884">
        <ele>833</ele>
        <time>2018-05-19T13:10:09Z</time>
      </trkpt>
      <trkpt lat="45.86331" lon="2.88848">
        <ele>833</ele>
        <time>2018-05-19T13:10:13Z</time>
      </trkpt>
      <trkpt lat="45.86333" lon="2.88855">
        <ele>833</ele>
        <time>2018-05-19T13:10:17Z</time>
      </trkpt>
      <trkpt lat="45.86335" lon="2.88863">
        <ele>833</ele>
        <time>2018-05-19T13:10:21Z</time>
      </trkpt>
      <trkpt lat="45.86337" lon="2.88873">
        <ele>833</ele>
        <time>2018-05-19T13:10:25Z</time>
      </trkpt>
      <trkpt lat="45.86339" lon="2.88882">
        <ele>834</ele>
        <time>2018-05-19T13:10:29Z</time>
      </trkpt>
      <trkpt lat="45.86341" lon="2.88891">
        <ele>834</ele>
        <time>2018-05-19T13:10:33Z</time>
      </trkpt>
      <trkpt lat="45.86342" lon="2.88899">
        <ele>834</ele>
        <time>2018-05-19T13:10:37Z</time>
      </trkpt>
      <trkpt lat="45.86344" lon="2.88908">
        <ele>833</ele>
        <time>2018-05-19T13:10:41Z</time>
      </trkpt>
      <trkpt lat="45.86345" lon="2.8892">
        <ele>833</ele>
        <time>2018-05-19T13:10:45Z</time>
      </trkpt>
      <trkpt lat="45.86346" lon="2.88927">
        <ele>833</ele>
        <time>2018-05-19T13:10:47Z</time>
      </trkpt>
      <trkpt lat="45.86347" lon="2.88934">
        <ele>833</ele>
        <time>2018-05-19T13:10:49Z</time>
      </trkpt>
      <trkpt lat="45.86348" lon="2.88941">
        <ele>832</ele>
        <time>2018-05-19T13:10:51Z</time>
      </trkpt>
      <trkpt lat="45.86349" lon="2.88949">
        <ele>832</ele>
        <time>2018-05-19T13:10:53Z</time>
      </trkpt>
      <trkpt lat="45.86349" lon="2.88959">
        <ele>832</ele>
        <time>2018-05-19T13:10:55Z</time>
      </trkpt>
      <trkpt lat="45.8635" lon="2.8897">
        <ele>832</ele>
        <time>2018-05-19T13:10:57Z</time>
      </trkpt>
      <trkpt lat="45.86352" lon="2.88982">
        <ele>832</ele>
        <time>2018-05-19T13:10:59Z</time>
      </trkpt>
      <trkpt lat="45.86353" lon="2.88995">
        <ele>832</ele>
        <time>2018-05-19T13:11:01Z</time>
      </trkpt>
      <trkpt lat="45.86355" lon="2.89009">
        <ele>831</ele>
        <time>2018-05-19T13:11:03Z</time>
      </trkpt>
      <trkpt lat="45.86356" lon="2.89025">
        <ele>831</ele>
        <time>2018-05-19T13:11:05Z</time>
      </trkpt>
      <trkpt lat="45.86357" lon="2.89041">
        <ele>830</ele>
        <time>2018-05-19T13:11:07Z</time>
      </trkpt>
      <trkpt lat="45.86359" lon="2.8906">
        <ele>829</ele>
        <time>2018-05-19T13:11:09Z</time>
      </trkpt>
      <trkpt lat="45.86359" lon="2.89078">
        <ele>829</ele>
        <time>2018-05-19T13:11:11Z</time>
      </trkpt>
      <trkpt lat="45.8636" lon="2.89096">
        <ele>829</ele>
        <time>2018-05-19T13:11:13Z</time>
      </trkpt>
      <trkpt lat="45.86361" lon="2.89111">
        <ele>829</ele>
        <time>2018-05-19T13:11:15Z</time>
      </trkpt>
      <trkpt lat="45.86362" lon="2.89124">
        <ele>830</ele>
        <time>2018-05-19T13:11:17Z</time>
      </trkpt>
      <trkpt lat="45.86364" lon="2.89138">
        <ele>830</ele>
        <time>2018-05-19T13:11:19Z</time>
      </trkpt>
      <trkpt lat="45.86366" lon="2.89152">
        <ele>830</ele>
        <time>2018-05-19T13:11:21Z</time>
      </trkpt>
      <trkpt lat="45.86368" lon="2.89166">
        <ele>830</ele>
        <time>2018-05-19T13:11:23Z</time>
      </trkpt>
      <trkpt lat="45.86371" lon="2.89181">
        <ele>829</ele>
        <time>2018-05-19T13:11:25Z</time>
      </trkpt>
      <trkpt lat="45.86373" lon="2.89197">
        <ele>829</ele>
        <time>2018-05-19T13:11:27Z</time>
      </trkpt>
      <trkpt lat="45.86375" lon="2.89213">
        <ele>829</ele>
        <time>2018-05-19T13:11:29Z</time>
      </trkpt>
      <trkpt lat="45.86376" lon="2.89227">
        <ele>829</ele>
        <time>2018-05-19T13:11:31Z</time>
      </trkpt>
      <trkpt lat="45.86378" lon="2.8924">
        <ele>829</ele>
        <time>2018-05-19T13:11:33Z</time>
      </trkpt>
      <trkpt lat="45.86379" lon="2.89251">
        <ele>830</ele>
        <time>2018-05-19T13:11:35Z</time>
      </trkpt>
      <trkpt lat="45.8638" lon="2.89261">
        <ele>831</ele>
        <time>2018-05-19T13:11:37Z</time>
      </trkpt>
      <trkpt lat="45.86383" lon="2.89268">
        <ele>831</ele>
        <time>2018-05-19T13:11:39Z</time>
      </trkpt>
      <trkpt lat="45.86386" lon="2.89274">
        <ele>831</ele>
        <time>2018-05-19T13:11:41Z</time>
      </trkpt>
      <trkpt lat="45.8639" lon="2.89278">
        <ele>832</ele>
        <time>2018-05-19T13:11:43Z</time>
      </trkpt>
      <trkpt lat="45.86394" lon="2.89283">
        <ele>832</ele>
        <time>2018-05-19T13:11:45Z</time>
      </trkpt>
      <trkpt lat="45.86398" lon="2.89286">
        <ele>833</ele>
        <time>2018-05-19T13:11:47Z</time>
      </trkpt>
      <trkpt lat="45.86403" lon="2.8929">
        <ele>833</ele>
        <time>2018-05-19T13:11:49Z</time>
      </trkpt>
      <trkpt lat="45.86408" lon="2.89293">
        <ele>834</ele>
        <time>2018-05-19T13:11:51Z</time>
      </trkpt>
      <trkpt lat="45.86412" lon="2.89297">
        <ele>834</ele>
        <time>2018-05-19T13:11:53Z</time>
      </trkpt>
      <trkpt lat="45.86417" lon="2.893">
        <ele>835</ele>
        <time>2018-05-19T13:11:55Z</time>
      </trkpt>
      <trkpt lat="45.86421" lon="2.89303">
        <ele>835</ele>
        <time>2018-05-19T13:11:57Z</time>
      </trkpt>
      <trkpt lat="45.86425" lon="2.89306">
        <ele>835</ele>
        <time>2018-05-19T13:11:59Z</time>
      </trkpt>
      <trkpt lat="45.8643" lon="2.89309">
        <ele>836</ele>
        <time>2018-05-19T13:12:01Z</time>
      </trkpt>
      <trkpt lat="45.86434" lon="2.89312">
        <ele>836</ele>
        <time>2018-05-19T13:12:03Z</time>
      </trkpt>
      <trkpt lat="45.86439" lon="2.89314">
        <ele>837</ele>
        <time>2018-05-19T13:12:05Z</time>
      </trkpt>
      <trkpt lat="45.86444" lon="2.89317">
        <ele>837</ele>
        <time>2018-05-19T13:12:07Z</time>
      </trkpt>
      <trkpt lat="45.86448" lon="2.89321">
        <ele>836</ele>
        <time>2018-05-19T13:12:09Z</time>
      </trkpt>
      <trkpt lat="45.86453" lon="2.89327">
        <ele>836</ele>
        <time>2018-05-19T13:12:11Z</time>
      </trkpt>
      <trkpt lat="45.86456" lon="2.89334">
        <ele>836</ele>
        <time>2018-05-19T13:12:13Z</time>
      </trkpt>
      <trkpt lat="45.86459" lon="2.89343">
        <ele>836</ele>
        <time>2018-05-19T13:12:15Z</time>
      </trkpt>
      <trkpt lat="45.86461" lon="2.89352">
        <ele>837</ele>
        <time>2018-05-19T13:12:17Z</time>
      </trkpt>
      <trkpt lat="45.86463" lon="2.89361">
        <ele>838</ele>
        <time>2018-05-19T13:12:19Z</time>
      </trkpt>
      <trkpt lat="45.86465" lon="2.89369">
        <ele>838</ele>
        <time>2018-05-19T13:12:21Z</time>
      </trkpt>
      <trkpt lat="45.86466" lon="2.89378">
        <ele>839</ele>
        <time>2018-05-19T13:12:23Z</time>
      </trkpt>
      <trkpt lat="45.86469" lon="2.89386">
        <ele>839</ele>
        <time>2018-05-19T13:12:25Z</time>
      </trkpt>
      <trkpt lat="45.86471" lon="2.89393">
        <ele>839</ele>
        <time>2018-05-19T13:12:27Z</time>
      </trkpt>
      <trkpt lat="45.86473" lon="2.89401">
        <ele>839</ele>
        <time>2018-05-19T13:12:29Z</time>
      </trkpt>
      <trkpt lat="45.86474" lon="2.89408">
        <ele>839</ele>
        <time>2018-05-19T13:12:31Z</time>
      </trkpt>
      <trkpt lat="45.86476" lon="2.89421">
        <ele>840</ele>
        <time>2018-05-19T13:12:35Z</time>
      </trkpt>
      <trkpt lat="45.86478" lon="2.89427">
        <ele>840</ele>
        <time>2018-05-19T13:12:37Z</time>
      </trkpt>
      <trkpt lat="45.86479" lon="2.89433">
        <ele>841</ele>
        <time>2018-05-19T13:12:39Z</time>
      </trkpt>
      <trkpt lat="45.86482" lon="2.89444">
        <ele>842</ele>
        <time>2018-05-19T13:12:43Z</time>
      </trkpt>
      <trkpt lat="45.86486" lon="2.89456">
        <ele>844</ele>
        <time>2018-05-19T13:12:47Z</time>
      </trkpt>
      <trkpt lat="45.86489" lon="2.89467">
        <ele>844</ele>
        <time>2018-05-19T13:12:51Z</time>
      </trkpt>
      <trkpt lat="45.86492" lon="2.89473">
        <ele>844</ele>
        <time>2018-05-19T13:12:53Z</time>
      </trkpt>
      <trkpt lat="45.86495" lon="2.8948">
        <ele>844</ele>
        <time>2018-05-19T13:12:55Z</time>
      </trkpt>
      <trkpt lat="45.86498" lon="2.89487">
        <ele>844</ele>
        <time>2018-05-19T13:12:57Z</time>
      </trkpt>
      <trkpt lat="45.86501" lon="2.89496">
        <ele>845</ele>
        <time>2018-05-19T13:12:59Z</time>
      </trkpt>
      <trkpt lat="45.86504" lon="2.89503">
        <ele>845</ele>
        <time>2018-05-19T13:13:01Z</time>
      </trkpt>
      <trkpt lat="45.86506" lon="2.89509">
        <ele>845</ele>
        <time>2018-05-19T13:13:03Z</time>
      </trkpt>
      <trkpt lat="45.8651" lon="2.89516">
        <ele>845</ele>
        <time>2018-05-19T13:13:05Z</time>
      </trkpt>
      <trkpt lat="45.86513" lon="2.89525">
        <ele>845</ele>
        <time>2018-05-19T13:13:07Z</time>
      </trkpt>
      <trkpt lat="45.86513" lon="2.89536">
        <ele>845</ele>
        <time>2018-05-19T13:13:09Z</time>
      </trkpt>
      <trkpt lat="45.86511" lon="2.89548">
        <ele>845</ele>
        <time>2018-05-19T13:13:11Z</time>
      </trkpt>
      <trkpt lat="45.86513" lon="2.8956">
        <ele>844</ele>
        <time>2018-05-19T13:13:13Z</time>
      </trkpt>
      <trkpt lat="45.86515" lon="2.89572">
        <ele>844</ele>
        <time>2018-05-19T13:13:15Z</time>
      </trkpt>
      <trkpt lat="45.86517" lon="2.89585">
        <ele>843</ele>
        <time>2018-05-19T13:13:17Z</time>
      </trkpt>
      <trkpt lat="45.86518" lon="2.89599">
        <ele>842</ele>
        <time>2018-05-19T13:13:19Z</time>
      </trkpt>
      <trkpt lat="45.86513" lon="2.89615">
        <ele>840</ele>
        <time>2018-05-19T13:13:21Z</time>
      </trkpt>
      <trkpt lat="45.86506" lon="2.89633">
        <ele>839</ele>
        <time>2018-05-19T13:13:23Z</time>
      </trkpt>
      <trkpt lat="45.86498" lon="2.89653">
        <ele>838</ele>
        <time>2018-05-19T13:13:25Z</time>
      </trkpt>
      <trkpt lat="45.86489" lon="2.8967">
        <ele>837</ele>
        <time>2018-05-19T13:13:27Z</time>
      </trkpt>
      <trkpt lat="45.86476" lon="2.8968">
        <ele>837</ele>
        <time>2018-05-19T13:13:29Z</time>
      </trkpt>
      <trkpt lat="45.86464" lon="2.89685">
        <ele>837</ele>
        <time>2018-05-19T13:13:31Z</time>
      </trkpt>
      <trkpt lat="45.86453" lon="2.89688">
        <ele>839</ele>
        <time>2018-05-19T13:13:33Z</time>
      </trkpt>
      <trkpt lat="45.86444" lon="2.89691">
        <ele>838</ele>
        <time>2018-05-19T13:13:35Z</time>
      </trkpt>
      <trkpt lat="45.86436" lon="2.89695">
        <ele>839</ele>
        <time>2018-05-19T13:13:37Z</time>
      </trkpt>
      <trkpt lat="45.86428" lon="2.897">
        <ele>839</ele>
        <time>2018-05-19T13:13:39Z</time>
      </trkpt>
      <trkpt lat="45.86422" lon="2.89704">
        <ele>840</ele>
        <time>2018-05-19T13:13:41Z</time>
      </trkpt>
      <trkpt lat="45.86418" lon="2.89709">
        <ele>841</ele>
        <time>2018-05-19T13:13:43Z</time>
      </trkpt>
      <trkpt lat="45.86412" lon="2.89715">
        <ele>842</ele>
        <time>2018-05-19T13:13:47Z</time>
      </trkpt>
      <trkpt lat="45.86407" lon="2.8972">
        <ele>841</ele>
        <time>2018-05-19T13:13:49Z</time>
      </trkpt>
      <trkpt lat="45.86403" lon="2.89727">
        <ele>842</ele>
        <time>2018-05-19T13:13:51Z</time>
      </trkpt>
      <trkpt lat="45.86401" lon="2.89735">
        <ele>843</ele>
        <time>2018-05-19T13:13:55Z</time>
      </trkpt>
      <trkpt lat="45.86404" lon="2.89744">
        <ele>844</ele>
        <time>2018-05-19T13:13:59Z</time>
      </trkpt>
      <trkpt lat="45.86409" lon="2.89747">
        <ele>844</ele>
        <time>2018-05-19T13:14:03Z</time>
      </trkpt>
      <trkpt lat="45.86415" lon="2.89749">
        <ele>846</ele>
        <time>2018-05-19T13:14:07Z</time>
      </trkpt>
      <trkpt lat="45.86423" lon="2.89751">
        <ele>846</ele>
        <time>2018-05-19T13:14:11Z</time>
      </trkpt>
      <trkpt lat="45.86427" lon="2.89754">
        <ele>845</ele>
        <time>2018-05-19T13:14:13Z</time>
      </trkpt>
      <trkpt lat="45.86432" lon="2.89757">
        <ele>846</ele>
        <time>2018-05-19T13:14:15Z</time>
      </trkpt>
      <trkpt lat="45.86436" lon="2.89762">
        <ele>846</ele>
        <time>2018-05-19T13:14:17Z</time>
      </trkpt>
      <trkpt lat="45.8644" lon="2.89766">
        <ele>845</ele>
        <time>2018-05-19T13:14:19Z</time>
      </trkpt>
      <trkpt lat="45.86443" lon="2.89772">
        <ele>845</ele>
        <time>2018-05-19T13:14:21Z</time>
      </trkpt>
      <trkpt lat="45.86447" lon="2.89777">
        <ele>845</ele>
        <time>2018-05-19T13:14:23Z</time>
      </trkpt>
      <trkpt lat="45.86451" lon="2.89784">
        <ele>844</ele>
        <time>2018-05-19T13:14:25Z</time>
      </trkpt>
      <trkpt lat="45.86456" lon="2.89788">
        <ele>844</ele>
        <time>2018-05-19T13:14:29Z</time>
      </trkpt>
      <trkpt lat="45.86459" lon="2.89794">
        <ele>845</ele>
        <time>2018-05-19T13:14:33Z</time>
      </trkpt>
      <trkpt lat="45.86461" lon="2.89805">
        <ele>845</ele>
        <time>2018-05-19T13:14:37Z</time>
      </trkpt>
      <trkpt lat="45.86464" lon="2.89813">
        <ele>846</ele>
        <time>2018-05-19T13:14:41Z</time>
      </trkpt>
      <trkpt lat="45.86468" lon="2.89821">
        <ele>847</ele>
        <time>2018-05-19T13:14:45Z</time>
      </trkpt>
      <trkpt lat="45.86472" lon="2.8983">
        <ele>848</ele>
        <time>2018-05-19T13:14:49Z</time>
      </trkpt>
      <trkpt lat="45.86476" lon="2.89839">
        <ele>848</ele>
        <time>2018-05-19T13:14:53Z</time>
      </trkpt>
      <trkpt lat="45.86481" lon="2.89848">
        <ele>849</ele>
        <time>2018-05-19T13:14:57Z</time>
      </trkpt>
      <trkpt lat="45.86486" lon="2.89857">
        <ele>850</ele>
        <time>2018-05-19T13:15:01Z</time>
      </trkpt>
      <trkpt lat="45.86492" lon="2.89866">
        <ele>850</ele>
        <time>2018-05-19T13:15:05Z</time>
      </trkpt>
      <trkpt lat="45.86497" lon="2.89876">
        <ele>850</ele>
        <time>2018-05-19T13:15:09Z</time>
      </trkpt>
      <trkpt lat="45.86501" lon="2.8988">
        <ele>850</ele>
        <time>2018-05-19T13:15:11Z</time>
      </trkpt>
      <trkpt lat="45.86505" lon="2.89891">
        <ele>850</ele>
        <time>2018-05-19T13:15:15Z</time>
      </trkpt>
      <trkpt lat="45.86509" lon="2.899">
        <ele>851</ele>
        <time>2018-05-19T13:15:19Z</time>
      </trkpt>
      <trkpt lat="45.86514" lon="2.89909">
        <ele>850</ele>
        <time>2018-05-19T13:15:23Z</time>
      </trkpt>
      <trkpt lat="45.8652" lon="2.89917">
        <ele>852</ele>
        <time>2018-05-19T13:15:27Z</time>
      </trkpt>
      <trkpt lat="45.86526" lon="2.89923">
        <ele>853</ele>
        <time>2018-05-19T13:15:31Z</time>
      </trkpt>
      <trkpt lat="45.86533" lon="2.89929">
        <ele>853</ele>
        <time>2018-05-19T13:15:35Z</time>
      </trkpt>
      <trkpt lat="45.8654" lon="2.89934">
        <ele>854</ele>
        <time>2018-05-19T13:15:39Z</time>
      </trkpt>
      <trkpt lat="45.86545" lon="2.89938">
        <ele>855</ele>
        <time>2018-05-19T13:15:43Z</time>
      </trkpt>
      <trkpt lat="45.86549" lon="2.89946">
        <ele>856</ele>
        <time>2018-05-19T13:15:47Z</time>
      </trkpt>
      <trkpt lat="45.86553" lon="2.8995">
        <ele>856</ele>
        <time>2018-05-19T13:15:51Z</time>
      </trkpt>
      <trkpt lat="45.86553" lon="2.89961">
        <ele>856</ele>
        <time>2018-05-19T13:15:59Z</time>
      </trkpt>
      <trkpt lat="45.86551" lon="2.8997">
        <ele>856</ele>
        <time>2018-05-19T13:16:03Z</time>
      </trkpt>
      <trkpt lat="45.8655" lon="2.89977">
        <ele>854</ele>
        <time>2018-05-19T13:16:21Z</time>
      </trkpt>
      <trkpt lat="45.86552" lon="2.8999">
        <ele>853</ele>
        <time>2018-05-19T13:16:25Z</time>
      </trkpt>
      <trkpt lat="45.86555" lon="2.89998">
        <ele>853</ele>
        <time>2018-05-19T13:16:27Z</time>
      </trkpt>
      <trkpt lat="45.86556" lon="2.90007">
        <ele>852</ele>
        <time>2018-05-19T13:16:29Z</time>
      </trkpt>
      <trkpt lat="45.86557" lon="2.90015">
        <ele>852</ele>
        <time>2018-05-19T13:16:31Z</time>
      </trkpt>
      <trkpt lat="45.86558" lon="2.90023">
        <ele>853</ele>
        <time>2018-05-19T13:16:33Z</time>
      </trkpt>
      <trkpt lat="45.86558" lon="2.90029">
        <ele>854</ele>
        <time>2018-05-19T13:16:35Z</time>
      </trkpt>
      <trkpt lat="45.86557" lon="2.90036">
        <ele>854</ele>
        <time>2018-05-19T13:16:37Z</time>
      </trkpt>
      <trkpt lat="45.86555" lon="2.90042">
        <ele>854</ele>
        <time>2018-05-19T13:16:39Z</time>
      </trkpt>
      <trkpt lat="45.86555" lon="2.90056">
        <ele>855</ele>
        <time>2018-05-19T13:16:43Z</time>
      </trkpt>
      <trkpt lat="45.86557" lon="2.90064">
        <ele>855</ele>
        <time>2018-05-19T13:16:45Z</time>
      </trkpt>
      <trkpt lat="45.8656" lon="2.90071">
        <ele>856</ele>
        <time>2018-05-19T13:16:47Z</time>
      </trkpt>
      <trkpt lat="45.86563" lon="2.90078">
        <ele>857</ele>
        <time>2018-05-19T13:16:49Z</time>
      </trkpt>
      <trkpt lat="45.86567" lon="2.90085">
        <ele>857</ele>
        <time>2018-05-19T13:16:51Z</time>
      </trkpt>
      <trkpt lat="45.86572" lon="2.90091">
        <ele>857</ele>
        <time>2018-05-19T13:16:53Z</time>
      </trkpt>
      <trkpt lat="45.86576" lon="2.90097">
        <ele>856</ele>
        <time>2018-05-19T13:16:55Z</time>
      </trkpt>
      <trkpt lat="45.86579" lon="2.90103">
        <ele>857</ele>
        <time>2018-05-19T13:16:57Z</time>
      </trkpt>
      <trkpt lat="45.86582" lon="2.90111">
        <ele>857</ele>
        <time>2018-05-19T13:16:59Z</time>
      </trkpt>
      <trkpt lat="45.86585" lon="2.90119">
        <ele>858</ele>
        <time>2018-05-19T13:17:01Z</time>
      </trkpt>
      <trkpt lat="45.86588" lon="2.90127">
        <ele>858</ele>
        <time>2018-05-19T13:17:03Z</time>
      </trkpt>
      <trkpt lat="45.8659" lon="2.90135">
        <ele>858</ele>
        <time>2018-05-19T13:17:05Z</time>
      </trkpt>
      <trkpt lat="45.86592" lon="2.90143">
        <ele>859</ele>
        <time>2018-05-19T13:17:07Z</time>
      </trkpt>
      <trkpt lat="45.86594" lon="2.90151">
        <ele>859</ele>
        <time>2018-05-19T13:17:09Z</time>
      </trkpt>
      <trkpt lat="45.86596" lon="2.90158">
        <ele>859</ele>
        <time>2018-05-19T13:17:11Z</time>
      </trkpt>
      <trkpt lat="45.86598" lon="2.90167">
        <ele>859</ele>
        <time>2018-05-19T13:17:13Z</time>
      </trkpt>
      <trkpt lat="45.86601" lon="2.90173">
        <ele>859</ele>
        <time>2018-05-19T13:17:15Z</time>
      </trkpt>
      <trkpt lat="45.86603" lon="2.90181">
        <ele>859</ele>
        <time>2018-05-19T13:17:17Z</time>
      </trkpt>
      <trkpt lat="45.86606" lon="2.90193">
        <ele>859</ele>
        <time>2018-05-19T13:17:21Z</time>
      </trkpt>
      <trkpt lat="45.86607" lon="2.90199">
        <ele>859</ele>
        <time>2018-05-19T13:17:23Z</time>
      </trkpt>
      <trkpt lat="45.86608" lon="2.90206">
        <ele>859</ele>
        <time>2018-05-19T13:17:25Z</time>
      </trkpt>
      <trkpt lat="45.86609" lon="2.90212">
        <ele>859</ele>
        <time>2018-05-19T13:17:27Z</time>
      </trkpt>
      <trkpt lat="45.8661" lon="2.90219">
        <ele>859</ele>
        <time>2018-05-19T13:17:29Z</time>
      </trkpt>
      <trkpt lat="45.8661" lon="2.90226">
        <ele>860</ele>
        <time>2018-05-19T13:17:31Z</time>
      </trkpt>
      <trkpt lat="45.8661" lon="2.90233">
        <ele>860</ele>
        <time>2018-05-19T13:17:33Z</time>
      </trkpt>
      <trkpt lat="45.8661" lon="2.9024">
        <ele>860</ele>
        <time>2018-05-19T13:17:35Z</time>
      </trkpt>
      <trkpt lat="45.8661" lon="2.90247">
        <ele>860</ele>
        <time>2018-05-19T13:17:37Z</time>
      </trkpt>
      <trkpt lat="45.8661" lon="2.90255">
        <ele>861</ele>
        <time>2018-05-19T13:17:39Z</time>
      </trkpt>
      <trkpt lat="45.86611" lon="2.90261">
        <ele>861</ele>
        <time>2018-05-19T13:17:41Z</time>
      </trkpt>
      <trkpt lat="45.86611" lon="2.90268">
        <ele>861</ele>
        <time>2018-05-19T13:17:43Z</time>
      </trkpt>
      <trkpt lat="45.86611" lon="2.90275">
        <ele>861</ele>
        <time>2018-05-19T13:17:45Z</time>
      </trkpt>
      <trkpt lat="45.86612" lon="2.90287">
        <ele>862</ele>
        <time>2018-05-19T13:17:49Z</time>
      </trkpt>
      <trkpt lat="45.86614" lon="2.90297">
        <ele>863</ele>
        <time>2018-05-19T13:17:53Z</time>
      </trkpt>
      <trkpt lat="45.86615" lon="2.90308">
        <ele>864</ele>
        <time>2018-05-19T13:17:57Z</time>
      </trkpt>
      <trkpt lat="45.86615" lon="2.9032">
        <ele>866</ele>
        <time>2018-05-19T13:18:01Z</time>
      </trkpt>
      <trkpt lat="45.86615" lon="2.90327">
        <ele>866</ele>
        <time>2018-05-19T13:18:03Z</time>
      </trkpt>
      <trkpt lat="45.86615" lon="2.90334">
        <ele>867</ele>
        <time>2018-05-19T13:18:05Z</time>
      </trkpt>
      <trkpt lat="45.86616" lon="2.90341">
        <ele>867</ele>
        <time>2018-05-19T13:18:07Z</time>
      </trkpt>
      <trkpt lat="45.86617" lon="2.90348">
        <ele>868</ele>
        <time>2018-05-19T13:18:09Z</time>
      </trkpt>
      <trkpt lat="45.86616" lon="2.90356">
        <ele>868</ele>
        <time>2018-05-19T13:18:11Z</time>
      </trkpt>
      <trkpt lat="45.86613" lon="2.90365">
        <ele>868</ele>
        <time>2018-05-19T13:18:13Z</time>
      </trkpt>
      <trkpt lat="45.86611" lon="2.90373">
        <ele>869</ele>
        <time>2018-05-19T13:18:15Z</time>
      </trkpt>
      <trkpt lat="45.86608" lon="2.90381">
        <ele>868</ele>
        <time>2018-05-19T13:18:17Z</time>
      </trkpt>
      <trkpt lat="45.86606" lon="2.90388">
        <ele>868</ele>
        <time>2018-05-19T13:18:19Z</time>
      </trkpt>
      <trkpt lat="45.86603" lon="2.90395">
        <ele>868</ele>
        <time>2018-05-19T13:18:21Z</time>
      </trkpt>
      <trkpt lat="45.86601" lon="2.90402">
        <ele>868</ele>
        <time>2018-05-19T13:18:23Z</time>
      </trkpt>
      <trkpt lat="45.86599" lon="2.90409">
        <ele>869</ele>
        <time>2018-05-19T13:18:25Z</time>
      </trkpt>
      <trkpt lat="45.86598" lon="2.90415">
        <ele>870</ele>
        <time>2018-05-19T13:18:27Z</time>
      </trkpt>
      <trkpt lat="45.86598" lon="2.90427">
        <ele>871</ele>
        <time>2018-05-19T13:18:31Z</time>
      </trkpt>
      <trkpt lat="45.86603" lon="2.90435">
        <ele>872</ele>
        <time>2018-05-19T13:18:35Z</time>
      </trkpt>
      <trkpt lat="45.86608" lon="2.90443">
        <ele>873</ele>
        <time>2018-05-19T13:18:39Z</time>
      </trkpt>
      <trkpt lat="45.86612" lon="2.9045">
        <ele>873</ele>
        <time>2018-05-19T13:18:43Z</time>
      </trkpt>
      <trkpt lat="45.86616" lon="2.90456">
        <ele>874</ele>
        <time>2018-05-19T13:18:47Z</time>
      </trkpt>
      <trkpt lat="45.86621" lon="2.90464">
        <ele>875</ele>
        <time>2018-05-19T13:18:51Z</time>
      </trkpt>
      <trkpt lat="45.86625" lon="2.90471">
        <ele>876</ele>
        <time>2018-05-19T13:18:55Z</time>
      </trkpt>
      <trkpt lat="45.86629" lon="2.90478">
        <ele>877</ele>
        <time>2018-05-19T13:18:59Z</time>
      </trkpt>
      <trkpt lat="45.86632" lon="2.90486">
        <ele>877</ele>
        <time>2018-05-19T13:19:03Z</time>
      </trkpt>
      <trkpt lat="45.86636" lon="2.90494">
        <ele>879</ele>
        <time>2018-05-19T13:19:07Z</time>
      </trkpt>
      <trkpt lat="45.8664" lon="2.90501">
        <ele>879</ele>
        <time>2018-05-19T13:19:11Z</time>
      </trkpt>
      <trkpt lat="45.86645" lon="2.90508">
        <ele>879</ele>
        <time>2018-05-19T13:19:15Z</time>
      </trkpt>
      <trkpt lat="45.86649" lon="2.90516">
        <ele>879</ele>
        <time>2018-05-19T13:19:19Z</time>
      </trkpt>
      <trkpt lat="45.86653" lon="2.90523">
        <ele>880</ele>
        <time>2018-05-19T13:19:23Z</time>
      </trkpt>
      <trkpt lat="45.86657" lon="2.90531">
        <ele>881</ele>
        <time>2018-05-19T13:19:27Z</time>
      </trkpt>
      <trkpt lat="45.86661" lon="2.90537">
        <ele>882</ele>
        <time>2018-05-19T13:19:31Z</time>
      </trkpt>
      <trkpt lat="45.86664" lon="2.90544">
        <ele>883</ele>
        <time>2018-05-19T13:19:35Z</time>
      </trkpt>
      <trkpt lat="45.86666" lon="2.90551">
        <ele>883</ele>
        <time>2018-05-19T13:19:39Z</time>
      </trkpt>
      <trkpt lat="45.86668" lon="2.90559">
        <ele>883</ele>
        <time>2018-05-19T13:19:43Z</time>
      </trkpt>
      <trkpt lat="45.86667" lon="2.90568">
        <ele>883</ele>
        <time>2018-05-19T13:19:47Z</time>
      </trkpt>
      <trkpt lat="45.86666" lon="2.90575">
        <ele>883</ele>
        <time>2018-05-19T13:19:51Z</time>
      </trkpt>
      <trkpt lat="45.86665" lon="2.90582">
        <ele>883</ele>
        <time>2018-05-19T13:19:55Z</time>
      </trkpt>
      <trkpt lat="45.86665" lon="2.9059">
        <ele>884</ele>
        <time>2018-05-19T13:19:59Z</time>
      </trkpt>
      <trkpt lat="45.86665" lon="2.90598">
        <ele>885</ele>
        <time>2018-05-19T13:20:03Z</time>
      </trkpt>
      <trkpt lat="45.86666" lon="2.90607">
        <ele>885</ele>
        <time>2018-05-19T13:20:07Z</time>
      </trkpt>
      <trkpt lat="45.86666" lon="2.90616">
        <ele>886</ele>
        <time>2018-05-19T13:20:11Z</time>
      </trkpt>
      <trkpt lat="45.86666" lon="2.90624">
        <ele>885</ele>
        <time>2018-05-19T13:20:15Z</time>
      </trkpt>
      <trkpt lat="45.86665" lon="2.90632">
        <ele>887</ele>
        <time>2018-05-19T13:20:19Z</time>
      </trkpt>
      <trkpt lat="45.86664" lon="2.90641">
        <ele>887</ele>
        <time>2018-05-19T13:20:23Z</time>
      </trkpt>
      <trkpt lat="45.86664" lon="2.90649">
        <ele>887</ele>
        <time>2018-05-19T13:20:27Z</time>
      </trkpt>
      <trkpt lat="45.8666" lon="2.90657">
        <ele>888</ele>
        <time>2018-05-19T13:20:31Z</time>
      </trkpt>
      <trkpt lat="45.86655" lon="2.90667">
        <ele>888</ele>
        <time>2018-05-19T13:20:35Z</time>
      </trkpt>
      <trkpt lat="45.86651" lon="2.90675">
        <ele>887</ele>
        <time>2018-05-19T13:20:37Z</time>
      </trkpt>
      <trkpt lat="45.86647" lon="2.90684">
        <ele>887</ele>
        <time>2018-05-19T13:20:39Z</time>
      </trkpt>
      <trkpt lat="45.86644" lon="2.90696">
        <ele>885</ele>
        <time>2018-05-19T13:20:41Z</time>
      </trkpt>
      <trkpt lat="45.86641" lon="2.90707">
        <ele>885</ele>
        <time>2018-05-19T13:20:43Z</time>
      </trkpt>
      <trkpt lat="45.8664" lon="2.90717">
        <ele>885</ele>
        <time>2018-05-19T13:20:45Z</time>
      </trkpt>
      <trkpt lat="45.86641" lon="2.90726">
        <ele>884</ele>
        <time>2018-05-19T13:20:47Z</time>
      </trkpt>
      <trkpt lat="45.86643" lon="2.90735">
        <ele>884</ele>
        <time>2018-05-19T13:20:49Z</time>
      </trkpt>
      <trkpt lat="45.86644" lon="2.90743">
        <ele>884</ele>
        <time>2018-05-19T13:20:51Z</time>
      </trkpt>
      <trkpt lat="45.86646" lon="2.90752">
        <ele>882</ele>
        <time>2018-05-19T13:20:53Z</time>
      </trkpt>
      <trkpt lat="45.86649" lon="2.90761">
        <ele>883</ele>
        <time>2018-05-19T13:20:55Z</time>
      </trkpt>
      <trkpt lat="45.86651" lon="2.90769">
        <ele>885</ele>
        <time>2018-05-19T13:20:57Z</time>
      </trkpt>
      <trkpt lat="45.86653" lon="2.90775">
        <ele>886</ele>
        <time>2018-05-19T13:20:59Z</time>
      </trkpt>
      <trkpt lat="45.8666" lon="2.90783">
        <ele>887</ele>
        <time>2018-05-19T13:21:03Z</time>
      </trkpt>
      <trkpt lat="45.86664" lon="2.90785">
        <ele>887</ele>
        <time>2018-05-19T13:21:05Z</time>
      </trkpt>
      <trkpt lat="45.86671" lon="2.9079">
        <ele>889</ele>
        <time>2018-05-19T13:21:09Z</time>
      </trkpt>
      <trkpt lat="45.86678" lon="2.90798">
        <ele>890</ele>
        <time>2018-05-19T13:21:13Z</time>
      </trkpt>
      <trkpt lat="45.86681" lon="2.90804">
        <ele>891</ele>
        <time>2018-05-19T13:21:15Z</time>
      </trkpt>
      <trkpt lat="45.86684" lon="2.90809">
        <ele>891</ele>
        <time>2018-05-19T13:21:17Z</time>
      </trkpt>
      <trkpt lat="45.8669" lon="2.90816">
        <ele>893</ele>
        <time>2018-05-19T13:21:21Z</time>
      </trkpt>
      <trkpt lat="45.86696" lon="2.90822">
        <ele>895</ele>
        <time>2018-05-19T13:21:25Z</time>
      </trkpt>
      <trkpt lat="45.86702" lon="2.90829">
        <ele>897</ele>
        <time>2018-05-19T13:21:29Z</time>
      </trkpt>
      <trkpt lat="45.86706" lon="2.90837">
        <ele>898</ele>
        <time>2018-05-19T13:21:33Z</time>
      </trkpt>
      <trkpt lat="45.86711" lon="2.90844">
        <ele>899</ele>
        <time>2018-05-19T13:21:37Z</time>
      </trkpt>
      <trkpt lat="45.86717" lon="2.90854">
        <ele>899</ele>
        <time>2018-05-19T13:21:41Z</time>
      </trkpt>
      <trkpt lat="45.8672" lon="2.90858">
        <ele>900</ele>
        <time>2018-05-19T13:21:43Z</time>
      </trkpt>
      <trkpt lat="45.86725" lon="2.90867">
        <ele>902</ele>
        <time>2018-05-19T13:21:47Z</time>
      </trkpt>
      <trkpt lat="45.86728" lon="2.90872">
        <ele>901</ele>
        <time>2018-05-19T13:21:49Z</time>
      </trkpt>
      <trkpt lat="45.86731" lon="2.90882">
        <ele>902</ele>
        <time>2018-05-19T13:21:53Z</time>
      </trkpt>
      <trkpt lat="45.86735" lon="2.90892">
        <ele>903</ele>
        <time>2018-05-19T13:21:57Z</time>
      </trkpt>
      <trkpt lat="45.86739" lon="2.909">
        <ele>905</ele>
        <time>2018-05-19T13:22:01Z</time>
      </trkpt>
      <trkpt lat="45.86743" lon="2.90906">
        <ele>904</ele>
        <time>2018-05-19T13:22:03Z</time>
      </trkpt>
      <trkpt lat="45.86745" lon="2.90913">
        <ele>901</ele>
        <time>2018-05-19T13:22:05Z</time>
      </trkpt>
      <trkpt lat="45.86745" lon="2.90919">
        <ele>901</ele>
        <time>2018-05-19T13:22:07Z</time>
      </trkpt>
      <trkpt lat="45.86746" lon="2.90929">
        <ele>901</ele>
        <time>2018-05-19T13:22:11Z</time>
      </trkpt>
      <trkpt lat="45.86748" lon="2.90935">
        <ele>901</ele>
        <time>2018-05-19T13:22:15Z</time>
      </trkpt>
      <trkpt lat="45.86747" lon="2.90943">
        <ele>900</ele>
        <time>2018-05-19T13:22:19Z</time>
      </trkpt>
      <trkpt lat="45.8675" lon="2.90951">
        <ele>901</ele>
        <time>2018-05-19T13:22:23Z</time>
      </trkpt>
      <trkpt lat="45.86753" lon="2.90957">
        <ele>902</ele>
        <time>2018-05-19T13:22:27Z</time>
      </trkpt>
      <trkpt lat="45.86756" lon="2.90964">
        <ele>904</ele>
        <time>2018-05-19T13:22:31Z</time>
      </trkpt>
      <trkpt lat="45.86755" lon="2.90973">
        <ele>906</ele>
        <time>2018-05-19T13:22:35Z</time>
      </trkpt>
      <trkpt lat="45.86752" lon="2.90982">
        <ele>906</ele>
        <time>2018-05-19T13:22:39Z</time>
      </trkpt>
      <trkpt lat="45.86749" lon="2.9099">
        <ele>908</ele>
        <time>2018-05-19T13:22:43Z</time>
      </trkpt>
      <trkpt lat="45.86745" lon="2.90997">
        <ele>909</ele>
        <time>2018-05-19T13:22:47Z</time>
      </trkpt>
      <trkpt lat="45.8674" lon="2.91004">
        <ele>909</ele>
        <time>2018-05-19T13:22:53Z</time>
      </trkpt>
      <trkpt lat="45.86737" lon="2.91013">
        <ele>909</ele>
        <time>2018-05-19T13:22:57Z</time>
      </trkpt>
      <trkpt lat="45.86737" lon="2.91021">
        <ele>910</ele>
        <time>2018-05-19T13:23:01Z</time>
      </trkpt>
      <trkpt lat="45.86737" lon="2.9103">
        <ele>911</ele>
        <time>2018-05-19T13:23:05Z</time>
      </trkpt>
      <trkpt lat="45.86738" lon="2.9104">
        <ele>911</ele>
        <time>2018-05-19T13:23:09Z</time>
      </trkpt>
      <trkpt lat="45.86738" lon="2.91047">
        <ele>912</ele>
        <time>2018-05-19T13:23:13Z</time>
      </trkpt>
      <trkpt lat="45.86736" lon="2.91056">
        <ele>913</ele>
        <time>2018-05-19T13:23:17Z</time>
      </trkpt>
      <trkpt lat="45.86736" lon="2.91066">
        <ele>913</ele>
        <time>2018-05-19T13:23:21Z</time>
      </trkpt>
      <trkpt lat="45.86733" lon="2.91076">
        <ele>913</ele>
        <time>2018-05-19T13:23:25Z</time>
      </trkpt>
      <trkpt lat="45.86731" lon="2.91086">
        <ele>913</ele>
        <time>2018-05-19T13:23:29Z</time>
      </trkpt>
      <trkpt lat="45.86729" lon="2.91095">
        <ele>913</ele>
        <time>2018-05-19T13:23:33Z</time>
      </trkpt>
      <trkpt lat="45.86726" lon="2.91104">
        <ele>913</ele>
        <time>2018-05-19T13:23:37Z</time>
      </trkpt>
      <trkpt lat="45.86723" lon="2.91113">
        <ele>914</ele>
        <time>2018-05-19T13:23:41Z</time>
      </trkpt>
      <trkpt lat="45.86719" lon="2.91122">
        <ele>915</ele>
        <time>2018-05-19T13:23:45Z</time>
      </trkpt>
      <trkpt lat="45.86716" lon="2.91131">
        <ele>916</ele>
        <time>2018-05-19T13:23:49Z</time>
      </trkpt>
      <trkpt lat="45.86712" lon="2.91141">
        <ele>916</ele>
        <time>2018-05-19T13:23:53Z</time>
      </trkpt>
      <trkpt lat="45.86708" lon="2.9115">
        <ele>916</ele>
        <time>2018-05-19T13:23:57Z</time>
      </trkpt>
      <trkpt lat="45.86704" lon="2.91159">
        <ele>916</ele>
        <time>2018-05-19T13:24:01Z</time>
      </trkpt>
      <trkpt lat="45.86702" lon="2.91167">
        <ele>917</ele>
        <time>2018-05-19T13:24:05Z</time>
      </trkpt>
      <trkpt lat="45.86699" lon="2.91175">
        <ele>917</ele>
        <time>2018-05-19T13:24:09Z</time>
      </trkpt>
      <trkpt lat="45.86695" lon="2.91184">
        <ele>917</ele>
        <time>2018-05-19T13:24:13Z</time>
      </trkpt>
      <trkpt lat="45.86692" lon="2.91191">
        <ele>918</ele>
        <time>2018-05-19T13:24:17Z</time>
      </trkpt>
      <trkpt lat="45.86689" lon="2.91199">
        <ele>919</ele>
        <time>2018-05-19T13:24:21Z</time>
      </trkpt>
      <trkpt lat="45.86685" lon="2.91208">
        <ele>919</ele>
        <time>2018-05-19T13:24:25Z</time>
      </trkpt>
      <trkpt lat="45.86683" lon="2.91214">
        <ele>920</ele>
        <time>2018-05-19T13:24:29Z</time>
      </trkpt>
      <trkpt lat="45.86679" lon="2.91222">
        <ele>921</ele>
        <time>2018-05-19T13:24:33Z</time>
      </trkpt>
      <trkpt lat="45.86675" lon="2.9123">
        <ele>921</ele>
        <time>2018-05-19T13:24:37Z</time>
      </trkpt>
      <trkpt lat="45.86671" lon="2.91236">
        <ele>922</ele>
        <time>2018-05-19T13:24:41Z</time>
      </trkpt>
      <trkpt lat="45.86668" lon="2.91243">
        <ele>923</ele>
        <time>2018-05-19T13:24:45Z</time>
      </trkpt>
      <trkpt lat="45.86664" lon="2.9125">
        <ele>923</ele>
        <time>2018-05-19T13:24:49Z</time>
      </trkpt>
      <trkpt lat="45.8666" lon="2.91255">
        <ele>924</ele>
        <time>2018-05-19T13:24:53Z</time>
      </trkpt>
      <trkpt lat="45.86656" lon="2.91261">
        <ele>925</ele>
        <time>2018-05-19T13:24:57Z</time>
      </trkpt>
      <trkpt lat="45.86652" lon="2.91266">
        <ele>925</ele>
        <time>2018-05-19T13:25:01Z</time>
      </trkpt>
      <trkpt lat="45.86648" lon="2.91274">
        <ele>926</ele>
        <time>2018-05-19T13:25:05Z</time>
      </trkpt>
      <trkpt lat="45.86644" lon="2.9128">
        <ele>927</ele>
        <time>2018-05-19T13:25:09Z</time>
      </trkpt>
      <trkpt lat="45.86639" lon="2.91287">
        <ele>927</ele>
        <time>2018-05-19T13:25:13Z</time>
      </trkpt>
      <trkpt lat="45.86634" lon="2.91293">
        <ele>927</ele>
        <time>2018-05-19T13:25:17Z</time>
      </trkpt>
      <trkpt lat="45.86628" lon="2.91301">
        <ele>926</ele>
        <time>2018-05-19T13:25:21Z</time>
      </trkpt>
      <trkpt lat="45.86623" lon="2.91306">
        <ele>926</ele>
        <time>2018-05-19T13:25:23Z</time>
      </trkpt>
      <trkpt lat="45.86617" lon="2.91312">
        <ele>924</ele>
        <time>2018-05-19T13:25:25Z</time>
      </trkpt>
      <trkpt lat="45.86608" lon="2.91319">
        <ele>922</ele>
        <time>2018-05-19T13:25:27Z</time>
      </trkpt>
      <trkpt lat="45.86597" lon="2.91327">
        <ele>921</ele>
        <time>2018-05-19T13:25:29Z</time>
      </trkpt>
      <trkpt lat="45.86582" lon="2.91332">
        <ele>919</ele>
        <time>2018-05-19T13:25:31Z</time>
      </trkpt>
      <trkpt lat="45.86566" lon="2.91337">
        <ele>918</ele>
        <time>2018-05-19T13:25:33Z</time>
      </trkpt>
      <trkpt lat="45.8655" lon="2.91345">
        <ele>915</ele>
        <time>2018-05-19T13:25:35Z</time>
      </trkpt>
      <trkpt lat="45.86533" lon="2.91351">
        <ele>914</ele>
        <time>2018-05-19T13:25:37Z</time>
      </trkpt>
      <trkpt lat="45.86515" lon="2.91354">
        <ele>911</ele>
        <time>2018-05-19T13:25:39Z</time>
      </trkpt>
      <trkpt lat="45.86498" lon="2.91356">
        <ele>909</ele>
        <time>2018-05-19T13:25:41Z</time>
      </trkpt>
      <trkpt lat="45.86484" lon="2.91357">
        <ele>908</ele>
        <time>2018-05-19T13:25:43Z</time>
      </trkpt>
      <trkpt lat="45.86473" lon="2.91364">
        <ele>907</ele>
        <time>2018-05-19T13:25:45Z</time>
      </trkpt>
      <trkpt lat="45.86462" lon="2.91374">
        <ele>907</ele>
        <time>2018-05-19T13:25:47Z</time>
      </trkpt>
      <trkpt lat="45.86452" lon="2.91382">
        <ele>907</ele>
        <time>2018-05-19T13:25:49Z</time>
      </trkpt>
      <trkpt lat="45.86442" lon="2.91386">
        <ele>908</ele>
        <time>2018-05-19T13:25:51Z</time>
      </trkpt>
      <trkpt lat="45.86432" lon="2.91387">
        <ele>908</ele>
        <time>2018-05-19T13:25:53Z</time>
      </trkpt>
      <trkpt lat="45.86425" lon="2.91387">
        <ele>908</ele>
        <time>2018-05-19T13:25:55Z</time>
      </trkpt>
      <trkpt lat="45.86417" lon="2.91387">
        <ele>908</ele>
        <time>2018-05-19T13:25:57Z</time>
      </trkpt>
      <trkpt lat="45.8641" lon="2.91386">
        <ele>908</ele>
        <time>2018-05-19T13:25:59Z</time>
      </trkpt>
      <trkpt lat="45.86403" lon="2.91387">
        <ele>909</ele>
        <time>2018-05-19T13:26:01Z</time>
      </trkpt>
      <trkpt lat="45.86397" lon="2.91387">
        <ele>910</ele>
        <time>2018-05-19T13:26:03Z</time>
      </trkpt>
      <trkpt lat="45.86392" lon="2.91386">
        <ele>910</ele>
        <time>2018-05-19T13:26:05Z</time>
      </trkpt>
      <trkpt lat="45.86386" lon="2.91386">
        <ele>910</ele>
        <time>2018-05-19T13:26:07Z</time>
      </trkpt>
      <trkpt lat="45.86381" lon="2.91385">
        <ele>911</ele>
        <time>2018-05-19T13:26:09Z</time>
      </trkpt>
      <trkpt lat="45.86376" lon="2.91385">
        <ele>911</ele>
        <time>2018-05-19T13:26:11Z</time>
      </trkpt>
      <trkpt lat="45.86371" lon="2.91385">
        <ele>911</ele>
        <time>2018-05-19T13:26:13Z</time>
      </trkpt>
      <trkpt lat="45.86366" lon="2.91386">
        <ele>911</ele>
        <time>2018-05-19T13:26:15Z</time>
      </trkpt>
      <trkpt lat="45.86358" lon="2.91389">
        <ele>912</ele>
        <time>2018-05-19T13:26:19Z</time>
      </trkpt>
      <trkpt lat="45.8635" lon="2.91392">
        <ele>912</ele>
        <time>2018-05-19T13:26:23Z</time>
      </trkpt>
      <trkpt lat="45.86346" lon="2.91398">
        <ele>912</ele>
        <time>2018-05-19T13:26:25Z</time>
      </trkpt>
      <trkpt lat="45.86344" lon="2.91404">
        <ele>912</ele>
        <time>2018-05-19T13:26:27Z</time>
      </trkpt>
      <trkpt lat="45.86339" lon="2.91414">
        <ele>913</ele>
        <time>2018-05-19T13:26:31Z</time>
      </trkpt>
      <trkpt lat="45.86335" lon="2.91424">
        <ele>914</ele>
        <time>2018-05-19T13:26:35Z</time>
      </trkpt>
      <trkpt lat="45.86331" lon="2.91435">
        <ele>915</ele>
        <time>2018-05-19T13:26:39Z</time>
      </trkpt>
      <trkpt lat="45.86326" lon="2.91444">
        <ele>915</ele>
        <time>2018-05-19T13:26:43Z</time>
      </trkpt>
      <trkpt lat="45.86321" lon="2.91454">
        <ele>916</ele>
        <time>2018-05-19T13:26:47Z</time>
      </trkpt>
      <trkpt lat="45.86316" lon="2.91465">
        <ele>918</ele>
        <time>2018-05-19T13:26:51Z</time>
      </trkpt>
      <trkpt lat="45.86311" lon="2.91475">
        <ele>918</ele>
        <time>2018-05-19T13:26:55Z</time>
      </trkpt>
      <trkpt lat="45.86308" lon="2.91486">
        <ele>919</ele>
        <time>2018-05-19T13:26:59Z</time>
      </trkpt>
      <trkpt lat="45.86303" lon="2.91496">
        <ele>919</ele>
        <time>2018-05-19T13:27:03Z</time>
      </trkpt>
      <trkpt lat="45.86299" lon="2.91506">
        <ele>920</ele>
        <time>2018-05-19T13:27:07Z</time>
      </trkpt>
      <trkpt lat="45.86293" lon="2.91517">
        <ele>920</ele>
        <time>2018-05-19T13:27:11Z</time>
      </trkpt>
      <trkpt lat="45.86291" lon="2.91523">
        <ele>921</ele>
        <time>2018-05-19T13:27:13Z</time>
      </trkpt>
      <trkpt lat="45.86287" lon="2.91533">
        <ele>921</ele>
        <time>2018-05-19T13:27:17Z</time>
      </trkpt>
      <trkpt lat="45.86282" lon="2.91543">
        <ele>921</ele>
        <time>2018-05-19T13:27:21Z</time>
      </trkpt>
      <trkpt lat="45.8628" lon="2.91549">
        <ele>921</ele>
        <time>2018-05-19T13:27:23Z</time>
      </trkpt>
      <trkpt lat="45.86275" lon="2.9156">
        <ele>922</ele>
        <time>2018-05-19T13:27:27Z</time>
      </trkpt>
      <trkpt lat="45.86271" lon="2.91569">
        <ele>922</ele>
        <time>2018-05-19T13:27:31Z</time>
      </trkpt>
      <trkpt lat="45.86266" lon="2.91578">
        <ele>923</ele>
        <time>2018-05-19T13:27:35Z</time>
      </trkpt>
      <trkpt lat="45.8626" lon="2.91586">
        <ele>923</ele>
        <time>2018-05-19T13:27:39Z</time>
      </trkpt>
      <trkpt lat="45.86254" lon="2.91595">
        <ele>925</ele>
        <time>2018-05-19T13:27:43Z</time>
      </trkpt>
      <trkpt lat="45.86249" lon="2.91602">
        <ele>926</ele>
        <time>2018-05-19T13:27:47Z</time>
      </trkpt>
      <trkpt lat="45.86242" lon="2.9161">
        <ele>926</ele>
        <time>2018-05-19T13:27:51Z</time>
      </trkpt>
      <trkpt lat="45.86238" lon="2.91613">
        <ele>927</ele>
        <time>2018-05-19T13:27:53Z</time>
      </trkpt>
      <trkpt lat="45.86232" lon="2.91617">
        <ele>926</ele>
        <time>2018-05-19T13:27:55Z</time>
      </trkpt>
      <trkpt lat="45.86227" lon="2.91623">
        <ele>926</ele>
        <time>2018-05-19T13:27:57Z</time>
      </trkpt>
      <trkpt lat="45.86222" lon="2.9163">
        <ele>925</ele>
        <time>2018-05-19T13:27:59Z</time>
      </trkpt>
      <trkpt lat="45.86215" lon="2.91638">
        <ele>924</ele>
        <time>2018-05-19T13:28:01Z</time>
      </trkpt>
      <trkpt lat="45.86209" lon="2.91647">
        <ele>923</ele>
        <time>2018-05-19T13:28:03Z</time>
      </trkpt>
      <trkpt lat="45.86205" lon="2.91657">
        <ele>922</ele>
        <time>2018-05-19T13:28:05Z</time>
      </trkpt>
      <trkpt lat="45.86201" lon="2.91667">
        <ele>921</ele>
        <time>2018-05-19T13:28:07Z</time>
      </trkpt>
      <trkpt lat="45.86198" lon="2.91678">
        <ele>921</ele>
        <time>2018-05-19T13:28:09Z</time>
      </trkpt>
      <trkpt lat="45.86195" lon="2.91688">
        <ele>920</ele>
        <time>2018-05-19T13:28:11Z</time>
      </trkpt>
      <trkpt lat="45.86192" lon="2.91699">
        <ele>920</ele>
        <time>2018-05-19T13:28:13Z</time>
      </trkpt>
      <trkpt lat="45.8619" lon="2.91709">
        <ele>919</ele>
        <time>2018-05-19T13:28:15Z</time>
      </trkpt>
      <trkpt lat="45.86188" lon="2.91719">
        <ele>919</ele>
        <time>2018-05-19T13:28:17Z</time>
      </trkpt>
      <trkpt lat="45.86185" lon="2.9173">
        <ele>919</ele>
        <time>2018-05-19T13:28:19Z</time>
      </trkpt>
      <trkpt lat="45.86183" lon="2.91741">
        <ele>919</ele>
        <time>2018-05-19T13:28:21Z</time>
      </trkpt>
      <trkpt lat="45.8618" lon="2.91751">
        <ele>919</ele>
        <time>2018-05-19T13:28:23Z</time>
      </trkpt>
      <trkpt lat="45.86178" lon="2.91761">
        <ele>920</ele>
        <time>2018-05-19T13:28:25Z</time>
      </trkpt>
      <trkpt lat="45.86175" lon="2.9177">
        <ele>920</ele>
        <time>2018-05-19T13:28:27Z</time>
      </trkpt>
      <trkpt lat="45.86172" lon="2.9178">
        <ele>920</ele>
        <time>2018-05-19T13:28:29Z</time>
      </trkpt>
      <trkpt lat="45.86169" lon="2.91788">
        <ele>920</ele>
        <time>2018-05-19T13:28:31Z</time>
      </trkpt>
      <trkpt lat="45.8616" lon="2.91792">
        <ele>920</ele>
        <time>2018-05-19T13:28:33Z</time>
      </trkpt>
      <trkpt lat="45.8615" lon="2.91793">
        <ele>919</ele>
        <time>2018-05-19T13:28:35Z</time>
      </trkpt>
      <trkpt lat="45.8614" lon="2.91794">
        <ele>919</ele>
        <time>2018-05-19T13:28:37Z</time>
      </trkpt>
      <trkpt lat="45.86129" lon="2.91796">
        <ele>919</ele>
        <time>2018-05-19T13:28:39Z</time>
      </trkpt>
      <trkpt lat="45.86119" lon="2.91797">
        <ele>919</ele>
        <time>2018-05-19T13:28:41Z</time>
      </trkpt>
      <trkpt lat="45.86109" lon="2.91798">
        <ele>919</ele>
        <time>2018-05-19T13:28:43Z</time>
      </trkpt>
      <trkpt lat="45.861" lon="2.91799">
        <ele>919</ele>
        <time>2018-05-19T13:28:45Z</time>
      </trkpt>
      <trkpt lat="45.86091" lon="2.918">
        <ele>919</ele>
        <time>2018-05-19T13:28:47Z</time>
      </trkpt>
      <trkpt lat="45.86083" lon="2.918">
        <ele>919</ele>
        <time>2018-05-19T13:28:49Z</time>
      </trkpt>
      <trkpt lat="45.86075" lon="2.91801">
        <ele>919</ele>
        <time>2018-05-19T13:28:51Z</time>
      </trkpt>
      <trkpt lat="45.86067" lon="2.91802">
        <ele>919</ele>
        <time>2018-05-19T13:28:53Z</time>
      </trkpt>
      <trkpt lat="45.8606" lon="2.91803">
        <ele>919</ele>
        <time>2018-05-19T13:28:55Z</time>
      </trkpt>
      <trkpt lat="45.86053" lon="2.91804">
        <ele>920</ele>
        <time>2018-05-19T13:28:57Z</time>
      </trkpt>
      <trkpt lat="45.86046" lon="2.91804">
        <ele>920</ele>
        <time>2018-05-19T13:28:59Z</time>
      </trkpt>
      <trkpt lat="45.8604" lon="2.91805">
        <ele>920</ele>
        <time>2018-05-19T13:29:01Z</time>
      </trkpt>
      <trkpt lat="45.86034" lon="2.91804">
        <ele>920</ele>
        <time>2018-05-19T13:29:03Z</time>
      </trkpt>
      <trkpt lat="45.86028" lon="2.91805">
        <ele>921</ele>
        <time>2018-05-19T13:29:05Z</time>
      </trkpt>
      <trkpt lat="45.86023" lon="2.91807">
        <ele>922</ele>
        <time>2018-05-19T13:29:07Z</time>
      </trkpt>
      <trkpt lat="45.86017" lon="2.91808">
        <ele>922</ele>
        <time>2018-05-19T13:29:09Z</time>
      </trkpt>
      <trkpt lat="45.86012" lon="2.91808">
        <ele>922</ele>
        <time>2018-05-19T13:29:11Z</time>
      </trkpt>
      <trkpt lat="45.86002" lon="2.91809">
        <ele>922</ele>
        <time>2018-05-19T13:29:15Z</time>
      </trkpt>
      <trkpt lat="45.85998" lon="2.91808">
        <ele>922</ele>
        <time>2018-05-19T13:29:17Z</time>
      </trkpt>
      <trkpt lat="45.8599" lon="2.91807">
        <ele>922</ele>
        <time>2018-05-19T13:29:21Z</time>
      </trkpt>
      <trkpt lat="45.85979" lon="2.91805">
        <ele>923</ele>
        <time>2018-05-19T13:29:25Z</time>
      </trkpt>
      <trkpt lat="45.85972" lon="2.91805">
        <ele>924</ele>
        <time>2018-05-19T13:29:29Z</time>
      </trkpt>
      <trkpt lat="45.85967" lon="2.91805">
        <ele>924</ele>
        <time>2018-05-19T13:29:31Z</time>
      </trkpt>
      <trkpt lat="45.85962" lon="2.91804">
        <ele>923</ele>
        <time>2018-05-19T13:29:33Z</time>
      </trkpt>
      <trkpt lat="45.85957" lon="2.91804">
        <ele>923</ele>
        <time>2018-05-19T13:29:35Z</time>
      </trkpt>
      <trkpt lat="45.85953" lon="2.91803">
        <ele>924</ele>
        <time>2018-05-19T13:29:37Z</time>
      </trkpt>
      <trkpt lat="45.85948" lon="2.91803">
        <ele>924</ele>
        <time>2018-05-19T13:29:39Z</time>
      </trkpt>
      <trkpt lat="45.8594" lon="2.91802">
        <ele>925</ele>
        <time>2018-05-19T13:29:43Z</time>
      </trkpt>
      <trkpt lat="45.85935" lon="2.918">
        <ele>926</ele>
        <time>2018-05-19T13:29:45Z</time>
      </trkpt>
      <trkpt lat="45.85931" lon="2.918">
        <ele>927</ele>
        <time>2018-05-19T13:29:47Z</time>
      </trkpt>
      <trkpt lat="45.85923" lon="2.91799">
        <ele>928</ele>
        <time>2018-05-19T13:29:51Z</time>
      </trkpt>
      <trkpt lat="45.85914" lon="2.91797">
        <ele>929</ele>
        <time>2018-05-19T13:29:55Z</time>
      </trkpt>
      <trkpt lat="45.85908" lon="2.91791">
        <ele>927</ele>
        <time>2018-05-19T13:29:59Z</time>
      </trkpt>
      <trkpt lat="45.85905" lon="2.91786">
        <ele>927</ele>
        <time>2018-05-19T13:30:01Z</time>
      </trkpt>
      <trkpt lat="45.85901" lon="2.9178">
        <ele>926</ele>
        <time>2018-05-19T13:30:03Z</time>
      </trkpt>
      <trkpt lat="45.85896" lon="2.91776">
        <ele>926</ele>
        <time>2018-05-19T13:30:05Z</time>
      </trkpt>
      <trkpt lat="45.85892" lon="2.91771">
        <ele>926</ele>
        <time>2018-05-19T13:30:07Z</time>
      </trkpt>
      <trkpt lat="45.85887" lon="2.91767">
        <ele>926</ele>
        <time>2018-05-19T13:30:09Z</time>
      </trkpt>
      <trkpt lat="45.85882" lon="2.91764">
        <ele>926</ele>
        <time>2018-05-19T13:30:11Z</time>
      </trkpt>
      <trkpt lat="45.85876" lon="2.91767">
        <ele>928</ele>
        <time>2018-05-19T13:30:17Z</time>
      </trkpt>
      <trkpt lat="45.85872" lon="2.91772">
        <ele>928</ele>
        <time>2018-05-19T13:30:19Z</time>
      </trkpt>
      <trkpt lat="45.85871" lon="2.91779">
        <ele>929</ele>
        <time>2018-05-19T13:30:21Z</time>
      </trkpt>
      <trkpt lat="45.85872" lon="2.91787">
        <ele>929</ele>
        <time>2018-05-19T13:30:23Z</time>
      </trkpt>
      <trkpt lat="45.8587" lon="2.91794">
        <ele>928</ele>
        <time>2018-05-19T13:30:25Z</time>
      </trkpt>
      <trkpt lat="45.85865" lon="2.91794">
        <ele>929</ele>
        <time>2018-05-19T13:30:27Z</time>
      </trkpt>
      <trkpt lat="45.85861" lon="2.91787">
        <ele>928</ele>
        <time>2018-05-19T13:30:29Z</time>
      </trkpt>
      <trkpt lat="45.85857" lon="2.9178">
        <ele>928</ele>
        <time>2018-05-19T13:30:31Z</time>
      </trkpt>
      <trkpt lat="45.85853" lon="2.91772">
        <ele>928</ele>
        <time>2018-05-19T13:30:33Z</time>
      </trkpt>
      <trkpt lat="45.85848" lon="2.91763">
        <ele>928</ele>
        <time>2018-05-19T13:30:35Z</time>
      </trkpt>
      <trkpt lat="45.85842" lon="2.91753">
        <ele>928</ele>
        <time>2018-05-19T13:30:37Z</time>
      </trkpt>
      <trkpt lat="45.85836" lon="2.91744">
        <ele>928</ele>
        <time>2018-05-19T13:30:39Z</time>
      </trkpt>
      <trkpt lat="45.8583" lon="2.91734">
        <ele>928</ele>
        <time>2018-05-19T13:30:41Z</time>
      </trkpt>
      <trkpt lat="45.85825" lon="2.91723">
        <ele>928</ele>
        <time>2018-05-19T13:30:43Z</time>
      </trkpt>
      <trkpt lat="45.85819" lon="2.91713">
        <ele>928</ele>
        <time>2018-05-19T13:30:45Z</time>
      </trkpt>
      <trkpt lat="45.85812" lon="2.91703">
        <ele>927</ele>
        <time>2018-05-19T13:30:47Z</time>
      </trkpt>
      <trkpt lat="45.85805" lon="2.91693">
        <ele>927</ele>
        <time>2018-05-19T13:30:49Z</time>
      </trkpt>
      <trkpt lat="45.85798" lon="2.91683">
        <ele>926</ele>
        <time>2018-05-19T13:30:51Z</time>
      </trkpt>
      <trkpt lat="45.8579" lon="2.91673">
        <ele>925</ele>
        <time>2018-05-19T13:30:53Z</time>
      </trkpt>
      <trkpt lat="45.85781" lon="2.91663">
        <ele>924</ele>
        <time>2018-05-19T13:30:55Z</time>
      </trkpt>
      <trkpt lat="45.8577" lon="2.91655">
        <ele>924</ele>
        <time>2018-05-19T13:30:57Z</time>
      </trkpt>
      <trkpt lat="45.85759" lon="2.91645">
        <ele>924</ele>
        <time>2018-05-19T13:30:59Z</time>
      </trkpt>
      <trkpt lat="45.85748" lon="2.91636">
        <ele>924</ele>
        <time>2018-05-19T13:31:01Z</time>
      </trkpt>
      <trkpt lat="45.85737" lon="2.91626">
        <ele>923</ele>
        <time>2018-05-19T13:31:03Z</time>
      </trkpt>
      <trkpt lat="45.85725" lon="2.91616">
        <ele>923</ele>
        <time>2018-05-19T13:31:05Z</time>
      </trkpt>
      <trkpt lat="45.85713" lon="2.91606">
        <ele>922</ele>
        <time>2018-05-19T13:31:07Z</time>
      </trkpt>
      <trkpt lat="45.85701" lon="2.91596">
        <ele>922</ele>
        <time>2018-05-19T13:31:09Z</time>
      </trkpt>
      <trkpt lat="45.85689" lon="2.91586">
        <ele>922</ele>
        <time>2018-05-19T13:31:11Z</time>
      </trkpt>
      <trkpt lat="45.85678" lon="2.91577">
        <ele>922</ele>
        <time>2018-05-19T13:31:13Z</time>
      </trkpt>
      <trkpt lat="45.85666" lon="2.91571">
        <ele>922</ele>
        <time>2018-05-19T13:31:15Z</time>
      </trkpt>
      <trkpt lat="45.85654" lon="2.9157">
        <ele>922</ele>
        <time>2018-05-19T13:31:17Z</time>
      </trkpt>
      <trkpt lat="45.85642" lon="2.91572">
        <ele>922</ele>
        <time>2018-05-19T13:31:19Z</time>
      </trkpt>
      <trkpt lat="45.85631" lon="2.91575">
        <ele>922</ele>
        <time>2018-05-19T13:31:21Z</time>
      </trkpt>
      <trkpt lat="45.85621" lon="2.9158">
        <ele>923</ele>
        <time>2018-05-19T13:31:23Z</time>
      </trkpt>
      <trkpt lat="45.85611" lon="2.91582">
        <ele>923</ele>
        <time>2018-05-19T13:31:25Z</time>
      </trkpt>
      <trkpt lat="45.85602" lon="2.91584">
        <ele>923</ele>
        <time>2018-05-19T13:31:27Z</time>
      </trkpt>
      <trkpt lat="45.85595" lon="2.91582">
        <ele>923</ele>
        <time>2018-05-19T13:31:29Z</time>
      </trkpt>
      <trkpt lat="45.8559" lon="2.9158">
        <ele>925</ele>
        <time>2018-05-19T13:31:31Z</time>
      </trkpt>
      <trkpt lat="45.85585" lon="2.91578">
        <ele>926</ele>
        <time>2018-05-19T13:31:33Z</time>
      </trkpt>
      <trkpt lat="45.85578" lon="2.91571">
        <ele>929</ele>
        <time>2018-05-19T13:31:37Z</time>
      </trkpt>
      <trkpt lat="45.85573" lon="2.91561">
        <ele>930</ele>
        <time>2018-05-19T13:31:41Z</time>
      </trkpt>
      <trkpt lat="45.85568" lon="2.91552">
        <ele>930</ele>
        <time>2018-05-19T13:31:45Z</time>
      </trkpt>
      <trkpt lat="45.85564" lon="2.91541">
        <ele>929</ele>
        <time>2018-05-19T13:31:49Z</time>
      </trkpt>
      <trkpt lat="45.85559" lon="2.9153">
        <ele>929</ele>
        <time>2018-05-19T13:31:53Z</time>
      </trkpt>
      <trkpt lat="45.85556" lon="2.91525">
        <ele>929</ele>
        <time>2018-05-19T13:31:55Z</time>
      </trkpt>
      <trkpt lat="45.8555" lon="2.91517">
        <ele>929</ele>
        <time>2018-05-19T13:31:59Z</time>
      </trkpt>
      <trkpt lat="45.85542" lon="2.91512">
        <ele>929</ele>
        <time>2018-05-19T13:32:03Z</time>
      </trkpt>
      <trkpt lat="45.85533" lon="2.91512">
        <ele>931</ele>
        <time>2018-05-19T13:32:07Z</time>
      </trkpt>
      <trkpt lat="45.85524" lon="2.91512">
        <ele>931</ele>
        <time>2018-05-19T13:32:11Z</time>
      </trkpt>
      <trkpt lat="45.8552" lon="2.91512">
        <ele>931</ele>
        <time>2018-05-19T13:32:13Z</time>
      </trkpt>
      <trkpt lat="45.85514" lon="2.91514">
        <ele>931</ele>
        <time>2018-05-19T13:32:15Z</time>
      </trkpt>
      <trkpt lat="45.85509" lon="2.91514">
        <ele>932</ele>
        <time>2018-05-19T13:32:17Z</time>
      </trkpt>
      <trkpt lat="45.855" lon="2.91515">
        <ele>932</ele>
        <time>2018-05-19T13:32:21Z</time>
      </trkpt>
      <trkpt lat="45.85495" lon="2.91516">
        <ele>932</ele>
        <time>2018-05-19T13:32:23Z</time>
      </trkpt>
      <trkpt lat="45.8549" lon="2.91516">
        <ele>933</ele>
        <time>2018-05-19T13:32:25Z</time>
      </trkpt>
      <trkpt lat="45.85485" lon="2.91516">
        <ele>934</ele>
        <time>2018-05-19T13:32:27Z</time>
      </trkpt>
      <trkpt lat="45.8548" lon="2.91517">
        <ele>935</ele>
        <time>2018-05-19T13:32:29Z</time>
      </trkpt>
      <trkpt lat="45.85475" lon="2.91517">
        <ele>935</ele>
        <time>2018-05-19T13:32:31Z</time>
      </trkpt>
      <trkpt lat="45.85471" lon="2.91516">
        <ele>935</ele>
        <time>2018-05-19T13:32:33Z</time>
      </trkpt>
      <trkpt lat="45.85466" lon="2.91517">
        <ele>935</ele>
        <time>2018-05-19T13:32:35Z</time>
      </trkpt>
      <trkpt lat="45.85461" lon="2.91516">
        <ele>936</ele>
        <time>2018-05-19T13:32:37Z</time>
      </trkpt>
      <trkpt lat="45.85456" lon="2.91514">
        <ele>937</ele>
        <time>2018-05-19T13:32:39Z</time>
      </trkpt>
      <trkpt lat="45.85452" lon="2.91511">
        <ele>937</ele>
        <time>2018-05-19T13:32:41Z</time>
      </trkpt>
      <trkpt lat="45.85448" lon="2.91507">
        <ele>938</ele>
        <time>2018-05-19T13:32:43Z</time>
      </trkpt>
      <trkpt lat="45.85443" lon="2.91503">
        <ele>938</ele>
        <time>2018-05-19T13:32:45Z</time>
      </trkpt>
      <trkpt lat="45.85438" lon="2.91503">
        <ele>938</ele>
        <time>2018-05-19T13:32:47Z</time>
      </trkpt>
      <trkpt lat="45.85433" lon="2.91508">
        <ele>938</ele>
        <time>2018-05-19T13:32:49Z</time>
      </trkpt>
      <trkpt lat="45.8543" lon="2.91513">
        <ele>937</ele>
        <time>2018-05-19T13:32:51Z</time>
      </trkpt>
      <trkpt lat="45.85425" lon="2.91518">
        <ele>937</ele>
        <time>2018-05-19T13:32:53Z</time>
      </trkpt>
      <trkpt lat="45.8542" lon="2.91523">
        <ele>937</ele>
        <time>2018-05-19T13:32:55Z</time>
      </trkpt>
      <trkpt lat="45.85414" lon="2.91526">
        <ele>936</ele>
        <time>2018-05-19T13:32:57Z</time>
      </trkpt>
      <trkpt lat="45.85408" lon="2.9153">
        <ele>936</ele>
        <time>2018-05-19T13:32:59Z</time>
      </trkpt>
      <trkpt lat="45.85401" lon="2.91535">
        <ele>935</ele>
        <time>2018-05-19T13:33:01Z</time>
      </trkpt>
      <trkpt lat="45.85395" lon="2.91543">
        <ele>936</ele>
        <time>2018-05-19T13:33:03Z</time>
      </trkpt>
      <trkpt lat="45.85391" lon="2.91551">
        <ele>937</ele>
        <time>2018-05-19T13:33:05Z</time>
      </trkpt>
      <trkpt lat="45.85388" lon="2.91561">
        <ele>936</ele>
        <time>2018-05-19T13:33:07Z</time>
      </trkpt>
      <trkpt lat="45.85386" lon="2.9157">
        <ele>936</ele>
        <time>2018-05-19T13:33:09Z</time>
      </trkpt>
      <trkpt lat="45.85383" lon="2.91578">
        <ele>936</ele>
        <time>2018-05-19T13:33:11Z</time>
      </trkpt>
      <trkpt lat="45.8538" lon="2.91586">
        <ele>936</ele>
        <time>2018-05-19T13:33:13Z</time>
      </trkpt>
      <trkpt lat="45.85378" lon="2.91594">
        <ele>936</ele>
        <time>2018-05-19T13:33:15Z</time>
      </trkpt>
      <trkpt lat="45.85378" lon="2.91602">
        <ele>937</ele>
        <time>2018-05-19T13:33:17Z</time>
      </trkpt>
      <trkpt lat="45.8538" lon="2.9161">
        <ele>938</ele>
        <time>2018-05-19T13:33:19Z</time>
      </trkpt>
      <trkpt lat="45.85382" lon="2.91619">
        <ele>939</ele>
        <time>2018-05-19T13:33:21Z</time>
      </trkpt>
      <trkpt lat="45.85384" lon="2.91629">
        <ele>939</ele>
        <time>2018-05-19T13:33:23Z</time>
      </trkpt>
      <trkpt lat="45.85384" lon="2.91641">
        <ele>940</ele>
        <time>2018-05-19T13:33:25Z</time>
      </trkpt>
      <trkpt lat="45.85384" lon="2.91651">
        <ele>940</ele>
        <time>2018-05-19T13:33:27Z</time>
      </trkpt>
      <trkpt lat="45.85386" lon="2.91663">
        <ele>938</ele>
        <time>2018-05-19T13:33:29Z</time>
      </trkpt>
      <trkpt lat="45.85388" lon="2.91674">
        <ele>938</ele>
        <time>2018-05-19T13:33:31Z</time>
      </trkpt>
      <trkpt lat="45.85389" lon="2.91685">
        <ele>939</ele>
        <time>2018-05-19T13:33:33Z</time>
      </trkpt>
      <trkpt lat="45.85389" lon="2.91695">
        <ele>938</ele>
        <time>2018-05-19T13:33:35Z</time>
      </trkpt>
      <trkpt lat="45.85392" lon="2.91706">
        <ele>939</ele>
        <time>2018-05-19T13:33:37Z</time>
      </trkpt>
      <trkpt lat="45.85394" lon="2.91717">
        <ele>939</ele>
        <time>2018-05-19T13:33:39Z</time>
      </trkpt>
      <trkpt lat="45.85396" lon="2.91729">
        <ele>939</ele>
        <time>2018-05-19T13:33:41Z</time>
      </trkpt>
      <trkpt lat="45.85398" lon="2.91738">
        <ele>939</ele>
        <time>2018-05-19T13:33:43Z</time>
      </trkpt>
      <trkpt lat="45.854" lon="2.91746">
        <ele>941</ele>
        <time>2018-05-19T13:33:45Z</time>
      </trkpt>
      <trkpt lat="45.85401" lon="2.91755">
        <ele>942</ele>
        <time>2018-05-19T13:33:47Z</time>
      </trkpt>
      <trkpt lat="45.85402" lon="2.91763">
        <ele>941</ele>
        <time>2018-05-19T13:33:49Z</time>
      </trkpt>
      <trkpt lat="45.85404" lon="2.91773">
        <ele>941</ele>
        <time>2018-05-19T13:33:51Z</time>
      </trkpt>
      <trkpt lat="45.85406" lon="2.91782">
        <ele>941</ele>
        <time>2018-05-19T13:33:53Z</time>
      </trkpt>
      <trkpt lat="45.85409" lon="2.91789">
        <ele>940</ele>
        <time>2018-05-19T13:33:55Z</time>
      </trkpt>
      <trkpt lat="45.85412" lon="2.91799">
        <ele>941</ele>
        <time>2018-05-19T13:33:57Z</time>
      </trkpt>
      <trkpt lat="45.85413" lon="2.9181">
        <ele>942</ele>
        <time>2018-05-19T13:33:59Z</time>
      </trkpt>
      <trkpt lat="45.85414" lon="2.9182">
        <ele>942</ele>
        <time>2018-05-19T13:34:01Z</time>
      </trkpt>
      <trkpt lat="45.85414" lon="2.9183">
        <ele>942</ele>
        <time>2018-05-19T13:34:03Z</time>
      </trkpt>
      <trkpt lat="45.85413" lon="2.9184">
        <ele>942</ele>
        <time>2018-05-19T13:34:05Z</time>
      </trkpt>
      <trkpt lat="45.85413" lon="2.91851">
        <ele>941</ele>
        <time>2018-05-19T13:34:07Z</time>
      </trkpt>
      <trkpt lat="45.85412" lon="2.91862">
        <ele>941</ele>
        <time>2018-05-19T13:34:09Z</time>
      </trkpt>
      <trkpt lat="45.85412" lon="2.91874">
        <ele>941</ele>
        <time>2018-05-19T13:34:11Z</time>
      </trkpt>
      <trkpt lat="45.85412" lon="2.91885">
        <ele>941</ele>
        <time>2018-05-19T13:34:13Z</time>
      </trkpt>
      <trkpt lat="45.8541" lon="2.91896">
        <ele>943</ele>
        <time>2018-05-19T13:34:15Z</time>
      </trkpt>
      <trkpt lat="45.85408" lon="2.91906">
        <ele>944</ele>
        <time>2018-05-19T13:34:17Z</time>
      </trkpt>
      <trkpt lat="45.85407" lon="2.91918">
        <ele>944</ele>
        <time>2018-05-19T13:34:19Z</time>
      </trkpt>
      <trkpt lat="45.85407" lon="2.91931">
        <ele>945</ele>
        <time>2018-05-19T13:34:21Z</time>
      </trkpt>
      <trkpt lat="45.85407" lon="2.91942">
        <ele>945</ele>
        <time>2018-05-19T13:34:23Z</time>
      </trkpt>
      <trkpt lat="45.85407" lon="2.91954">
        <ele>945</ele>
        <time>2018-05-19T13:34:25Z</time>
      </trkpt>
      <trkpt lat="45.85408" lon="2.91966">
        <ele>943</ele>
        <time>2018-05-19T13:34:27Z</time>
      </trkpt>
      <trkpt lat="45.85409" lon="2.91979">
        <ele>944</ele>
        <time>2018-05-19T13:34:29Z</time>
      </trkpt>
      <trkpt lat="45.8541" lon="2.91991">
        <ele>943</ele>
        <time>2018-05-19T13:34:31Z</time>
      </trkpt>
      <trkpt lat="45.85411" lon="2.92004">
        <ele>944</ele>
        <time>2018-05-19T13:34:33Z</time>
      </trkpt>
      <trkpt lat="45.85412" lon="2.92016">
        <ele>944</ele>
        <time>2018-05-19T13:34:35Z</time>
      </trkpt>
      <trkpt lat="45.85413" lon="2.92029">
        <ele>944</ele>
        <time>2018-05-19T13:34:37Z</time>
      </trkpt>
      <trkpt lat="45.85415" lon="2.92041">
        <ele>943</ele>
        <time>2018-05-19T13:34:39Z</time>
      </trkpt>
      <trkpt lat="45.85416" lon="2.92054">
        <ele>943</ele>
        <time>2018-05-19T13:34:41Z</time>
      </trkpt>
      <trkpt lat="45.85416" lon="2.92066">
        <ele>942</ele>
        <time>2018-05-19T13:34:43Z</time>
      </trkpt>
      <trkpt lat="45.85415" lon="2.92078">
        <ele>943</ele>
        <time>2018-05-19T13:34:45Z</time>
      </trkpt>
      <trkpt lat="45.85414" lon="2.92091">
        <ele>942</ele>
        <time>2018-05-19T13:34:47Z</time>
      </trkpt>
      <trkpt lat="45.85413" lon="2.92104">
        <ele>943</ele>
        <time>2018-05-19T13:34:49Z</time>
      </trkpt>
      <trkpt lat="45.85412" lon="2.92117">
        <ele>942</ele>
        <time>2018-05-19T13:34:51Z</time>
      </trkpt>
      <trkpt lat="45.8541" lon="2.9213">
        <ele>942</ele>
        <time>2018-05-19T13:34:53Z</time>
      </trkpt>
      <trkpt lat="45.85407" lon="2.92142">
        <ele>943</ele>
        <time>2018-05-19T13:34:55Z</time>
      </trkpt>
      <trkpt lat="45.85406" lon="2.92155">
        <ele>943</ele>
        <time>2018-05-19T13:34:57Z</time>
      </trkpt>
      <trkpt lat="45.85403" lon="2.92168">
        <ele>944</ele>
        <time>2018-05-19T13:34:59Z</time>
      </trkpt>
      <trkpt lat="45.85402" lon="2.9218">
        <ele>944</ele>
        <time>2018-05-19T13:35:01Z</time>
      </trkpt>
      <trkpt lat="45.854" lon="2.92192">
        <ele>944</ele>
        <time>2018-05-19T13:35:03Z</time>
      </trkpt>
      <trkpt lat="45.854" lon="2.92204">
        <ele>944</ele>
        <time>2018-05-19T13:35:05Z</time>
      </trkpt>
      <trkpt lat="45.854" lon="2.92215">
        <ele>944</ele>
        <time>2018-05-19T13:35:07Z</time>
      </trkpt>
      <trkpt lat="45.85401" lon="2.92226">
        <ele>945</ele>
        <time>2018-05-19T13:35:09Z</time>
      </trkpt>
      <trkpt lat="45.85403" lon="2.92237">
        <ele>945</ele>
        <time>2018-05-19T13:35:11Z</time>
      </trkpt>
      <trkpt lat="45.85406" lon="2.92247">
        <ele>945</ele>
        <time>2018-05-19T13:35:13Z</time>
      </trkpt>
      <trkpt lat="45.85408" lon="2.92258">
        <ele>946</ele>
        <time>2018-05-19T13:35:15Z</time>
      </trkpt>
      <trkpt lat="45.85412" lon="2.9227">
        <ele>946</ele>
        <time>2018-05-19T13:35:17Z</time>
      </trkpt>
      <trkpt lat="45.85417" lon="2.92281">
        <ele>946</ele>
        <time>2018-05-19T13:35:19Z</time>
      </trkpt>
      <trkpt lat="45.8542" lon="2.92292">
        <ele>946</ele>
        <time>2018-05-19T13:35:21Z</time>
      </trkpt>
      <trkpt lat="45.85423" lon="2.92304">
        <ele>946</ele>
        <time>2018-05-19T13:35:23Z</time>
      </trkpt>
      <trkpt lat="45.85427" lon="2.92315">
        <ele>946</ele>
        <time>2018-05-19T13:35:25Z</time>
      </trkpt>
      <trkpt lat="45.85431" lon="2.92327">
        <ele>946</ele>
        <time>2018-05-19T13:35:27Z</time>
      </trkpt>
      <trkpt lat="45.85434" lon="2.92338">
        <ele>946</ele>
        <time>2018-05-19T13:35:29Z</time>
      </trkpt>
      <trkpt lat="45.85438" lon="2.92349">
        <ele>947</ele>
        <time>2018-05-19T13:35:31Z</time>
      </trkpt>
      <trkpt lat="45.85441" lon="2.92361">
        <ele>947</ele>
        <time>2018-05-19T13:35:33Z</time>
      </trkpt>
      <trkpt lat="45.85445" lon="2.92372">
        <ele>946</ele>
        <time>2018-05-19T13:35:35Z</time>
      </trkpt>
      <trkpt lat="45.85449" lon="2.92383">
        <ele>946</ele>
        <time>2018-05-19T13:35:37Z</time>
      </trkpt>
      <trkpt lat="45.85452" lon="2.92394">
        <ele>946</ele>
        <time>2018-05-19T13:35:39Z</time>
      </trkpt>
      <trkpt lat="45.85456" lon="2.92406">
        <ele>946</ele>
        <time>2018-05-19T13:35:41Z</time>
      </trkpt>
      <trkpt lat="45.85458" lon="2.92416">
        <ele>946</ele>
        <time>2018-05-19T13:35:43Z</time>
      </trkpt>
      <trkpt lat="45.85461" lon="2.92426">
        <ele>946</ele>
        <time>2018-05-19T13:35:45Z</time>
      </trkpt>
      <trkpt lat="45.85463" lon="2.92435">
        <ele>947</ele>
        <time>2018-05-19T13:35:47Z</time>
      </trkpt>
      <trkpt lat="45.85466" lon="2.92444">
        <ele>946</ele>
        <time>2018-05-19T13:35:49Z</time>
      </trkpt>
      <trkpt lat="45.85469" lon="2.92455">
        <ele>946</ele>
        <time>2018-05-19T13:35:51Z</time>
      </trkpt>
      <trkpt lat="45.85472" lon="2.92465">
        <ele>947</ele>
        <time>2018-05-19T13:35:53Z</time>
      </trkpt>
      <trkpt lat="45.85474" lon="2.92474">
        <ele>947</ele>
        <time>2018-05-19T13:35:55Z</time>
      </trkpt>
      <trkpt lat="45.85476" lon="2.92482">
        <ele>947</ele>
        <time>2018-05-19T13:35:57Z</time>
      </trkpt>
      <trkpt lat="45.85477" lon="2.9249">
        <ele>948</ele>
        <time>2018-05-19T13:35:59Z</time>
      </trkpt>
      <trkpt lat="45.85476" lon="2.92498">
        <ele>947</ele>
        <time>2018-05-19T13:36:01Z</time>
      </trkpt>
      <trkpt lat="45.85473" lon="2.92507">
        <ele>947</ele>
        <time>2018-05-19T13:36:03Z</time>
      </trkpt>
      <trkpt lat="45.8547" lon="2.92517">
        <ele>946</ele>
        <time>2018-05-19T13:36:05Z</time>
      </trkpt>
      <trkpt lat="45.85466" lon="2.92527">
        <ele>946</ele>
        <time>2018-05-19T13:36:07Z</time>
      </trkpt>
      <trkpt lat="45.85465" lon="2.92538">
        <ele>947</ele>
        <time>2018-05-19T13:36:09Z</time>
      </trkpt>
      <trkpt lat="45.85464" lon="2.9255">
        <ele>946</ele>
        <time>2018-05-19T13:36:11Z</time>
      </trkpt>
      <trkpt lat="45.85463" lon="2.92561">
        <ele>947</ele>
        <time>2018-05-19T13:36:13Z</time>
      </trkpt>
      <trkpt lat="45.85463" lon="2.92573">
        <ele>946</ele>
        <time>2018-05-19T13:36:15Z</time>
      </trkpt>
      <trkpt lat="45.85463" lon="2.92584">
        <ele>945</ele>
        <time>2018-05-19T13:36:17Z</time>
      </trkpt>
      <trkpt lat="45.85462" lon="2.92595">
        <ele>945</ele>
        <time>2018-05-19T13:36:19Z</time>
      </trkpt>
      <trkpt lat="45.85461" lon="2.92606">
        <ele>945</ele>
        <time>2018-05-19T13:36:21Z</time>
      </trkpt>
      <trkpt lat="45.85461" lon="2.92618">
        <ele>946</ele>
        <time>2018-05-19T13:36:23Z</time>
      </trkpt>
      <trkpt lat="45.8546" lon="2.92628">
        <ele>947</ele>
        <time>2018-05-19T13:36:25Z</time>
      </trkpt>
      <trkpt lat="45.85459" lon="2.92638">
        <ele>947</ele>
        <time>2018-05-19T13:36:27Z</time>
      </trkpt>
      <trkpt lat="45.85458" lon="2.92648">
        <ele>947</ele>
        <time>2018-05-19T13:36:29Z</time>
      </trkpt>
      <trkpt lat="45.85459" lon="2.92659">
        <ele>947</ele>
        <time>2018-05-19T13:36:31Z</time>
      </trkpt>
      <trkpt lat="45.85461" lon="2.92668">
        <ele>948</ele>
        <time>2018-05-19T13:36:33Z</time>
      </trkpt>
      <trkpt lat="45.85461" lon="2.92676">
        <ele>948</ele>
        <time>2018-05-19T13:36:35Z</time>
      </trkpt>
      <trkpt lat="45.85462" lon="2.92683">
        <ele>949</ele>
        <time>2018-05-19T13:36:37Z</time>
      </trkpt>
      <trkpt lat="45.85462" lon="2.9269">
        <ele>949</ele>
        <time>2018-05-19T13:36:39Z</time>
      </trkpt>
      <trkpt lat="45.85462" lon="2.92699">
        <ele>950</ele>
        <time>2018-05-19T13:36:41Z</time>
      </trkpt>
      <trkpt lat="45.85463" lon="2.92707">
        <ele>950</ele>
        <time>2018-05-19T13:36:43Z</time>
      </trkpt>
      <trkpt lat="45.85462" lon="2.92715">
        <ele>950</ele>
        <time>2018-05-19T13:36:45Z</time>
      </trkpt>
      <trkpt lat="45.85462" lon="2.92722">
        <ele>951</ele>
        <time>2018-05-19T13:36:47Z</time>
      </trkpt>
      <trkpt lat="45.85462" lon="2.92729">
        <ele>951</ele>
        <time>2018-05-19T13:36:49Z</time>
      </trkpt>
      <trkpt lat="45.85462" lon="2.92736">
        <ele>952</ele>
        <time>2018-05-19T13:36:51Z</time>
      </trkpt>
      <trkpt lat="45.85462" lon="2.92743">
        <ele>952</ele>
        <time>2018-05-19T13:36:53Z</time>
      </trkpt>
      <trkpt lat="45.85462" lon="2.9275">
        <ele>953</ele>
        <time>2018-05-19T13:36:55Z</time>
      </trkpt>
      <trkpt lat="45.85462" lon="2.92757">
        <ele>953</ele>
        <time>2018-05-19T13:36:57Z</time>
      </trkpt>
      <trkpt lat="45.85462" lon="2.92765">
        <ele>953</ele>
        <time>2018-05-19T13:36:59Z</time>
      </trkpt>
      <trkpt lat="45.85462" lon="2.92772">
        <ele>953</ele>
        <time>2018-05-19T13:37:01Z</time>
      </trkpt>
      <trkpt lat="45.85461" lon="2.92779">
        <ele>954</ele>
        <time>2018-05-19T13:37:03Z</time>
      </trkpt>
      <trkpt lat="45.8546" lon="2.92786">
        <ele>954</ele>
        <time>2018-05-19T13:37:05Z</time>
      </trkpt>
      <trkpt lat="45.8546" lon="2.92793">
        <ele>954</ele>
        <time>2018-05-19T13:37:07Z</time>
      </trkpt>
      <trkpt lat="45.8546" lon="2.928">
        <ele>954</ele>
        <time>2018-05-19T13:37:09Z</time>
      </trkpt>
      <trkpt lat="45.85459" lon="2.92808">
        <ele>954</ele>
        <time>2018-05-19T13:37:11Z</time>
      </trkpt>
      <trkpt lat="45.85459" lon="2.92815">
        <ele>954</ele>
        <time>2018-05-19T13:37:13Z</time>
      </trkpt>
      <trkpt lat="45.85458" lon="2.92822">
        <ele>954</ele>
        <time>2018-05-19T13:37:15Z</time>
      </trkpt>
      <trkpt lat="45.85457" lon="2.9283">
        <ele>953</ele>
        <time>2018-05-19T13:37:17Z</time>
      </trkpt>
      <trkpt lat="45.85456" lon="2.92838">
        <ele>954</ele>
        <time>2018-05-19T13:37:19Z</time>
      </trkpt>
      <trkpt lat="45.85455" lon="2.92845">
        <ele>953</ele>
        <time>2018-05-19T13:37:21Z</time>
      </trkpt>
      <trkpt lat="45.85455" lon="2.92853">
        <ele>953</ele>
        <time>2018-05-19T13:37:23Z</time>
      </trkpt>
      <trkpt lat="45.85454" lon="2.92862">
        <ele>953</ele>
        <time>2018-05-19T13:37:25Z</time>
      </trkpt>
      <trkpt lat="45.85452" lon="2.9287">
        <ele>953</ele>
        <time>2018-05-19T13:37:27Z</time>
      </trkpt>
      <trkpt lat="45.85451" lon="2.92878">
        <ele>953</ele>
        <time>2018-05-19T13:37:29Z</time>
      </trkpt>
      <trkpt lat="45.8545" lon="2.92885">
        <ele>953</ele>
        <time>2018-05-19T13:37:31Z</time>
      </trkpt>
      <trkpt lat="45.85449" lon="2.92893">
        <ele>953</ele>
        <time>2018-05-19T13:37:33Z</time>
      </trkpt>
      <trkpt lat="45.85448" lon="2.92901">
        <ele>953</ele>
        <time>2018-05-19T13:37:35Z</time>
      </trkpt>
      <trkpt lat="45.85446" lon="2.9291">
        <ele>954</ele>
        <time>2018-05-19T13:37:37Z</time>
      </trkpt>
      <trkpt lat="45.85444" lon="2.92918">
        <ele>954</ele>
        <time>2018-05-19T13:37:39Z</time>
      </trkpt>
      <trkpt lat="45.85442" lon="2.92926">
        <ele>954</ele>
        <time>2018-05-19T13:37:41Z</time>
      </trkpt>
      <trkpt lat="45.8544" lon="2.92934">
        <ele>953</ele>
        <time>2018-05-19T13:37:43Z</time>
      </trkpt>
      <trkpt lat="45.85438" lon="2.92941">
        <ele>953</ele>
        <time>2018-05-19T13:37:45Z</time>
      </trkpt>
      <trkpt lat="45.85436" lon="2.92949">
        <ele>953</ele>
        <time>2018-05-19T13:37:47Z</time>
      </trkpt>
      <trkpt lat="45.85435" lon="2.92957">
        <ele>953</ele>
        <time>2018-05-19T13:37:49Z</time>
      </trkpt>
      <trkpt lat="45.85435" lon="2.92965">
        <ele>954</ele>
        <time>2018-05-19T13:37:51Z</time>
      </trkpt>
      <trkpt lat="45.85437" lon="2.92973">
        <ele>954</ele>
        <time>2018-05-19T13:37:53Z</time>
      </trkpt>
      <trkpt lat="45.85441" lon="2.92979">
        <ele>955</ele>
        <time>2018-05-19T13:37:55Z</time>
      </trkpt>
      <trkpt lat="45.85445" lon="2.92984">
        <ele>955</ele>
        <time>2018-05-19T13:37:57Z</time>
      </trkpt>
      <trkpt lat="45.8545" lon="2.92989">
        <ele>955</ele>
        <time>2018-05-19T13:37:59Z</time>
      </trkpt>
      <trkpt lat="45.85454" lon="2.92994">
        <ele>955</ele>
        <time>2018-05-19T13:38:01Z</time>
      </trkpt>
      <trkpt lat="45.85459" lon="2.92999">
        <ele>956</ele>
        <time>2018-05-19T13:38:03Z</time>
      </trkpt>
      <trkpt lat="45.85463" lon="2.93003">
        <ele>956</ele>
        <time>2018-05-19T13:38:05Z</time>
      </trkpt>
      <trkpt lat="45.85467" lon="2.93009">
        <ele>957</ele>
        <time>2018-05-19T13:38:07Z</time>
      </trkpt>
      <trkpt lat="45.8547" lon="2.93014">
        <ele>957</ele>
        <time>2018-05-19T13:38:09Z</time>
      </trkpt>
      <trkpt lat="45.85471" lon="2.93021">
        <ele>957</ele>
        <time>2018-05-19T13:38:11Z</time>
      </trkpt>
      <trkpt lat="45.85471" lon="2.93028">
        <ele>956</ele>
        <time>2018-05-19T13:38:13Z</time>
      </trkpt>
      <trkpt lat="45.85471" lon="2.93036">
        <ele>957</ele>
        <time>2018-05-19T13:38:15Z</time>
      </trkpt>
      <trkpt lat="45.85469" lon="2.93044">
        <ele>957</ele>
        <time>2018-05-19T13:38:17Z</time>
      </trkpt>
      <trkpt lat="45.85467" lon="2.93052">
        <ele>956</ele>
        <time>2018-05-19T13:38:19Z</time>
      </trkpt>
      <trkpt lat="45.85463" lon="2.9306">
        <ele>956</ele>
        <time>2018-05-19T13:38:21Z</time>
      </trkpt>
      <trkpt lat="45.8546" lon="2.93066">
        <ele>956</ele>
        <time>2018-05-19T13:38:23Z</time>
      </trkpt>
      <trkpt lat="45.85456" lon="2.93071">
        <ele>956</ele>
        <time>2018-05-19T13:38:25Z</time>
      </trkpt>
      <trkpt lat="45.85452" lon="2.93077">
        <ele>956</ele>
        <time>2018-05-19T13:38:27Z</time>
      </trkpt>
      <trkpt lat="45.85449" lon="2.93082">
        <ele>956</ele>
        <time>2018-05-19T13:38:29Z</time>
      </trkpt>
      <trkpt lat="45.85445" lon="2.93087">
        <ele>957</ele>
        <time>2018-05-19T13:38:31Z</time>
      </trkpt>
      <trkpt lat="45.85441" lon="2.93094">
        <ele>956</ele>
        <time>2018-05-19T13:38:33Z</time>
      </trkpt>
      <trkpt lat="45.85438" lon="2.931">
        <ele>957</ele>
        <time>2018-05-19T13:38:35Z</time>
      </trkpt>
      <trkpt lat="45.85435" lon="2.93111">
        <ele>957</ele>
        <time>2018-05-19T13:38:39Z</time>
      </trkpt>
      <trkpt lat="45.85432" lon="2.93122">
        <ele>959</ele>
        <time>2018-05-19T13:38:43Z</time>
      </trkpt>
      <trkpt lat="45.85429" lon="2.93133">
        <ele>959</ele>
        <time>2018-05-19T13:38:47Z</time>
      </trkpt>
      <trkpt lat="45.85428" lon="2.93141">
        <ele>960</ele>
        <time>2018-05-19T13:38:51Z</time>
      </trkpt>
      <trkpt lat="45.85427" lon="2.93149">
        <ele>962</ele>
        <time>2018-05-19T13:38:55Z</time>
      </trkpt>
      <trkpt lat="45.85427" lon="2.93159">
        <ele>963</ele>
        <time>2018-05-19T13:38:59Z</time>
      </trkpt>
      <trkpt lat="45.85425" lon="2.93169">
        <ele>965</ele>
        <time>2018-05-19T13:39:03Z</time>
      </trkpt>
      <trkpt lat="45.85425" lon="2.93176">
        <ele>964</ele>
        <time>2018-05-19T13:39:05Z</time>
      </trkpt>
      <trkpt lat="45.85425" lon="2.93184">
        <ele>963</ele>
        <time>2018-05-19T13:39:07Z</time>
      </trkpt>
      <trkpt lat="45.85422" lon="2.9319">
        <ele>963</ele>
        <time>2018-05-19T13:39:09Z</time>
      </trkpt>
      <trkpt lat="45.85422" lon="2.93196">
        <ele>963</ele>
        <time>2018-05-19T13:39:11Z</time>
      </trkpt>
      <trkpt lat="45.8542" lon="2.93203">
        <ele>962</ele>
        <time>2018-05-19T13:39:13Z</time>
      </trkpt>
      <trkpt lat="45.85418" lon="2.9321">
        <ele>961</ele>
        <time>2018-05-19T13:39:15Z</time>
      </trkpt>
      <trkpt lat="45.85415" lon="2.93216">
        <ele>961</ele>
        <time>2018-05-19T13:39:17Z</time>
      </trkpt>
      <trkpt lat="45.85411" lon="2.93222">
        <ele>963</ele>
        <time>2018-05-19T13:39:19Z</time>
      </trkpt>
      <trkpt lat="45.85407" lon="2.93227">
        <ele>965</ele>
        <time>2018-05-19T13:39:21Z</time>
      </trkpt>
      <trkpt lat="45.854" lon="2.9324">
        <ele>964</ele>
        <time>2018-05-19T13:39:25Z</time>
      </trkpt>
      <trkpt lat="45.85398" lon="2.93246">
        <ele>963</ele>
        <time>2018-05-19T13:39:27Z</time>
      </trkpt>
      <trkpt lat="45.85395" lon="2.93253">
        <ele>962</ele>
        <time>2018-05-19T13:39:29Z</time>
      </trkpt>
      <trkpt lat="45.85393" lon="2.93261">
        <ele>962</ele>
        <time>2018-05-19T13:39:31Z</time>
      </trkpt>
      <trkpt lat="45.85393" lon="2.93274">
        <ele>961</ele>
        <time>2018-05-19T13:39:35Z</time>
      </trkpt>
      <trkpt lat="45.8539" lon="2.93281">
        <ele>961</ele>
        <time>2018-05-19T13:39:37Z</time>
      </trkpt>
      <trkpt lat="45.85389" lon="2.93291">
        <ele>958</ele>
        <time>2018-05-19T13:39:41Z</time>
      </trkpt>
      <trkpt lat="45.85387" lon="2.93298">
        <ele>959</ele>
        <time>2018-05-19T13:39:43Z</time>
      </trkpt>
      <trkpt lat="45.85386" lon="2.93305">
        <ele>960</ele>
        <time>2018-05-19T13:39:45Z</time>
      </trkpt>
      <trkpt lat="45.85384" lon="2.93313">
        <ele>960</ele>
        <time>2018-05-19T13:39:47Z</time>
      </trkpt>
      <trkpt lat="45.85382" lon="2.93323">
        <ele>961</ele>
        <time>2018-05-19T13:39:49Z</time>
      </trkpt>
      <trkpt lat="45.85382" lon="2.93331">
        <ele>961</ele>
        <time>2018-05-19T13:39:51Z</time>
      </trkpt>
      <trkpt lat="45.85383" lon="2.93339">
        <ele>960</ele>
        <time>2018-05-19T13:39:53Z</time>
      </trkpt>
      <trkpt lat="45.85384" lon="2.93346">
        <ele>961</ele>
        <time>2018-05-19T13:39:55Z</time>
      </trkpt>
      <trkpt lat="45.85386" lon="2.93352">
        <ele>963</ele>
        <time>2018-05-19T13:39:57Z</time>
      </trkpt>
      <trkpt lat="45.85389" lon="2.93364">
        <ele>966</ele>
        <time>2018-05-19T13:40:01Z</time>
      </trkpt>
      <trkpt lat="45.85391" lon="2.9337">
        <ele>968</ele>
        <time>2018-05-19T13:40:03Z</time>
      </trkpt>
      <trkpt lat="45.85392" lon="2.93382">
        <ele>965</ele>
        <time>2018-05-19T13:40:07Z</time>
      </trkpt>
      <trkpt lat="45.85393" lon="2.93389">
        <ele>965</ele>
        <time>2018-05-19T13:40:09Z</time>
      </trkpt>
      <trkpt lat="45.85395" lon="2.934">
        <ele>966</ele>
        <time>2018-05-19T13:40:13Z</time>
      </trkpt>
      <trkpt lat="45.85395" lon="2.93413">
        <ele>966</ele>
        <time>2018-05-19T13:40:17Z</time>
      </trkpt>
      <trkpt lat="45.85398" lon="2.93424">
        <ele>969</ele>
        <time>2018-05-19T13:40:21Z</time>
      </trkpt>
      <trkpt lat="45.85401" lon="2.93434">
        <ele>972</ele>
        <time>2018-05-19T13:40:25Z</time>
      </trkpt>
      <trkpt lat="45.85402" lon="2.93441">
        <ele>971</ele>
        <time>2018-05-19T13:40:27Z</time>
      </trkpt>
      <trkpt lat="45.85403" lon="2.93447">
        <ele>970</ele>
        <time>2018-05-19T13:40:29Z</time>
      </trkpt>
      <trkpt lat="45.85404" lon="2.93457">
        <ele>972</ele>
        <time>2018-05-19T13:40:33Z</time>
      </trkpt>
      <trkpt lat="45.85403" lon="2.93464">
        <ele>970</ele>
        <time>2018-05-19T13:40:35Z</time>
      </trkpt>
      <trkpt lat="45.85402" lon="2.93475">
        <ele>972</ele>
        <time>2018-05-19T13:40:39Z</time>
      </trkpt>
      <trkpt lat="45.85401" lon="2.93485">
        <ele>977</ele>
        <time>2018-05-19T13:40:43Z</time>
      </trkpt>
      <trkpt lat="45.85399" lon="2.93491">
        <ele>978</ele>
        <time>2018-05-19T13:40:45Z</time>
      </trkpt>
      <trkpt lat="45.85396" lon="2.93496">
        <ele>978</ele>
        <time>2018-05-19T13:40:47Z</time>
      </trkpt>
      <trkpt lat="45.8539" lon="2.93506">
        <ele>979</ele>
        <time>2018-05-19T13:40:51Z</time>
      </trkpt>
      <trkpt lat="45.8539" lon="2.93514">
        <ele>982</ele>
        <time>2018-05-19T13:40:55Z</time>
      </trkpt>
      <trkpt lat="45.85385" lon="2.93524">
        <ele>981</ele>
        <time>2018-05-19T13:40:59Z</time>
      </trkpt>
      <trkpt lat="45.85381" lon="2.9353">
        <ele>980</ele>
        <time>2018-05-19T13:41:01Z</time>
      </trkpt>
      <trkpt lat="45.85378" lon="2.93536">
        <ele>980</ele>
        <time>2018-05-19T13:41:03Z</time>
      </trkpt>
      <trkpt lat="45.85373" lon="2.93545">
        <ele>983</ele>
        <time>2018-05-19T13:41:07Z</time>
      </trkpt>
      <trkpt lat="45.85369" lon="2.9355">
        <ele>983</ele>
        <time>2018-05-19T13:41:09Z</time>
      </trkpt>
      <trkpt lat="45.85365" lon="2.93555">
        <ele>983</ele>
        <time>2018-05-19T13:41:11Z</time>
      </trkpt>
      <trkpt lat="45.85361" lon="2.93559">
        <ele>981</ele>
        <time>2018-05-19T13:41:13Z</time>
      </trkpt>
      <trkpt lat="45.85357" lon="2.93565">
        <ele>982</ele>
        <time>2018-05-19T13:41:17Z</time>
      </trkpt>
      <trkpt lat="45.85353" lon="2.93577">
        <ele>984</ele>
        <time>2018-05-19T13:41:21Z</time>
      </trkpt>
      <trkpt lat="45.85348" lon="2.93583">
        <ele>984</ele>
        <time>2018-05-19T13:41:25Z</time>
      </trkpt>
      <trkpt lat="45.85343" lon="2.93589">
        <ele>984</ele>
        <time>2018-05-19T13:41:29Z</time>
      </trkpt>
      <trkpt lat="45.8534" lon="2.93595">
        <ele>983</ele>
        <time>2018-05-19T13:41:31Z</time>
      </trkpt>
      <trkpt lat="45.85338" lon="2.93601">
        <ele>984</ele>
        <time>2018-05-19T13:41:33Z</time>
      </trkpt>
      <trkpt lat="45.85334" lon="2.93612">
        <ele>983</ele>
        <time>2018-05-19T13:41:37Z</time>
      </trkpt>
      <trkpt lat="45.8533" lon="2.93616">
        <ele>982</ele>
        <time>2018-05-19T13:41:39Z</time>
      </trkpt>
      <trkpt lat="45.85326" lon="2.93625">
        <ele>986</ele>
        <time>2018-05-19T13:41:43Z</time>
      </trkpt>
      <trkpt lat="45.85321" lon="2.93632">
        <ele>984</ele>
        <time>2018-05-19T13:41:47Z</time>
      </trkpt>
      <trkpt lat="45.85318" lon="2.93636">
        <ele>985</ele>
        <time>2018-05-19T13:41:49Z</time>
      </trkpt>
      <trkpt lat="45.85314" lon="2.93645">
        <ele>984</ele>
        <time>2018-05-19T13:41:53Z</time>
      </trkpt>
      <trkpt lat="45.85311" lon="2.93656">
        <ele>983</ele>
        <time>2018-05-19T13:41:57Z</time>
      </trkpt>
      <trkpt lat="45.8531" lon="2.93663">
        <ele>987</ele>
        <time>2018-05-19T13:42:01Z</time>
      </trkpt>
      <trkpt lat="45.85312" lon="2.93672">
        <ele>987</ele>
        <time>2018-05-19T13:42:05Z</time>
      </trkpt>
      <trkpt lat="45.85313" lon="2.93683">
        <ele>985</ele>
        <time>2018-05-19T13:42:09Z</time>
      </trkpt>
      <trkpt lat="45.85313" lon="2.93694">
        <ele>982</ele>
        <time>2018-05-19T13:42:13Z</time>
      </trkpt>
      <trkpt lat="45.85312" lon="2.93702">
        <ele>977</ele>
        <time>2018-05-19T13:42:17Z</time>
      </trkpt>
      <trkpt lat="45.8531" lon="2.9371">
        <ele>974</ele>
        <time>2018-05-19T13:42:21Z</time>
      </trkpt>
      <trkpt lat="45.85311" lon="2.93717">
        <ele>974</ele>
        <time>2018-05-19T13:42:23Z</time>
      </trkpt>
      <trkpt lat="45.85312" lon="2.93725">
        <ele>976</ele>
        <time>2018-05-19T13:42:25Z</time>
      </trkpt>
      <trkpt lat="45.85313" lon="2.93735">
        <ele>977</ele>
        <time>2018-05-19T13:42:29Z</time>
      </trkpt>
      <trkpt lat="45.85312" lon="2.93746">
        <ele>980</ele>
        <time>2018-05-19T13:42:33Z</time>
      </trkpt>
      <trkpt lat="45.85309" lon="2.93755">
        <ele>984</ele>
        <time>2018-05-19T13:42:37Z</time>
      </trkpt>
      <trkpt lat="45.85308" lon="2.93764">
        <ele>984</ele>
        <time>2018-05-19T13:42:41Z</time>
      </trkpt>
      <trkpt lat="45.85307" lon="2.93775">
        <ele>984</ele>
        <time>2018-05-19T13:42:45Z</time>
      </trkpt>
      <trkpt lat="45.85306" lon="2.93785">
        <ele>982</ele>
        <time>2018-05-19T13:42:49Z</time>
      </trkpt>
      <trkpt lat="45.85307" lon="2.93797">
        <ele>978</ele>
        <time>2018-05-19T13:42:53Z</time>
      </trkpt>
      <trkpt lat="45.85306" lon="2.93807">
        <ele>975</ele>
        <time>2018-05-19T13:42:57Z</time>
      </trkpt>
      <trkpt lat="45.85304" lon="2.93813">
        <ele>975</ele>
        <time>2018-05-19T13:42:59Z</time>
      </trkpt>
      <trkpt lat="45.85303" lon="2.93819">
        <ele>978</ele>
        <time>2018-05-19T13:43:01Z</time>
      </trkpt>
      <trkpt lat="45.853" lon="2.93829">
        <ele>984</ele>
        <time>2018-05-19T13:43:05Z</time>
      </trkpt>
      <trkpt lat="45.85299" lon="2.93839">
        <ele>989</ele>
        <time>2018-05-19T13:43:09Z</time>
      </trkpt>
      <trkpt lat="45.85298" lon="2.9385">
        <ele>988</ele>
        <time>2018-05-19T13:43:13Z</time>
      </trkpt>
      <trkpt lat="45.85294" lon="2.93859">
        <ele>987</ele>
        <time>2018-05-19T13:43:17Z</time>
      </trkpt>
      <trkpt lat="45.85295" lon="2.93869">
        <ele>986</ele>
        <time>2018-05-19T13:43:21Z</time>
      </trkpt>
      <trkpt lat="45.85294" lon="2.93878">
        <ele>986</ele>
        <time>2018-05-19T13:43:25Z</time>
      </trkpt>
      <trkpt lat="45.85295" lon="2.93887">
        <ele>987</ele>
        <time>2018-05-19T13:43:29Z</time>
      </trkpt>
      <trkpt lat="45.85294" lon="2.93897">
        <ele>987</ele>
        <time>2018-05-19T13:43:33Z</time>
      </trkpt>
      <trkpt lat="45.85295" lon="2.93906">
        <ele>985</ele>
        <time>2018-05-19T13:43:37Z</time>
      </trkpt>
      <trkpt lat="45.85295" lon="2.93914">
        <ele>985</ele>
        <time>2018-05-19T13:43:41Z</time>
      </trkpt>
      <trkpt lat="45.85295" lon="2.93923">
        <ele>984</ele>
        <time>2018-05-19T13:43:45Z</time>
      </trkpt>
      <trkpt lat="45.85294" lon="2.9393">
        <ele>986</ele>
        <time>2018-05-19T13:43:49Z</time>
      </trkpt>
      <trkpt lat="45.85291" lon="2.93935">
        <ele>991</ele>
        <time>2018-05-19T13:43:55Z</time>
      </trkpt>
      <trkpt lat="45.85288" lon="2.93942">
        <ele>1001</ele>
        <time>2018-05-19T13:48:33Z</time>
      </trkpt>
      <trkpt lat="45.85286" lon="2.93948">
        <ele>1002</ele>
        <time>2018-05-19T13:48:39Z</time>
      </trkpt>
      <trkpt lat="45.85281" lon="2.93949">
        <ele>1003</ele>
        <time>2018-05-19T13:48:49Z</time>
      </trkpt>
      <trkpt lat="45.85276" lon="2.93951">
        <ele>1002</ele>
        <time>2018-05-19T13:48:53Z</time>
      </trkpt>
      <trkpt lat="45.85269" lon="2.9395">
        <ele>1001</ele>
        <time>2018-05-19T13:48:57Z</time>
      </trkpt>
      <trkpt lat="45.85264" lon="2.93949">
        <ele>1000</ele>
        <time>2018-05-19T13:48:59Z</time>
      </trkpt>
      <trkpt lat="45.85256" lon="2.93949">
        <ele>1002</ele>
        <time>2018-05-19T13:49:03Z</time>
      </trkpt>
      <trkpt lat="45.85249" lon="2.93948">
        <ele>1003</ele>
        <time>2018-05-19T13:49:07Z</time>
      </trkpt>
      <trkpt lat="45.85242" lon="2.93944">
        <ele>1002</ele>
        <time>2018-05-19T13:49:11Z</time>
      </trkpt>
      <trkpt lat="45.85235" lon="2.93939">
        <ele>1003</ele>
        <time>2018-05-19T13:49:15Z</time>
      </trkpt>
      <trkpt lat="45.8523" lon="2.93937">
        <ele>1003</ele>
        <time>2018-05-19T13:49:17Z</time>
      </trkpt>
      <trkpt lat="45.85226" lon="2.93935">
        <ele>1005</ele>
        <time>2018-05-19T13:49:19Z</time>
      </trkpt>
      <trkpt lat="45.85219" lon="2.9393">
        <ele>1007</ele>
        <time>2018-05-19T13:49:23Z</time>
      </trkpt>
      <trkpt lat="45.85212" lon="2.93926">
        <ele>1010</ele>
        <time>2018-05-19T13:49:27Z</time>
      </trkpt>
      <trkpt lat="45.85206" lon="2.93919">
        <ele>1005</ele>
        <time>2018-05-19T13:49:31Z</time>
      </trkpt>
      <trkpt lat="45.85199" lon="2.93915">
        <ele>1004</ele>
        <time>2018-05-19T13:49:35Z</time>
      </trkpt>
      <trkpt lat="45.85194" lon="2.93913">
        <ele>1007</ele>
        <time>2018-05-19T13:49:39Z</time>
      </trkpt>
      <trkpt lat="45.8519" lon="2.93911">
        <ele>1007</ele>
        <time>2018-05-19T13:49:41Z</time>
      </trkpt>
      <trkpt lat="45.85184" lon="2.93909">
        <ele>1005</ele>
        <time>2018-05-19T13:49:45Z</time>
      </trkpt>
      <trkpt lat="45.85176" lon="2.93906">
        <ele>1007</ele>
        <time>2018-05-19T13:49:49Z</time>
      </trkpt>
      <trkpt lat="45.85172" lon="2.93904">
        <ele>1009</ele>
        <time>2018-05-19T13:49:51Z</time>
      </trkpt>
      <trkpt lat="45.85163" lon="2.93901">
        <ele>1007</ele>
        <time>2018-05-19T13:49:55Z</time>
      </trkpt>
      <trkpt lat="45.85157" lon="2.93896">
        <ele>1005</ele>
        <time>2018-05-19T13:49:57Z</time>
      </trkpt>
      <trkpt lat="45.8515" lon="2.93888">
        <ele>1002</ele>
        <time>2018-05-19T13:49:59Z</time>
      </trkpt>
      <trkpt lat="45.85143" lon="2.93879">
        <ele>999</ele>
        <time>2018-05-19T13:50:01Z</time>
      </trkpt>
      <trkpt lat="45.85135" lon="2.93869">
        <ele>997</ele>
        <time>2018-05-19T13:50:03Z</time>
      </trkpt>
      <trkpt lat="45.85125" lon="2.9386">
        <ele>997</ele>
        <time>2018-05-19T13:50:05Z</time>
      </trkpt>
      <trkpt lat="45.85116" lon="2.9385">
        <ele>995</ele>
        <time>2018-05-19T13:50:07Z</time>
      </trkpt>
      <trkpt lat="45.85107" lon="2.93837">
        <ele>994</ele>
        <time>2018-05-19T13:50:09Z</time>
      </trkpt>
      <trkpt lat="45.85095" lon="2.93828">
        <ele>994</ele>
        <time>2018-05-19T13:50:11Z</time>
      </trkpt>
      <trkpt lat="45.85083" lon="2.93821">
        <ele>995</ele>
        <time>2018-05-19T13:50:13Z</time>
      </trkpt>
      <trkpt lat="45.85072" lon="2.93817">
        <ele>995</ele>
        <time>2018-05-19T13:50:15Z</time>
      </trkpt>
      <trkpt lat="45.85061" lon="2.93811">
        <ele>990</ele>
        <time>2018-05-19T13:50:17Z</time>
      </trkpt>
      <trkpt lat="45.85051" lon="2.93809">
        <ele>988</ele>
        <time>2018-05-19T13:50:19Z</time>
      </trkpt>
      <trkpt lat="45.85039" lon="2.93809">
        <ele>989</ele>
        <time>2018-05-19T13:50:21Z</time>
      </trkpt>
      <trkpt lat="45.85026" lon="2.93811">
        <ele>989</ele>
        <time>2018-05-19T13:50:23Z</time>
      </trkpt>
      <trkpt lat="45.85012" lon="2.93813">
        <ele>990</ele>
        <time>2018-05-19T13:50:25Z</time>
      </trkpt>
      <trkpt lat="45.85002" lon="2.93812">
        <ele>990</ele>
        <time>2018-05-19T13:50:27Z</time>
      </trkpt>
      <trkpt lat="45.84993" lon="2.93806">
        <ele>992</ele>
        <time>2018-05-19T13:50:29Z</time>
      </trkpt>
      <trkpt lat="45.84988" lon="2.93799">
        <ele>993</ele>
        <time>2018-05-19T13:50:31Z</time>
      </trkpt>
      <trkpt lat="45.84982" lon="2.93791">
        <ele>993</ele>
        <time>2018-05-19T13:50:33Z</time>
      </trkpt>
      <trkpt lat="45.84976" lon="2.93782">
        <ele>991</ele>
        <time>2018-05-19T13:50:35Z</time>
      </trkpt>
      <trkpt lat="45.84974" lon="2.93774">
        <ele>988</ele>
        <time>2018-05-19T13:50:37Z</time>
      </trkpt>
      <trkpt lat="45.84967" lon="2.93771">
        <ele>983</ele>
        <time>2018-05-19T13:50:41Z</time>
      </trkpt>
      <trkpt lat="45.84958" lon="2.93766">
        <ele>985</ele>
        <time>2018-05-19T13:50:45Z</time>
      </trkpt>
      <trkpt lat="45.84953" lon="2.93766">
        <ele>984</ele>
        <time>2018-05-19T13:50:47Z</time>
      </trkpt>
      <trkpt lat="45.84945" lon="2.93765">
        <ele>985</ele>
        <time>2018-05-19T13:50:49Z</time>
      </trkpt>
      <trkpt lat="45.84937" lon="2.93765">
        <ele>984</ele>
        <time>2018-05-19T13:50:51Z</time>
      </trkpt>
      <trkpt lat="45.84929" lon="2.93765">
        <ele>984</ele>
        <time>2018-05-19T13:50:53Z</time>
      </trkpt>
      <trkpt lat="45.84922" lon="2.93766">
        <ele>985</ele>
        <time>2018-05-19T13:50:55Z</time>
      </trkpt>
      <trkpt lat="45.84915" lon="2.93766">
        <ele>985</ele>
        <time>2018-05-19T13:50:57Z</time>
      </trkpt>
      <trkpt lat="45.84909" lon="2.93767">
        <ele>986</ele>
        <time>2018-05-19T13:50:59Z</time>
      </trkpt>
      <trkpt lat="45.849" lon="2.93767">
        <ele>987</ele>
        <time>2018-05-19T13:51:03Z</time>
      </trkpt>
      <trkpt lat="45.84895" lon="2.93764">
        <ele>987</ele>
        <time>2018-05-19T13:51:05Z</time>
      </trkpt>
      <trkpt lat="45.8489" lon="2.93759">
        <ele>987</ele>
        <time>2018-05-19T13:51:07Z</time>
      </trkpt>
      <trkpt lat="45.84883" lon="2.93753">
        <ele>986</ele>
        <time>2018-05-19T13:51:09Z</time>
      </trkpt>
      <trkpt lat="45.84876" lon="2.93746">
        <ele>982</ele>
        <time>2018-05-19T13:51:11Z</time>
      </trkpt>
      <trkpt lat="45.84871" lon="2.93739">
        <ele>984</ele>
        <time>2018-05-19T13:51:13Z</time>
      </trkpt>
      <trkpt lat="45.84864" lon="2.93733">
        <ele>984</ele>
        <time>2018-05-19T13:51:15Z</time>
      </trkpt>
      <trkpt lat="45.84858" lon="2.93728">
        <ele>985</ele>
        <time>2018-05-19T13:51:17Z</time>
      </trkpt>
      <trkpt lat="45.84853" lon="2.93723">
        <ele>985</ele>
        <time>2018-05-19T13:51:19Z</time>
      </trkpt>
      <trkpt lat="45.84849" lon="2.93718">
        <ele>985</ele>
        <time>2018-05-19T13:51:21Z</time>
      </trkpt>
      <trkpt lat="45.84844" lon="2.93712">
        <ele>984</ele>
        <time>2018-05-19T13:51:23Z</time>
      </trkpt>
      <trkpt lat="45.84839" lon="2.93708">
        <ele>985</ele>
        <time>2018-05-19T13:51:25Z</time>
      </trkpt>
      <trkpt lat="45.84835" lon="2.93703">
        <ele>985</ele>
        <time>2018-05-19T13:51:27Z</time>
      </trkpt>
      <trkpt lat="45.84832" lon="2.93697">
        <ele>985</ele>
        <time>2018-05-19T13:51:29Z</time>
      </trkpt>
      <trkpt lat="45.84826" lon="2.93686">
        <ele>986</ele>
        <time>2018-05-19T13:51:33Z</time>
      </trkpt>
      <trkpt lat="45.84823" lon="2.93678">
        <ele>986</ele>
        <time>2018-05-19T13:51:35Z</time>
      </trkpt>
      <trkpt lat="45.8482" lon="2.93672">
        <ele>986</ele>
        <time>2018-05-19T13:51:37Z</time>
      </trkpt>
      <trkpt lat="45.84817" lon="2.93665">
        <ele>986</ele>
        <time>2018-05-19T13:51:39Z</time>
      </trkpt>
      <trkpt lat="45.84814" lon="2.93657">
        <ele>986</ele>
        <time>2018-05-19T13:51:41Z</time>
      </trkpt>
      <trkpt lat="45.8481" lon="2.93649">
        <ele>986</ele>
        <time>2018-05-19T13:51:43Z</time>
      </trkpt>
      <trkpt lat="45.84804" lon="2.93641">
        <ele>986</ele>
        <time>2018-05-19T13:51:45Z</time>
      </trkpt>
      <trkpt lat="45.84798" lon="2.93634">
        <ele>985</ele>
        <time>2018-05-19T13:51:47Z</time>
      </trkpt>
      <trkpt lat="45.84793" lon="2.93625">
        <ele>984</ele>
        <time>2018-05-19T13:51:49Z</time>
      </trkpt>
      <trkpt lat="45.84787" lon="2.93617">
        <ele>984</ele>
        <time>2018-05-19T13:51:51Z</time>
      </trkpt>
      <trkpt lat="45.84781" lon="2.9361">
        <ele>984</ele>
        <time>2018-05-19T13:51:53Z</time>
      </trkpt>
      <trkpt lat="45.84776" lon="2.93606">
        <ele>984</ele>
        <time>2018-05-19T13:51:55Z</time>
      </trkpt>
      <trkpt lat="45.84771" lon="2.93607">
        <ele>984</ele>
        <time>2018-05-19T13:51:57Z</time>
      </trkpt>
      <trkpt lat="45.84765" lon="2.93615">
        <ele>985</ele>
        <time>2018-05-19T13:52:01Z</time>
      </trkpt>
      <trkpt lat="45.84763" lon="2.93621">
        <ele>985</ele>
        <time>2018-05-19T13:52:03Z</time>
      </trkpt>
      <trkpt lat="45.8476" lon="2.93627">
        <ele>986</ele>
        <time>2018-05-19T13:52:05Z</time>
      </trkpt>
      <trkpt lat="45.84754" lon="2.93636">
        <ele>987</ele>
        <time>2018-05-19T13:52:09Z</time>
      </trkpt>
      <trkpt lat="45.84751" lon="2.9364">
        <ele>987</ele>
        <time>2018-05-19T13:52:11Z</time>
      </trkpt>
      <trkpt lat="45.84747" lon="2.93645">
        <ele>988</ele>
        <time>2018-05-19T13:52:13Z</time>
      </trkpt>
      <trkpt lat="45.84743" lon="2.9365">
        <ele>988</ele>
        <time>2018-05-19T13:52:15Z</time>
      </trkpt>
      <trkpt lat="45.84737" lon="2.93659">
        <ele>989</ele>
        <time>2018-05-19T13:52:19Z</time>
      </trkpt>
      <trkpt lat="45.84731" lon="2.93668">
        <ele>989</ele>
        <time>2018-05-19T13:52:23Z</time>
      </trkpt>
      <trkpt lat="45.84728" lon="2.93674">
        <ele>989</ele>
        <time>2018-05-19T13:52:25Z</time>
      </trkpt>
      <trkpt lat="45.84725" lon="2.9368">
        <ele>989</ele>
        <time>2018-05-19T13:52:27Z</time>
      </trkpt>
      <trkpt lat="45.84722" lon="2.93685">
        <ele>989</ele>
        <time>2018-05-19T13:52:29Z</time>
      </trkpt>
      <trkpt lat="45.84716" lon="2.93696">
        <ele>990</ele>
        <time>2018-05-19T13:52:33Z</time>
      </trkpt>
      <trkpt lat="45.84712" lon="2.93706">
        <ele>989</ele>
        <time>2018-05-19T13:52:37Z</time>
      </trkpt>
      <trkpt lat="45.84709" lon="2.93712">
        <ele>989</ele>
        <time>2018-05-19T13:52:39Z</time>
      </trkpt>
      <trkpt lat="45.84704" lon="2.93722">
        <ele>988</ele>
        <time>2018-05-19T13:52:43Z</time>
      </trkpt>
      <trkpt lat="45.84701" lon="2.93727">
        <ele>988</ele>
        <time>2018-05-19T13:52:45Z</time>
      </trkpt>
      <trkpt lat="45.84698" lon="2.93732">
        <ele>988</ele>
        <time>2018-05-19T13:52:47Z</time>
      </trkpt>
      <trkpt lat="45.84695" lon="2.93737">
        <ele>988</ele>
        <time>2018-05-19T13:52:49Z</time>
      </trkpt>
      <trkpt lat="45.84691" lon="2.93742">
        <ele>989</ele>
        <time>2018-05-19T13:52:51Z</time>
      </trkpt>
      <trkpt lat="45.84686" lon="2.93746">
        <ele>989</ele>
        <time>2018-05-19T13:52:53Z</time>
      </trkpt>
      <trkpt lat="45.84682" lon="2.93751">
        <ele>989</ele>
        <time>2018-05-19T13:52:55Z</time>
      </trkpt>
      <trkpt lat="45.84678" lon="2.93754">
        <ele>990</ele>
        <time>2018-05-19T13:52:57Z</time>
      </trkpt>
      <trkpt lat="45.84673" lon="2.93757">
        <ele>991</ele>
        <time>2018-05-19T13:52:59Z</time>
      </trkpt>
      <trkpt lat="45.84668" lon="2.9376">
        <ele>992</ele>
        <time>2018-05-19T13:53:01Z</time>
      </trkpt>
      <trkpt lat="45.84664" lon="2.93762">
        <ele>992</ele>
        <time>2018-05-19T13:53:03Z</time>
      </trkpt>
      <trkpt lat="45.84659" lon="2.93764">
        <ele>993</ele>
        <time>2018-05-19T13:53:05Z</time>
      </trkpt>
      <trkpt lat="45.84655" lon="2.93768">
        <ele>993</ele>
        <time>2018-05-19T13:53:07Z</time>
      </trkpt>
      <trkpt lat="45.84651" lon="2.93771">
        <ele>994</ele>
        <time>2018-05-19T13:53:09Z</time>
      </trkpt>
      <trkpt lat="45.84646" lon="2.93775">
        <ele>994</ele>
        <time>2018-05-19T13:53:11Z</time>
      </trkpt>
      <trkpt lat="45.84642" lon="2.93778">
        <ele>995</ele>
        <time>2018-05-19T13:53:13Z</time>
      </trkpt>
      <trkpt lat="45.84638" lon="2.93781">
        <ele>995</ele>
        <time>2018-05-19T13:53:15Z</time>
      </trkpt>
      <trkpt lat="45.84633" lon="2.93785">
        <ele>995</ele>
        <time>2018-05-19T13:53:17Z</time>
      </trkpt>
      <trkpt lat="45.84628" lon="2.93789">
        <ele>994</ele>
        <time>2018-05-19T13:53:19Z</time>
      </trkpt>
      <trkpt lat="45.84623" lon="2.93792">
        <ele>995</ele>
        <time>2018-05-19T13:53:21Z</time>
      </trkpt>
      <trkpt lat="45.84619" lon="2.93795">
        <ele>995</ele>
        <time>2018-05-19T13:53:23Z</time>
      </trkpt>
      <trkpt lat="45.84614" lon="2.93797">
        <ele>996</ele>
        <time>2018-05-19T13:53:25Z</time>
      </trkpt>
      <trkpt lat="45.84609" lon="2.93799">
        <ele>996</ele>
        <time>2018-05-19T13:53:27Z</time>
      </trkpt>
      <trkpt lat="45.84604" lon="2.93801">
        <ele>996</ele>
        <time>2018-05-19T13:53:29Z</time>
      </trkpt>
      <trkpt lat="45.84599" lon="2.93804">
        <ele>996</ele>
        <time>2018-05-19T13:53:31Z</time>
      </trkpt>
      <trkpt lat="45.84594" lon="2.93807">
        <ele>996</ele>
        <time>2018-05-19T13:53:33Z</time>
      </trkpt>
      <trkpt lat="45.8459" lon="2.93809">
        <ele>997</ele>
        <time>2018-05-19T13:53:35Z</time>
      </trkpt>
      <trkpt lat="45.84585" lon="2.93812">
        <ele>997</ele>
        <time>2018-05-19T13:53:37Z</time>
      </trkpt>
      <trkpt lat="45.8458" lon="2.93816">
        <ele>997</ele>
        <time>2018-05-19T13:53:39Z</time>
      </trkpt>
      <trkpt lat="45.84574" lon="2.93819">
        <ele>997</ele>
        <time>2018-05-19T13:53:41Z</time>
      </trkpt>
      <trkpt lat="45.8457" lon="2.93823">
        <ele>997</ele>
        <time>2018-05-19T13:53:43Z</time>
      </trkpt>
      <trkpt lat="45.84564" lon="2.93826">
        <ele>996</ele>
        <time>2018-05-19T13:53:45Z</time>
      </trkpt>
      <trkpt lat="45.84559" lon="2.93829">
        <ele>997</ele>
        <time>2018-05-19T13:53:47Z</time>
      </trkpt>
      <trkpt lat="45.84554" lon="2.93833">
        <ele>997</ele>
        <time>2018-05-19T13:53:49Z</time>
      </trkpt>
      <trkpt lat="45.84548" lon="2.93838">
        <ele>997</ele>
        <time>2018-05-19T13:53:51Z</time>
      </trkpt>
      <trkpt lat="45.84542" lon="2.93841">
        <ele>998</ele>
        <time>2018-05-19T13:53:53Z</time>
      </trkpt>
      <trkpt lat="45.84536" lon="2.93844">
        <ele>998</ele>
        <time>2018-05-19T13:53:55Z</time>
      </trkpt>
      <trkpt lat="45.8453" lon="2.93848">
        <ele>998</ele>
        <time>2018-05-19T13:53:57Z</time>
      </trkpt>
      <trkpt lat="45.84524" lon="2.93852">
        <ele>997</ele>
        <time>2018-05-19T13:53:59Z</time>
      </trkpt>
      <trkpt lat="45.84518" lon="2.93856">
        <ele>998</ele>
        <time>2018-05-19T13:54:01Z</time>
      </trkpt>
      <trkpt lat="45.84512" lon="2.93859">
        <ele>997</ele>
        <time>2018-05-19T13:54:03Z</time>
      </trkpt>
      <trkpt lat="45.84505" lon="2.93864">
        <ele>997</ele>
        <time>2018-05-19T13:54:05Z</time>
      </trkpt>
      <trkpt lat="45.84498" lon="2.93868">
        <ele>997</ele>
        <time>2018-05-19T13:54:07Z</time>
      </trkpt>
      <trkpt lat="45.8449" lon="2.93872">
        <ele>997</ele>
        <time>2018-05-19T13:54:09Z</time>
      </trkpt>
      <trkpt lat="45.84482" lon="2.93877">
        <ele>997</ele>
        <time>2018-05-19T13:54:11Z</time>
      </trkpt>
      <trkpt lat="45.84475" lon="2.93881">
        <ele>997</ele>
        <time>2018-05-19T13:54:13Z</time>
      </trkpt>
      <trkpt lat="45.84468" lon="2.93886">
        <ele>996</ele>
        <time>2018-05-19T13:54:15Z</time>
      </trkpt>
      <trkpt lat="45.8446" lon="2.93891">
        <ele>997</ele>
        <time>2018-05-19T13:54:17Z</time>
      </trkpt>
      <trkpt lat="45.84451" lon="2.93896">
        <ele>997</ele>
        <time>2018-05-19T13:54:19Z</time>
      </trkpt>
      <trkpt lat="45.84443" lon="2.93901">
        <ele>998</ele>
        <time>2018-05-19T13:54:21Z</time>
      </trkpt>
      <trkpt lat="45.84435" lon="2.93905">
        <ele>998</ele>
        <time>2018-05-19T13:54:23Z</time>
      </trkpt>
      <trkpt lat="45.84428" lon="2.93908">
        <ele>998</ele>
        <time>2018-05-19T13:54:25Z</time>
      </trkpt>
      <trkpt lat="45.84421" lon="2.93912">
        <ele>998</ele>
        <time>2018-05-19T13:54:27Z</time>
      </trkpt>
      <trkpt lat="45.84413" lon="2.93916">
        <ele>998</ele>
        <time>2018-05-19T13:54:29Z</time>
      </trkpt>
      <trkpt lat="45.84405" lon="2.9392">
        <ele>998</ele>
        <time>2018-05-19T13:54:31Z</time>
      </trkpt>
      <trkpt lat="45.84397" lon="2.93925">
        <ele>998</ele>
        <time>2018-05-19T13:54:33Z</time>
      </trkpt>
      <trkpt lat="45.8439" lon="2.9393">
        <ele>998</ele>
        <time>2018-05-19T13:54:35Z</time>
      </trkpt>
      <trkpt lat="45.84384" lon="2.93934">
        <ele>997</ele>
        <time>2018-05-19T13:54:37Z</time>
      </trkpt>
      <trkpt lat="45.84381" lon="2.9394">
        <ele>996</ele>
        <time>2018-05-19T13:54:47Z</time>
      </trkpt>
      <trkpt lat="45.84377" lon="2.93944">
        <ele>998</ele>
        <time>2018-05-19T13:55:07Z</time>
      </trkpt>
      <trkpt lat="45.84371" lon="2.93941">
        <ele>996</ele>
        <time>2018-05-19T14:02:05Z</time>
      </trkpt>
      <trkpt lat="45.84367" lon="2.93943">
        <ele>996</ele>
        <time>2018-05-19T14:02:07Z</time>
      </trkpt>
      <trkpt lat="45.84362" lon="2.93947">
        <ele>996</ele>
        <time>2018-05-19T14:02:09Z</time>
      </trkpt>
      <trkpt lat="45.84358" lon="2.93951">
        <ele>996</ele>
        <time>2018-05-19T14:02:11Z</time>
      </trkpt>
      <trkpt lat="45.84353" lon="2.93955">
        <ele>996</ele>
        <time>2018-05-19T14:02:13Z</time>
      </trkpt>
      <trkpt lat="45.84347" lon="2.9396">
        <ele>996</ele>
        <time>2018-05-19T14:02:15Z</time>
      </trkpt>
      <trkpt lat="45.8434" lon="2.93964">
        <ele>996</ele>
        <time>2018-05-19T14:02:17Z</time>
      </trkpt>
      <trkpt lat="45.84334" lon="2.9397">
        <ele>996</ele>
        <time>2018-05-19T14:02:19Z</time>
      </trkpt>
      <trkpt lat="45.84327" lon="2.93977">
        <ele>996</ele>
        <time>2018-05-19T14:02:21Z</time>
      </trkpt>
      <trkpt lat="45.84319" lon="2.93982">
        <ele>996</ele>
        <time>2018-05-19T14:02:23Z</time>
      </trkpt>
      <trkpt lat="45.84312" lon="2.93989">
        <ele>997</ele>
        <time>2018-05-19T14:02:25Z</time>
      </trkpt>
      <trkpt lat="45.84305" lon="2.93995">
        <ele>997</ele>
        <time>2018-05-19T14:02:27Z</time>
      </trkpt>
      <trkpt lat="45.84298" lon="2.94">
        <ele>997</ele>
        <time>2018-05-19T14:02:29Z</time>
      </trkpt>
      <trkpt lat="45.8429" lon="2.94006">
        <ele>996</ele>
        <time>2018-05-19T14:02:31Z</time>
      </trkpt>
      <trkpt lat="45.84283" lon="2.94013">
        <ele>997</ele>
        <time>2018-05-19T14:02:33Z</time>
      </trkpt>
      <trkpt lat="45.84275" lon="2.94018">
        <ele>996</ele>
        <time>2018-05-19T14:02:35Z</time>
      </trkpt>
      <trkpt lat="45.84268" lon="2.94024">
        <ele>996</ele>
        <time>2018-05-19T14:02:37Z</time>
      </trkpt>
      <trkpt lat="45.8426" lon="2.94028">
        <ele>996</ele>
        <time>2018-05-19T14:02:39Z</time>
      </trkpt>
      <trkpt lat="45.84253" lon="2.94033">
        <ele>996</ele>
        <time>2018-05-19T14:02:41Z</time>
      </trkpt>
      <trkpt lat="45.84246" lon="2.94036">
        <ele>996</ele>
        <time>2018-05-19T14:02:43Z</time>
      </trkpt>
      <trkpt lat="45.8424" lon="2.94042">
        <ele>996</ele>
        <time>2018-05-19T14:02:45Z</time>
      </trkpt>
      <trkpt lat="45.84233" lon="2.94048">
        <ele>996</ele>
        <time>2018-05-19T14:02:47Z</time>
      </trkpt>
      <trkpt lat="45.84226" lon="2.94053">
        <ele>995</ele>
        <time>2018-05-19T14:02:49Z</time>
      </trkpt>
      <trkpt lat="45.84219" lon="2.9406">
        <ele>996</ele>
        <time>2018-05-19T14:02:51Z</time>
      </trkpt>
      <trkpt lat="45.84211" lon="2.94064">
        <ele>996</ele>
        <time>2018-05-19T14:02:53Z</time>
      </trkpt>
      <trkpt lat="45.84204" lon="2.94071">
        <ele>997</ele>
        <time>2018-05-19T14:02:55Z</time>
      </trkpt>
      <trkpt lat="45.84196" lon="2.94076">
        <ele>998</ele>
        <time>2018-05-19T14:02:57Z</time>
      </trkpt>
      <trkpt lat="45.84189" lon="2.94082">
        <ele>999</ele>
        <time>2018-05-19T14:02:59Z</time>
      </trkpt>
      <trkpt lat="45.84182" lon="2.94088">
        <ele>998</ele>
        <time>2018-05-19T14:03:01Z</time>
      </trkpt>
      <trkpt lat="45.84174" lon="2.94094">
        <ele>998</ele>
        <time>2018-05-19T14:03:03Z</time>
      </trkpt>
      <trkpt lat="45.84168" lon="2.94099">
        <ele>999</ele>
        <time>2018-05-19T14:03:05Z</time>
      </trkpt>
      <trkpt lat="45.8416" lon="2.94104">
        <ele>998</ele>
        <time>2018-05-19T14:03:07Z</time>
      </trkpt>
      <trkpt lat="45.84154" lon="2.9411">
        <ele>999</ele>
        <time>2018-05-19T14:03:09Z</time>
      </trkpt>
      <trkpt lat="45.84147" lon="2.94116">
        <ele>998</ele>
        <time>2018-05-19T14:03:11Z</time>
      </trkpt>
      <trkpt lat="45.84139" lon="2.94123">
        <ele>999</ele>
        <time>2018-05-19T14:03:13Z</time>
      </trkpt>
      <trkpt lat="45.84132" lon="2.94129">
        <ele>999</ele>
        <time>2018-05-19T14:03:15Z</time>
      </trkpt>
      <trkpt lat="45.84125" lon="2.94135">
        <ele>999</ele>
        <time>2018-05-19T14:03:17Z</time>
      </trkpt>
      <trkpt lat="45.84118" lon="2.94142">
        <ele>999</ele>
        <time>2018-05-19T14:03:19Z</time>
      </trkpt>
      <trkpt lat="45.84111" lon="2.94149">
        <ele>1000</ele>
        <time>2018-05-19T14:03:21Z</time>
      </trkpt>
      <trkpt lat="45.84103" lon="2.94155">
        <ele>999</ele>
        <time>2018-05-19T14:03:23Z</time>
      </trkpt>
      <trkpt lat="45.84094" lon="2.94161">
        <ele>998</ele>
        <time>2018-05-19T14:03:25Z</time>
      </trkpt>
      <trkpt lat="45.84086" lon="2.94167">
        <ele>998</ele>
        <time>2018-05-19T14:03:27Z</time>
      </trkpt>
      <trkpt lat="45.84078" lon="2.94173">
        <ele>998</ele>
        <time>2018-05-19T14:03:29Z</time>
      </trkpt>
      <trkpt lat="45.8407" lon="2.9418">
        <ele>997</ele>
        <time>2018-05-19T14:03:31Z</time>
      </trkpt>
      <trkpt lat="45.84062" lon="2.94185">
        <ele>998</ele>
        <time>2018-05-19T14:03:33Z</time>
      </trkpt>
      <trkpt lat="45.84054" lon="2.94189">
        <ele>999</ele>
        <time>2018-05-19T14:03:35Z</time>
      </trkpt>
      <trkpt lat="45.84047" lon="2.94193">
        <ele>999</ele>
        <time>2018-05-19T14:03:37Z</time>
      </trkpt>
      <trkpt lat="45.8404" lon="2.94197">
        <ele>998</ele>
        <time>2018-05-19T14:03:39Z</time>
      </trkpt>
      <trkpt lat="45.84033" lon="2.942">
        <ele>999</ele>
        <time>2018-05-19T14:03:41Z</time>
      </trkpt>
      <trkpt lat="45.84026" lon="2.94203">
        <ele>998</ele>
        <time>2018-05-19T14:03:43Z</time>
      </trkpt>
      <trkpt lat="45.8402" lon="2.94206">
        <ele>999</ele>
        <time>2018-05-19T14:03:45Z</time>
      </trkpt>
      <trkpt lat="45.84013" lon="2.94209">
        <ele>999</ele>
        <time>2018-05-19T14:03:47Z</time>
      </trkpt>
      <trkpt lat="45.84007" lon="2.9421">
        <ele>999</ele>
        <time>2018-05-19T14:03:49Z</time>
      </trkpt>
      <trkpt lat="45.84001" lon="2.94211">
        <ele>1001</ele>
        <time>2018-05-19T14:03:51Z</time>
      </trkpt>
      <trkpt lat="45.83994" lon="2.94213">
        <ele>1002</ele>
        <time>2018-05-19T14:03:53Z</time>
      </trkpt>
      <trkpt lat="45.83988" lon="2.94214">
        <ele>1002</ele>
        <time>2018-05-19T14:03:55Z</time>
      </trkpt>
      <trkpt lat="45.83981" lon="2.94216">
        <ele>1002</ele>
        <time>2018-05-19T14:03:57Z</time>
      </trkpt>
      <trkpt lat="45.83975" lon="2.94218">
        <ele>1001</ele>
        <time>2018-05-19T14:03:59Z</time>
      </trkpt>
      <trkpt lat="45.83969" lon="2.9422">
        <ele>1001</ele>
        <time>2018-05-19T14:04:01Z</time>
      </trkpt>
      <trkpt lat="45.83963" lon="2.94222">
        <ele>1002</ele>
        <time>2018-05-19T14:04:03Z</time>
      </trkpt>
      <trkpt lat="45.83956" lon="2.94221">
        <ele>1003</ele>
        <time>2018-05-19T14:04:05Z</time>
      </trkpt>
      <trkpt lat="45.83951" lon="2.94222">
        <ele>1005</ele>
        <time>2018-05-19T14:04:07Z</time>
      </trkpt>
      <trkpt lat="45.83946" lon="2.94223">
        <ele>1006</ele>
        <time>2018-05-19T14:04:09Z</time>
      </trkpt>
      <trkpt lat="45.83941" lon="2.94225">
        <ele>1008</ele>
        <time>2018-05-19T14:04:11Z</time>
      </trkpt>
      <trkpt lat="45.83936" lon="2.94227">
        <ele>1008</ele>
        <time>2018-05-19T14:04:13Z</time>
      </trkpt>
      <trkpt lat="45.83931" lon="2.9423">
        <ele>1009</ele>
        <time>2018-05-19T14:04:15Z</time>
      </trkpt>
      <trkpt lat="45.83923" lon="2.94234">
        <ele>1012</ele>
        <time>2018-05-19T14:04:19Z</time>
      </trkpt>
      <trkpt lat="45.83918" lon="2.9424">
        <ele>1014</ele>
        <time>2018-05-19T14:04:21Z</time>
      </trkpt>
      <trkpt lat="45.83914" lon="2.94246">
        <ele>1015</ele>
        <time>2018-05-19T14:04:23Z</time>
      </trkpt>
      <trkpt lat="45.8391" lon="2.94252">
        <ele>1017</ele>
        <time>2018-05-19T14:04:25Z</time>
      </trkpt>
      <trkpt lat="45.83907" lon="2.94259">
        <ele>1016</ele>
        <time>2018-05-19T14:04:27Z</time>
      </trkpt>
      <trkpt lat="45.83903" lon="2.94266">
        <ele>1016</ele>
        <time>2018-05-19T14:04:29Z</time>
      </trkpt>
      <trkpt lat="45.83901" lon="2.94273">
        <ele>1014</ele>
        <time>2018-05-19T14:04:31Z</time>
      </trkpt>
      <trkpt lat="45.83899" lon="2.94281">
        <ele>1013</ele>
        <time>2018-05-19T14:04:33Z</time>
      </trkpt>
      <trkpt lat="45.83897" lon="2.94287">
        <ele>1012</ele>
        <time>2018-05-19T14:04:35Z</time>
      </trkpt>
      <trkpt lat="45.83895" lon="2.94295">
        <ele>1012</ele>
        <time>2018-05-19T14:04:37Z</time>
      </trkpt>
      <trkpt lat="45.83893" lon="2.94301">
        <ele>1012</ele>
        <time>2018-05-19T14:04:39Z</time>
      </trkpt>
      <trkpt lat="45.83889" lon="2.94308">
        <ele>1012</ele>
        <time>2018-05-19T14:04:41Z</time>
      </trkpt>
      <trkpt lat="45.83886" lon="2.94313">
        <ele>1013</ele>
        <time>2018-05-19T14:04:43Z</time>
      </trkpt>
      <trkpt lat="45.83883" lon="2.9432">
        <ele>1014</ele>
        <time>2018-05-19T14:04:45Z</time>
      </trkpt>
      <trkpt lat="45.83878" lon="2.94326">
        <ele>1014</ele>
        <time>2018-05-19T14:04:47Z</time>
      </trkpt>
      <trkpt lat="45.83874" lon="2.94332">
        <ele>1014</ele>
        <time>2018-05-19T14:04:49Z</time>
      </trkpt>
      <trkpt lat="45.83869" lon="2.94338">
        <ele>1015</ele>
        <time>2018-05-19T14:04:51Z</time>
      </trkpt>
      <trkpt lat="45.83864" lon="2.94344">
        <ele>1015</ele>
        <time>2018-05-19T14:04:53Z</time>
      </trkpt>
      <trkpt lat="45.83859" lon="2.94352">
        <ele>1018</ele>
        <time>2018-05-19T14:04:55Z</time>
      </trkpt>
      <trkpt lat="45.83854" lon="2.94359">
        <ele>1019</ele>
        <time>2018-05-19T14:04:57Z</time>
      </trkpt>
      <trkpt lat="45.83849" lon="2.94366">
        <ele>1019</ele>
        <time>2018-05-19T14:04:59Z</time>
      </trkpt>
      <trkpt lat="45.83844" lon="2.94373">
        <ele>1018</ele>
        <time>2018-05-19T14:05:01Z</time>
      </trkpt>
      <trkpt lat="45.8384" lon="2.94379">
        <ele>1017</ele>
        <time>2018-05-19T14:05:03Z</time>
      </trkpt>
      <trkpt lat="45.83836" lon="2.94385">
        <ele>1016</ele>
        <time>2018-05-19T14:05:05Z</time>
      </trkpt>
      <trkpt lat="45.83831" lon="2.94391">
        <ele>1017</ele>
        <time>2018-05-19T14:05:07Z</time>
      </trkpt>
      <trkpt lat="45.83828" lon="2.94398">
        <ele>1017</ele>
        <time>2018-05-19T14:05:09Z</time>
      </trkpt>
      <trkpt lat="45.83823" lon="2.94405">
        <ele>1016</ele>
        <time>2018-05-19T14:05:11Z</time>
      </trkpt>
      <trkpt lat="45.83819" lon="2.94411">
        <ele>1015</ele>
        <time>2018-05-19T14:05:13Z</time>
      </trkpt>
      <trkpt lat="45.83813" lon="2.94418">
        <ele>1015</ele>
        <time>2018-05-19T14:05:15Z</time>
      </trkpt>
      <trkpt lat="45.83807" lon="2.94425">
        <ele>1014</ele>
        <time>2018-05-19T14:05:17Z</time>
      </trkpt>
      <trkpt lat="45.838" lon="2.94432">
        <ele>1014</ele>
        <time>2018-05-19T14:05:19Z</time>
      </trkpt>
      <trkpt lat="45.83794" lon="2.94438">
        <ele>1012</ele>
        <time>2018-05-19T14:05:21Z</time>
      </trkpt>
      <trkpt lat="45.83789" lon="2.94443">
        <ele>1012</ele>
        <time>2018-05-19T14:05:23Z</time>
      </trkpt>
      <trkpt lat="45.83781" lon="2.94448">
        <ele>1010</ele>
        <time>2018-05-19T14:05:27Z</time>
      </trkpt>
      <trkpt lat="45.83776" lon="2.94451">
        <ele>1009</ele>
        <time>2018-05-19T14:05:29Z</time>
      </trkpt>
      <trkpt lat="45.83772" lon="2.94454">
        <ele>1008</ele>
        <time>2018-05-19T14:05:31Z</time>
      </trkpt>
      <trkpt lat="45.83765" lon="2.94457">
        <ele>1007</ele>
        <time>2018-05-19T14:05:33Z</time>
      </trkpt>
      <trkpt lat="45.83758" lon="2.94462">
        <ele>1007</ele>
        <time>2018-05-19T14:05:35Z</time>
      </trkpt>
      <trkpt lat="45.8375" lon="2.94465">
        <ele>1006</ele>
        <time>2018-05-19T14:05:37Z</time>
      </trkpt>
      <trkpt lat="45.83741" lon="2.9447">
        <ele>1005</ele>
        <time>2018-05-19T14:05:39Z</time>
      </trkpt>
      <trkpt lat="45.83733" lon="2.94475">
        <ele>1006</ele>
        <time>2018-05-19T14:05:41Z</time>
      </trkpt>
      <trkpt lat="45.83724" lon="2.94482">
        <ele>1006</ele>
        <time>2018-05-19T14:05:43Z</time>
      </trkpt>
      <trkpt lat="45.83715" lon="2.94488">
        <ele>1005</ele>
        <time>2018-05-19T14:05:45Z</time>
      </trkpt>
      <trkpt lat="45.83705" lon="2.94494">
        <ele>1005</ele>
        <time>2018-05-19T14:05:47Z</time>
      </trkpt>
      <trkpt lat="45.83696" lon="2.94499">
        <ele>1005</ele>
        <time>2018-05-19T14:05:49Z</time>
      </trkpt>
      <trkpt lat="45.83688" lon="2.94506">
        <ele>1005</ele>
        <time>2018-05-19T14:05:51Z</time>
      </trkpt>
      <trkpt lat="45.8368" lon="2.94513">
        <ele>1005</ele>
        <time>2018-05-19T14:05:53Z</time>
      </trkpt>
      <trkpt lat="45.83672" lon="2.94519">
        <ele>1005</ele>
        <time>2018-05-19T14:05:55Z</time>
      </trkpt>
      <trkpt lat="45.83663" lon="2.94524">
        <ele>1005</ele>
        <time>2018-05-19T14:05:57Z</time>
      </trkpt>
      <trkpt lat="45.83655" lon="2.9453">
        <ele>1004</ele>
        <time>2018-05-19T14:05:59Z</time>
      </trkpt>
      <trkpt lat="45.83647" lon="2.94535">
        <ele>1005</ele>
        <time>2018-05-19T14:06:01Z</time>
      </trkpt>
      <trkpt lat="45.83639" lon="2.9454">
        <ele>1005</ele>
        <time>2018-05-19T14:06:03Z</time>
      </trkpt>
      <trkpt lat="45.8363" lon="2.94545">
        <ele>1004</ele>
        <time>2018-05-19T14:06:05Z</time>
      </trkpt>
      <trkpt lat="45.83623" lon="2.9455">
        <ele>1005</ele>
        <time>2018-05-19T14:06:07Z</time>
      </trkpt>
      <trkpt lat="45.83614" lon="2.94554">
        <ele>1005</ele>
        <time>2018-05-19T14:06:09Z</time>
      </trkpt>
      <trkpt lat="45.83606" lon="2.94557">
        <ele>1004</ele>
        <time>2018-05-19T14:06:11Z</time>
      </trkpt>
      <trkpt lat="45.83598" lon="2.9456">
        <ele>1004</ele>
        <time>2018-05-19T14:06:13Z</time>
      </trkpt>
      <trkpt lat="45.83589" lon="2.94562">
        <ele>1004</ele>
        <time>2018-05-19T14:06:15Z</time>
      </trkpt>
      <trkpt lat="45.8358" lon="2.94564">
        <ele>1004</ele>
        <time>2018-05-19T14:06:17Z</time>
      </trkpt>
      <trkpt lat="45.83571" lon="2.94566">
        <ele>1004</ele>
        <time>2018-05-19T14:06:19Z</time>
      </trkpt>
      <trkpt lat="45.83563" lon="2.94569">
        <ele>1004</ele>
        <time>2018-05-19T14:06:21Z</time>
      </trkpt>
      <trkpt lat="45.83554" lon="2.94572">
        <ele>1004</ele>
        <time>2018-05-19T14:06:23Z</time>
      </trkpt>
      <trkpt lat="45.83546" lon="2.94575">
        <ele>1004</ele>
        <time>2018-05-19T14:06:25Z</time>
      </trkpt>
      <trkpt lat="45.83538" lon="2.94577">
        <ele>1004</ele>
        <time>2018-05-19T14:06:27Z</time>
      </trkpt>
      <trkpt lat="45.83529" lon="2.94579">
        <ele>1004</ele>
        <time>2018-05-19T14:06:29Z</time>
      </trkpt>
      <trkpt lat="45.83521" lon="2.9458">
        <ele>1004</ele>
        <time>2018-05-19T14:06:31Z</time>
      </trkpt>
      <trkpt lat="45.83513" lon="2.94581">
        <ele>1004</ele>
        <time>2018-05-19T14:06:33Z</time>
      </trkpt>
      <trkpt lat="45.83505" lon="2.94582">
        <ele>1004</ele>
        <time>2018-05-19T14:06:35Z</time>
      </trkpt>
      <trkpt lat="45.83498" lon="2.94583">
        <ele>1004</ele>
        <time>2018-05-19T14:06:37Z</time>
      </trkpt>
      <trkpt lat="45.8349" lon="2.94584">
        <ele>1005</ele>
        <time>2018-05-19T14:06:39Z</time>
      </trkpt>
      <trkpt lat="45.83482" lon="2.94584">
        <ele>1005</ele>
        <time>2018-05-19T14:06:41Z</time>
      </trkpt>
      <trkpt lat="45.83474" lon="2.94584">
        <ele>1005</ele>
        <time>2018-05-19T14:06:43Z</time>
      </trkpt>
      <trkpt lat="45.83467" lon="2.94584">
        <ele>1005</ele>
        <time>2018-05-19T14:06:45Z</time>
      </trkpt>
      <trkpt lat="45.83459" lon="2.94583">
        <ele>1005</ele>
        <time>2018-05-19T14:06:47Z</time>
      </trkpt>
      <trkpt lat="45.83452" lon="2.94584">
        <ele>1006</ele>
        <time>2018-05-19T14:06:49Z</time>
      </trkpt>
      <trkpt lat="45.83444" lon="2.94583">
        <ele>1006</ele>
        <time>2018-05-19T14:06:51Z</time>
      </trkpt>
      <trkpt lat="45.83435" lon="2.94584">
        <ele>1006</ele>
        <time>2018-05-19T14:06:53Z</time>
      </trkpt>
      <trkpt lat="45.83428" lon="2.94584">
        <ele>1008</ele>
        <time>2018-05-19T14:06:55Z</time>
      </trkpt>
      <trkpt lat="45.83419" lon="2.94583">
        <ele>1009</ele>
        <time>2018-05-19T14:06:57Z</time>
      </trkpt>
      <trkpt lat="45.83411" lon="2.94584">
        <ele>1008</ele>
        <time>2018-05-19T14:06:59Z</time>
      </trkpt>
      <trkpt lat="45.83403" lon="2.94583">
        <ele>1009</ele>
        <time>2018-05-19T14:07:01Z</time>
      </trkpt>
      <trkpt lat="45.83396" lon="2.94583">
        <ele>1009</ele>
        <time>2018-05-19T14:07:03Z</time>
      </trkpt>
      <trkpt lat="45.83388" lon="2.94582">
        <ele>1009</ele>
        <time>2018-05-19T14:07:05Z</time>
      </trkpt>
      <trkpt lat="45.83381" lon="2.94579">
        <ele>1009</ele>
        <time>2018-05-19T14:07:07Z</time>
      </trkpt>
      <trkpt lat="45.83372" lon="2.94578">
        <ele>1009</ele>
        <time>2018-05-19T14:07:09Z</time>
      </trkpt>
      <trkpt lat="45.83364" lon="2.94578">
        <ele>1009</ele>
        <time>2018-05-19T14:07:11Z</time>
      </trkpt>
      <trkpt lat="45.83357" lon="2.94578">
        <ele>1010</ele>
        <time>2018-05-19T14:07:13Z</time>
      </trkpt>
      <trkpt lat="45.83349" lon="2.94579">
        <ele>1011</ele>
        <time>2018-05-19T14:07:15Z</time>
      </trkpt>
      <trkpt lat="45.83342" lon="2.94581">
        <ele>1009</ele>
        <time>2018-05-19T14:07:17Z</time>
      </trkpt>
      <trkpt lat="45.83336" lon="2.94583">
        <ele>1008</ele>
        <time>2018-05-19T14:07:19Z</time>
      </trkpt>
      <trkpt lat="45.83331" lon="2.94586">
        <ele>1010</ele>
        <time>2018-05-19T14:07:21Z</time>
      </trkpt>
      <trkpt lat="45.83326" lon="2.94594">
        <ele>1011</ele>
        <time>2018-05-19T14:07:39Z</time>
      </trkpt>
      <trkpt lat="45.83325" lon="2.94603">
        <ele>1012</ele>
        <time>2018-05-19T14:07:43Z</time>
      </trkpt>
      <trkpt lat="45.83324" lon="2.94616">
        <ele>1013</ele>
        <time>2018-05-19T14:07:47Z</time>
      </trkpt>
      <trkpt lat="45.83322" lon="2.94626">
        <ele>1014</ele>
        <time>2018-05-19T14:07:51Z</time>
      </trkpt>
      <trkpt lat="45.83322" lon="2.94633">
        <ele>1013</ele>
        <time>2018-05-19T14:07:53Z</time>
      </trkpt>
      <trkpt lat="45.83323" lon="2.94641">
        <ele>1014</ele>
        <time>2018-05-19T14:07:55Z</time>
      </trkpt>
      <trkpt lat="45.83322" lon="2.94648">
        <ele>1015</ele>
        <time>2018-05-19T14:07:57Z</time>
      </trkpt>
      <trkpt lat="45.8332" lon="2.94662">
        <ele>1016</ele>
        <time>2018-05-19T14:08:01Z</time>
      </trkpt>
      <trkpt lat="45.83321" lon="2.9467">
        <ele>1017</ele>
        <time>2018-05-19T14:08:03Z</time>
      </trkpt>
      <trkpt lat="45.83322" lon="2.94681">
        <ele>1018</ele>
        <time>2018-05-19T14:08:05Z</time>
      </trkpt>
      <trkpt lat="45.83322" lon="2.9469">
        <ele>1018</ele>
        <time>2018-05-19T14:08:07Z</time>
      </trkpt>
      <trkpt lat="45.83322" lon="2.94698">
        <ele>1020</ele>
        <time>2018-05-19T14:08:09Z</time>
      </trkpt>
      <trkpt lat="45.83323" lon="2.94706">
        <ele>1021</ele>
        <time>2018-05-19T14:08:11Z</time>
      </trkpt>
      <trkpt lat="45.83324" lon="2.94713">
        <ele>1020</ele>
        <time>2018-05-19T14:08:13Z</time>
      </trkpt>
      <trkpt lat="45.83324" lon="2.9472">
        <ele>1018</ele>
        <time>2018-05-19T14:08:15Z</time>
      </trkpt>
      <trkpt lat="45.83324" lon="2.94728">
        <ele>1018</ele>
        <time>2018-05-19T14:08:17Z</time>
      </trkpt>
      <trkpt lat="45.83323" lon="2.94735">
        <ele>1017</ele>
        <time>2018-05-19T14:08:19Z</time>
      </trkpt>
      <trkpt lat="45.83324" lon="2.94742">
        <ele>1019</ele>
        <time>2018-05-19T14:08:21Z</time>
      </trkpt>
      <trkpt lat="45.83323" lon="2.94749">
        <ele>1018</ele>
        <time>2018-05-19T14:08:23Z</time>
      </trkpt>
      <trkpt lat="45.83323" lon="2.94755">
        <ele>1018</ele>
        <time>2018-05-19T14:08:25Z</time>
      </trkpt>
      <trkpt lat="45.83322" lon="2.94763">
        <ele>1020</ele>
        <time>2018-05-19T14:08:27Z</time>
      </trkpt>
      <trkpt lat="45.83322" lon="2.9477">
        <ele>1019</ele>
        <time>2018-05-19T14:08:29Z</time>
      </trkpt>
      <trkpt lat="45.83321" lon="2.94777">
        <ele>1019</ele>
        <time>2018-05-19T14:08:31Z</time>
      </trkpt>
      <trkpt lat="45.83321" lon="2.94785">
        <ele>1020</ele>
        <time>2018-05-19T14:08:33Z</time>
      </trkpt>
      <trkpt lat="45.83319" lon="2.94791">
        <ele>1021</ele>
        <time>2018-05-19T14:08:35Z</time>
      </trkpt>
      <trkpt lat="45.83317" lon="2.94802">
        <ele>1023</ele>
        <time>2018-05-19T14:08:39Z</time>
      </trkpt>
      <trkpt lat="45.83317" lon="2.9481">
        <ele>1026</ele>
        <time>2018-05-19T14:08:43Z</time>
      </trkpt>
      <trkpt lat="45.83317" lon="2.9482">
        <ele>1024</ele>
        <time>2018-05-19T14:08:47Z</time>
      </trkpt>
      <trkpt lat="45.83317" lon="2.94828">
        <ele>1023</ele>
        <time>2018-05-19T14:08:49Z</time>
      </trkpt>
      <trkpt lat="45.83316" lon="2.94835">
        <ele>1024</ele>
        <time>2018-05-19T14:08:51Z</time>
      </trkpt>
      <trkpt lat="45.83316" lon="2.94842">
        <ele>1025</ele>
        <time>2018-05-19T14:08:53Z</time>
      </trkpt>
      <trkpt lat="45.83316" lon="2.94851">
        <ele>1025</ele>
        <time>2018-05-19T14:08:55Z</time>
      </trkpt>
      <trkpt lat="45.83314" lon="2.94859">
        <ele>1028</ele>
        <time>2018-05-19T14:08:59Z</time>
      </trkpt>
      <trkpt lat="45.83313" lon="2.94866">
        <ele>1029</ele>
        <time>2018-05-19T14:09:01Z</time>
      </trkpt>
      <trkpt lat="45.83312" lon="2.94872">
        <ele>1029</ele>
        <time>2018-05-19T14:09:03Z</time>
      </trkpt>
      <trkpt lat="45.8331" lon="2.94881">
        <ele>1030</ele>
        <time>2018-05-19T14:09:07Z</time>
      </trkpt>
      <trkpt lat="45.83308" lon="2.94894">
        <ele>1029</ele>
        <time>2018-05-19T14:09:11Z</time>
      </trkpt>
      <trkpt lat="45.83306" lon="2.949">
        <ele>1028</ele>
        <time>2018-05-19T14:09:13Z</time>
      </trkpt>
      <trkpt lat="45.83305" lon="2.94906">
        <ele>1028</ele>
        <time>2018-05-19T14:09:15Z</time>
      </trkpt>
      <trkpt lat="45.83306" lon="2.94913">
        <ele>1029</ele>
        <time>2018-05-19T14:09:17Z</time>
      </trkpt>
      <trkpt lat="45.83304" lon="2.94924">
        <ele>1028</ele>
        <time>2018-05-19T14:09:21Z</time>
      </trkpt>
      <trkpt lat="45.83303" lon="2.94931">
        <ele>1030</ele>
        <time>2018-05-19T14:09:23Z</time>
      </trkpt>
      <trkpt lat="45.83301" lon="2.94945">
        <ele>1034</ele>
        <time>2018-05-19T14:09:27Z</time>
      </trkpt>
      <trkpt lat="45.83298" lon="2.94951">
        <ele>1034</ele>
        <time>2018-05-19T14:09:29Z</time>
      </trkpt>
      <trkpt lat="45.83296" lon="2.94961">
        <ele>1035</ele>
        <time>2018-05-19T14:09:33Z</time>
      </trkpt>
      <trkpt lat="45.83293" lon="2.9497">
        <ele>1039</ele>
        <time>2018-05-19T14:09:37Z</time>
      </trkpt>
      <trkpt lat="45.83293" lon="2.94978">
        <ele>1039</ele>
        <time>2018-05-19T14:09:41Z</time>
      </trkpt>
      <trkpt lat="45.83292" lon="2.94987">
        <ele>1040</ele>
        <time>2018-05-19T14:09:45Z</time>
      </trkpt>
      <trkpt lat="45.8329" lon="2.94998">
        <ele>1040</ele>
        <time>2018-05-19T14:09:49Z</time>
      </trkpt>
      <trkpt lat="45.83287" lon="2.95005">
        <ele>1038</ele>
        <time>2018-05-19T14:09:53Z</time>
      </trkpt>
      <trkpt lat="45.83285" lon="2.95017">
        <ele>1035</ele>
        <time>2018-05-19T14:09:57Z</time>
      </trkpt>
      <trkpt lat="45.83285" lon="2.95027">
        <ele>1035</ele>
        <time>2018-05-19T14:10:01Z</time>
      </trkpt>
      <trkpt lat="45.83283" lon="2.95037">
        <ele>1034</ele>
        <time>2018-05-19T14:10:05Z</time>
      </trkpt>
      <trkpt lat="45.83283" lon="2.95048">
        <ele>1032</ele>
        <time>2018-05-19T14:10:09Z</time>
      </trkpt>
      <trkpt lat="45.83283" lon="2.95055">
        <ele>1030</ele>
        <time>2018-05-19T14:10:11Z</time>
      </trkpt>
      <trkpt lat="45.83283" lon="2.95062">
        <ele>1029</ele>
        <time>2018-05-19T14:10:13Z</time>
      </trkpt>
      <trkpt lat="45.83283" lon="2.95073">
        <ele>1029</ele>
        <time>2018-05-19T14:10:17Z</time>
      </trkpt>
      <trkpt lat="45.8328" lon="2.95085">
        <ele>1032</ele>
        <time>2018-05-19T14:10:21Z</time>
      </trkpt>
      <trkpt lat="45.83279" lon="2.95096">
        <ele>1034</ele>
        <time>2018-05-19T14:10:25Z</time>
      </trkpt>
      <trkpt lat="45.83277" lon="2.95107">
        <ele>1038</ele>
        <time>2018-05-19T14:10:29Z</time>
      </trkpt>
      <trkpt lat="45.83275" lon="2.9512">
        <ele>1035</ele>
        <time>2018-05-19T14:10:33Z</time>
      </trkpt>
      <trkpt lat="45.83273" lon="2.95126">
        <ele>1034</ele>
        <time>2018-05-19T14:10:35Z</time>
      </trkpt>
      <trkpt lat="45.83271" lon="2.95132">
        <ele>1034</ele>
        <time>2018-05-19T14:10:37Z</time>
      </trkpt>
      <trkpt lat="45.8327" lon="2.95144">
        <ele>1037</ele>
        <time>2018-05-19T14:10:41Z</time>
      </trkpt>
      <trkpt lat="45.83268" lon="2.95154">
        <ele>1040</ele>
        <time>2018-05-19T14:10:45Z</time>
      </trkpt>
      <trkpt lat="45.83268" lon="2.95163">
        <ele>1042</ele>
        <time>2018-05-19T14:10:49Z</time>
      </trkpt>
      <trkpt lat="45.83264" lon="2.95171">
        <ele>1043</ele>
        <time>2018-05-19T14:10:53Z</time>
      </trkpt>
      <trkpt lat="45.83261" lon="2.9518">
        <ele>1042</ele>
        <time>2018-05-19T14:10:57Z</time>
      </trkpt>
      <trkpt lat="45.83258" lon="2.95191">
        <ele>1039</ele>
        <time>2018-05-19T14:11:01Z</time>
      </trkpt>
      <trkpt lat="45.83256" lon="2.952">
        <ele>1040</ele>
        <time>2018-05-19T14:11:05Z</time>
      </trkpt>
      <trkpt lat="45.83253" lon="2.95209">
        <ele>1040</ele>
        <time>2018-05-19T14:11:09Z</time>
      </trkpt>
      <trkpt lat="45.83248" lon="2.95216">
        <ele>1040</ele>
        <time>2018-05-19T14:11:13Z</time>
      </trkpt>
      <trkpt lat="45.83244" lon="2.95224">
        <ele>1043</ele>
        <time>2018-05-19T14:11:17Z</time>
      </trkpt>
      <trkpt lat="45.8324" lon="2.95231">
        <ele>1041</ele>
        <time>2018-05-19T14:11:21Z</time>
      </trkpt>
      <trkpt lat="45.83237" lon="2.95236">
        <ele>1041</ele>
        <time>2018-05-19T14:11:23Z</time>
      </trkpt>
      <trkpt lat="45.83235" lon="2.95246">
        <ele>1042</ele>
        <time>2018-05-19T14:11:27Z</time>
      </trkpt>
      <trkpt lat="45.83233" lon="2.95255">
        <ele>1038</ele>
        <time>2018-05-19T14:11:31Z</time>
      </trkpt>
      <trkpt lat="45.83228" lon="2.95264">
        <ele>1037</ele>
        <time>2018-05-19T14:11:35Z</time>
      </trkpt>
      <trkpt lat="45.83227" lon="2.95272">
        <ele>1039</ele>
        <time>2018-05-19T14:11:39Z</time>
      </trkpt>
      <trkpt lat="45.83224" lon="2.95281">
        <ele>1040</ele>
        <time>2018-05-19T14:11:43Z</time>
      </trkpt>
      <trkpt lat="45.83222" lon="2.95287">
        <ele>1035</ele>
        <time>2018-05-19T14:11:47Z</time>
      </trkpt>
      <trkpt lat="45.8322" lon="2.95295">
        <ele>1036</ele>
        <time>2018-05-19T14:11:51Z</time>
      </trkpt>
      <trkpt lat="45.83219" lon="2.95302">
        <ele>1034</ele>
        <time>2018-05-19T14:11:55Z</time>
      </trkpt>
      <trkpt lat="45.83219" lon="2.95312">
        <ele>1034</ele>
        <time>2018-05-19T14:11:59Z</time>
      </trkpt>
      <trkpt lat="45.83218" lon="2.9532">
        <ele>1040</ele>
        <time>2018-05-19T14:12:03Z</time>
      </trkpt>
      <trkpt lat="45.83217" lon="2.95327">
        <ele>1040</ele>
        <time>2018-05-19T14:12:07Z</time>
      </trkpt>
      <trkpt lat="45.83214" lon="2.95337">
        <ele>1047</ele>
        <time>2018-05-19T14:12:13Z</time>
      </trkpt>
      <trkpt lat="45.8321" lon="2.95342">
        <ele>1053</ele>
        <time>2018-05-19T14:12:19Z</time>
      </trkpt>
      <trkpt lat="45.83207" lon="2.9535">
        <ele>1057</ele>
        <time>2018-05-19T14:12:25Z</time>
      </trkpt>
      <trkpt lat="45.83207" lon="2.95357">
        <ele>1058</ele>
        <time>2018-05-19T14:12:29Z</time>
      </trkpt>
      <trkpt lat="45.83206" lon="2.95365">
        <ele>1057</ele>
        <time>2018-05-19T14:12:33Z</time>
      </trkpt>
      <trkpt lat="45.83202" lon="2.95369">
        <ele>1064</ele>
        <time>2018-05-19T14:12:39Z</time>
      </trkpt>
      <trkpt lat="45.83198" lon="2.95376">
        <ele>1068</ele>
        <time>2018-05-19T14:12:45Z</time>
      </trkpt>
      <trkpt lat="45.83195" lon="2.95382">
        <ele>1069</ele>
        <time>2018-05-19T14:12:49Z</time>
      </trkpt>
      <trkpt lat="45.83192" lon="2.95389">
        <ele>1069</ele>
        <time>2018-05-19T14:12:53Z</time>
      </trkpt>
      <trkpt lat="45.83189" lon="2.95395">
        <ele>1070</ele>
        <time>2018-05-19T14:12:57Z</time>
      </trkpt>
      <trkpt lat="45.83186" lon="2.95401">
        <ele>1070</ele>
        <time>2018-05-19T14:13:01Z</time>
      </trkpt>
      <trkpt lat="45.83183" lon="2.9541">
        <ele>1076</ele>
        <time>2018-05-19T14:13:05Z</time>
      </trkpt>
      <trkpt lat="45.83179" lon="2.95417">
        <ele>1078</ele>
        <time>2018-05-19T14:13:09Z</time>
      </trkpt>
      <trkpt lat="45.83173" lon="2.95425">
        <ele>1080</ele>
        <time>2018-05-19T14:13:15Z</time>
      </trkpt>
      <trkpt lat="45.8317" lon="2.9543">
        <ele>1079</ele>
        <time>2018-05-19T14:13:19Z</time>
      </trkpt>
      <trkpt lat="45.83165" lon="2.95436">
        <ele>1080</ele>
        <time>2018-05-19T14:13:23Z</time>
      </trkpt>
      <trkpt lat="45.8316" lon="2.95442">
        <ele>1081</ele>
        <time>2018-05-19T14:13:29Z</time>
      </trkpt>
      <trkpt lat="45.83155" lon="2.95451">
        <ele>1082</ele>
        <time>2018-05-19T14:13:33Z</time>
      </trkpt>
      <trkpt lat="45.83151" lon="2.95457">
        <ele>1082</ele>
        <time>2018-05-19T14:13:37Z</time>
      </trkpt>
      <trkpt lat="45.83146" lon="2.95464">
        <ele>1083</ele>
        <time>2018-05-19T14:13:41Z</time>
      </trkpt>
      <trkpt lat="45.83144" lon="2.95468">
        <ele>1082</ele>
        <time>2018-05-19T14:13:43Z</time>
      </trkpt>
      <trkpt lat="45.8314" lon="2.95476">
        <ele>1081</ele>
        <time>2018-05-19T14:13:47Z</time>
      </trkpt>
      <trkpt lat="45.83135" lon="2.95484">
        <ele>1077</ele>
        <time>2018-05-19T14:13:51Z</time>
      </trkpt>
      <trkpt lat="45.83131" lon="2.95491">
        <ele>1078</ele>
        <time>2018-05-19T14:13:55Z</time>
      </trkpt>
      <trkpt lat="45.83126" lon="2.95497">
        <ele>1082</ele>
        <time>2018-05-19T14:13:59Z</time>
      </trkpt>
      <trkpt lat="45.83123" lon="2.95507">
        <ele>1083</ele>
        <time>2018-05-19T14:14:03Z</time>
      </trkpt>
      <trkpt lat="45.83119" lon="2.95514">
        <ele>1085</ele>
        <time>2018-05-19T14:14:07Z</time>
      </trkpt>
      <trkpt lat="45.83118" lon="2.95525">
        <ele>1085</ele>
        <time>2018-05-19T14:14:11Z</time>
      </trkpt>
      <trkpt lat="45.83115" lon="2.95535">
        <ele>1085</ele>
        <time>2018-05-19T14:14:15Z</time>
      </trkpt>
      <trkpt lat="45.83116" lon="2.95543">
        <ele>1084</ele>
        <time>2018-05-19T14:14:17Z</time>
      </trkpt>
      <trkpt lat="45.83116" lon="2.95551">
        <ele>1086</ele>
        <time>2018-05-19T14:14:19Z</time>
      </trkpt>
      <trkpt lat="45.83117" lon="2.95559">
        <ele>1085</ele>
        <time>2018-05-19T14:14:21Z</time>
      </trkpt>
      <trkpt lat="45.83116" lon="2.95572">
        <ele>1083</ele>
        <time>2018-05-19T14:14:25Z</time>
      </trkpt>
      <trkpt lat="45.83115" lon="2.9558">
        <ele>1082</ele>
        <time>2018-05-19T14:14:27Z</time>
      </trkpt>
      <trkpt lat="45.83115" lon="2.95587">
        <ele>1080</ele>
        <time>2018-05-19T14:14:29Z</time>
      </trkpt>
      <trkpt lat="45.83115" lon="2.95599">
        <ele>1079</ele>
        <time>2018-05-19T14:14:33Z</time>
      </trkpt>
      <trkpt lat="45.83116" lon="2.95607">
        <ele>1079</ele>
        <time>2018-05-19T14:14:35Z</time>
      </trkpt>
      <trkpt lat="45.83116" lon="2.95621">
        <ele>1079</ele>
        <time>2018-05-19T14:14:39Z</time>
      </trkpt>
      <trkpt lat="45.83116" lon="2.9563">
        <ele>1078</ele>
        <time>2018-05-19T14:14:41Z</time>
      </trkpt>
      <trkpt lat="45.83116" lon="2.95639">
        <ele>1077</ele>
        <time>2018-05-19T14:14:43Z</time>
      </trkpt>
      <trkpt lat="45.83118" lon="2.9565">
        <ele>1079</ele>
        <time>2018-05-19T14:14:45Z</time>
      </trkpt>
      <trkpt lat="45.83117" lon="2.95658">
        <ele>1078</ele>
        <time>2018-05-19T14:14:47Z</time>
      </trkpt>
      <trkpt lat="45.83117" lon="2.95669">
        <ele>1078</ele>
        <time>2018-05-19T14:14:49Z</time>
      </trkpt>
      <trkpt lat="45.83116" lon="2.95678">
        <ele>1078</ele>
        <time>2018-05-19T14:14:51Z</time>
      </trkpt>
      <trkpt lat="45.83114" lon="2.95687">
        <ele>1079</ele>
        <time>2018-05-19T14:14:53Z</time>
      </trkpt>
      <trkpt lat="45.83111" lon="2.95696">
        <ele>1078</ele>
        <time>2018-05-19T14:14:55Z</time>
      </trkpt>
      <trkpt lat="45.83109" lon="2.95707">
        <ele>1074</ele>
        <time>2018-05-19T14:14:57Z</time>
      </trkpt>
      <trkpt lat="45.83107" lon="2.95717">
        <ele>1073</ele>
        <time>2018-05-19T14:14:59Z</time>
      </trkpt>
      <trkpt lat="45.83104" lon="2.95728">
        <ele>1072</ele>
        <time>2018-05-19T14:15:01Z</time>
      </trkpt>
      <trkpt lat="45.83101" lon="2.95741">
        <ele>1073</ele>
        <time>2018-05-19T14:15:03Z</time>
      </trkpt>
      <trkpt lat="45.83098" lon="2.95752">
        <ele>1071</ele>
        <time>2018-05-19T14:15:05Z</time>
      </trkpt>
      <trkpt lat="45.83094" lon="2.95764">
        <ele>1072</ele>
        <time>2018-05-19T14:15:07Z</time>
      </trkpt>
      <trkpt lat="45.83089" lon="2.95773">
        <ele>1069</ele>
        <time>2018-05-19T14:15:09Z</time>
      </trkpt>
      <trkpt lat="45.83084" lon="2.95782">
        <ele>1070</ele>
        <time>2018-05-19T14:15:11Z</time>
      </trkpt>
      <trkpt lat="45.83081" lon="2.95791">
        <ele>1069</ele>
        <time>2018-05-19T14:15:13Z</time>
      </trkpt>
      <trkpt lat="45.83074" lon="2.95799">
        <ele>1070</ele>
        <time>2018-05-19T14:15:15Z</time>
      </trkpt>
      <trkpt lat="45.83069" lon="2.95808">
        <ele>1070</ele>
        <time>2018-05-19T14:15:17Z</time>
      </trkpt>
      <trkpt lat="45.83063" lon="2.95816">
        <ele>1071</ele>
        <time>2018-05-19T14:15:19Z</time>
      </trkpt>
      <trkpt lat="45.83057" lon="2.95824">
        <ele>1071</ele>
        <time>2018-05-19T14:15:21Z</time>
      </trkpt>
      <trkpt lat="45.83049" lon="2.95829">
        <ele>1072</ele>
        <time>2018-05-19T14:15:23Z</time>
      </trkpt>
      <trkpt lat="45.83043" lon="2.95834">
        <ele>1071</ele>
        <time>2018-05-19T14:15:25Z</time>
      </trkpt>
      <trkpt lat="45.83036" lon="2.95838">
        <ele>1073</ele>
        <time>2018-05-19T14:15:27Z</time>
      </trkpt>
      <trkpt lat="45.8303" lon="2.95841">
        <ele>1075</ele>
        <time>2018-05-19T14:15:29Z</time>
      </trkpt>
      <trkpt lat="45.83023" lon="2.95843">
        <ele>1077</ele>
        <time>2018-05-19T14:15:33Z</time>
      </trkpt>
      <trkpt lat="45.83018" lon="2.95842">
        <ele>1075</ele>
        <time>2018-05-19T14:15:37Z</time>
      </trkpt>
      <trkpt lat="45.83013" lon="2.95838">
        <ele>1074</ele>
        <time>2018-05-19T14:15:43Z</time>
      </trkpt>
      <trkpt lat="45.83011" lon="2.95832">
        <ele>1076</ele>
        <time>2018-05-19T14:16:09Z</time>
      </trkpt>
      <trkpt lat="45.8301" lon="2.95822">
        <ele>1078</ele>
        <time>2018-05-19T14:16:15Z</time>
      </trkpt>
      <trkpt lat="45.83008" lon="2.95815">
        <ele>1080</ele>
        <time>2018-05-19T14:16:19Z</time>
      </trkpt>
      <trkpt lat="45.83007" lon="2.95808">
        <ele>1078</ele>
        <time>2018-05-19T14:16:23Z</time>
      </trkpt>
      <trkpt lat="45.83007" lon="2.95801">
        <ele>1076</ele>
        <time>2018-05-19T14:16:27Z</time>
      </trkpt>
      <trkpt lat="45.83007" lon="2.95791">
        <ele>1081</ele>
        <time>2018-05-19T14:16:33Z</time>
      </trkpt>
      <trkpt lat="45.83009" lon="2.95799">
        <ele>1085</ele>
        <time>2018-05-19T14:17:19Z</time>
      </trkpt>
      <trkpt lat="45.83012" lon="2.95805">
        <ele>1086</ele>
        <time>2018-05-19T14:17:21Z</time>
      </trkpt>
      <trkpt lat="45.83013" lon="2.95813">
        <ele>1086</ele>
        <time>2018-05-19T14:17:23Z</time>
      </trkpt>
      <trkpt lat="45.83013" lon="2.9582">
        <ele>1085</ele>
        <time>2018-05-19T14:17:25Z</time>
      </trkpt>
      <trkpt lat="45.83017" lon="2.95828">
        <ele>1085</ele>
        <time>2018-05-19T14:17:27Z</time>
      </trkpt>
      <trkpt lat="45.83019" lon="2.95843">
        <ele>1084</ele>
        <time>2018-05-19T14:17:31Z</time>
      </trkpt>
      <trkpt lat="45.8302" lon="2.95855">
        <ele>1083</ele>
        <time>2018-05-19T14:17:33Z</time>
      </trkpt>
      <trkpt lat="45.83018" lon="2.95866">
        <ele>1080</ele>
        <time>2018-05-19T14:17:35Z</time>
      </trkpt>
      <trkpt lat="45.83015" lon="2.95876">
        <ele>1078</ele>
        <time>2018-05-19T14:17:37Z</time>
      </trkpt>
      <trkpt lat="45.83013" lon="2.95885">
        <ele>1078</ele>
        <time>2018-05-19T14:17:39Z</time>
      </trkpt>
      <trkpt lat="45.83009" lon="2.95896">
        <ele>1076</ele>
        <time>2018-05-19T14:17:41Z</time>
      </trkpt>
      <trkpt lat="45.83005" lon="2.95904">
        <ele>1074</ele>
        <time>2018-05-19T14:17:43Z</time>
      </trkpt>
      <trkpt lat="45.83001" lon="2.95915">
        <ele>1073</ele>
        <time>2018-05-19T14:17:45Z</time>
      </trkpt>
      <trkpt lat="45.82996" lon="2.95924">
        <ele>1070</ele>
        <time>2018-05-19T14:17:47Z</time>
      </trkpt>
      <trkpt lat="45.82993" lon="2.95931">
        <ele>1067</ele>
        <time>2018-05-19T14:17:49Z</time>
      </trkpt>
      <trkpt lat="45.82987" lon="2.95942">
        <ele>1066</ele>
        <time>2018-05-19T14:17:51Z</time>
      </trkpt>
      <trkpt lat="45.82978" lon="2.95949">
        <ele>1067</ele>
        <time>2018-05-19T14:17:53Z</time>
      </trkpt>
      <trkpt lat="45.8297" lon="2.95957">
        <ele>1069</ele>
        <time>2018-05-19T14:17:55Z</time>
      </trkpt>
      <trkpt lat="45.82963" lon="2.95966">
        <ele>1067</ele>
        <time>2018-05-19T14:17:57Z</time>
      </trkpt>
      <trkpt lat="45.82953" lon="2.95978">
        <ele>1066</ele>
        <time>2018-05-19T14:17:59Z</time>
      </trkpt>
      <trkpt lat="45.82944" lon="2.95994">
        <ele>1066</ele>
        <time>2018-05-19T14:18:01Z</time>
      </trkpt>
      <trkpt lat="45.82936" lon="2.96007">
        <ele>1063</ele>
        <time>2018-05-19T14:18:03Z</time>
      </trkpt>
      <trkpt lat="45.82927" lon="2.96021">
        <ele>1061</ele>
        <time>2018-05-19T14:18:05Z</time>
      </trkpt>
      <trkpt lat="45.82916" lon="2.96033">
        <ele>1059</ele>
        <time>2018-05-19T14:18:07Z</time>
      </trkpt>
      <trkpt lat="45.82906" lon="2.96049">
        <ele>1057</ele>
        <time>2018-05-19T14:18:09Z</time>
      </trkpt>
      <trkpt lat="45.829" lon="2.96058">
        <ele>1055</ele>
        <time>2018-05-19T14:18:11Z</time>
      </trkpt>
      <trkpt lat="45.82894" lon="2.96062">
        <ele>1056</ele>
        <time>2018-05-19T14:18:13Z</time>
      </trkpt>
      <trkpt lat="45.8289" lon="2.96065">
        <ele>1056</ele>
        <time>2018-05-19T14:18:15Z</time>
      </trkpt>
      <trkpt lat="45.82882" lon="2.96068">
        <ele>1056</ele>
        <time>2018-05-19T14:18:17Z</time>
      </trkpt>
      <trkpt lat="45.82872" lon="2.96074">
        <ele>1056</ele>
        <time>2018-05-19T14:18:19Z</time>
      </trkpt>
      <trkpt lat="45.82859" lon="2.96084">
        <ele>1056</ele>
        <time>2018-05-19T14:18:21Z</time>
      </trkpt>
      <trkpt lat="45.82846" lon="2.96091">
        <ele>1056</ele>
        <time>2018-05-19T14:18:23Z</time>
      </trkpt>
      <trkpt lat="45.82833" lon="2.96104">
        <ele>1053</ele>
        <time>2018-05-19T14:18:25Z</time>
      </trkpt>
      <trkpt lat="45.82822" lon="2.96116">
        <ele>1054</ele>
        <time>2018-05-19T14:18:27Z</time>
      </trkpt>
      <trkpt lat="45.82805" lon="2.96128">
        <ele>1051</ele>
        <time>2018-05-19T14:18:29Z</time>
      </trkpt>
      <trkpt lat="45.82794" lon="2.96134">
        <ele>1048</ele>
        <time>2018-05-19T14:18:31Z</time>
      </trkpt>
      <trkpt lat="45.82784" lon="2.96139">
        <ele>1047</ele>
        <time>2018-05-19T14:18:33Z</time>
      </trkpt>
      <trkpt lat="45.82776" lon="2.96142">
        <ele>1048</ele>
        <time>2018-05-19T14:18:35Z</time>
      </trkpt>
      <trkpt lat="45.8277" lon="2.96146">
        <ele>1051</ele>
        <time>2018-05-19T14:18:37Z</time>
      </trkpt>
      <trkpt lat="45.82763" lon="2.9615">
        <ele>1052</ele>
        <time>2018-05-19T14:18:39Z</time>
      </trkpt>
      <trkpt lat="45.82756" lon="2.9615">
        <ele>1051</ele>
        <time>2018-05-19T14:18:41Z</time>
      </trkpt>
      <trkpt lat="45.82749" lon="2.96156">
        <ele>1051</ele>
        <time>2018-05-19T14:18:43Z</time>
      </trkpt>
      <trkpt lat="45.82742" lon="2.96159">
        <ele>1048</ele>
        <time>2018-05-19T14:18:45Z</time>
      </trkpt>
      <trkpt lat="45.82735" lon="2.96163">
        <ele>1048</ele>
        <time>2018-05-19T14:18:47Z</time>
      </trkpt>
      <trkpt lat="45.82726" lon="2.96166">
        <ele>1045</ele>
        <time>2018-05-19T14:18:49Z</time>
      </trkpt>
      <trkpt lat="45.82717" lon="2.96171">
        <ele>1045</ele>
        <time>2018-05-19T14:18:51Z</time>
      </trkpt>
      <trkpt lat="45.82708" lon="2.96174">
        <ele>1043</ele>
        <time>2018-05-19T14:18:53Z</time>
      </trkpt>
      <trkpt lat="45.82698" lon="2.96174">
        <ele>1040</ele>
        <time>2018-05-19T14:18:55Z</time>
      </trkpt>
      <trkpt lat="45.82687" lon="2.96176">
        <ele>1040</ele>
        <time>2018-05-19T14:18:57Z</time>
      </trkpt>
      <trkpt lat="45.82676" lon="2.96175">
        <ele>1039</ele>
        <time>2018-05-19T14:18:59Z</time>
      </trkpt>
      <trkpt lat="45.82664" lon="2.96173">
        <ele>1039</ele>
        <time>2018-05-19T14:19:01Z</time>
      </trkpt>
      <trkpt lat="45.82651" lon="2.96172">
        <ele>1037</ele>
        <time>2018-05-19T14:19:03Z</time>
      </trkpt>
      <trkpt lat="45.82637" lon="2.96173">
        <ele>1036</ele>
        <time>2018-05-19T14:19:05Z</time>
      </trkpt>
      <trkpt lat="45.82622" lon="2.96177">
        <ele>1035</ele>
        <time>2018-05-19T14:19:07Z</time>
      </trkpt>
      <trkpt lat="45.82607" lon="2.96184">
        <ele>1034</ele>
        <time>2018-05-19T14:19:09Z</time>
      </trkpt>
      <trkpt lat="45.8259" lon="2.96195">
        <ele>1032</ele>
        <time>2018-05-19T14:19:11Z</time>
      </trkpt>
      <trkpt lat="45.82574" lon="2.96207">
        <ele>1031</ele>
        <time>2018-05-19T14:19:13Z</time>
      </trkpt>
      <trkpt lat="45.82558" lon="2.9622">
        <ele>1032</ele>
        <time>2018-05-19T14:19:15Z</time>
      </trkpt>
      <trkpt lat="45.82542" lon="2.96233">
        <ele>1031</ele>
        <time>2018-05-19T14:19:17Z</time>
      </trkpt>
      <trkpt lat="45.82525" lon="2.96246">
        <ele>1030</ele>
        <time>2018-05-19T14:19:19Z</time>
      </trkpt>
      <trkpt lat="45.82511" lon="2.96259">
        <ele>1031</ele>
        <time>2018-05-19T14:19:21Z</time>
      </trkpt>
      <trkpt lat="45.82498" lon="2.9627">
        <ele>1029</ele>
        <time>2018-05-19T14:19:23Z</time>
      </trkpt>
      <trkpt lat="45.82485" lon="2.96283">
        <ele>1029</ele>
        <time>2018-05-19T14:19:25Z</time>
      </trkpt>
      <trkpt lat="45.82473" lon="2.96295">
        <ele>1028</ele>
        <time>2018-05-19T14:19:27Z</time>
      </trkpt>
      <trkpt lat="45.82464" lon="2.96303">
        <ele>1025</ele>
        <time>2018-05-19T14:19:29Z</time>
      </trkpt>
      <trkpt lat="45.82455" lon="2.96311">
        <ele>1026</ele>
        <time>2018-05-19T14:19:31Z</time>
      </trkpt>
      <trkpt lat="45.82447" lon="2.96316">
        <ele>1025</ele>
        <time>2018-05-19T14:19:33Z</time>
      </trkpt>
      <trkpt lat="45.82438" lon="2.96321">
        <ele>1025</ele>
        <time>2018-05-19T14:19:35Z</time>
      </trkpt>
      <trkpt lat="45.82431" lon="2.96321">
        <ele>1025</ele>
        <time>2018-05-19T14:19:37Z</time>
      </trkpt>
      <trkpt lat="45.82423" lon="2.96321">
        <ele>1026</ele>
        <time>2018-05-19T14:19:39Z</time>
      </trkpt>
      <trkpt lat="45.82415" lon="2.9632">
        <ele>1028</ele>
        <time>2018-05-19T14:19:41Z</time>
      </trkpt>
      <trkpt lat="45.82407" lon="2.96318">
        <ele>1027</ele>
        <time>2018-05-19T14:19:43Z</time>
      </trkpt>
      <trkpt lat="45.82398" lon="2.96316">
        <ele>1028</ele>
        <time>2018-05-19T14:19:45Z</time>
      </trkpt>
      <trkpt lat="45.82388" lon="2.96315">
        <ele>1028</ele>
        <time>2018-05-19T14:19:47Z</time>
      </trkpt>
      <trkpt lat="45.82378" lon="2.96314">
        <ele>1029</ele>
        <time>2018-05-19T14:19:49Z</time>
      </trkpt>
      <trkpt lat="45.82367" lon="2.96316">
        <ele>1030</ele>
        <time>2018-05-19T14:19:51Z</time>
      </trkpt>
      <trkpt lat="45.82354" lon="2.96315">
        <ele>1029</ele>
        <time>2018-05-19T14:19:53Z</time>
      </trkpt>
      <trkpt lat="45.82343" lon="2.96317">
        <ele>1029</ele>
        <time>2018-05-19T14:19:55Z</time>
      </trkpt>
      <trkpt lat="45.82332" lon="2.96319">
        <ele>1030</ele>
        <time>2018-05-19T14:19:57Z</time>
      </trkpt>
      <trkpt lat="45.82322" lon="2.9632">
        <ele>1030</ele>
        <time>2018-05-19T14:19:59Z</time>
      </trkpt>
      <trkpt lat="45.82313" lon="2.96321">
        <ele>1030</ele>
        <time>2018-05-19T14:20:01Z</time>
      </trkpt>
      <trkpt lat="45.82308" lon="2.96324">
        <ele>1030</ele>
        <time>2018-05-19T14:20:03Z</time>
      </trkpt>
      <trkpt lat="45.82303" lon="2.9632">
        <ele>1031</ele>
        <time>2018-05-19T14:34:51Z</time>
      </trkpt>
      <trkpt lat="45.82297" lon="2.9632">
        <ele>1031</ele>
        <time>2018-05-19T14:35:11Z</time>
      </trkpt>
      <trkpt lat="45.8229" lon="2.96316">
        <ele>1029</ele>
        <time>2018-05-19T14:35:21Z</time>
      </trkpt>
      <trkpt lat="45.82286" lon="2.96314">
        <ele>1026</ele>
        <time>2018-05-19T14:35:23Z</time>
      </trkpt>
      <trkpt lat="45.82277" lon="2.9631">
        <ele>1022</ele>
        <time>2018-05-19T14:35:27Z</time>
      </trkpt>
      <trkpt lat="45.82271" lon="2.96307">
        <ele>1021</ele>
        <time>2018-05-19T14:35:29Z</time>
      </trkpt>
      <trkpt lat="45.82264" lon="2.96304">
        <ele>1020</ele>
        <time>2018-05-19T14:35:31Z</time>
      </trkpt>
      <trkpt lat="45.82255" lon="2.96301">
        <ele>1020</ele>
        <time>2018-05-19T14:35:33Z</time>
      </trkpt>
      <trkpt lat="45.82248" lon="2.96297">
        <ele>1019</ele>
        <time>2018-05-19T14:35:35Z</time>
      </trkpt>
      <trkpt lat="45.82239" lon="2.96295">
        <ele>1018</ele>
        <time>2018-05-19T14:35:37Z</time>
      </trkpt>
      <trkpt lat="45.8223" lon="2.96292">
        <ele>1019</ele>
        <time>2018-05-19T14:35:39Z</time>
      </trkpt>
      <trkpt lat="45.82224" lon="2.96292">
        <ele>1021</ele>
        <time>2018-05-19T14:35:41Z</time>
      </trkpt>
      <trkpt lat="45.82218" lon="2.96293">
        <ele>1022</ele>
        <time>2018-05-19T14:35:43Z</time>
      </trkpt>
      <trkpt lat="45.82212" lon="2.96293">
        <ele>1022</ele>
        <time>2018-05-19T14:35:45Z</time>
      </trkpt>
      <trkpt lat="45.82206" lon="2.96291">
        <ele>1021</ele>
        <time>2018-05-19T14:35:47Z</time>
      </trkpt>
      <trkpt lat="45.82198" lon="2.96288">
        <ele>1020</ele>
        <time>2018-05-19T14:35:49Z</time>
      </trkpt>
      <trkpt lat="45.8219" lon="2.96287">
        <ele>1017</ele>
        <time>2018-05-19T14:35:51Z</time>
      </trkpt>
      <trkpt lat="45.82182" lon="2.96285">
        <ele>1016</ele>
        <time>2018-05-19T14:35:53Z</time>
      </trkpt>
      <trkpt lat="45.82174" lon="2.96281">
        <ele>1017</ele>
        <time>2018-05-19T14:35:55Z</time>
      </trkpt>
      <trkpt lat="45.82165" lon="2.96282">
        <ele>1017</ele>
        <time>2018-05-19T14:35:57Z</time>
      </trkpt>
      <trkpt lat="45.82155" lon="2.96282">
        <ele>1017</ele>
        <time>2018-05-19T14:35:59Z</time>
      </trkpt>
      <trkpt lat="45.82144" lon="2.9628">
        <ele>1015</ele>
        <time>2018-05-19T14:36:01Z</time>
      </trkpt>
      <trkpt lat="45.82135" lon="2.96279">
        <ele>1017</ele>
        <time>2018-05-19T14:36:03Z</time>
      </trkpt>
      <trkpt lat="45.82126" lon="2.96276">
        <ele>1018</ele>
        <time>2018-05-19T14:36:05Z</time>
      </trkpt>
      <trkpt lat="45.82116" lon="2.96274">
        <ele>1018</ele>
        <time>2018-05-19T14:36:07Z</time>
      </trkpt>
      <trkpt lat="45.82107" lon="2.96269">
        <ele>1016</ele>
        <time>2018-05-19T14:36:09Z</time>
      </trkpt>
      <trkpt lat="45.82097" lon="2.96265">
        <ele>1015</ele>
        <time>2018-05-19T14:36:11Z</time>
      </trkpt>
      <trkpt lat="45.82088" lon="2.96261">
        <ele>1014</ele>
        <time>2018-05-19T14:36:13Z</time>
      </trkpt>
      <trkpt lat="45.82079" lon="2.96258">
        <ele>1013</ele>
        <time>2018-05-19T14:36:15Z</time>
      </trkpt>
      <trkpt lat="45.82069" lon="2.96256">
        <ele>1013</ele>
        <time>2018-05-19T14:36:17Z</time>
      </trkpt>
      <trkpt lat="45.82059" lon="2.96255">
        <ele>1012</ele>
        <time>2018-05-19T14:36:19Z</time>
      </trkpt>
      <trkpt lat="45.82051" lon="2.96253">
        <ele>1012</ele>
        <time>2018-05-19T14:36:21Z</time>
      </trkpt>
      <trkpt lat="45.82041" lon="2.96248">
        <ele>1011</ele>
        <time>2018-05-19T14:36:23Z</time>
      </trkpt>
      <trkpt lat="45.82031" lon="2.96243">
        <ele>1008</ele>
        <time>2018-05-19T14:36:25Z</time>
      </trkpt>
      <trkpt lat="45.82021" lon="2.96237">
        <ele>1008</ele>
        <time>2018-05-19T14:36:27Z</time>
      </trkpt>
      <trkpt lat="45.82011" lon="2.96231">
        <ele>1008</ele>
        <time>2018-05-19T14:36:29Z</time>
      </trkpt>
      <trkpt lat="45.82002" lon="2.96226">
        <ele>1008</ele>
        <time>2018-05-19T14:36:31Z</time>
      </trkpt>
      <trkpt lat="45.81992" lon="2.9622">
        <ele>1008</ele>
        <time>2018-05-19T14:36:33Z</time>
      </trkpt>
      <trkpt lat="45.81983" lon="2.96212">
        <ele>1007</ele>
        <time>2018-05-19T14:36:35Z</time>
      </trkpt>
      <trkpt lat="45.81974" lon="2.96205">
        <ele>1005</ele>
        <time>2018-05-19T14:36:37Z</time>
      </trkpt>
      <trkpt lat="45.81965" lon="2.96197">
        <ele>1005</ele>
        <time>2018-05-19T14:36:39Z</time>
      </trkpt>
      <trkpt lat="45.81955" lon="2.9619">
        <ele>1004</ele>
        <time>2018-05-19T14:36:41Z</time>
      </trkpt>
      <trkpt lat="45.81944" lon="2.96185">
        <ele>1004</ele>
        <time>2018-05-19T14:36:43Z</time>
      </trkpt>
      <trkpt lat="45.81934" lon="2.96179">
        <ele>1004</ele>
        <time>2018-05-19T14:36:45Z</time>
      </trkpt>
      <trkpt lat="45.81924" lon="2.96173">
        <ele>1003</ele>
        <time>2018-05-19T14:36:47Z</time>
      </trkpt>
      <trkpt lat="45.81915" lon="2.96166">
        <ele>1002</ele>
        <time>2018-05-19T14:36:49Z</time>
      </trkpt>
      <trkpt lat="45.81906" lon="2.96158">
        <ele>1001</ele>
        <time>2018-05-19T14:36:51Z</time>
      </trkpt>
      <trkpt lat="45.81896" lon="2.96152">
        <ele>1000</ele>
        <time>2018-05-19T14:36:53Z</time>
      </trkpt>
      <trkpt lat="45.81886" lon="2.96145">
        <ele>1001</ele>
        <time>2018-05-19T14:36:55Z</time>
      </trkpt>
      <trkpt lat="45.81878" lon="2.96135">
        <ele>1001</ele>
        <time>2018-05-19T14:36:57Z</time>
      </trkpt>
      <trkpt lat="45.81867" lon="2.96127">
        <ele>1002</ele>
        <time>2018-05-19T14:36:59Z</time>
      </trkpt>
      <trkpt lat="45.81859" lon="2.96121">
        <ele>1000</ele>
        <time>2018-05-19T14:37:01Z</time>
      </trkpt>
      <trkpt lat="45.81849" lon="2.96114">
        <ele>1001</ele>
        <time>2018-05-19T14:37:03Z</time>
      </trkpt>
      <trkpt lat="45.81841" lon="2.96108">
        <ele>1001</ele>
        <time>2018-05-19T14:37:05Z</time>
      </trkpt>
      <trkpt lat="45.81832" lon="2.96101">
        <ele>1000</ele>
        <time>2018-05-19T14:37:07Z</time>
      </trkpt>
      <trkpt lat="45.81826" lon="2.96095">
        <ele>998</ele>
        <time>2018-05-19T14:37:09Z</time>
      </trkpt>
      <trkpt lat="45.81818" lon="2.96088">
        <ele>998</ele>
        <time>2018-05-19T14:37:11Z</time>
      </trkpt>
      <trkpt lat="45.8181" lon="2.9608">
        <ele>998</ele>
        <time>2018-05-19T14:37:13Z</time>
      </trkpt>
      <trkpt lat="45.81803" lon="2.96069">
        <ele>1000</ele>
        <time>2018-05-19T14:37:15Z</time>
      </trkpt>
      <trkpt lat="45.81793" lon="2.96061">
        <ele>1000</ele>
        <time>2018-05-19T14:37:17Z</time>
      </trkpt>
      <trkpt lat="45.81786" lon="2.96052">
        <ele>1000</ele>
        <time>2018-05-19T14:37:19Z</time>
      </trkpt>
      <trkpt lat="45.81777" lon="2.96043">
        <ele>1001</ele>
        <time>2018-05-19T14:37:21Z</time>
      </trkpt>
      <trkpt lat="45.81769" lon="2.96035">
        <ele>1002</ele>
        <time>2018-05-19T14:37:23Z</time>
      </trkpt>
      <trkpt lat="45.81761" lon="2.9603">
        <ele>1002</ele>
        <time>2018-05-19T14:37:25Z</time>
      </trkpt>
      <trkpt lat="45.81755" lon="2.96024">
        <ele>1001</ele>
        <time>2018-05-19T14:37:27Z</time>
      </trkpt>
      <trkpt lat="45.81747" lon="2.96018">
        <ele>1001</ele>
        <time>2018-05-19T14:37:29Z</time>
      </trkpt>
      <trkpt lat="45.81741" lon="2.96011">
        <ele>1002</ele>
        <time>2018-05-19T14:37:31Z</time>
      </trkpt>
      <trkpt lat="45.81732" lon="2.9601">
        <ele>1001</ele>
        <time>2018-05-19T14:37:33Z</time>
      </trkpt>
      <trkpt lat="45.81724" lon="2.96003">
        <ele>1001</ele>
        <time>2018-05-19T14:37:35Z</time>
      </trkpt>
      <trkpt lat="45.81716" lon="2.95997">
        <ele>1000</ele>
        <time>2018-05-19T14:37:37Z</time>
      </trkpt>
      <trkpt lat="45.81708" lon="2.95991">
        <ele>1000</ele>
        <time>2018-05-19T14:37:39Z</time>
      </trkpt>
      <trkpt lat="45.81699" lon="2.95988">
        <ele>999</ele>
        <time>2018-05-19T14:37:41Z</time>
      </trkpt>
      <trkpt lat="45.81692" lon="2.95982">
        <ele>1000</ele>
        <time>2018-05-19T14:37:43Z</time>
      </trkpt>
      <trkpt lat="45.81684" lon="2.95977">
        <ele>1001</ele>
        <time>2018-05-19T14:37:45Z</time>
      </trkpt>
      <trkpt lat="45.81677" lon="2.95972">
        <ele>1002</ele>
        <time>2018-05-19T14:37:47Z</time>
      </trkpt>
      <trkpt lat="45.81669" lon="2.95967">
        <ele>1002</ele>
        <time>2018-05-19T14:37:49Z</time>
      </trkpt>
      <trkpt lat="45.81661" lon="2.95963">
        <ele>1000</ele>
        <time>2018-05-19T14:37:51Z</time>
      </trkpt>
      <trkpt lat="45.81655" lon="2.95959">
        <ele>1001</ele>
        <time>2018-05-19T14:37:53Z</time>
      </trkpt>
      <trkpt lat="45.81647" lon="2.95954">
        <ele>1000</ele>
        <time>2018-05-19T14:37:55Z</time>
      </trkpt>
      <trkpt lat="45.81639" lon="2.95948">
        <ele>1000</ele>
        <time>2018-05-19T14:37:57Z</time>
      </trkpt>
      <trkpt lat="45.8163" lon="2.95944">
        <ele>999</ele>
        <time>2018-05-19T14:37:59Z</time>
      </trkpt>
      <trkpt lat="45.81622" lon="2.95939">
        <ele>999</ele>
        <time>2018-05-19T14:38:01Z</time>
      </trkpt>
      <trkpt lat="45.81612" lon="2.95936">
        <ele>999</ele>
        <time>2018-05-19T14:38:03Z</time>
      </trkpt>
      <trkpt lat="45.81604" lon="2.95933">
        <ele>998</ele>
        <time>2018-05-19T14:38:05Z</time>
      </trkpt>
      <trkpt lat="45.81596" lon="2.95927">
        <ele>998</ele>
        <time>2018-05-19T14:38:07Z</time>
      </trkpt>
      <trkpt lat="45.81588" lon="2.95921">
        <ele>997</ele>
        <time>2018-05-19T14:38:09Z</time>
      </trkpt>
      <trkpt lat="45.8158" lon="2.95916">
        <ele>997</ele>
        <time>2018-05-19T14:38:11Z</time>
      </trkpt>
      <trkpt lat="45.81573" lon="2.95909">
        <ele>996</ele>
        <time>2018-05-19T14:38:13Z</time>
      </trkpt>
      <trkpt lat="45.81564" lon="2.95907">
        <ele>997</ele>
        <time>2018-05-19T14:38:15Z</time>
      </trkpt>
      <trkpt lat="45.81557" lon="2.95902">
        <ele>996</ele>
        <time>2018-05-19T14:38:17Z</time>
      </trkpt>
      <trkpt lat="45.81548" lon="2.95899">
        <ele>996</ele>
        <time>2018-05-19T14:38:19Z</time>
      </trkpt>
      <trkpt lat="45.81539" lon="2.95896">
        <ele>997</ele>
        <time>2018-05-19T14:38:21Z</time>
      </trkpt>
      <trkpt lat="45.8153" lon="2.95891">
        <ele>996</ele>
        <time>2018-05-19T14:38:23Z</time>
      </trkpt>
      <trkpt lat="45.81521" lon="2.95885">
        <ele>995</ele>
        <time>2018-05-19T14:38:25Z</time>
      </trkpt>
      <trkpt lat="45.81512" lon="2.95878">
        <ele>995</ele>
        <time>2018-05-19T14:38:27Z</time>
      </trkpt>
      <trkpt lat="45.81502" lon="2.95872">
        <ele>996</ele>
        <time>2018-05-19T14:38:29Z</time>
      </trkpt>
      <trkpt lat="45.81493" lon="2.95867">
        <ele>997</ele>
        <time>2018-05-19T14:38:31Z</time>
      </trkpt>
      <trkpt lat="45.81482" lon="2.95862">
        <ele>998</ele>
        <time>2018-05-19T14:38:33Z</time>
      </trkpt>
      <trkpt lat="45.81473" lon="2.9586">
        <ele>997</ele>
        <time>2018-05-19T14:38:35Z</time>
      </trkpt>
      <trkpt lat="45.81464" lon="2.95854">
        <ele>996</ele>
        <time>2018-05-19T14:38:37Z</time>
      </trkpt>
      <trkpt lat="45.81455" lon="2.95849">
        <ele>996</ele>
        <time>2018-05-19T14:38:39Z</time>
      </trkpt>
      <trkpt lat="45.81447" lon="2.95841">
        <ele>996</ele>
        <time>2018-05-19T14:38:41Z</time>
      </trkpt>
      <trkpt lat="45.81439" lon="2.95833">
        <ele>996</ele>
        <time>2018-05-19T14:38:43Z</time>
      </trkpt>
      <trkpt lat="45.8143" lon="2.95828">
        <ele>996</ele>
        <time>2018-05-19T14:38:45Z</time>
      </trkpt>
      <trkpt lat="45.81424" lon="2.9582">
        <ele>996</ele>
        <time>2018-05-19T14:38:47Z</time>
      </trkpt>
      <trkpt lat="45.81418" lon="2.95815">
        <ele>997</ele>
        <time>2018-05-19T14:38:49Z</time>
      </trkpt>
      <trkpt lat="45.81413" lon="2.95811">
        <ele>997</ele>
        <time>2018-05-19T14:38:51Z</time>
      </trkpt>
      <trkpt lat="45.81408" lon="2.95807">
        <ele>997</ele>
        <time>2018-05-19T14:38:53Z</time>
      </trkpt>
      <trkpt lat="45.81402" lon="2.95802">
        <ele>999</ele>
        <time>2018-05-19T14:38:55Z</time>
      </trkpt>
      <trkpt lat="45.81398" lon="2.95794">
        <ele>1000</ele>
        <time>2018-05-19T14:38:57Z</time>
      </trkpt>
      <trkpt lat="45.81396" lon="2.95783">
        <ele>1000</ele>
        <time>2018-05-19T14:38:59Z</time>
      </trkpt>
      <trkpt lat="45.81395" lon="2.9577">
        <ele>1000</ele>
        <time>2018-05-19T14:39:01Z</time>
      </trkpt>
      <trkpt lat="45.81394" lon="2.95758">
        <ele>999</ele>
        <time>2018-05-19T14:39:03Z</time>
      </trkpt>
      <trkpt lat="45.81393" lon="2.95745">
        <ele>998</ele>
        <time>2018-05-19T14:39:05Z</time>
      </trkpt>
      <trkpt lat="45.81391" lon="2.95731">
        <ele>999</ele>
        <time>2018-05-19T14:39:07Z</time>
      </trkpt>
      <trkpt lat="45.8139" lon="2.95717">
        <ele>999</ele>
        <time>2018-05-19T14:39:09Z</time>
      </trkpt>
      <trkpt lat="45.81388" lon="2.95704">
        <ele>999</ele>
        <time>2018-05-19T14:39:11Z</time>
      </trkpt>
      <trkpt lat="45.81386" lon="2.95693">
        <ele>998</ele>
        <time>2018-05-19T14:39:13Z</time>
      </trkpt>
      <trkpt lat="45.81385" lon="2.95681">
        <ele>998</ele>
        <time>2018-05-19T14:39:15Z</time>
      </trkpt>
      <trkpt lat="45.81383" lon="2.95672">
        <ele>997</ele>
        <time>2018-05-19T14:39:17Z</time>
      </trkpt>
      <trkpt lat="45.81382" lon="2.95661">
        <ele>997</ele>
        <time>2018-05-19T14:39:19Z</time>
      </trkpt>
      <trkpt lat="45.81381" lon="2.95649">
        <ele>997</ele>
        <time>2018-05-19T14:39:21Z</time>
      </trkpt>
      <trkpt lat="45.8138" lon="2.95638">
        <ele>996</ele>
        <time>2018-05-19T14:39:23Z</time>
      </trkpt>
      <trkpt lat="45.81378" lon="2.95626">
        <ele>996</ele>
        <time>2018-05-19T14:39:25Z</time>
      </trkpt>
      <trkpt lat="45.81377" lon="2.95614">
        <ele>996</ele>
        <time>2018-05-19T14:39:27Z</time>
      </trkpt>
      <trkpt lat="45.81376" lon="2.95603">
        <ele>996</ele>
        <time>2018-05-19T14:39:29Z</time>
      </trkpt>
      <trkpt lat="45.81375" lon="2.95592">
        <ele>996</ele>
        <time>2018-05-19T14:39:31Z</time>
      </trkpt>
      <trkpt lat="45.81373" lon="2.9558">
        <ele>998</ele>
        <time>2018-05-19T14:39:33Z</time>
      </trkpt>
      <trkpt lat="45.81372" lon="2.95568">
        <ele>998</ele>
        <time>2018-05-19T14:39:35Z</time>
      </trkpt>
      <trkpt lat="45.8137" lon="2.95557">
        <ele>998</ele>
        <time>2018-05-19T14:39:37Z</time>
      </trkpt>
      <trkpt lat="45.8137" lon="2.95546">
        <ele>997</ele>
        <time>2018-05-19T14:39:39Z</time>
      </trkpt>
      <trkpt lat="45.81369" lon="2.95534">
        <ele>998</ele>
        <time>2018-05-19T14:39:41Z</time>
      </trkpt>
      <trkpt lat="45.81367" lon="2.95522">
        <ele>998</ele>
        <time>2018-05-19T14:39:43Z</time>
      </trkpt>
      <trkpt lat="45.81365" lon="2.95511">
        <ele>999</ele>
        <time>2018-05-19T14:39:45Z</time>
      </trkpt>
      <trkpt lat="45.81363" lon="2.95499">
        <ele>999</ele>
        <time>2018-05-19T14:39:47Z</time>
      </trkpt>
      <trkpt lat="45.81362" lon="2.95487">
        <ele>1000</ele>
        <time>2018-05-19T14:39:49Z</time>
      </trkpt>
      <trkpt lat="45.81361" lon="2.95475">
        <ele>1002</ele>
        <time>2018-05-19T14:39:51Z</time>
      </trkpt>
      <trkpt lat="45.81361" lon="2.95465">
        <ele>1001</ele>
        <time>2018-05-19T14:39:53Z</time>
      </trkpt>
      <trkpt lat="45.81361" lon="2.95455">
        <ele>1001</ele>
        <time>2018-05-19T14:39:55Z</time>
      </trkpt>
      <trkpt lat="45.81362" lon="2.95444">
        <ele>1002</ele>
        <time>2018-05-19T14:39:57Z</time>
      </trkpt>
      <trkpt lat="45.81365" lon="2.95434">
        <ele>1002</ele>
        <time>2018-05-19T14:39:59Z</time>
      </trkpt>
      <trkpt lat="45.8137" lon="2.95425">
        <ele>1002</ele>
        <time>2018-05-19T14:40:01Z</time>
      </trkpt>
      <trkpt lat="45.81376" lon="2.95418">
        <ele>1003</ele>
        <time>2018-05-19T14:40:03Z</time>
      </trkpt>
      <trkpt lat="45.81382" lon="2.95414">
        <ele>1002</ele>
        <time>2018-05-19T14:40:05Z</time>
      </trkpt>
      <trkpt lat="45.81388" lon="2.9541">
        <ele>1003</ele>
        <time>2018-05-19T14:40:07Z</time>
      </trkpt>
      <trkpt lat="45.81394" lon="2.95406">
        <ele>1004</ele>
        <time>2018-05-19T14:40:09Z</time>
      </trkpt>
      <trkpt lat="45.814" lon="2.954">
        <ele>1004</ele>
        <time>2018-05-19T14:40:11Z</time>
      </trkpt>
      <trkpt lat="45.81404" lon="2.95393">
        <ele>1004</ele>
        <time>2018-05-19T14:40:13Z</time>
      </trkpt>
      <trkpt lat="45.81407" lon="2.95383">
        <ele>1004</ele>
        <time>2018-05-19T14:40:15Z</time>
      </trkpt>
      <trkpt lat="45.81408" lon="2.95373">
        <ele>1004</ele>
        <time>2018-05-19T14:40:17Z</time>
      </trkpt>
      <trkpt lat="45.81406" lon="2.95365">
        <ele>1004</ele>
        <time>2018-05-19T14:40:19Z</time>
      </trkpt>
      <trkpt lat="45.81404" lon="2.95357">
        <ele>1003</ele>
        <time>2018-05-19T14:40:21Z</time>
      </trkpt>
      <trkpt lat="45.814" lon="2.95351">
        <ele>1003</ele>
        <time>2018-05-19T14:40:23Z</time>
      </trkpt>
      <trkpt lat="45.81398" lon="2.95343">
        <ele>1003</ele>
        <time>2018-05-19T14:40:25Z</time>
      </trkpt>
      <trkpt lat="45.81397" lon="2.95333">
        <ele>1003</ele>
        <time>2018-05-19T14:40:27Z</time>
      </trkpt>
      <trkpt lat="45.814" lon="2.95324">
        <ele>1003</ele>
        <time>2018-05-19T14:40:29Z</time>
      </trkpt>
      <trkpt lat="45.81403" lon="2.95314">
        <ele>1003</ele>
        <time>2018-05-19T14:40:31Z</time>
      </trkpt>
      <trkpt lat="45.81404" lon="2.95303">
        <ele>1003</ele>
        <time>2018-05-19T14:40:33Z</time>
      </trkpt>
      <trkpt lat="45.81403" lon="2.95292">
        <ele>1003</ele>
        <time>2018-05-19T14:40:35Z</time>
      </trkpt>
      <trkpt lat="45.81402" lon="2.95282">
        <ele>1004</ele>
        <time>2018-05-19T14:40:37Z</time>
      </trkpt>
      <trkpt lat="45.81399" lon="2.95272">
        <ele>1004</ele>
        <time>2018-05-19T14:40:39Z</time>
      </trkpt>
      <trkpt lat="45.81395" lon="2.95264">
        <ele>1004</ele>
        <time>2018-05-19T14:40:41Z</time>
      </trkpt>
      <trkpt lat="45.81391" lon="2.95256">
        <ele>1004</ele>
        <time>2018-05-19T14:40:43Z</time>
      </trkpt>
      <trkpt lat="45.81385" lon="2.9525">
        <ele>1005</ele>
        <time>2018-05-19T14:40:45Z</time>
      </trkpt>
      <trkpt lat="45.81378" lon="2.95246">
        <ele>1005</ele>
        <time>2018-05-19T14:40:47Z</time>
      </trkpt>
      <trkpt lat="45.81371" lon="2.95244">
        <ele>1005</ele>
        <time>2018-05-19T14:40:49Z</time>
      </trkpt>
      <trkpt lat="45.81363" lon="2.95242">
        <ele>1005</ele>
        <time>2018-05-19T14:40:51Z</time>
      </trkpt>
      <trkpt lat="45.81354" lon="2.95243">
        <ele>1005</ele>
        <time>2018-05-19T14:40:53Z</time>
      </trkpt>
      <trkpt lat="45.81346" lon="2.95245">
        <ele>1004</ele>
        <time>2018-05-19T14:40:55Z</time>
      </trkpt>
      <trkpt lat="45.81338" lon="2.95244">
        <ele>1004</ele>
        <time>2018-05-19T14:40:57Z</time>
      </trkpt>
      <trkpt lat="45.8133" lon="2.95238">
        <ele>1004</ele>
        <time>2018-05-19T14:40:59Z</time>
      </trkpt>
      <trkpt lat="45.81324" lon="2.95229">
        <ele>1004</ele>
        <time>2018-05-19T14:41:01Z</time>
      </trkpt>
      <trkpt lat="45.81319" lon="2.95218">
        <ele>1004</ele>
        <time>2018-05-19T14:41:03Z</time>
      </trkpt>
      <trkpt lat="45.81316" lon="2.95205">
        <ele>1004</ele>
        <time>2018-05-19T14:41:05Z</time>
      </trkpt>
      <trkpt lat="45.81313" lon="2.95192">
        <ele>1003</ele>
        <time>2018-05-19T14:41:07Z</time>
      </trkpt>
      <trkpt lat="45.81309" lon="2.95179">
        <ele>1003</ele>
        <time>2018-05-19T14:41:09Z</time>
      </trkpt>
      <trkpt lat="45.81306" lon="2.95165">
        <ele>1003</ele>
        <time>2018-05-19T14:41:11Z</time>
      </trkpt>
      <trkpt lat="45.81302" lon="2.95154">
        <ele>1003</ele>
        <time>2018-05-19T14:41:13Z</time>
      </trkpt>
      <trkpt lat="45.81299" lon="2.95142">
        <ele>1003</ele>
        <time>2018-05-19T14:41:15Z</time>
      </trkpt>
      <trkpt lat="45.81296" lon="2.9513">
        <ele>1003</ele>
        <time>2018-05-19T14:41:17Z</time>
      </trkpt>
      <trkpt lat="45.81294" lon="2.95119">
        <ele>1003</ele>
        <time>2018-05-19T14:41:19Z</time>
      </trkpt>
      <trkpt lat="45.81291" lon="2.95107">
        <ele>1003</ele>
        <time>2018-05-19T14:41:21Z</time>
      </trkpt>
      <trkpt lat="45.81288" lon="2.95095">
        <ele>1002</ele>
        <time>2018-05-19T14:41:23Z</time>
      </trkpt>
      <trkpt lat="45.81285" lon="2.95084">
        <ele>1002</ele>
        <time>2018-05-19T14:41:25Z</time>
      </trkpt>
      <trkpt lat="45.81282" lon="2.95072">
        <ele>1002</ele>
        <time>2018-05-19T14:41:27Z</time>
      </trkpt>
      <trkpt lat="45.8128" lon="2.9506">
        <ele>1002</ele>
        <time>2018-05-19T14:41:29Z</time>
      </trkpt>
      <trkpt lat="45.81277" lon="2.95048">
        <ele>1002</ele>
        <time>2018-05-19T14:41:31Z</time>
      </trkpt>
      <trkpt lat="45.81276" lon="2.95035">
        <ele>1002</ele>
        <time>2018-05-19T14:41:33Z</time>
      </trkpt>
      <trkpt lat="45.81276" lon="2.95028">
        <ele>1002</ele>
        <time>2018-05-19T14:41:35Z</time>
      </trkpt>
      <trkpt lat="45.81276" lon="2.95015">
        <ele>1002</ele>
        <time>2018-05-19T14:41:39Z</time>
      </trkpt>
      <trkpt lat="45.81276" lon="2.95005">
        <ele>1002</ele>
        <time>2018-05-19T14:41:43Z</time>
      </trkpt>
      <trkpt lat="45.81269" lon="2.94995">
        <ele>1001</ele>
        <time>2018-05-19T14:41:47Z</time>
      </trkpt>
      <trkpt lat="45.81264" lon="2.94991">
        <ele>1002</ele>
        <time>2018-05-19T14:41:49Z</time>
      </trkpt>
      <trkpt lat="45.81259" lon="2.9499">
        <ele>1002</ele>
        <time>2018-05-19T14:41:53Z</time>
      </trkpt>
      <trkpt lat="45.81252" lon="2.94997">
        <ele>1001</ele>
        <time>2018-05-19T14:41:57Z</time>
      </trkpt>
      <trkpt lat="45.8125" lon="2.95003">
        <ele>1002</ele>
        <time>2018-05-19T14:41:59Z</time>
      </trkpt>
      <trkpt lat="45.81249" lon="2.95012">
        <ele>1002</ele>
        <time>2018-05-19T14:42:01Z</time>
      </trkpt>
      <trkpt lat="45.81249" lon="2.9502">
        <ele>1003</ele>
        <time>2018-05-19T14:42:03Z</time>
      </trkpt>
      <trkpt lat="45.8125" lon="2.95029">
        <ele>1003</ele>
        <time>2018-05-19T14:42:05Z</time>
      </trkpt>
      <trkpt lat="45.81253" lon="2.95038">
        <ele>1003</ele>
        <time>2018-05-19T14:42:07Z</time>
      </trkpt>
      <trkpt lat="45.81256" lon="2.95048">
        <ele>1003</ele>
        <time>2018-05-19T14:42:09Z</time>
      </trkpt>
      <trkpt lat="45.81258" lon="2.95057">
        <ele>1003</ele>
        <time>2018-05-19T14:42:11Z</time>
      </trkpt>
      <trkpt lat="45.81261" lon="2.95067">
        <ele>1002</ele>
        <time>2018-05-19T14:42:13Z</time>
      </trkpt>
      <trkpt lat="45.81264" lon="2.95076">
        <ele>1002</ele>
        <time>2018-05-19T14:42:15Z</time>
      </trkpt>
      <trkpt lat="45.81266" lon="2.95085">
        <ele>1002</ele>
        <time>2018-05-19T14:42:17Z</time>
      </trkpt>
      <trkpt lat="45.81268" lon="2.95093">
        <ele>1003</ele>
        <time>2018-05-19T14:42:19Z</time>
      </trkpt>
      <trkpt lat="45.81271" lon="2.95103">
        <ele>1004</ele>
        <time>2018-05-19T14:42:21Z</time>
      </trkpt>
      <trkpt lat="45.81274" lon="2.95113">
        <ele>1004</ele>
        <time>2018-05-19T14:42:23Z</time>
      </trkpt>
      <trkpt lat="45.81276" lon="2.95123">
        <ele>1005</ele>
        <time>2018-05-19T14:42:25Z</time>
      </trkpt>
      <trkpt lat="45.81278" lon="2.95132">
        <ele>1006</ele>
        <time>2018-05-19T14:42:27Z</time>
      </trkpt>
      <trkpt lat="45.81282" lon="2.95141">
        <ele>1007</ele>
        <time>2018-05-19T14:42:29Z</time>
      </trkpt>
      <trkpt lat="45.81284" lon="2.95148">
        <ele>1006</ele>
        <time>2018-05-19T14:42:31Z</time>
      </trkpt>
      <trkpt lat="45.81278" lon="2.95157">
        <ele>1007</ele>
        <time>2018-05-19T14:42:35Z</time>
      </trkpt>
      <trkpt lat="45.81273" lon="2.95157">
        <ele>1007</ele>
        <time>2018-05-19T14:42:37Z</time>
      </trkpt>
      <trkpt lat="45.81269" lon="2.95153">
        <ele>1007</ele>
        <time>2018-05-19T14:42:39Z</time>
      </trkpt>
      <trkpt lat="45.81263" lon="2.95148">
        <ele>1006</ele>
        <time>2018-05-19T14:42:41Z</time>
      </trkpt>
      <trkpt lat="45.81258" lon="2.95142">
        <ele>1005</ele>
        <time>2018-05-19T14:42:43Z</time>
      </trkpt>
      <trkpt lat="45.81252" lon="2.95135">
        <ele>1004</ele>
        <time>2018-05-19T14:42:45Z</time>
      </trkpt>
      <trkpt lat="45.81245" lon="2.95129">
        <ele>1003</ele>
        <time>2018-05-19T14:42:47Z</time>
      </trkpt>
      <trkpt lat="45.81238" lon="2.95122">
        <ele>1003</ele>
        <time>2018-05-19T14:42:49Z</time>
      </trkpt>
      <trkpt lat="45.81231" lon="2.95115">
        <ele>1002</ele>
        <time>2018-05-19T14:42:51Z</time>
      </trkpt>
      <trkpt lat="45.81223" lon="2.95109">
        <ele>1001</ele>
        <time>2018-05-19T14:42:53Z</time>
      </trkpt>
      <trkpt lat="45.81215" lon="2.95103">
        <ele>1001</ele>
        <time>2018-05-19T14:42:55Z</time>
      </trkpt>
      <trkpt lat="45.81207" lon="2.95099">
        <ele>1002</ele>
        <time>2018-05-19T14:42:57Z</time>
      </trkpt>
      <trkpt lat="45.81199" lon="2.95095">
        <ele>1002</ele>
        <time>2018-05-19T14:42:59Z</time>
      </trkpt>
      <trkpt lat="45.81191" lon="2.9509">
        <ele>1002</ele>
        <time>2018-05-19T14:43:01Z</time>
      </trkpt>
      <trkpt lat="45.81183" lon="2.95089">
        <ele>1002</ele>
        <time>2018-05-19T14:43:03Z</time>
      </trkpt>
      <trkpt lat="45.81175" lon="2.95087">
        <ele>1004</ele>
        <time>2018-05-19T14:43:05Z</time>
      </trkpt>
      <trkpt lat="45.81165" lon="2.95086">
        <ele>1001</ele>
        <time>2018-05-19T14:43:07Z</time>
      </trkpt>
      <trkpt lat="45.81156" lon="2.95083">
        <ele>1002</ele>
        <time>2018-05-19T14:43:09Z</time>
      </trkpt>
      <trkpt lat="45.81146" lon="2.95084">
        <ele>1003</ele>
        <time>2018-05-19T14:43:11Z</time>
      </trkpt>
      <trkpt lat="45.81139" lon="2.95081">
        <ele>1003</ele>
        <time>2018-05-19T14:43:13Z</time>
      </trkpt>
      <trkpt lat="45.8113" lon="2.95081">
        <ele>1003</ele>
        <time>2018-05-19T14:43:15Z</time>
      </trkpt>
      <trkpt lat="45.81121" lon="2.95081">
        <ele>1003</ele>
        <time>2018-05-19T14:43:17Z</time>
      </trkpt>
      <trkpt lat="45.81113" lon="2.95081">
        <ele>1005</ele>
        <time>2018-05-19T14:43:19Z</time>
      </trkpt>
      <trkpt lat="45.81105" lon="2.9508">
        <ele>1005</ele>
        <time>2018-05-19T14:43:21Z</time>
      </trkpt>
      <trkpt lat="45.81098" lon="2.9508">
        <ele>1006</ele>
        <time>2018-05-19T14:43:23Z</time>
      </trkpt>
      <trkpt lat="45.8109" lon="2.9508">
        <ele>1007</ele>
        <time>2018-05-19T14:43:25Z</time>
      </trkpt>
      <trkpt lat="45.81081" lon="2.95081">
        <ele>1007</ele>
        <time>2018-05-19T14:43:27Z</time>
      </trkpt>
      <trkpt lat="45.81073" lon="2.95083">
        <ele>1008</ele>
        <time>2018-05-19T14:43:29Z</time>
      </trkpt>
      <trkpt lat="45.81065" lon="2.95086">
        <ele>1009</ele>
        <time>2018-05-19T14:43:31Z</time>
      </trkpt>
      <trkpt lat="45.81056" lon="2.95088">
        <ele>1010</ele>
        <time>2018-05-19T14:43:33Z</time>
      </trkpt>
      <trkpt lat="45.81047" lon="2.9509">
        <ele>1009</ele>
        <time>2018-05-19T14:43:35Z</time>
      </trkpt>
      <trkpt lat="45.81037" lon="2.95093">
        <ele>1009</ele>
        <time>2018-05-19T14:43:37Z</time>
      </trkpt>
      <trkpt lat="45.81029" lon="2.95095">
        <ele>1009</ele>
        <time>2018-05-19T14:43:39Z</time>
      </trkpt>
      <trkpt lat="45.81022" lon="2.95098">
        <ele>1010</ele>
        <time>2018-05-19T14:43:41Z</time>
      </trkpt>
      <trkpt lat="45.81014" lon="2.95101">
        <ele>1011</ele>
        <time>2018-05-19T14:43:43Z</time>
      </trkpt>
      <trkpt lat="45.81005" lon="2.95102">
        <ele>1012</ele>
        <time>2018-05-19T14:43:45Z</time>
      </trkpt>
      <trkpt lat="45.80996" lon="2.95104">
        <ele>1013</ele>
        <time>2018-05-19T14:43:47Z</time>
      </trkpt>
      <trkpt lat="45.80986" lon="2.95108">
        <ele>1012</ele>
        <time>2018-05-19T14:43:49Z</time>
      </trkpt>
      <trkpt lat="45.80976" lon="2.95109">
        <ele>1012</ele>
        <time>2018-05-19T14:43:51Z</time>
      </trkpt>
      <trkpt lat="45.80965" lon="2.9511">
        <ele>1011</ele>
        <time>2018-05-19T14:43:53Z</time>
      </trkpt>
      <trkpt lat="45.80955" lon="2.95109">
        <ele>1011</ele>
        <time>2018-05-19T14:43:55Z</time>
      </trkpt>
      <trkpt lat="45.80946" lon="2.95109">
        <ele>1010</ele>
        <time>2018-05-19T14:43:57Z</time>
      </trkpt>
      <trkpt lat="45.80937" lon="2.95109">
        <ele>1010</ele>
        <time>2018-05-19T14:43:59Z</time>
      </trkpt>
      <trkpt lat="45.80928" lon="2.95109">
        <ele>1014</ele>
        <time>2018-05-19T14:44:01Z</time>
      </trkpt>
      <trkpt lat="45.80919" lon="2.95111">
        <ele>1013</ele>
        <time>2018-05-19T14:44:03Z</time>
      </trkpt>
      <trkpt lat="45.80912" lon="2.95109">
        <ele>1014</ele>
        <time>2018-05-19T14:44:05Z</time>
      </trkpt>
      <trkpt lat="45.80905" lon="2.9511">
        <ele>1017</ele>
        <time>2018-05-19T14:44:07Z</time>
      </trkpt>
      <trkpt lat="45.80895" lon="2.95108">
        <ele>1019</ele>
        <time>2018-05-19T14:44:09Z</time>
      </trkpt>
      <trkpt lat="45.80885" lon="2.95107">
        <ele>1019</ele>
        <time>2018-05-19T14:44:11Z</time>
      </trkpt>
      <trkpt lat="45.80876" lon="2.95104">
        <ele>1019</ele>
        <time>2018-05-19T14:44:13Z</time>
      </trkpt>
      <trkpt lat="45.80865" lon="2.95101">
        <ele>1017</ele>
        <time>2018-05-19T14:44:15Z</time>
      </trkpt>
      <trkpt lat="45.80855" lon="2.95098">
        <ele>1015</ele>
        <time>2018-05-19T14:44:17Z</time>
      </trkpt>
      <trkpt lat="45.80846" lon="2.95093">
        <ele>1014</ele>
        <time>2018-05-19T14:44:19Z</time>
      </trkpt>
      <trkpt lat="45.80837" lon="2.95091">
        <ele>1014</ele>
        <time>2018-05-19T14:44:21Z</time>
      </trkpt>
      <trkpt lat="45.80827" lon="2.95087">
        <ele>1015</ele>
        <time>2018-05-19T14:44:23Z</time>
      </trkpt>
      <trkpt lat="45.80816" lon="2.95084">
        <ele>1013</ele>
        <time>2018-05-19T14:44:25Z</time>
      </trkpt>
      <trkpt lat="45.80805" lon="2.95081">
        <ele>1012</ele>
        <time>2018-05-19T14:44:27Z</time>
      </trkpt>
      <trkpt lat="45.80795" lon="2.95077">
        <ele>1012</ele>
        <time>2018-05-19T14:44:29Z</time>
      </trkpt>
      <trkpt lat="45.80787" lon="2.95074">
        <ele>1013</ele>
        <time>2018-05-19T14:44:31Z</time>
      </trkpt>
      <trkpt lat="45.80779" lon="2.95071">
        <ele>1010</ele>
        <time>2018-05-19T14:44:33Z</time>
      </trkpt>
      <trkpt lat="45.80771" lon="2.95069">
        <ele>1009</ele>
        <time>2018-05-19T14:44:35Z</time>
      </trkpt>
      <trkpt lat="45.80762" lon="2.95066">
        <ele>1006</ele>
        <time>2018-05-19T14:44:37Z</time>
      </trkpt>
      <trkpt lat="45.80751" lon="2.9506">
        <ele>1002</ele>
        <time>2018-05-19T14:44:39Z</time>
      </trkpt>
      <trkpt lat="45.80741" lon="2.95059">
        <ele>1001</ele>
        <time>2018-05-19T14:44:41Z</time>
      </trkpt>
      <trkpt lat="45.80731" lon="2.95055">
        <ele>1000</ele>
        <time>2018-05-19T14:44:43Z</time>
      </trkpt>
      <trkpt lat="45.80722" lon="2.95053">
        <ele>1001</ele>
        <time>2018-05-19T14:44:45Z</time>
      </trkpt>
      <trkpt lat="45.80714" lon="2.95051">
        <ele>1001</ele>
        <time>2018-05-19T14:44:47Z</time>
      </trkpt>
      <trkpt lat="45.80706" lon="2.95049">
        <ele>1000</ele>
        <time>2018-05-19T14:44:49Z</time>
      </trkpt>
      <trkpt lat="45.80699" lon="2.95046">
        <ele>999</ele>
        <time>2018-05-19T14:44:51Z</time>
      </trkpt>
      <trkpt lat="45.80691" lon="2.95044">
        <ele>999</ele>
        <time>2018-05-19T14:44:53Z</time>
      </trkpt>
      <trkpt lat="45.80684" lon="2.95041">
        <ele>999</ele>
        <time>2018-05-19T14:44:55Z</time>
      </trkpt>
      <trkpt lat="45.80678" lon="2.95037">
        <ele>999</ele>
        <time>2018-05-19T14:44:57Z</time>
      </trkpt>
      <trkpt lat="45.80673" lon="2.95033">
        <ele>999</ele>
        <time>2018-05-19T14:44:59Z</time>
      </trkpt>
      <trkpt lat="45.80669" lon="2.95023">
        <ele>1000</ele>
        <time>2018-05-19T14:45:01Z</time>
      </trkpt>
      <trkpt lat="45.80665" lon="2.95011">
        <ele>1001</ele>
        <time>2018-05-19T14:45:03Z</time>
      </trkpt>
      <trkpt lat="45.8066" lon="2.95">
        <ele>1001</ele>
        <time>2018-05-19T14:45:05Z</time>
      </trkpt>
      <trkpt lat="45.80654" lon="2.9499">
        <ele>1001</ele>
        <time>2018-05-19T14:45:07Z</time>
      </trkpt>
      <trkpt lat="45.80649" lon="2.94979">
        <ele>1001</ele>
        <time>2018-05-19T14:45:09Z</time>
      </trkpt>
      <trkpt lat="45.80642" lon="2.94971">
        <ele>1001</ele>
        <time>2018-05-19T14:45:11Z</time>
      </trkpt>
      <trkpt lat="45.80636" lon="2.94957">
        <ele>1001</ele>
        <time>2018-05-19T14:45:13Z</time>
      </trkpt>
      <trkpt lat="45.80627" lon="2.94947">
        <ele>1001</ele>
        <time>2018-05-19T14:45:15Z</time>
      </trkpt>
      <trkpt lat="45.80621" lon="2.94937">
        <ele>1001</ele>
        <time>2018-05-19T14:45:17Z</time>
      </trkpt>
      <trkpt lat="45.80612" lon="2.94928">
        <ele>1000</ele>
        <time>2018-05-19T14:45:19Z</time>
      </trkpt>
      <trkpt lat="45.80606" lon="2.9492">
        <ele>1000</ele>
        <time>2018-05-19T14:45:21Z</time>
      </trkpt>
      <trkpt lat="45.80602" lon="2.94908">
        <ele>1001</ele>
        <time>2018-05-19T14:45:23Z</time>
      </trkpt>
      <trkpt lat="45.80596" lon="2.94896">
        <ele>1001</ele>
        <time>2018-05-19T14:45:25Z</time>
      </trkpt>
      <trkpt lat="45.80591" lon="2.94882">
        <ele>1002</ele>
        <time>2018-05-19T14:45:27Z</time>
      </trkpt>
      <trkpt lat="45.80583" lon="2.94869">
        <ele>1002</ele>
        <time>2018-05-19T14:45:29Z</time>
      </trkpt>
      <trkpt lat="45.80577" lon="2.94857">
        <ele>1001</ele>
        <time>2018-05-19T14:45:31Z</time>
      </trkpt>
      <trkpt lat="45.8057" lon="2.94844">
        <ele>1000</ele>
        <time>2018-05-19T14:45:33Z</time>
      </trkpt>
      <trkpt lat="45.80566" lon="2.94835">
        <ele>1001</ele>
        <time>2018-05-19T14:45:35Z</time>
      </trkpt>
      <trkpt lat="45.8056" lon="2.94821">
        <ele>1001</ele>
        <time>2018-05-19T14:45:37Z</time>
      </trkpt>
      <trkpt lat="45.80555" lon="2.94808">
        <ele>1001</ele>
        <time>2018-05-19T14:45:39Z</time>
      </trkpt>
      <trkpt lat="45.80549" lon="2.94792">
        <ele>1001</ele>
        <time>2018-05-19T14:45:41Z</time>
      </trkpt>
      <trkpt lat="45.80542" lon="2.94777">
        <ele>999</ele>
        <time>2018-05-19T14:45:43Z</time>
      </trkpt>
      <trkpt lat="45.80538" lon="2.9476">
        <ele>997</ele>
        <time>2018-05-19T14:45:45Z</time>
      </trkpt>
      <trkpt lat="45.80534" lon="2.94745">
        <ele>997</ele>
        <time>2018-05-19T14:45:47Z</time>
      </trkpt>
      <trkpt lat="45.80532" lon="2.94732">
        <ele>998</ele>
        <time>2018-05-19T14:45:49Z</time>
      </trkpt>
      <trkpt lat="45.80529" lon="2.94716">
        <ele>996</ele>
        <time>2018-05-19T14:45:51Z</time>
      </trkpt>
      <trkpt lat="45.80527" lon="2.94703">
        <ele>996</ele>
        <time>2018-05-19T14:45:53Z</time>
      </trkpt>
      <trkpt lat="45.80534" lon="2.94688">
        <ele>995</ele>
        <time>2018-05-19T14:45:55Z</time>
      </trkpt>
      <trkpt lat="45.80541" lon="2.94673">
        <ele>995</ele>
        <time>2018-05-19T14:45:57Z</time>
      </trkpt>
      <trkpt lat="45.8055" lon="2.94657">
        <ele>995</ele>
        <time>2018-05-19T14:45:59Z</time>
      </trkpt>
      <trkpt lat="45.80559" lon="2.94639">
        <ele>994</ele>
        <time>2018-05-19T14:46:01Z</time>
      </trkpt>
      <trkpt lat="45.80568" lon="2.9462">
        <ele>993</ele>
        <time>2018-05-19T14:46:03Z</time>
      </trkpt>
      <trkpt lat="45.80576" lon="2.94605">
        <ele>992</ele>
        <time>2018-05-19T14:46:05Z</time>
      </trkpt>
      <trkpt lat="45.80585" lon="2.94593">
        <ele>992</ele>
        <time>2018-05-19T14:46:07Z</time>
      </trkpt>
      <trkpt lat="45.80594" lon="2.9458">
        <ele>991</ele>
        <time>2018-05-19T14:46:09Z</time>
      </trkpt>
      <trkpt lat="45.80602" lon="2.94568">
        <ele>990</ele>
        <time>2018-05-19T14:46:11Z</time>
      </trkpt>
      <trkpt lat="45.80609" lon="2.94557">
        <ele>989</ele>
        <time>2018-05-19T14:46:13Z</time>
      </trkpt>
      <trkpt lat="45.80614" lon="2.94546">
        <ele>989</ele>
        <time>2018-05-19T14:46:15Z</time>
      </trkpt>
      <trkpt lat="45.80624" lon="2.94537">
        <ele>988</ele>
        <time>2018-05-19T14:46:17Z</time>
      </trkpt>
      <trkpt lat="45.80629" lon="2.9453">
        <ele>987</ele>
        <time>2018-05-19T14:46:19Z</time>
      </trkpt>
      <trkpt lat="45.80635" lon="2.94521">
        <ele>988</ele>
        <time>2018-05-19T14:46:21Z</time>
      </trkpt>
      <trkpt lat="45.80641" lon="2.94514">
        <ele>986</ele>
        <time>2018-05-19T14:46:23Z</time>
      </trkpt>
      <trkpt lat="45.80646" lon="2.94506">
        <ele>986</ele>
        <time>2018-05-19T14:46:25Z</time>
      </trkpt>
      <trkpt lat="45.80651" lon="2.94498">
        <ele>986</ele>
        <time>2018-05-19T14:46:27Z</time>
      </trkpt>
      <trkpt lat="45.80655" lon="2.94492">
        <ele>986</ele>
        <time>2018-05-19T14:46:29Z</time>
      </trkpt>
      <trkpt lat="45.8066" lon="2.94487">
        <ele>986</ele>
        <time>2018-05-19T14:50:29Z</time>
      </trkpt>
      <trkpt lat="45.80665" lon="2.9448">
        <ele>986</ele>
        <time>2018-05-19T14:50:33Z</time>
      </trkpt>
      <trkpt lat="45.80669" lon="2.94473">
        <ele>986</ele>
        <time>2018-05-19T14:50:35Z</time>
      </trkpt>
      <trkpt lat="45.80672" lon="2.94465">
        <ele>986</ele>
        <time>2018-05-19T14:50:37Z</time>
      </trkpt>
      <trkpt lat="45.80677" lon="2.94458">
        <ele>984</ele>
        <time>2018-05-19T14:50:39Z</time>
      </trkpt>
      <trkpt lat="45.80682" lon="2.94451">
        <ele>984</ele>
        <time>2018-05-19T14:50:41Z</time>
      </trkpt>
      <trkpt lat="45.80687" lon="2.94445">
        <ele>984</ele>
        <time>2018-05-19T14:50:43Z</time>
      </trkpt>
      <trkpt lat="45.80692" lon="2.94439">
        <ele>984</ele>
        <time>2018-05-19T14:50:45Z</time>
      </trkpt>
      <trkpt lat="45.80696" lon="2.94434">
        <ele>984</ele>
        <time>2018-05-19T14:50:47Z</time>
      </trkpt>
      <trkpt lat="45.807" lon="2.94429">
        <ele>985</ele>
        <time>2018-05-19T14:50:49Z</time>
      </trkpt>
      <trkpt lat="45.80706" lon="2.94422">
        <ele>986</ele>
        <time>2018-05-19T14:50:51Z</time>
      </trkpt>
      <trkpt lat="45.80711" lon="2.94416">
        <ele>986</ele>
        <time>2018-05-19T14:50:53Z</time>
      </trkpt>
      <trkpt lat="45.80714" lon="2.94409">
        <ele>985</ele>
        <time>2018-05-19T14:50:55Z</time>
      </trkpt>
      <trkpt lat="45.8071" lon="2.94403">
        <ele>983</ele>
        <time>2018-05-19T14:50:57Z</time>
      </trkpt>
      <trkpt lat="45.80705" lon="2.94396">
        <ele>984</ele>
        <time>2018-05-19T14:50:59Z</time>
      </trkpt>
      <trkpt lat="45.807" lon="2.94388">
        <ele>985</ele>
        <time>2018-05-19T14:51:01Z</time>
      </trkpt>
      <trkpt lat="45.80694" lon="2.9438">
        <ele>984</ele>
        <time>2018-05-19T14:51:03Z</time>
      </trkpt>
      <trkpt lat="45.80688" lon="2.94372">
        <ele>985</ele>
        <time>2018-05-19T14:51:05Z</time>
      </trkpt>
      <trkpt lat="45.80682" lon="2.94363">
        <ele>984</ele>
        <time>2018-05-19T14:51:07Z</time>
      </trkpt>
      <trkpt lat="45.80678" lon="2.94356">
        <ele>984</ele>
        <time>2018-05-19T14:51:09Z</time>
      </trkpt>
      <trkpt lat="45.80672" lon="2.94346">
        <ele>985</ele>
        <time>2018-05-19T14:51:11Z</time>
      </trkpt>
      <trkpt lat="45.80666" lon="2.94336">
        <ele>984</ele>
        <time>2018-05-19T14:51:13Z</time>
      </trkpt>
      <trkpt lat="45.8066" lon="2.94328">
        <ele>984</ele>
        <time>2018-05-19T14:51:15Z</time>
      </trkpt>
      <trkpt lat="45.80653" lon="2.9432">
        <ele>984</ele>
        <time>2018-05-19T14:51:17Z</time>
      </trkpt>
      <trkpt lat="45.80647" lon="2.94312">
        <ele>982</ele>
        <time>2018-05-19T14:51:19Z</time>
      </trkpt>
      <trkpt lat="45.80642" lon="2.94305">
        <ele>981</ele>
        <time>2018-05-19T14:51:21Z</time>
      </trkpt>
      <trkpt lat="45.80637" lon="2.94298">
        <ele>980</ele>
        <time>2018-05-19T14:51:23Z</time>
      </trkpt>
      <trkpt lat="45.80631" lon="2.94291">
        <ele>979</ele>
        <time>2018-05-19T14:51:25Z</time>
      </trkpt>
      <trkpt lat="45.80627" lon="2.94282">
        <ele>978</ele>
        <time>2018-05-19T14:51:27Z</time>
      </trkpt>
      <trkpt lat="45.80621" lon="2.94273">
        <ele>978</ele>
        <time>2018-05-19T14:51:29Z</time>
      </trkpt>
      <trkpt lat="45.80615" lon="2.94267">
        <ele>979</ele>
        <time>2018-05-19T14:51:31Z</time>
      </trkpt>
      <trkpt lat="45.8061" lon="2.9426">
        <ele>979</ele>
        <time>2018-05-19T14:51:33Z</time>
      </trkpt>
      <trkpt lat="45.80605" lon="2.94251">
        <ele>980</ele>
        <time>2018-05-19T14:51:35Z</time>
      </trkpt>
      <trkpt lat="45.80601" lon="2.94244">
        <ele>979</ele>
        <time>2018-05-19T14:51:37Z</time>
      </trkpt>
      <trkpt lat="45.80596" lon="2.94238">
        <ele>981</ele>
        <time>2018-05-19T14:51:39Z</time>
      </trkpt>
      <trkpt lat="45.80593" lon="2.94232">
        <ele>983</ele>
        <time>2018-05-19T14:51:41Z</time>
      </trkpt>
      <trkpt lat="45.80589" lon="2.94226">
        <ele>982</ele>
        <time>2018-05-19T14:51:43Z</time>
      </trkpt>
      <trkpt lat="45.80586" lon="2.94221">
        <ele>983</ele>
        <time>2018-05-19T14:51:45Z</time>
      </trkpt>
      <trkpt lat="45.80581" lon="2.94214">
        <ele>984</ele>
        <time>2018-05-19T14:51:47Z</time>
      </trkpt>
      <trkpt lat="45.80576" lon="2.94206">
        <ele>984</ele>
        <time>2018-05-19T14:51:49Z</time>
      </trkpt>
      <trkpt lat="45.80571" lon="2.94196">
        <ele>983</ele>
        <time>2018-05-19T14:51:51Z</time>
      </trkpt>
      <trkpt lat="45.80568" lon="2.94188">
        <ele>981</ele>
        <time>2018-05-19T14:51:53Z</time>
      </trkpt>
      <trkpt lat="45.80564" lon="2.94179">
        <ele>981</ele>
        <time>2018-05-19T14:51:55Z</time>
      </trkpt>
      <trkpt lat="45.8056" lon="2.94168">
        <ele>981</ele>
        <time>2018-05-19T14:51:57Z</time>
      </trkpt>
      <trkpt lat="45.80556" lon="2.94158">
        <ele>981</ele>
        <time>2018-05-19T14:51:59Z</time>
      </trkpt>
      <trkpt lat="45.80552" lon="2.94149">
        <ele>981</ele>
        <time>2018-05-19T14:52:01Z</time>
      </trkpt>
      <trkpt lat="45.80549" lon="2.94141">
        <ele>981</ele>
        <time>2018-05-19T14:52:03Z</time>
      </trkpt>
      <trkpt lat="45.80546" lon="2.94133">
        <ele>981</ele>
        <time>2018-05-19T14:52:05Z</time>
      </trkpt>
      <trkpt lat="45.80543" lon="2.94127">
        <ele>981</ele>
        <time>2018-05-19T14:52:07Z</time>
      </trkpt>
      <trkpt lat="45.80539" lon="2.94119">
        <ele>980</ele>
        <time>2018-05-19T14:52:09Z</time>
      </trkpt>
      <trkpt lat="45.80535" lon="2.94111">
        <ele>980</ele>
        <time>2018-05-19T14:52:11Z</time>
      </trkpt>
      <trkpt lat="45.80531" lon="2.94104">
        <ele>979</ele>
        <time>2018-05-19T14:52:13Z</time>
      </trkpt>
      <trkpt lat="45.80527" lon="2.94096">
        <ele>979</ele>
        <time>2018-05-19T14:52:15Z</time>
      </trkpt>
      <trkpt lat="45.80523" lon="2.94089">
        <ele>980</ele>
        <time>2018-05-19T14:52:17Z</time>
      </trkpt>
      <trkpt lat="45.80519" lon="2.9408">
        <ele>980</ele>
        <time>2018-05-19T14:52:19Z</time>
      </trkpt>
      <trkpt lat="45.80515" lon="2.94072">
        <ele>980</ele>
        <time>2018-05-19T14:52:21Z</time>
      </trkpt>
      <trkpt lat="45.8051" lon="2.94062">
        <ele>979</ele>
        <time>2018-05-19T14:52:23Z</time>
      </trkpt>
      <trkpt lat="45.80507" lon="2.9405">
        <ele>979</ele>
        <time>2018-05-19T14:52:25Z</time>
      </trkpt>
      <trkpt lat="45.80504" lon="2.94037">
        <ele>979</ele>
        <time>2018-05-19T14:52:27Z</time>
      </trkpt>
      <trkpt lat="45.80502" lon="2.94024">
        <ele>979</ele>
        <time>2018-05-19T14:52:29Z</time>
      </trkpt>
      <trkpt lat="45.80501" lon="2.9401">
        <ele>979</ele>
        <time>2018-05-19T14:52:31Z</time>
      </trkpt>
      <trkpt lat="45.805" lon="2.93997">
        <ele>979</ele>
        <time>2018-05-19T14:52:33Z</time>
      </trkpt>
      <trkpt lat="45.80499" lon="2.93983">
        <ele>979</ele>
        <time>2018-05-19T14:52:35Z</time>
      </trkpt>
      <trkpt lat="45.80499" lon="2.93969">
        <ele>980</ele>
        <time>2018-05-19T14:52:37Z</time>
      </trkpt>
      <trkpt lat="45.80497" lon="2.93956">
        <ele>981</ele>
        <time>2018-05-19T14:52:39Z</time>
      </trkpt>
      <trkpt lat="45.80495" lon="2.93943">
        <ele>981</ele>
        <time>2018-05-19T14:52:41Z</time>
      </trkpt>
      <trkpt lat="45.80493" lon="2.9393">
        <ele>981</ele>
        <time>2018-05-19T14:52:43Z</time>
      </trkpt>
      <trkpt lat="45.80494" lon="2.93917">
        <ele>981</ele>
        <time>2018-05-19T14:52:45Z</time>
      </trkpt>
      <trkpt lat="45.80497" lon="2.93904">
        <ele>980</ele>
        <time>2018-05-19T14:52:47Z</time>
      </trkpt>
      <trkpt lat="45.80501" lon="2.93889">
        <ele>980</ele>
        <time>2018-05-19T14:52:49Z</time>
      </trkpt>
      <trkpt lat="45.80506" lon="2.93875">
        <ele>980</ele>
        <time>2018-05-19T14:52:51Z</time>
      </trkpt>
      <trkpt lat="45.80512" lon="2.93865">
        <ele>980</ele>
        <time>2018-05-19T14:52:53Z</time>
      </trkpt>
      <trkpt lat="45.80518" lon="2.93857">
        <ele>979</ele>
        <time>2018-05-19T14:52:55Z</time>
      </trkpt>
      <trkpt lat="45.80525" lon="2.9385">
        <ele>979</ele>
        <time>2018-05-19T14:52:57Z</time>
      </trkpt>
      <trkpt lat="45.80531" lon="2.93842">
        <ele>978</ele>
        <time>2018-05-19T14:52:59Z</time>
      </trkpt>
      <trkpt lat="45.80537" lon="2.93834">
        <ele>979</ele>
        <time>2018-05-19T14:53:01Z</time>
      </trkpt>
      <trkpt lat="45.80544" lon="2.93827">
        <ele>979</ele>
        <time>2018-05-19T14:53:03Z</time>
      </trkpt>
      <trkpt lat="45.8055" lon="2.9382">
        <ele>978</ele>
        <time>2018-05-19T14:53:05Z</time>
      </trkpt>
      <trkpt lat="45.80556" lon="2.93815">
        <ele>978</ele>
        <time>2018-05-19T14:53:07Z</time>
      </trkpt>
      <trkpt lat="45.80562" lon="2.9381">
        <ele>979</ele>
        <time>2018-05-19T14:53:09Z</time>
      </trkpt>
      <trkpt lat="45.80569" lon="2.93805">
        <ele>978</ele>
        <time>2018-05-19T14:53:11Z</time>
      </trkpt>
      <trkpt lat="45.80577" lon="2.93797">
        <ele>977</ele>
        <time>2018-05-19T14:53:13Z</time>
      </trkpt>
      <trkpt lat="45.80587" lon="2.93791">
        <ele>977</ele>
        <time>2018-05-19T14:53:15Z</time>
      </trkpt>
      <trkpt lat="45.80598" lon="2.93791">
        <ele>977</ele>
        <time>2018-05-19T14:53:17Z</time>
      </trkpt>
      <trkpt lat="45.80605" lon="2.93788">
        <ele>976</ele>
        <time>2018-05-19T14:53:19Z</time>
      </trkpt>
      <trkpt lat="45.80613" lon="2.93786">
        <ele>975</ele>
        <time>2018-05-19T14:53:21Z</time>
      </trkpt>
      <trkpt lat="45.8062" lon="2.93785">
        <ele>975</ele>
        <time>2018-05-19T14:53:23Z</time>
      </trkpt>
      <trkpt lat="45.80627" lon="2.93783">
        <ele>975</ele>
        <time>2018-05-19T14:53:25Z</time>
      </trkpt>
      <trkpt lat="45.80633" lon="2.93781">
        <ele>975</ele>
        <time>2018-05-19T14:53:27Z</time>
      </trkpt>
      <trkpt lat="45.8064" lon="2.9378">
        <ele>975</ele>
        <time>2018-05-19T14:53:29Z</time>
      </trkpt>
      <trkpt lat="45.80646" lon="2.93775">
        <ele>973</ele>
        <time>2018-05-19T14:53:31Z</time>
      </trkpt>
      <trkpt lat="45.80653" lon="2.93772">
        <ele>974</ele>
        <time>2018-05-19T14:53:33Z</time>
      </trkpt>
      <trkpt lat="45.80659" lon="2.93768">
        <ele>973</ele>
        <time>2018-05-19T14:53:35Z</time>
      </trkpt>
      <trkpt lat="45.80665" lon="2.93763">
        <ele>973</ele>
        <time>2018-05-19T14:53:37Z</time>
      </trkpt>
      <trkpt lat="45.8067" lon="2.9376">
        <ele>974</ele>
        <time>2018-05-19T14:53:39Z</time>
      </trkpt>
      <trkpt lat="45.80674" lon="2.93755">
        <ele>975</ele>
        <time>2018-05-19T14:53:41Z</time>
      </trkpt>
      <trkpt lat="45.80679" lon="2.93752">
        <ele>976</ele>
        <time>2018-05-19T14:53:43Z</time>
      </trkpt>
      <trkpt lat="45.80684" lon="2.93748">
        <ele>976</ele>
        <time>2018-05-19T14:53:45Z</time>
      </trkpt>
      <trkpt lat="45.8069" lon="2.93744">
        <ele>976</ele>
        <time>2018-05-19T14:53:47Z</time>
      </trkpt>
      <trkpt lat="45.80696" lon="2.9374">
        <ele>976</ele>
        <time>2018-05-19T14:53:49Z</time>
      </trkpt>
      <trkpt lat="45.80701" lon="2.93737">
        <ele>978</ele>
        <time>2018-05-19T14:53:51Z</time>
      </trkpt>
      <trkpt lat="45.80706" lon="2.93734">
        <ele>978</ele>
        <time>2018-05-19T14:53:53Z</time>
      </trkpt>
      <trkpt lat="45.80711" lon="2.9373">
        <ele>979</ele>
        <time>2018-05-19T14:53:55Z</time>
      </trkpt>
      <trkpt lat="45.80716" lon="2.93726">
        <ele>979</ele>
        <time>2018-05-19T14:53:57Z</time>
      </trkpt>
      <trkpt lat="45.80722" lon="2.93723">
        <ele>980</ele>
        <time>2018-05-19T14:53:59Z</time>
      </trkpt>
      <trkpt lat="45.80727" lon="2.93718">
        <ele>979</ele>
        <time>2018-05-19T14:54:01Z</time>
      </trkpt>
      <trkpt lat="45.80732" lon="2.93712">
        <ele>979</ele>
        <time>2018-05-19T14:54:03Z</time>
      </trkpt>
      <trkpt lat="45.80737" lon="2.93707">
        <ele>980</ele>
        <time>2018-05-19T14:54:05Z</time>
      </trkpt>
      <trkpt lat="45.80742" lon="2.93705">
        <ele>981</ele>
        <time>2018-05-19T14:54:07Z</time>
      </trkpt>
      <trkpt lat="45.80748" lon="2.93703">
        <ele>983</ele>
        <time>2018-05-19T14:54:11Z</time>
      </trkpt>
      <trkpt lat="45.80752" lon="2.93698">
        <ele>983</ele>
        <time>2018-05-19T14:54:15Z</time>
      </trkpt>
      <trkpt lat="45.80755" lon="2.9369">
        <ele>983</ele>
        <time>2018-05-19T14:54:19Z</time>
      </trkpt>
      <trkpt lat="45.80748" lon="2.93699">
        <ele>988</ele>
        <time>2018-05-19T14:56:23Z</time>
      </trkpt>
      <trkpt lat="45.80742" lon="2.93699">
        <ele>988</ele>
        <time>2018-05-19T14:56:25Z</time>
      </trkpt>
      <trkpt lat="45.80735" lon="2.93698">
        <ele>987</ele>
        <time>2018-05-19T14:56:27Z</time>
      </trkpt>
      <trkpt lat="45.80728" lon="2.93697">
        <ele>987</ele>
        <time>2018-05-19T14:56:29Z</time>
      </trkpt>
      <trkpt lat="45.80721" lon="2.93696">
        <ele>988</ele>
        <time>2018-05-19T14:56:31Z</time>
      </trkpt>
      <trkpt lat="45.80715" lon="2.93696">
        <ele>988</ele>
        <time>2018-05-19T14:56:33Z</time>
      </trkpt>
      <trkpt lat="45.80708" lon="2.93696">
        <ele>988</ele>
        <time>2018-05-19T14:56:35Z</time>
      </trkpt>
      <trkpt lat="45.80702" lon="2.93696">
        <ele>988</ele>
        <time>2018-05-19T14:56:37Z</time>
      </trkpt>
      <trkpt lat="45.80696" lon="2.93697">
        <ele>988</ele>
        <time>2018-05-19T14:56:39Z</time>
      </trkpt>
      <trkpt lat="45.8069" lon="2.93696">
        <ele>988</ele>
        <time>2018-05-19T14:56:41Z</time>
      </trkpt>
      <trkpt lat="45.80683" lon="2.93695">
        <ele>988</ele>
        <time>2018-05-19T14:56:43Z</time>
      </trkpt>
      <trkpt lat="45.80677" lon="2.93694">
        <ele>988</ele>
        <time>2018-05-19T14:56:45Z</time>
      </trkpt>
      <trkpt lat="45.80671" lon="2.93692">
        <ele>988</ele>
        <time>2018-05-19T14:56:47Z</time>
      </trkpt>
      <trkpt lat="45.80666" lon="2.93688">
        <ele>988</ele>
        <time>2018-05-19T14:56:49Z</time>
      </trkpt>
      <trkpt lat="45.80661" lon="2.93683">
        <ele>986</ele>
        <time>2018-05-19T14:56:51Z</time>
      </trkpt>
      <trkpt lat="45.80656" lon="2.93678">
        <ele>985</ele>
        <time>2018-05-19T14:56:53Z</time>
      </trkpt>
      <trkpt lat="45.80652" lon="2.93673">
        <ele>986</ele>
        <time>2018-05-19T14:56:55Z</time>
      </trkpt>
      <trkpt lat="45.80648" lon="2.93667">
        <ele>986</ele>
        <time>2018-05-19T14:56:57Z</time>
      </trkpt>
      <trkpt lat="45.80643" lon="2.9366">
        <ele>987</ele>
        <time>2018-05-19T14:56:59Z</time>
      </trkpt>
      <trkpt lat="45.8064" lon="2.93652">
        <ele>988</ele>
        <time>2018-05-19T14:57:01Z</time>
      </trkpt>
      <trkpt lat="45.80636" lon="2.93643">
        <ele>988</ele>
        <time>2018-05-19T14:57:03Z</time>
      </trkpt>
      <trkpt lat="45.80633" lon="2.93632">
        <ele>989</ele>
        <time>2018-05-19T14:57:05Z</time>
      </trkpt>
      <trkpt lat="45.80629" lon="2.93621">
        <ele>989</ele>
        <time>2018-05-19T14:57:07Z</time>
      </trkpt>
      <trkpt lat="45.80625" lon="2.93611">
        <ele>989</ele>
        <time>2018-05-19T14:57:09Z</time>
      </trkpt>
      <trkpt lat="45.80621" lon="2.936">
        <ele>989</ele>
        <time>2018-05-19T14:57:11Z</time>
      </trkpt>
      <trkpt lat="45.80618" lon="2.93589">
        <ele>989</ele>
        <time>2018-05-19T14:57:13Z</time>
      </trkpt>
      <trkpt lat="45.80615" lon="2.9358">
        <ele>988</ele>
        <time>2018-05-19T14:57:15Z</time>
      </trkpt>
      <trkpt lat="45.80611" lon="2.93571">
        <ele>988</ele>
        <time>2018-05-19T14:57:17Z</time>
      </trkpt>
      <trkpt lat="45.80608" lon="2.93562">
        <ele>988</ele>
        <time>2018-05-19T14:57:19Z</time>
      </trkpt>
      <trkpt lat="45.80603" lon="2.93552">
        <ele>988</ele>
        <time>2018-05-19T14:57:21Z</time>
      </trkpt>
      <trkpt lat="45.806" lon="2.93542">
        <ele>988</ele>
        <time>2018-05-19T14:57:23Z</time>
      </trkpt>
      <trkpt lat="45.80596" lon="2.93532">
        <ele>989</ele>
        <time>2018-05-19T14:57:25Z</time>
      </trkpt>
      <trkpt lat="45.80592" lon="2.93522">
        <ele>988</ele>
        <time>2018-05-19T14:57:27Z</time>
      </trkpt>
      <trkpt lat="45.80588" lon="2.93512">
        <ele>989</ele>
        <time>2018-05-19T14:57:29Z</time>
      </trkpt>
      <trkpt lat="45.80585" lon="2.93502">
        <ele>989</ele>
        <time>2018-05-19T14:57:31Z</time>
      </trkpt>
      <trkpt lat="45.80581" lon="2.93493">
        <ele>989</ele>
        <time>2018-05-19T14:57:33Z</time>
      </trkpt>
      <trkpt lat="45.80577" lon="2.93484">
        <ele>992</ele>
        <time>2018-05-19T14:57:35Z</time>
      </trkpt>
      <trkpt lat="45.80571" lon="2.93475">
        <ele>991</ele>
        <time>2018-05-19T14:57:37Z</time>
      </trkpt>
      <trkpt lat="45.80563" lon="2.93467">
        <ele>992</ele>
        <time>2018-05-19T14:57:39Z</time>
      </trkpt>
      <trkpt lat="45.80555" lon="2.93459">
        <ele>991</ele>
        <time>2018-05-19T14:57:41Z</time>
      </trkpt>
      <trkpt lat="45.80546" lon="2.9345">
        <ele>991</ele>
        <time>2018-05-19T14:57:43Z</time>
      </trkpt>
      <trkpt lat="45.80537" lon="2.93444">
        <ele>990</ele>
        <time>2018-05-19T14:57:45Z</time>
      </trkpt>
      <trkpt lat="45.80528" lon="2.9344">
        <ele>991</ele>
        <time>2018-05-19T14:57:47Z</time>
      </trkpt>
      <trkpt lat="45.8052" lon="2.93436">
        <ele>991</ele>
        <time>2018-05-19T14:57:49Z</time>
      </trkpt>
      <trkpt lat="45.80514" lon="2.93432">
        <ele>990</ele>
        <time>2018-05-19T14:57:51Z</time>
      </trkpt>
      <trkpt lat="45.80507" lon="2.9343">
        <ele>991</ele>
        <time>2018-05-19T14:57:53Z</time>
      </trkpt>
      <trkpt lat="45.80502" lon="2.93429">
        <ele>993</ele>
        <time>2018-05-19T14:57:55Z</time>
      </trkpt>
      <trkpt lat="45.80497" lon="2.9343">
        <ele>995</ele>
        <time>2018-05-19T14:57:57Z</time>
      </trkpt>
      <trkpt lat="45.80492" lon="2.93432">
        <ele>996</ele>
        <time>2018-05-19T14:57:59Z</time>
      </trkpt>
      <trkpt lat="45.80487" lon="2.93433">
        <ele>998</ele>
        <time>2018-05-19T14:58:01Z</time>
      </trkpt>
      <trkpt lat="45.80479" lon="2.9344">
        <ele>1000</ele>
        <time>2018-05-19T14:58:05Z</time>
      </trkpt>
      <trkpt lat="45.80477" lon="2.93447">
        <ele>1001</ele>
        <time>2018-05-19T14:58:07Z</time>
      </trkpt>
      <trkpt lat="45.80475" lon="2.93454">
        <ele>1001</ele>
        <time>2018-05-19T14:58:09Z</time>
      </trkpt>
      <trkpt lat="45.80471" lon="2.93458">
        <ele>1003</ele>
        <time>2018-05-19T14:58:11Z</time>
      </trkpt>
      <trkpt lat="45.8047" lon="2.93467">
        <ele>1004</ele>
        <time>2018-05-19T14:58:13Z</time>
      </trkpt>
      <trkpt lat="45.80468" lon="2.93475">
        <ele>1004</ele>
        <time>2018-05-19T14:58:15Z</time>
      </trkpt>
      <trkpt lat="45.80467" lon="2.93483">
        <ele>1005</ele>
        <time>2018-05-19T14:58:17Z</time>
      </trkpt>
      <trkpt lat="45.80466" lon="2.9349">
        <ele>1007</ele>
        <time>2018-05-19T14:58:19Z</time>
      </trkpt>
      <trkpt lat="45.80464" lon="2.93497">
        <ele>1007</ele>
        <time>2018-05-19T14:58:21Z</time>
      </trkpt>
      <trkpt lat="45.80462" lon="2.93504">
        <ele>1007</ele>
        <time>2018-05-19T14:58:23Z</time>
      </trkpt>
      <trkpt lat="45.80458" lon="2.93512">
        <ele>1006</ele>
        <time>2018-05-19T14:58:25Z</time>
      </trkpt>
      <trkpt lat="45.80454" lon="2.93519">
        <ele>1007</ele>
        <time>2018-05-19T14:58:27Z</time>
      </trkpt>
      <trkpt lat="45.8045" lon="2.93525">
        <ele>1007</ele>
        <time>2018-05-19T14:58:29Z</time>
      </trkpt>
      <trkpt lat="45.80446" lon="2.9353">
        <ele>1005</ele>
        <time>2018-05-19T14:58:31Z</time>
      </trkpt>
      <trkpt lat="45.80442" lon="2.93537">
        <ele>1006</ele>
        <time>2018-05-19T14:58:33Z</time>
      </trkpt>
      <trkpt lat="45.80438" lon="2.93542">
        <ele>1006</ele>
        <time>2018-05-19T14:58:35Z</time>
      </trkpt>
      <trkpt lat="45.80434" lon="2.93545">
        <ele>1009</ele>
        <time>2018-05-19T14:58:37Z</time>
      </trkpt>
      <trkpt lat="45.80428" lon="2.93548">
        <ele>1010</ele>
        <time>2018-05-19T14:58:39Z</time>
      </trkpt>
      <trkpt lat="45.80423" lon="2.93549">
        <ele>1009</ele>
        <time>2018-05-19T14:58:41Z</time>
      </trkpt>
      <trkpt lat="45.80416" lon="2.9355">
        <ele>1008</ele>
        <time>2018-05-19T14:58:43Z</time>
      </trkpt>
      <trkpt lat="45.80409" lon="2.93548">
        <ele>1007</ele>
        <time>2018-05-19T14:58:45Z</time>
      </trkpt>
      <trkpt lat="45.80403" lon="2.93544">
        <ele>1006</ele>
        <time>2018-05-19T14:58:47Z</time>
      </trkpt>
      <trkpt lat="45.80398" lon="2.93541">
        <ele>1006</ele>
        <time>2018-05-19T14:58:49Z</time>
      </trkpt>
      <trkpt lat="45.80392" lon="2.93536">
        <ele>1005</ele>
        <time>2018-05-19T14:58:51Z</time>
      </trkpt>
      <trkpt lat="45.80388" lon="2.93533">
        <ele>1004</ele>
        <time>2018-05-19T14:58:53Z</time>
      </trkpt>
      <trkpt lat="45.80383" lon="2.93528">
        <ele>1004</ele>
        <time>2018-05-19T14:58:55Z</time>
      </trkpt>
      <trkpt lat="45.80378" lon="2.93523">
        <ele>1004</ele>
        <time>2018-05-19T14:58:57Z</time>
      </trkpt>
      <trkpt lat="45.80373" lon="2.93519">
        <ele>1003</ele>
        <time>2018-05-19T14:58:59Z</time>
      </trkpt>
      <trkpt lat="45.80368" lon="2.93514">
        <ele>1002</ele>
        <time>2018-05-19T14:59:01Z</time>
      </trkpt>
      <trkpt lat="45.80362" lon="2.93509">
        <ele>1002</ele>
        <time>2018-05-19T14:59:03Z</time>
      </trkpt>
      <trkpt lat="45.80357" lon="2.93503">
        <ele>1002</ele>
        <time>2018-05-19T14:59:05Z</time>
      </trkpt>
      <trkpt lat="45.80352" lon="2.93498">
        <ele>1002</ele>
        <time>2018-05-19T14:59:07Z</time>
      </trkpt>
      <trkpt lat="45.80346" lon="2.93493">
        <ele>1002</ele>
        <time>2018-05-19T14:59:09Z</time>
      </trkpt>
      <trkpt lat="45.8034" lon="2.93486">
        <ele>1002</ele>
        <time>2018-05-19T14:59:11Z</time>
      </trkpt>
      <trkpt lat="45.80335" lon="2.93481">
        <ele>1002</ele>
        <time>2018-05-19T14:59:13Z</time>
      </trkpt>
      <trkpt lat="45.8033" lon="2.93475">
        <ele>1002</ele>
        <time>2018-05-19T14:59:15Z</time>
      </trkpt>
      <trkpt lat="45.80324" lon="2.9347">
        <ele>1002</ele>
        <time>2018-05-19T14:59:17Z</time>
      </trkpt>
      <trkpt lat="45.80319" lon="2.93467">
        <ele>1002</ele>
        <time>2018-05-19T14:59:19Z</time>
      </trkpt>
      <trkpt lat="45.80313" lon="2.93463">
        <ele>1002</ele>
        <time>2018-05-19T14:59:21Z</time>
      </trkpt>
      <trkpt lat="45.80307" lon="2.9346">
        <ele>1002</ele>
        <time>2018-05-19T14:59:23Z</time>
      </trkpt>
      <trkpt lat="45.80301" lon="2.93455">
        <ele>1002</ele>
        <time>2018-05-19T14:59:25Z</time>
      </trkpt>
      <trkpt lat="45.80295" lon="2.93452">
        <ele>1002</ele>
        <time>2018-05-19T14:59:27Z</time>
      </trkpt>
      <trkpt lat="45.80288" lon="2.93447">
        <ele>1002</ele>
        <time>2018-05-19T14:59:29Z</time>
      </trkpt>
      <trkpt lat="45.80282" lon="2.93444">
        <ele>1001</ele>
        <time>2018-05-19T14:59:31Z</time>
      </trkpt>
      <trkpt lat="45.80276" lon="2.93441">
        <ele>1000</ele>
        <time>2018-05-19T14:59:33Z</time>
      </trkpt>
      <trkpt lat="45.8027" lon="2.93438">
        <ele>999</ele>
        <time>2018-05-19T14:59:35Z</time>
      </trkpt>
      <trkpt lat="45.80264" lon="2.93434">
        <ele>998</ele>
        <time>2018-05-19T14:59:37Z</time>
      </trkpt>
      <trkpt lat="45.80258" lon="2.93431">
        <ele>998</ele>
        <time>2018-05-19T14:59:39Z</time>
      </trkpt>
      <trkpt lat="45.80251" lon="2.93429">
        <ele>998</ele>
        <time>2018-05-19T14:59:41Z</time>
      </trkpt>
      <trkpt lat="45.80244" lon="2.93425">
        <ele>999</ele>
        <time>2018-05-19T14:59:43Z</time>
      </trkpt>
      <trkpt lat="45.80238" lon="2.93421">
        <ele>1000</ele>
        <time>2018-05-19T14:59:45Z</time>
      </trkpt>
      <trkpt lat="45.80232" lon="2.93417">
        <ele>1000</ele>
        <time>2018-05-19T14:59:47Z</time>
      </trkpt>
      <trkpt lat="45.80225" lon="2.93413">
        <ele>1001</ele>
        <time>2018-05-19T14:59:49Z</time>
      </trkpt>
      <trkpt lat="45.80219" lon="2.93409">
        <ele>1001</ele>
        <time>2018-05-19T14:59:51Z</time>
      </trkpt>
      <trkpt lat="45.80212" lon="2.93405">
        <ele>1002</ele>
        <time>2018-05-19T14:59:53Z</time>
      </trkpt>
      <trkpt lat="45.80205" lon="2.93401">
        <ele>1004</ele>
        <time>2018-05-19T14:59:55Z</time>
      </trkpt>
      <trkpt lat="45.80199" lon="2.93398">
        <ele>1005</ele>
        <time>2018-05-19T14:59:57Z</time>
      </trkpt>
      <trkpt lat="45.80192" lon="2.93394">
        <ele>1005</ele>
        <time>2018-05-19T14:59:59Z</time>
      </trkpt>
      <trkpt lat="45.80186" lon="2.9339">
        <ele>1003</ele>
        <time>2018-05-19T15:00:01Z</time>
      </trkpt>
      <trkpt lat="45.8018" lon="2.93386">
        <ele>1004</ele>
        <time>2018-05-19T15:00:03Z</time>
      </trkpt>
      <trkpt lat="45.80174" lon="2.9338">
        <ele>1004</ele>
        <time>2018-05-19T15:00:05Z</time>
      </trkpt>
      <trkpt lat="45.80168" lon="2.93375">
        <ele>1005</ele>
        <time>2018-05-19T15:00:07Z</time>
      </trkpt>
      <trkpt lat="45.80161" lon="2.93368">
        <ele>1007</ele>
        <time>2018-05-19T15:00:09Z</time>
      </trkpt>
      <trkpt lat="45.80155" lon="2.9336">
        <ele>1008</ele>
        <time>2018-05-19T15:00:11Z</time>
      </trkpt>
      <trkpt lat="45.80149" lon="2.93354">
        <ele>1008</ele>
        <time>2018-05-19T15:00:13Z</time>
      </trkpt>
      <trkpt lat="45.80144" lon="2.93347">
        <ele>1008</ele>
        <time>2018-05-19T15:00:15Z</time>
      </trkpt>
      <trkpt lat="45.80137" lon="2.9334">
        <ele>1008</ele>
        <time>2018-05-19T15:00:17Z</time>
      </trkpt>
      <trkpt lat="45.80131" lon="2.93332">
        <ele>1009</ele>
        <time>2018-05-19T15:00:19Z</time>
      </trkpt>
      <trkpt lat="45.80126" lon="2.93325">
        <ele>1011</ele>
        <time>2018-05-19T15:00:21Z</time>
      </trkpt>
      <trkpt lat="45.80121" lon="2.9332">
        <ele>1011</ele>
        <time>2018-05-19T15:00:23Z</time>
      </trkpt>
      <trkpt lat="45.80117" lon="2.93313">
        <ele>1013</ele>
        <time>2018-05-19T15:00:25Z</time>
      </trkpt>
      <trkpt lat="45.80111" lon="2.93305">
        <ele>1013</ele>
        <time>2018-05-19T15:00:27Z</time>
      </trkpt>
      <trkpt lat="45.80105" lon="2.93291">
        <ele>1015</ele>
        <time>2018-05-19T15:00:31Z</time>
      </trkpt>
      <trkpt lat="45.801" lon="2.93285">
        <ele>1017</ele>
        <time>2018-05-19T15:00:33Z</time>
      </trkpt>
      <trkpt lat="45.80095" lon="2.93276">
        <ele>1017</ele>
        <time>2018-05-19T15:00:35Z</time>
      </trkpt>
      <trkpt lat="45.80089" lon="2.93268">
        <ele>1017</ele>
        <time>2018-05-19T15:00:37Z</time>
      </trkpt>
      <trkpt lat="45.80082" lon="2.93258">
        <ele>1017</ele>
        <time>2018-05-19T15:00:39Z</time>
      </trkpt>
      <trkpt lat="45.80077" lon="2.93249">
        <ele>1018</ele>
        <time>2018-05-19T15:00:41Z</time>
      </trkpt>
      <trkpt lat="45.80072" lon="2.93242">
        <ele>1019</ele>
        <time>2018-05-19T15:00:43Z</time>
      </trkpt>
      <trkpt lat="45.80067" lon="2.93234">
        <ele>1021</ele>
        <time>2018-05-19T15:00:45Z</time>
      </trkpt>
      <trkpt lat="45.80061" lon="2.93228">
        <ele>1021</ele>
        <time>2018-05-19T15:00:47Z</time>
      </trkpt>
      <trkpt lat="45.80055" lon="2.93219">
        <ele>1019</ele>
        <time>2018-05-19T15:00:49Z</time>
      </trkpt>
      <trkpt lat="45.80051" lon="2.93213">
        <ele>1020</ele>
        <time>2018-05-19T15:00:51Z</time>
      </trkpt>
      <trkpt lat="45.80047" lon="2.93205">
        <ele>1020</ele>
        <time>2018-05-19T15:00:53Z</time>
      </trkpt>
      <trkpt lat="45.80042" lon="2.93197">
        <ele>1021</ele>
        <time>2018-05-19T15:00:55Z</time>
      </trkpt>
      <trkpt lat="45.80037" lon="2.93189">
        <ele>1021</ele>
        <time>2018-05-19T15:00:57Z</time>
      </trkpt>
      <trkpt lat="45.80034" lon="2.93181">
        <ele>1022</ele>
        <time>2018-05-19T15:00:59Z</time>
      </trkpt>
      <trkpt lat="45.80029" lon="2.93173">
        <ele>1021</ele>
        <time>2018-05-19T15:01:01Z</time>
      </trkpt>
      <trkpt lat="45.80023" lon="2.93166">
        <ele>1021</ele>
        <time>2018-05-19T15:01:03Z</time>
      </trkpt>
      <trkpt lat="45.80017" lon="2.9316">
        <ele>1020</ele>
        <time>2018-05-19T15:01:05Z</time>
      </trkpt>
      <trkpt lat="45.80013" lon="2.93154">
        <ele>1021</ele>
        <time>2018-05-19T15:01:07Z</time>
      </trkpt>
      <trkpt lat="45.80009" lon="2.93148">
        <ele>1022</ele>
        <time>2018-05-19T15:01:09Z</time>
      </trkpt>
      <trkpt lat="45.80005" lon="2.93142">
        <ele>1023</ele>
        <time>2018-05-19T15:01:11Z</time>
      </trkpt>
      <trkpt lat="45.8" lon="2.93137">
        <ele>1023</ele>
        <time>2018-05-19T15:01:13Z</time>
      </trkpt>
      <trkpt lat="45.79996" lon="2.93132">
        <ele>1024</ele>
        <time>2018-05-19T15:01:15Z</time>
      </trkpt>
      <trkpt lat="45.79992" lon="2.93126">
        <ele>1023</ele>
        <time>2018-05-19T15:01:17Z</time>
      </trkpt>
      <trkpt lat="45.79986" lon="2.93119">
        <ele>1024</ele>
        <time>2018-05-19T15:01:19Z</time>
      </trkpt>
      <trkpt lat="45.7998" lon="2.93109">
        <ele>1024</ele>
        <time>2018-05-19T15:01:21Z</time>
      </trkpt>
      <trkpt lat="45.79976" lon="2.93101">
        <ele>1023</ele>
        <time>2018-05-19T15:01:23Z</time>
      </trkpt>
      <trkpt lat="45.7997" lon="2.93094">
        <ele>1025</ele>
        <time>2018-05-19T15:01:25Z</time>
      </trkpt>
      <trkpt lat="45.79966" lon="2.93088">
        <ele>1026</ele>
        <time>2018-05-19T15:01:27Z</time>
      </trkpt>
      <trkpt lat="45.79959" lon="2.93078">
        <ele>1029</ele>
        <time>2018-05-19T15:01:31Z</time>
      </trkpt>
      <trkpt lat="45.79954" lon="2.9307">
        <ele>1028</ele>
        <time>2018-05-19T15:01:33Z</time>
      </trkpt>
      <trkpt lat="45.79948" lon="2.93063">
        <ele>1026</ele>
        <time>2018-05-19T15:01:35Z</time>
      </trkpt>
      <trkpt lat="45.79941" lon="2.93055">
        <ele>1025</ele>
        <time>2018-05-19T15:01:37Z</time>
      </trkpt>
      <trkpt lat="45.79933" lon="2.93048">
        <ele>1024</ele>
        <time>2018-05-19T15:01:39Z</time>
      </trkpt>
      <trkpt lat="45.79925" lon="2.9304">
        <ele>1023</ele>
        <time>2018-05-19T15:01:41Z</time>
      </trkpt>
      <trkpt lat="45.79917" lon="2.93031">
        <ele>1023</ele>
        <time>2018-05-19T15:01:43Z</time>
      </trkpt>
      <trkpt lat="45.7991" lon="2.93021">
        <ele>1021</ele>
        <time>2018-05-19T15:01:45Z</time>
      </trkpt>
      <trkpt lat="45.79902" lon="2.93012">
        <ele>1021</ele>
        <time>2018-05-19T15:01:47Z</time>
      </trkpt>
      <trkpt lat="45.79899" lon="2.92997">
        <ele>1021</ele>
        <time>2018-05-19T15:01:49Z</time>
      </trkpt>
      <trkpt lat="45.79899" lon="2.92982">
        <ele>1021</ele>
        <time>2018-05-19T15:01:51Z</time>
      </trkpt>
      <trkpt lat="45.79902" lon="2.92968">
        <ele>1021</ele>
        <time>2018-05-19T15:01:53Z</time>
      </trkpt>
      <trkpt lat="45.79901" lon="2.9295">
        <ele>1020</ele>
        <time>2018-05-19T15:01:55Z</time>
      </trkpt>
      <trkpt lat="45.79899" lon="2.92928">
        <ele>1018</ele>
        <time>2018-05-19T15:01:57Z</time>
      </trkpt>
      <trkpt lat="45.79896" lon="2.92911">
        <ele>1019</ele>
        <time>2018-05-19T15:01:59Z</time>
      </trkpt>
      <trkpt lat="45.79899" lon="2.92898">
        <ele>1020</ele>
        <time>2018-05-19T15:02:01Z</time>
      </trkpt>
      <trkpt lat="45.79899" lon="2.92881">
        <ele>1019</ele>
        <time>2018-05-19T15:02:03Z</time>
      </trkpt>
      <trkpt lat="45.79901" lon="2.92864">
        <ele>1018</ele>
        <time>2018-05-19T15:02:05Z</time>
      </trkpt>
      <trkpt lat="45.79905" lon="2.92849">
        <ele>1020</ele>
        <time>2018-05-19T15:02:07Z</time>
      </trkpt>
      <trkpt lat="45.79908" lon="2.92831">
        <ele>1022</ele>
        <time>2018-05-19T15:02:09Z</time>
      </trkpt>
      <trkpt lat="45.79913" lon="2.92813">
        <ele>1023</ele>
        <time>2018-05-19T15:02:11Z</time>
      </trkpt>
      <trkpt lat="45.7992" lon="2.92796">
        <ele>1023</ele>
        <time>2018-05-19T15:02:13Z</time>
      </trkpt>
      <trkpt lat="45.79926" lon="2.92777">
        <ele>1021</ele>
        <time>2018-05-19T15:02:15Z</time>
      </trkpt>
      <trkpt lat="45.79934" lon="2.92761">
        <ele>1018</ele>
        <time>2018-05-19T15:02:17Z</time>
      </trkpt>
      <trkpt lat="45.79944" lon="2.92743">
        <ele>1016</ele>
        <time>2018-05-19T15:02:19Z</time>
      </trkpt>
      <trkpt lat="45.79955" lon="2.92723">
        <ele>1015</ele>
        <time>2018-05-19T15:02:21Z</time>
      </trkpt>
      <trkpt lat="45.7997" lon="2.92713">
        <ele>1014</ele>
        <time>2018-05-19T15:02:23Z</time>
      </trkpt>
      <trkpt lat="45.7998" lon="2.92702">
        <ele>1014</ele>
        <time>2018-05-19T15:02:25Z</time>
      </trkpt>
      <trkpt lat="45.79993" lon="2.92687">
        <ele>1013</ele>
        <time>2018-05-19T15:02:27Z</time>
      </trkpt>
      <trkpt lat="45.80003" lon="2.92676">
        <ele>1013</ele>
        <time>2018-05-19T15:02:29Z</time>
      </trkpt>
      <trkpt lat="45.80012" lon="2.92666">
        <ele>1013</ele>
        <time>2018-05-19T15:02:31Z</time>
      </trkpt>
      <trkpt lat="45.80019" lon="2.9266">
        <ele>1013</ele>
        <time>2018-05-19T15:02:33Z</time>
      </trkpt>
      <trkpt lat="45.80025" lon="2.92652">
        <ele>1013</ele>
        <time>2018-05-19T15:02:35Z</time>
      </trkpt>
      <trkpt lat="45.80033" lon="2.92644">
        <ele>1013</ele>
        <time>2018-05-19T15:02:37Z</time>
      </trkpt>
      <trkpt lat="45.8004" lon="2.9264">
        <ele>1013</ele>
        <time>2018-05-19T15:02:39Z</time>
      </trkpt>
      <trkpt lat="45.80048" lon="2.92636">
        <ele>1013</ele>
        <time>2018-05-19T15:02:41Z</time>
      </trkpt>
      <trkpt lat="45.80055" lon="2.92635">
        <ele>1012</ele>
        <time>2018-05-19T15:02:43Z</time>
      </trkpt>
      <trkpt lat="45.80061" lon="2.92626">
        <ele>1012</ele>
        <time>2018-05-19T15:02:45Z</time>
      </trkpt>
      <trkpt lat="45.8007" lon="2.92618">
        <ele>1013</ele>
        <time>2018-05-19T15:02:47Z</time>
      </trkpt>
      <trkpt lat="45.80077" lon="2.92605">
        <ele>1015</ele>
        <time>2018-05-19T15:02:49Z</time>
      </trkpt>
      <trkpt lat="45.80083" lon="2.92593">
        <ele>1016</ele>
        <time>2018-05-19T15:02:51Z</time>
      </trkpt>
      <trkpt lat="45.80087" lon="2.9258">
        <ele>1014</ele>
        <time>2018-05-19T15:02:53Z</time>
      </trkpt>
      <trkpt lat="45.80089" lon="2.92565">
        <ele>1012</ele>
        <time>2018-05-19T15:02:55Z</time>
      </trkpt>
      <trkpt lat="45.80089" lon="2.92546">
        <ele>1011</ele>
        <time>2018-05-19T15:02:57Z</time>
      </trkpt>
      <trkpt lat="45.80087" lon="2.92527">
        <ele>1010</ele>
        <time>2018-05-19T15:02:59Z</time>
      </trkpt>
      <trkpt lat="45.80086" lon="2.92509">
        <ele>1009</ele>
        <time>2018-05-19T15:03:01Z</time>
      </trkpt>
      <trkpt lat="45.80089" lon="2.92491">
        <ele>1008</ele>
        <time>2018-05-19T15:03:03Z</time>
      </trkpt>
      <trkpt lat="45.80089" lon="2.92473">
        <ele>1006</ele>
        <time>2018-05-19T15:03:05Z</time>
      </trkpt>
      <trkpt lat="45.80089" lon="2.92453">
        <ele>1004</ele>
        <time>2018-05-19T15:03:07Z</time>
      </trkpt>
      <trkpt lat="45.80087" lon="2.92434">
        <ele>1001</ele>
        <time>2018-05-19T15:03:09Z</time>
      </trkpt>
      <trkpt lat="45.80082" lon="2.92416">
        <ele>1000</ele>
        <time>2018-05-19T15:03:11Z</time>
      </trkpt>
      <trkpt lat="45.80077" lon="2.92401">
        <ele>999</ele>
        <time>2018-05-19T15:03:13Z</time>
      </trkpt>
      <trkpt lat="45.80069" lon="2.92385">
        <ele>998</ele>
        <time>2018-05-19T15:03:15Z</time>
      </trkpt>
      <trkpt lat="45.80059" lon="2.92366">
        <ele>996</ele>
        <time>2018-05-19T15:03:17Z</time>
      </trkpt>
      <trkpt lat="45.80051" lon="2.92349">
        <ele>997</ele>
        <time>2018-05-19T15:03:19Z</time>
      </trkpt>
      <trkpt lat="45.80045" lon="2.9233">
        <ele>997</ele>
        <time>2018-05-19T15:03:21Z</time>
      </trkpt>
      <trkpt lat="45.80039" lon="2.92308">
        <ele>995</ele>
        <time>2018-05-19T15:03:23Z</time>
      </trkpt>
      <trkpt lat="45.80039" lon="2.92286">
        <ele>994</ele>
        <time>2018-05-19T15:03:25Z</time>
      </trkpt>
      <trkpt lat="45.80041" lon="2.92263">
        <ele>993</ele>
        <time>2018-05-19T15:03:27Z</time>
      </trkpt>
      <trkpt lat="45.8004" lon="2.92238">
        <ele>992</ele>
        <time>2018-05-19T15:03:29Z</time>
      </trkpt>
      <trkpt lat="45.80041" lon="2.92212">
        <ele>991</ele>
        <time>2018-05-19T15:03:31Z</time>
      </trkpt>
      <trkpt lat="45.80043" lon="2.9219">
        <ele>989</ele>
        <time>2018-05-19T15:03:33Z</time>
      </trkpt>
      <trkpt lat="45.80048" lon="2.92169">
        <ele>987</ele>
        <time>2018-05-19T15:03:35Z</time>
      </trkpt>
      <trkpt lat="45.80056" lon="2.92148">
        <ele>986</ele>
        <time>2018-05-19T15:03:37Z</time>
      </trkpt>
      <trkpt lat="45.80065" lon="2.92129">
        <ele>984</ele>
        <time>2018-05-19T15:03:39Z</time>
      </trkpt>
      <trkpt lat="45.80077" lon="2.92108">
        <ele>982</ele>
        <time>2018-05-19T15:03:41Z</time>
      </trkpt>
      <trkpt lat="45.8009" lon="2.92089">
        <ele>980</ele>
        <time>2018-05-19T15:03:43Z</time>
      </trkpt>
      <trkpt lat="45.80104" lon="2.9207">
        <ele>979</ele>
        <time>2018-05-19T15:03:45Z</time>
      </trkpt>
      <trkpt lat="45.80117" lon="2.92052">
        <ele>979</ele>
        <time>2018-05-19T15:03:47Z</time>
      </trkpt>
      <trkpt lat="45.8013" lon="2.9204">
        <ele>980</ele>
        <time>2018-05-19T15:03:49Z</time>
      </trkpt>
      <trkpt lat="45.80141" lon="2.9203">
        <ele>981</ele>
        <time>2018-05-19T15:03:51Z</time>
      </trkpt>
      <trkpt lat="45.80149" lon="2.92018">
        <ele>980</ele>
        <time>2018-05-19T15:03:53Z</time>
      </trkpt>
      <trkpt lat="45.80154" lon="2.92005">
        <ele>978</ele>
        <time>2018-05-19T15:03:55Z</time>
      </trkpt>
      <trkpt lat="45.80158" lon="2.91991">
        <ele>978</ele>
        <time>2018-05-19T15:03:57Z</time>
      </trkpt>
      <trkpt lat="45.80159" lon="2.91979">
        <ele>978</ele>
        <time>2018-05-19T15:03:59Z</time>
      </trkpt>
      <trkpt lat="45.80162" lon="2.91963">
        <ele>978</ele>
        <time>2018-05-19T15:04:01Z</time>
      </trkpt>
      <trkpt lat="45.80165" lon="2.91949">
        <ele>978</ele>
        <time>2018-05-19T15:04:03Z</time>
      </trkpt>
      <trkpt lat="45.80165" lon="2.91936">
        <ele>977</ele>
        <time>2018-05-19T15:04:05Z</time>
      </trkpt>
      <trkpt lat="45.80167" lon="2.91927">
        <ele>976</ele>
        <time>2018-05-19T15:04:07Z</time>
      </trkpt>
      <trkpt lat="45.80166" lon="2.91915">
        <ele>975</ele>
        <time>2018-05-19T15:04:09Z</time>
      </trkpt>
      <trkpt lat="45.80166" lon="2.91903">
        <ele>976</ele>
        <time>2018-05-19T15:04:11Z</time>
      </trkpt>
      <trkpt lat="45.80165" lon="2.9189">
        <ele>977</ele>
        <time>2018-05-19T15:04:13Z</time>
      </trkpt>
      <trkpt lat="45.80164" lon="2.91878">
        <ele>977</ele>
        <time>2018-05-19T15:04:15Z</time>
      </trkpt>
      <trkpt lat="45.80164" lon="2.91866">
        <ele>976</ele>
        <time>2018-05-19T15:04:17Z</time>
      </trkpt>
      <trkpt lat="45.80164" lon="2.9185">
        <ele>976</ele>
        <time>2018-05-19T15:04:19Z</time>
      </trkpt>
      <trkpt lat="45.80166" lon="2.91836">
        <ele>977</ele>
        <time>2018-05-19T15:04:21Z</time>
      </trkpt>
      <trkpt lat="45.8017" lon="2.91823">
        <ele>977</ele>
        <time>2018-05-19T15:04:23Z</time>
      </trkpt>
      <trkpt lat="45.80174" lon="2.91813">
        <ele>977</ele>
        <time>2018-05-19T15:04:25Z</time>
      </trkpt>
      <trkpt lat="45.80178" lon="2.91803">
        <ele>978</ele>
        <time>2018-05-19T15:04:27Z</time>
      </trkpt>
      <trkpt lat="45.80183" lon="2.91794">
        <ele>979</ele>
        <time>2018-05-19T15:04:29Z</time>
      </trkpt>
      <trkpt lat="45.80185" lon="2.91785">
        <ele>981</ele>
        <time>2018-05-19T15:04:31Z</time>
      </trkpt>
      <trkpt lat="45.80186" lon="2.91774">
        <ele>980</ele>
        <time>2018-05-19T15:04:33Z</time>
      </trkpt>
      <trkpt lat="45.80187" lon="2.9176">
        <ele>979</ele>
        <time>2018-05-19T15:04:35Z</time>
      </trkpt>
      <trkpt lat="45.80189" lon="2.91749">
        <ele>978</ele>
        <time>2018-05-19T15:04:37Z</time>
      </trkpt>
      <trkpt lat="45.80196" lon="2.91735">
        <ele>978</ele>
        <time>2018-05-19T15:04:39Z</time>
      </trkpt>
      <trkpt lat="45.80203" lon="2.91721">
        <ele>977</ele>
        <time>2018-05-19T15:04:41Z</time>
      </trkpt>
      <trkpt lat="45.80209" lon="2.91703">
        <ele>976</ele>
        <time>2018-05-19T15:04:43Z</time>
      </trkpt>
      <trkpt lat="45.80209" lon="2.91683">
        <ele>973</ele>
        <time>2018-05-19T15:04:45Z</time>
      </trkpt>
      <trkpt lat="45.80209" lon="2.91664">
        <ele>972</ele>
        <time>2018-05-19T15:04:47Z</time>
      </trkpt>
      <trkpt lat="45.8021" lon="2.91648">
        <ele>971</ele>
        <time>2018-05-19T15:04:49Z</time>
      </trkpt>
      <trkpt lat="45.80211" lon="2.91631">
        <ele>971</ele>
        <time>2018-05-19T15:04:51Z</time>
      </trkpt>
      <trkpt lat="45.80216" lon="2.91616">
        <ele>972</ele>
        <time>2018-05-19T15:04:53Z</time>
      </trkpt>
      <trkpt lat="45.80221" lon="2.91603">
        <ele>971</ele>
        <time>2018-05-19T15:04:55Z</time>
      </trkpt>
      <trkpt lat="45.80225" lon="2.91587">
        <ele>971</ele>
        <time>2018-05-19T15:04:57Z</time>
      </trkpt>
      <trkpt lat="45.80233" lon="2.91576">
        <ele>970</ele>
        <time>2018-05-19T15:04:59Z</time>
      </trkpt>
      <trkpt lat="45.80243" lon="2.91569">
        <ele>969</ele>
        <time>2018-05-19T15:05:01Z</time>
      </trkpt>
      <trkpt lat="45.80254" lon="2.91563">
        <ele>968</ele>
        <time>2018-05-19T15:05:03Z</time>
      </trkpt>
      <trkpt lat="45.80265" lon="2.9156">
        <ele>967</ele>
        <time>2018-05-19T15:05:05Z</time>
      </trkpt>
      <trkpt lat="45.8028" lon="2.91556">
        <ele>967</ele>
        <time>2018-05-19T15:05:07Z</time>
      </trkpt>
      <trkpt lat="45.80293" lon="2.91554">
        <ele>967</ele>
        <time>2018-05-19T15:05:09Z</time>
      </trkpt>
      <trkpt lat="45.80305" lon="2.91552">
        <ele>969</ele>
        <time>2018-05-19T15:05:11Z</time>
      </trkpt>
      <trkpt lat="45.80318" lon="2.91552">
        <ele>968</ele>
        <time>2018-05-19T15:05:13Z</time>
      </trkpt>
      <trkpt lat="45.8033" lon="2.91551">
        <ele>968</ele>
        <time>2018-05-19T15:05:15Z</time>
      </trkpt>
      <trkpt lat="45.80344" lon="2.91555">
        <ele>967</ele>
        <time>2018-05-19T15:05:17Z</time>
      </trkpt>
      <trkpt lat="45.80356" lon="2.91558">
        <ele>966</ele>
        <time>2018-05-19T15:05:19Z</time>
      </trkpt>
      <trkpt lat="45.80369" lon="2.91565">
        <ele>963</ele>
        <time>2018-05-19T15:05:21Z</time>
      </trkpt>
      <trkpt lat="45.80381" lon="2.91569">
        <ele>962</ele>
        <time>2018-05-19T15:05:23Z</time>
      </trkpt>
      <trkpt lat="45.80394" lon="2.91572">
        <ele>963</ele>
        <time>2018-05-19T15:05:25Z</time>
      </trkpt>
      <trkpt lat="45.80406" lon="2.91575">
        <ele>962</ele>
        <time>2018-05-19T15:05:27Z</time>
      </trkpt>
      <trkpt lat="45.80418" lon="2.91576">
        <ele>964</ele>
        <time>2018-05-19T15:05:29Z</time>
      </trkpt>
      <trkpt lat="45.80429" lon="2.91578">
        <ele>963</ele>
        <time>2018-05-19T15:05:31Z</time>
      </trkpt>
      <trkpt lat="45.8044" lon="2.91583">
        <ele>962</ele>
        <time>2018-05-19T15:05:33Z</time>
      </trkpt>
      <trkpt lat="45.80449" lon="2.91584">
        <ele>963</ele>
        <time>2018-05-19T15:05:35Z</time>
      </trkpt>
      <trkpt lat="45.8046" lon="2.91588">
        <ele>963</ele>
        <time>2018-05-19T15:05:37Z</time>
      </trkpt>
      <trkpt lat="45.80472" lon="2.91596">
        <ele>962</ele>
        <time>2018-05-19T15:05:39Z</time>
      </trkpt>
      <trkpt lat="45.80481" lon="2.91607">
        <ele>960</ele>
        <time>2018-05-19T15:05:41Z</time>
      </trkpt>
      <trkpt lat="45.80489" lon="2.91612">
        <ele>960</ele>
        <time>2018-05-19T15:05:43Z</time>
      </trkpt>
      <trkpt lat="45.80496" lon="2.91621">
        <ele>960</ele>
        <time>2018-05-19T15:05:45Z</time>
      </trkpt>
      <trkpt lat="45.80504" lon="2.91626">
        <ele>959</ele>
        <time>2018-05-19T15:05:47Z</time>
      </trkpt>
      <trkpt lat="45.80513" lon="2.91625">
        <ele>959</ele>
        <time>2018-05-19T15:05:49Z</time>
      </trkpt>
      <trkpt lat="45.80521" lon="2.91619">
        <ele>959</ele>
        <time>2018-05-19T15:05:51Z</time>
      </trkpt>
      <trkpt lat="45.80527" lon="2.91611">
        <ele>959</ele>
        <time>2018-05-19T15:05:53Z</time>
      </trkpt>
      <trkpt lat="45.8053" lon="2.91601">
        <ele>958</ele>
        <time>2018-05-19T15:05:55Z</time>
      </trkpt>
      <trkpt lat="45.80532" lon="2.91594">
        <ele>959</ele>
        <time>2018-05-19T15:05:57Z</time>
      </trkpt>
      <trkpt lat="45.80535" lon="2.91589">
        <ele>958</ele>
        <time>2018-05-19T15:05:59Z</time>
      </trkpt>
      <trkpt lat="45.80538" lon="2.91583">
        <ele>956</ele>
        <time>2018-05-19T15:06:05Z</time>
      </trkpt>
      <trkpt lat="45.80542" lon="2.91578">
        <ele>956</ele>
        <time>2018-05-19T15:06:13Z</time>
      </trkpt>
      <trkpt lat="45.80547" lon="2.91567">
        <ele>956</ele>
        <time>2018-05-19T15:06:17Z</time>
      </trkpt>
      <trkpt lat="45.80551" lon="2.9156">
        <ele>955</ele>
        <time>2018-05-19T15:06:19Z</time>
      </trkpt>
      <trkpt lat="45.80554" lon="2.91552">
        <ele>956</ele>
        <time>2018-05-19T15:06:21Z</time>
      </trkpt>
      <trkpt lat="45.8056" lon="2.91545">
        <ele>956</ele>
        <time>2018-05-19T15:06:23Z</time>
      </trkpt>
      <trkpt lat="45.80566" lon="2.91534">
        <ele>958</ele>
        <time>2018-05-19T15:06:25Z</time>
      </trkpt>
      <trkpt lat="45.80572" lon="2.91526">
        <ele>959</ele>
        <time>2018-05-19T15:06:27Z</time>
      </trkpt>
      <trkpt lat="45.80578" lon="2.91517">
        <ele>959</ele>
        <time>2018-05-19T15:06:29Z</time>
      </trkpt>
      <trkpt lat="45.80585" lon="2.91509">
        <ele>959</ele>
        <time>2018-05-19T15:06:31Z</time>
      </trkpt>
      <trkpt lat="45.80591" lon="2.91502">
        <ele>959</ele>
        <time>2018-05-19T15:06:33Z</time>
      </trkpt>
      <trkpt lat="45.80598" lon="2.91495">
        <ele>959</ele>
        <time>2018-05-19T15:06:35Z</time>
      </trkpt>
      <trkpt lat="45.80605" lon="2.91489">
        <ele>958</ele>
        <time>2018-05-19T15:06:37Z</time>
      </trkpt>
      <trkpt lat="45.80614" lon="2.91487">
        <ele>956</ele>
        <time>2018-05-19T15:06:39Z</time>
      </trkpt>
      <trkpt lat="45.80622" lon="2.9148">
        <ele>957</ele>
        <time>2018-05-19T15:06:41Z</time>
      </trkpt>
      <trkpt lat="45.80628" lon="2.91471">
        <ele>956</ele>
        <time>2018-05-19T15:06:43Z</time>
      </trkpt>
      <trkpt lat="45.80635" lon="2.91465">
        <ele>955</ele>
        <time>2018-05-19T15:06:45Z</time>
      </trkpt>
      <trkpt lat="45.80642" lon="2.91458">
        <ele>955</ele>
        <time>2018-05-19T15:06:47Z</time>
      </trkpt>
      <trkpt lat="45.80649" lon="2.91452">
        <ele>954</ele>
        <time>2018-05-19T15:06:49Z</time>
      </trkpt>
      <trkpt lat="45.80655" lon="2.91444">
        <ele>954</ele>
        <time>2018-05-19T15:06:51Z</time>
      </trkpt>
      <trkpt lat="45.80662" lon="2.91435">
        <ele>952</ele>
        <time>2018-05-19T15:06:53Z</time>
      </trkpt>
      <trkpt lat="45.80669" lon="2.91426">
        <ele>953</ele>
        <time>2018-05-19T15:06:55Z</time>
      </trkpt>
      <trkpt lat="45.80677" lon="2.91416">
        <ele>952</ele>
        <time>2018-05-19T15:06:57Z</time>
      </trkpt>
      <trkpt lat="45.80683" lon="2.91406">
        <ele>952</ele>
        <time>2018-05-19T15:06:59Z</time>
      </trkpt>
      <trkpt lat="45.80689" lon="2.91396">
        <ele>950</ele>
        <time>2018-05-19T15:07:01Z</time>
      </trkpt>
      <trkpt lat="45.80697" lon="2.91386">
        <ele>948</ele>
        <time>2018-05-19T15:07:03Z</time>
      </trkpt>
      <trkpt lat="45.80702" lon="2.91372">
        <ele>947</ele>
        <time>2018-05-19T15:07:05Z</time>
      </trkpt>
      <trkpt lat="45.80708" lon="2.91356">
        <ele>947</ele>
        <time>2018-05-19T15:07:07Z</time>
      </trkpt>
      <trkpt lat="45.80714" lon="2.91342">
        <ele>948</ele>
        <time>2018-05-19T15:07:09Z</time>
      </trkpt>
      <trkpt lat="45.80719" lon="2.9133">
        <ele>948</ele>
        <time>2018-05-19T15:07:11Z</time>
      </trkpt>
      <trkpt lat="45.80723" lon="2.91319">
        <ele>949</ele>
        <time>2018-05-19T15:07:13Z</time>
      </trkpt>
      <trkpt lat="45.80727" lon="2.91312">
        <ele>950</ele>
        <time>2018-05-19T15:07:15Z</time>
      </trkpt>
      <trkpt lat="45.80732" lon="2.91305">
        <ele>951</ele>
        <time>2018-05-19T15:07:17Z</time>
      </trkpt>
      <trkpt lat="45.80736" lon="2.91298">
        <ele>952</ele>
        <time>2018-05-19T15:07:19Z</time>
      </trkpt>
      <trkpt lat="45.80741" lon="2.91293">
        <ele>952</ele>
        <time>2018-05-19T15:07:21Z</time>
      </trkpt>
      <trkpt lat="45.80748" lon="2.9129">
        <ele>952</ele>
        <time>2018-05-19T15:07:23Z</time>
      </trkpt>
      <trkpt lat="45.80755" lon="2.91283">
        <ele>952</ele>
        <time>2018-05-19T15:07:25Z</time>
      </trkpt>
      <trkpt lat="45.80761" lon="2.91276">
        <ele>952</ele>
        <time>2018-05-19T15:07:27Z</time>
      </trkpt>
      <trkpt lat="45.80768" lon="2.91269">
        <ele>949</ele>
        <time>2018-05-19T15:07:29Z</time>
      </trkpt>
      <trkpt lat="45.80774" lon="2.91259">
        <ele>948</ele>
        <time>2018-05-19T15:07:31Z</time>
      </trkpt>
      <trkpt lat="45.80779" lon="2.91246">
        <ele>946</ele>
        <time>2018-05-19T15:07:33Z</time>
      </trkpt>
      <trkpt lat="45.80785" lon="2.91237">
        <ele>945</ele>
        <time>2018-05-19T15:07:35Z</time>
      </trkpt>
      <trkpt lat="45.8079" lon="2.91228">
        <ele>945</ele>
        <time>2018-05-19T15:07:37Z</time>
      </trkpt>
      <trkpt lat="45.80796" lon="2.91217">
        <ele>943</ele>
        <time>2018-05-19T15:07:39Z</time>
      </trkpt>
      <trkpt lat="45.80801" lon="2.91206">
        <ele>942</ele>
        <time>2018-05-19T15:07:41Z</time>
      </trkpt>
      <trkpt lat="45.80807" lon="2.91194">
        <ele>942</ele>
        <time>2018-05-19T15:07:43Z</time>
      </trkpt>
      <trkpt lat="45.80812" lon="2.91178">
        <ele>942</ele>
        <time>2018-05-19T15:07:45Z</time>
      </trkpt>
      <trkpt lat="45.80814" lon="2.91165">
        <ele>942</ele>
        <time>2018-05-19T15:07:47Z</time>
      </trkpt>
      <trkpt lat="45.80815" lon="2.91152">
        <ele>942</ele>
        <time>2018-05-19T15:07:49Z</time>
      </trkpt>
      <trkpt lat="45.80813" lon="2.91141">
        <ele>941</ele>
        <time>2018-05-19T15:07:51Z</time>
      </trkpt>
      <trkpt lat="45.80811" lon="2.91131">
        <ele>942</ele>
        <time>2018-05-19T15:07:53Z</time>
      </trkpt>
      <trkpt lat="45.80809" lon="2.91121">
        <ele>942</ele>
        <time>2018-05-19T15:07:55Z</time>
      </trkpt>
      <trkpt lat="45.80809" lon="2.91112">
        <ele>942</ele>
        <time>2018-05-19T15:07:57Z</time>
      </trkpt>
      <trkpt lat="45.80808" lon="2.911">
        <ele>939</ele>
        <time>2018-05-19T15:07:59Z</time>
      </trkpt>
      <trkpt lat="45.80805" lon="2.91086">
        <ele>938</ele>
        <time>2018-05-19T15:08:01Z</time>
      </trkpt>
      <trkpt lat="45.80806" lon="2.91073">
        <ele>937</ele>
        <time>2018-05-19T15:08:03Z</time>
      </trkpt>
      <trkpt lat="45.80808" lon="2.91059">
        <ele>938</ele>
        <time>2018-05-19T15:08:05Z</time>
      </trkpt>
      <trkpt lat="45.80811" lon="2.91043">
        <ele>938</ele>
        <time>2018-05-19T15:08:07Z</time>
      </trkpt>
      <trkpt lat="45.80817" lon="2.9103">
        <ele>937</ele>
        <time>2018-05-19T15:08:09Z</time>
      </trkpt>
      <trkpt lat="45.80824" lon="2.91017">
        <ele>936</ele>
        <time>2018-05-19T15:08:11Z</time>
      </trkpt>
      <trkpt lat="45.80831" lon="2.91003">
        <ele>936</ele>
        <time>2018-05-19T15:08:13Z</time>
      </trkpt>
      <trkpt lat="45.80839" lon="2.90993">
        <ele>935</ele>
        <time>2018-05-19T15:08:15Z</time>
      </trkpt>
      <trkpt lat="45.80847" lon="2.90981">
        <ele>935</ele>
        <time>2018-05-19T15:08:17Z</time>
      </trkpt>
      <trkpt lat="45.80854" lon="2.90968">
        <ele>935</ele>
        <time>2018-05-19T15:08:19Z</time>
      </trkpt>
      <trkpt lat="45.8086" lon="2.90955">
        <ele>934</ele>
        <time>2018-05-19T15:08:21Z</time>
      </trkpt>
      <trkpt lat="45.80864" lon="2.90946">
        <ele>934</ele>
        <time>2018-05-19T15:08:23Z</time>
      </trkpt>
      <trkpt lat="45.80865" lon="2.90939">
        <ele>931</ele>
        <time>2018-05-19T15:08:25Z</time>
      </trkpt>
      <trkpt lat="45.80865" lon="2.90928">
        <ele>930</ele>
        <time>2018-05-19T15:08:27Z</time>
      </trkpt>
      <trkpt lat="45.80864" lon="2.90919">
        <ele>930</ele>
        <time>2018-05-19T15:08:29Z</time>
      </trkpt>
      <trkpt lat="45.80859" lon="2.90909">
        <ele>927</ele>
        <time>2018-05-19T15:08:31Z</time>
      </trkpt>
      <trkpt lat="45.80854" lon="2.90898">
        <ele>925</ele>
        <time>2018-05-19T15:08:33Z</time>
      </trkpt>
      <trkpt lat="45.8085" lon="2.90884">
        <ele>925</ele>
        <time>2018-05-19T15:08:35Z</time>
      </trkpt>
      <trkpt lat="45.80848" lon="2.9087">
        <ele>925</ele>
        <time>2018-05-19T15:08:37Z</time>
      </trkpt>
      <trkpt lat="45.80844" lon="2.90857">
        <ele>925</ele>
        <time>2018-05-19T15:08:39Z</time>
      </trkpt>
      <trkpt lat="45.80843" lon="2.9085">
        <ele>924</ele>
        <time>2018-05-19T15:08:41Z</time>
      </trkpt>
      <trkpt lat="45.8084" lon="2.90843">
        <ele>925</ele>
        <time>2018-05-19T15:08:43Z</time>
      </trkpt>
      <trkpt lat="45.80836" lon="2.90838">
        <ele>926</ele>
        <time>2018-05-19T15:08:45Z</time>
      </trkpt>
      <trkpt lat="45.80831" lon="2.90835">
        <ele>928</ele>
        <time>2018-05-19T15:08:47Z</time>
      </trkpt>
      <trkpt lat="45.80826" lon="2.90826">
        <ele>929</ele>
        <time>2018-05-19T15:08:51Z</time>
      </trkpt>
      <trkpt lat="45.80821" lon="2.90817">
        <ele>931</ele>
        <time>2018-05-19T15:08:53Z</time>
      </trkpt>
      <trkpt lat="45.80813" lon="2.90806">
        <ele>932</ele>
        <time>2018-05-19T15:08:55Z</time>
      </trkpt>
      <trkpt lat="45.80806" lon="2.90797">
        <ele>930</ele>
        <time>2018-05-19T15:08:57Z</time>
      </trkpt>
      <trkpt lat="45.80801" lon="2.90787">
        <ele>929</ele>
        <time>2018-05-19T15:08:59Z</time>
      </trkpt>
      <trkpt lat="45.80795" lon="2.90778">
        <ele>927</ele>
        <time>2018-05-19T15:09:01Z</time>
      </trkpt>
      <trkpt lat="45.80791" lon="2.90768">
        <ele>925</ele>
        <time>2018-05-19T15:09:03Z</time>
      </trkpt>
      <trkpt lat="45.80788" lon="2.90762">
        <ele>924</ele>
        <time>2018-05-19T15:09:05Z</time>
      </trkpt>
      <trkpt lat="45.80784" lon="2.90754">
        <ele>921</ele>
        <time>2018-05-19T15:09:49Z</time>
      </trkpt>
      <trkpt lat="45.80783" lon="2.90746">
        <ele>921</ele>
        <time>2018-05-19T15:09:51Z</time>
      </trkpt>
      <trkpt lat="45.80781" lon="2.90733">
        <ele>920</ele>
        <time>2018-05-19T15:09:53Z</time>
      </trkpt>
      <trkpt lat="45.80777" lon="2.90719">
        <ele>919</ele>
        <time>2018-05-19T15:09:55Z</time>
      </trkpt>
      <trkpt lat="45.80771" lon="2.90704">
        <ele>919</ele>
        <time>2018-05-19T15:09:57Z</time>
      </trkpt>
      <trkpt lat="45.80763" lon="2.90691">
        <ele>918</ele>
        <time>2018-05-19T15:09:59Z</time>
      </trkpt>
      <trkpt lat="45.80756" lon="2.90679">
        <ele>917</ele>
        <time>2018-05-19T15:10:01Z</time>
      </trkpt>
      <trkpt lat="45.80745" lon="2.90667">
        <ele>915</ele>
        <time>2018-05-19T15:10:03Z</time>
      </trkpt>
      <trkpt lat="45.80734" lon="2.90657">
        <ele>915</ele>
        <time>2018-05-19T15:10:05Z</time>
      </trkpt>
      <trkpt lat="45.80723" lon="2.90646">
        <ele>913</ele>
        <time>2018-05-19T15:10:07Z</time>
      </trkpt>
      <trkpt lat="45.80714" lon="2.9064">
        <ele>912</ele>
        <time>2018-05-19T15:10:09Z</time>
      </trkpt>
      <trkpt lat="45.80706" lon="2.90636">
        <ele>913</ele>
        <time>2018-05-19T15:10:11Z</time>
      </trkpt>
      <trkpt lat="45.80698" lon="2.90628">
        <ele>912</ele>
        <time>2018-05-19T15:10:13Z</time>
      </trkpt>
      <trkpt lat="45.80688" lon="2.9062">
        <ele>910</ele>
        <time>2018-05-19T15:10:15Z</time>
      </trkpt>
      <trkpt lat="45.80683" lon="2.90613">
        <ele>909</ele>
        <time>2018-05-19T15:10:17Z</time>
      </trkpt>
      <trkpt lat="45.80683" lon="2.90602">
        <ele>909</ele>
        <time>2018-05-19T15:10:19Z</time>
      </trkpt>
      <trkpt lat="45.80678" lon="2.90589">
        <ele>908</ele>
        <time>2018-05-19T15:10:21Z</time>
      </trkpt>
      <trkpt lat="45.80677" lon="2.90576">
        <ele>906</ele>
        <time>2018-05-19T15:10:23Z</time>
      </trkpt>
      <trkpt lat="45.80677" lon="2.90565">
        <ele>905</ele>
        <time>2018-05-19T15:10:25Z</time>
      </trkpt>
      <trkpt lat="45.80676" lon="2.90554">
        <ele>904</ele>
        <time>2018-05-19T15:10:27Z</time>
      </trkpt>
      <trkpt lat="45.80675" lon="2.90544">
        <ele>904</ele>
        <time>2018-05-19T15:10:29Z</time>
      </trkpt>
      <trkpt lat="45.80674" lon="2.90533">
        <ele>904</ele>
        <time>2018-05-19T15:10:31Z</time>
      </trkpt>
      <trkpt lat="45.80675" lon="2.90521">
        <ele>904</ele>
        <time>2018-05-19T15:10:33Z</time>
      </trkpt>
      <trkpt lat="45.80672" lon="2.90507">
        <ele>905</ele>
        <time>2018-05-19T15:10:35Z</time>
      </trkpt>
      <trkpt lat="45.80673" lon="2.90494">
        <ele>905</ele>
        <time>2018-05-19T15:10:37Z</time>
      </trkpt>
      <trkpt lat="45.80679" lon="2.90484">
        <ele>904</ele>
        <time>2018-05-19T15:10:39Z</time>
      </trkpt>
      <trkpt lat="45.80684" lon="2.90472">
        <ele>901</ele>
        <time>2018-05-19T15:10:41Z</time>
      </trkpt>
      <trkpt lat="45.80688" lon="2.90465">
        <ele>900</ele>
        <time>2018-05-19T15:10:43Z</time>
      </trkpt>
      <trkpt lat="45.8069" lon="2.90459">
        <ele>902</ele>
        <time>2018-05-19T15:10:55Z</time>
      </trkpt>
      <trkpt lat="45.80695" lon="2.90457">
        <ele>902</ele>
        <time>2018-05-19T15:11:07Z</time>
      </trkpt>
      <trkpt lat="45.807" lon="2.9045">
        <ele>902</ele>
        <time>2018-05-19T15:11:15Z</time>
      </trkpt>
      <trkpt lat="45.80707" lon="2.90444">
        <ele>903</ele>
        <time>2018-05-19T15:11:19Z</time>
      </trkpt>
      <trkpt lat="45.8071" lon="2.90437">
        <ele>902</ele>
        <time>2018-05-19T15:11:21Z</time>
      </trkpt>
      <trkpt lat="45.80714" lon="2.90433">
        <ele>902</ele>
        <time>2018-05-19T15:11:23Z</time>
      </trkpt>
      <trkpt lat="45.80718" lon="2.90428">
        <ele>902</ele>
        <time>2018-05-19T15:11:25Z</time>
      </trkpt>
      <trkpt lat="45.80722" lon="2.90423">
        <ele>900</ele>
        <time>2018-05-19T15:11:27Z</time>
      </trkpt>
      <trkpt lat="45.80726" lon="2.90415">
        <ele>900</ele>
        <time>2018-05-19T15:11:29Z</time>
      </trkpt>
      <trkpt lat="45.80731" lon="2.90407">
        <ele>900</ele>
        <time>2018-05-19T15:11:31Z</time>
      </trkpt>
      <trkpt lat="45.80734" lon="2.904">
        <ele>900</ele>
        <time>2018-05-19T15:11:33Z</time>
      </trkpt>
      <trkpt lat="45.80735" lon="2.90389">
        <ele>899</ele>
        <time>2018-05-19T15:11:35Z</time>
      </trkpt>
      <trkpt lat="45.80739" lon="2.90381">
        <ele>900</ele>
        <time>2018-05-19T15:11:37Z</time>
      </trkpt>
      <trkpt lat="45.80743" lon="2.90371">
        <ele>900</ele>
        <time>2018-05-19T15:11:39Z</time>
      </trkpt>
      <trkpt lat="45.80747" lon="2.9036">
        <ele>901</ele>
        <time>2018-05-19T15:11:41Z</time>
      </trkpt>
      <trkpt lat="45.80751" lon="2.90347">
        <ele>901</ele>
        <time>2018-05-19T15:11:43Z</time>
      </trkpt>
      <trkpt lat="45.80755" lon="2.90335">
        <ele>901</ele>
        <time>2018-05-19T15:11:45Z</time>
      </trkpt>
      <trkpt lat="45.80759" lon="2.9032">
        <ele>900</ele>
        <time>2018-05-19T15:11:47Z</time>
      </trkpt>
      <trkpt lat="45.80763" lon="2.90306">
        <ele>900</ele>
        <time>2018-05-19T15:11:49Z</time>
      </trkpt>
      <trkpt lat="45.80768" lon="2.90292">
        <ele>899</ele>
        <time>2018-05-19T15:11:51Z</time>
      </trkpt>
      <trkpt lat="45.80773" lon="2.90277">
        <ele>898</ele>
        <time>2018-05-19T15:11:53Z</time>
      </trkpt>
      <trkpt lat="45.80778" lon="2.9026">
        <ele>895</ele>
        <time>2018-05-19T15:11:55Z</time>
      </trkpt>
      <trkpt lat="45.80783" lon="2.90243">
        <ele>893</ele>
        <time>2018-05-19T15:11:57Z</time>
      </trkpt>
      <trkpt lat="45.80788" lon="2.90227">
        <ele>892</ele>
        <time>2018-05-19T15:11:59Z</time>
      </trkpt>
      <trkpt lat="45.80794" lon="2.90209">
        <ele>892</ele>
        <time>2018-05-19T15:12:01Z</time>
      </trkpt>
      <trkpt lat="45.808" lon="2.90194">
        <ele>892</ele>
        <time>2018-05-19T15:12:03Z</time>
      </trkpt>
      <trkpt lat="45.80806" lon="2.90179">
        <ele>891</ele>
        <time>2018-05-19T15:12:05Z</time>
      </trkpt>
      <trkpt lat="45.80814" lon="2.90165">
        <ele>892</ele>
        <time>2018-05-19T15:12:07Z</time>
      </trkpt>
      <trkpt lat="45.80823" lon="2.90152">
        <ele>891</ele>
        <time>2018-05-19T15:12:09Z</time>
      </trkpt>
      <trkpt lat="45.80831" lon="2.9014">
        <ele>889</ele>
        <time>2018-05-19T15:12:11Z</time>
      </trkpt>
      <trkpt lat="45.8084" lon="2.90126">
        <ele>888</ele>
        <time>2018-05-19T15:12:13Z</time>
      </trkpt>
      <trkpt lat="45.80849" lon="2.90112">
        <ele>887</ele>
        <time>2018-05-19T15:12:15Z</time>
      </trkpt>
      <trkpt lat="45.80859" lon="2.901">
        <ele>887</ele>
        <time>2018-05-19T15:12:17Z</time>
      </trkpt>
      <trkpt lat="45.80869" lon="2.90089">
        <ele>886</ele>
        <time>2018-05-19T15:12:19Z</time>
      </trkpt>
      <trkpt lat="45.80878" lon="2.90077">
        <ele>885</ele>
        <time>2018-05-19T15:12:21Z</time>
      </trkpt>
      <trkpt lat="45.80885" lon="2.90065">
        <ele>885</ele>
        <time>2018-05-19T15:12:23Z</time>
      </trkpt>
      <trkpt lat="45.80892" lon="2.90054">
        <ele>885</ele>
        <time>2018-05-19T15:12:25Z</time>
      </trkpt>
      <trkpt lat="45.80898" lon="2.90042">
        <ele>884</ele>
        <time>2018-05-19T15:12:27Z</time>
      </trkpt>
      <trkpt lat="45.80905" lon="2.90031">
        <ele>884</ele>
        <time>2018-05-19T15:12:29Z</time>
      </trkpt>
      <trkpt lat="45.80913" lon="2.9002">
        <ele>882</ele>
        <time>2018-05-19T15:12:31Z</time>
      </trkpt>
      <trkpt lat="45.80922" lon="2.90009">
        <ele>882</ele>
        <time>2018-05-19T15:12:33Z</time>
      </trkpt>
      <trkpt lat="45.80936" lon="2.90006">
        <ele>882</ele>
        <time>2018-05-19T15:12:35Z</time>
      </trkpt>
      <trkpt lat="45.80945" lon="2.90002">
        <ele>881</ele>
        <time>2018-05-19T15:12:37Z</time>
      </trkpt>
      <trkpt lat="45.80954" lon="2.89996">
        <ele>881</ele>
        <time>2018-05-19T15:12:39Z</time>
      </trkpt>
      <trkpt lat="45.80964" lon="2.89989">
        <ele>881</ele>
        <time>2018-05-19T15:12:41Z</time>
      </trkpt>
      <trkpt lat="45.80973" lon="2.8998">
        <ele>882</ele>
        <time>2018-05-19T15:12:43Z</time>
      </trkpt>
      <trkpt lat="45.80982" lon="2.89973">
        <ele>882</ele>
        <time>2018-05-19T15:12:45Z</time>
      </trkpt>
      <trkpt lat="45.8099" lon="2.89965">
        <ele>880</ele>
        <time>2018-05-19T15:12:47Z</time>
      </trkpt>
      <trkpt lat="45.80998" lon="2.89956">
        <ele>880</ele>
        <time>2018-05-19T15:12:49Z</time>
      </trkpt>
      <trkpt lat="45.81004" lon="2.89949">
        <ele>879</ele>
        <time>2018-05-19T15:12:51Z</time>
      </trkpt>
      <trkpt lat="45.8101" lon="2.89939">
        <ele>876</ele>
        <time>2018-05-19T15:12:53Z</time>
      </trkpt>
      <trkpt lat="45.81016" lon="2.8993">
        <ele>876</ele>
        <time>2018-05-19T15:12:55Z</time>
      </trkpt>
      <trkpt lat="45.81022" lon="2.89919">
        <ele>876</ele>
        <time>2018-05-19T15:12:57Z</time>
      </trkpt>
      <trkpt lat="45.81024" lon="2.89908">
        <ele>876</ele>
        <time>2018-05-19T15:12:59Z</time>
      </trkpt>
      <trkpt lat="45.81026" lon="2.89897">
        <ele>876</ele>
        <time>2018-05-19T15:13:01Z</time>
      </trkpt>
      <trkpt lat="45.81026" lon="2.89887">
        <ele>874</ele>
        <time>2018-05-19T15:13:03Z</time>
      </trkpt>
      <trkpt lat="45.81026" lon="2.89879">
        <ele>876</ele>
        <time>2018-05-19T15:13:05Z</time>
      </trkpt>
      <trkpt lat="45.81022" lon="2.89869">
        <ele>877</ele>
        <time>2018-05-19T15:13:09Z</time>
      </trkpt>
      <trkpt lat="45.8102" lon="2.89862">
        <ele>879</ele>
        <time>2018-05-19T15:13:11Z</time>
      </trkpt>
      <trkpt lat="45.81014" lon="2.89854">
        <ele>879</ele>
        <time>2018-05-19T15:13:13Z</time>
      </trkpt>
      <trkpt lat="45.81008" lon="2.89847">
        <ele>877</ele>
        <time>2018-05-19T15:13:15Z</time>
      </trkpt>
      <trkpt lat="45.81006" lon="2.89838">
        <ele>878</ele>
        <time>2018-05-19T15:13:17Z</time>
      </trkpt>
      <trkpt lat="45.81001" lon="2.89829">
        <ele>878</ele>
        <time>2018-05-19T15:13:19Z</time>
      </trkpt>
      <trkpt lat="45.80999" lon="2.89819">
        <ele>879</ele>
        <time>2018-05-19T15:13:21Z</time>
      </trkpt>
      <trkpt lat="45.80998" lon="2.89806">
        <ele>878</ele>
        <time>2018-05-19T15:13:23Z</time>
      </trkpt>
      <trkpt lat="45.81003" lon="2.89793">
        <ele>879</ele>
        <time>2018-05-19T15:13:25Z</time>
      </trkpt>
      <trkpt lat="45.81011" lon="2.89781">
        <ele>874</ele>
        <time>2018-05-19T15:13:27Z</time>
      </trkpt>
      <trkpt lat="45.8102" lon="2.8977">
        <ele>873</ele>
        <time>2018-05-19T15:13:29Z</time>
      </trkpt>
      <trkpt lat="45.81029" lon="2.89762">
        <ele>872</ele>
        <time>2018-05-19T15:13:31Z</time>
      </trkpt>
      <trkpt lat="45.81036" lon="2.89755">
        <ele>872</ele>
        <time>2018-05-19T15:13:33Z</time>
      </trkpt>
      <trkpt lat="45.81042" lon="2.89747">
        <ele>873</ele>
        <time>2018-05-19T15:13:35Z</time>
      </trkpt>
      <trkpt lat="45.81049" lon="2.89741">
        <ele>873</ele>
        <time>2018-05-19T15:13:37Z</time>
      </trkpt>
      <trkpt lat="45.81056" lon="2.89735">
        <ele>873</ele>
        <time>2018-05-19T15:13:39Z</time>
      </trkpt>
      <trkpt lat="45.81062" lon="2.89727">
        <ele>872</ele>
        <time>2018-05-19T15:13:41Z</time>
      </trkpt>
      <trkpt lat="45.81066" lon="2.89719">
        <ele>870</ele>
        <time>2018-05-19T15:13:43Z</time>
      </trkpt>
      <trkpt lat="45.81068" lon="2.8971">
        <ele>871</ele>
        <time>2018-05-19T15:13:45Z</time>
      </trkpt>
      <trkpt lat="45.8107" lon="2.89703">
        <ele>870</ele>
        <time>2018-05-19T15:13:47Z</time>
      </trkpt>
      <trkpt lat="45.81069" lon="2.89695">
        <ele>871</ele>
        <time>2018-05-19T15:13:49Z</time>
      </trkpt>
      <trkpt lat="45.81066" lon="2.89686">
        <ele>876</ele>
        <time>2018-05-19T15:13:53Z</time>
      </trkpt>
      <trkpt lat="45.81062" lon="2.89683">
        <ele>878</ele>
        <time>2018-05-19T15:13:55Z</time>
      </trkpt>
      <trkpt lat="45.81053" lon="2.89675">
        <ele>879</ele>
        <time>2018-05-19T15:13:59Z</time>
      </trkpt>
      <trkpt lat="45.81048" lon="2.8967">
        <ele>880</ele>
        <time>2018-05-19T15:14:01Z</time>
      </trkpt>
      <trkpt lat="45.81044" lon="2.89663">
        <ele>880</ele>
        <time>2018-05-19T15:14:03Z</time>
      </trkpt>
      <trkpt lat="45.81038" lon="2.89657">
        <ele>881</ele>
        <time>2018-05-19T15:14:05Z</time>
      </trkpt>
      <trkpt lat="45.8104" lon="2.89644">
        <ele>879</ele>
        <time>2018-05-19T15:14:07Z</time>
      </trkpt>
      <trkpt lat="45.81041" lon="2.89632">
        <ele>878</ele>
        <time>2018-05-19T15:14:09Z</time>
      </trkpt>
      <trkpt lat="45.81046" lon="2.89622">
        <ele>879</ele>
        <time>2018-05-19T15:14:11Z</time>
      </trkpt>
      <trkpt lat="45.81053" lon="2.89611">
        <ele>876</ele>
        <time>2018-05-19T15:14:13Z</time>
      </trkpt>
      <trkpt lat="45.81063" lon="2.89605">
        <ele>871</ele>
        <time>2018-05-19T15:14:15Z</time>
      </trkpt>
      <trkpt lat="45.81074" lon="2.89603">
        <ele>868</ele>
        <time>2018-05-19T15:14:17Z</time>
      </trkpt>
      <trkpt lat="45.81086" lon="2.89604">
        <ele>867</ele>
        <time>2018-05-19T15:14:19Z</time>
      </trkpt>
      <trkpt lat="45.81098" lon="2.89607">
        <ele>866</ele>
        <time>2018-05-19T15:14:21Z</time>
      </trkpt>
      <trkpt lat="45.81111" lon="2.89611">
        <ele>867</ele>
        <time>2018-05-19T15:14:23Z</time>
      </trkpt>
      <trkpt lat="45.81124" lon="2.89616">
        <ele>865</ele>
        <time>2018-05-19T15:14:25Z</time>
      </trkpt>
      <trkpt lat="45.81136" lon="2.8962">
        <ele>866</ele>
        <time>2018-05-19T15:14:27Z</time>
      </trkpt>
      <trkpt lat="45.81146" lon="2.89621">
        <ele>866</ele>
        <time>2018-05-19T15:14:29Z</time>
      </trkpt>
      <trkpt lat="45.81154" lon="2.89617">
        <ele>864</ele>
        <time>2018-05-19T15:14:31Z</time>
      </trkpt>
      <trkpt lat="45.81163" lon="2.89607">
        <ele>862</ele>
        <time>2018-05-19T15:14:33Z</time>
      </trkpt>
      <trkpt lat="45.81175" lon="2.89598">
        <ele>862</ele>
        <time>2018-05-19T15:14:35Z</time>
      </trkpt>
      <trkpt lat="45.81187" lon="2.89591">
        <ele>862</ele>
        <time>2018-05-19T15:14:37Z</time>
      </trkpt>
      <trkpt lat="45.81193" lon="2.89578">
        <ele>862</ele>
        <time>2018-05-19T15:14:39Z</time>
      </trkpt>
      <trkpt lat="45.81205" lon="2.89565">
        <ele>862</ele>
        <time>2018-05-19T15:14:41Z</time>
      </trkpt>
      <trkpt lat="45.81214" lon="2.89551">
        <ele>862</ele>
        <time>2018-05-19T15:14:43Z</time>
      </trkpt>
      <trkpt lat="45.81218" lon="2.89536">
        <ele>860</ele>
        <time>2018-05-19T15:14:45Z</time>
      </trkpt>
      <trkpt lat="45.81223" lon="2.89523">
        <ele>861</ele>
        <time>2018-05-19T15:14:47Z</time>
      </trkpt>
      <trkpt lat="45.81225" lon="2.89513">
        <ele>862</ele>
        <time>2018-05-19T15:14:49Z</time>
      </trkpt>
      <trkpt lat="45.81225" lon="2.89499">
        <ele>863</ele>
        <time>2018-05-19T15:14:51Z</time>
      </trkpt>
      <trkpt lat="45.81228" lon="2.89487">
        <ele>866</ele>
        <time>2018-05-19T15:14:53Z</time>
      </trkpt>
      <trkpt lat="45.81231" lon="2.89478">
        <ele>866</ele>
        <time>2018-05-19T15:14:55Z</time>
      </trkpt>
      <trkpt lat="45.81233" lon="2.8947">
        <ele>865</ele>
        <time>2018-05-19T15:14:57Z</time>
      </trkpt>
      <trkpt lat="45.81233" lon="2.89462">
        <ele>867</ele>
        <time>2018-05-19T15:14:59Z</time>
      </trkpt>
      <trkpt lat="45.81235" lon="2.89456">
        <ele>868</ele>
        <time>2018-05-19T15:15:01Z</time>
      </trkpt>
      <trkpt lat="45.81232" lon="2.89442">
        <ele>868</ele>
        <time>2018-05-19T15:15:05Z</time>
      </trkpt>
      <trkpt lat="45.81229" lon="2.89433">
        <ele>869</ele>
        <time>2018-05-19T15:15:07Z</time>
      </trkpt>
      <trkpt lat="45.81226" lon="2.89426">
        <ele>869</ele>
        <time>2018-05-19T15:15:09Z</time>
      </trkpt>
      <trkpt lat="45.81222" lon="2.89418">
        <ele>868</ele>
        <time>2018-05-19T15:15:11Z</time>
      </trkpt>
      <trkpt lat="45.8122" lon="2.89408">
        <ele>869</ele>
        <time>2018-05-19T15:15:13Z</time>
      </trkpt>
      <trkpt lat="45.8122" lon="2.89401">
        <ele>871</ele>
        <time>2018-05-19T15:15:15Z</time>
      </trkpt>
      <trkpt lat="45.81218" lon="2.89395">
        <ele>873</ele>
        <time>2018-05-19T15:15:17Z</time>
      </trkpt>
      <trkpt lat="45.81215" lon="2.89387">
        <ele>874</ele>
        <time>2018-05-19T15:15:19Z</time>
      </trkpt>
      <trkpt lat="45.81216" lon="2.89376">
        <ele>873</ele>
        <time>2018-05-19T15:15:21Z</time>
      </trkpt>
      <trkpt lat="45.81213" lon="2.89365">
        <ele>870</ele>
        <time>2018-05-19T15:15:23Z</time>
      </trkpt>
      <trkpt lat="45.81213" lon="2.89354">
        <ele>870</ele>
        <time>2018-05-19T15:15:25Z</time>
      </trkpt>
      <trkpt lat="45.81214" lon="2.89343">
        <ele>868</ele>
        <time>2018-05-19T15:15:27Z</time>
      </trkpt>
      <trkpt lat="45.81216" lon="2.89332">
        <ele>867</ele>
        <time>2018-05-19T15:15:29Z</time>
      </trkpt>
      <trkpt lat="45.81218" lon="2.89321">
        <ele>867</ele>
        <time>2018-05-19T15:15:31Z</time>
      </trkpt>
      <trkpt lat="45.81221" lon="2.89313">
        <ele>868</ele>
        <time>2018-05-19T15:15:33Z</time>
      </trkpt>
      <trkpt lat="45.81224" lon="2.89304">
        <ele>869</ele>
        <time>2018-05-19T15:15:35Z</time>
      </trkpt>
      <trkpt lat="45.81227" lon="2.89298">
        <ele>867</ele>
        <time>2018-05-19T15:15:37Z</time>
      </trkpt>
      <trkpt lat="45.81229" lon="2.8929">
        <ele>867</ele>
        <time>2018-05-19T15:15:39Z</time>
      </trkpt>
      <trkpt lat="45.81232" lon="2.89282">
        <ele>868</ele>
        <time>2018-05-19T15:15:41Z</time>
      </trkpt>
      <trkpt lat="45.81234" lon="2.89273">
        <ele>868</ele>
        <time>2018-05-19T15:15:43Z</time>
      </trkpt>
      <trkpt lat="45.81239" lon="2.89266">
        <ele>869</ele>
        <time>2018-05-19T15:15:45Z</time>
      </trkpt>
      <trkpt lat="45.81242" lon="2.89258">
        <ele>869</ele>
        <time>2018-05-19T15:15:47Z</time>
      </trkpt>
      <trkpt lat="45.81245" lon="2.89249">
        <ele>869</ele>
        <time>2018-05-19T15:15:49Z</time>
      </trkpt>
      <trkpt lat="45.81246" lon="2.89239">
        <ele>869</ele>
        <time>2018-05-19T15:15:51Z</time>
      </trkpt>
      <trkpt lat="45.81249" lon="2.89231">
        <ele>869</ele>
        <time>2018-05-19T15:15:53Z</time>
      </trkpt>
      <trkpt lat="45.81251" lon="2.89223">
        <ele>869</ele>
        <time>2018-05-19T15:15:55Z</time>
      </trkpt>
      <trkpt lat="45.81255" lon="2.89214">
        <ele>869</ele>
        <time>2018-05-19T15:15:57Z</time>
      </trkpt>
      <trkpt lat="45.81258" lon="2.89206">
        <ele>870</ele>
        <time>2018-05-19T15:15:59Z</time>
      </trkpt>
      <trkpt lat="45.8126" lon="2.89198">
        <ele>870</ele>
        <time>2018-05-19T15:16:01Z</time>
      </trkpt>
      <trkpt lat="45.81265" lon="2.8919">
        <ele>869</ele>
        <time>2018-05-19T15:16:03Z</time>
      </trkpt>
      <trkpt lat="45.8127" lon="2.89181">
        <ele>869</ele>
        <time>2018-05-19T15:16:05Z</time>
      </trkpt>
      <trkpt lat="45.81274" lon="2.89172">
        <ele>869</ele>
        <time>2018-05-19T15:16:07Z</time>
      </trkpt>
      <trkpt lat="45.81281" lon="2.89162">
        <ele>868</ele>
        <time>2018-05-19T15:16:09Z</time>
      </trkpt>
      <trkpt lat="45.81287" lon="2.89154">
        <ele>869</ele>
        <time>2018-05-19T15:16:11Z</time>
      </trkpt>
      <trkpt lat="45.81291" lon="2.89145">
        <ele>869</ele>
        <time>2018-05-19T15:16:13Z</time>
      </trkpt>
      <trkpt lat="45.81297" lon="2.89138">
        <ele>870</ele>
        <time>2018-05-19T15:16:15Z</time>
      </trkpt>
      <trkpt lat="45.813" lon="2.8913">
        <ele>871</ele>
        <time>2018-05-19T15:16:17Z</time>
      </trkpt>
      <trkpt lat="45.81304" lon="2.89122">
        <ele>871</ele>
        <time>2018-05-19T15:16:19Z</time>
      </trkpt>
      <trkpt lat="45.81307" lon="2.89113">
        <ele>870</ele>
        <time>2018-05-19T15:16:21Z</time>
      </trkpt>
      <trkpt lat="45.81309" lon="2.89103">
        <ele>868</ele>
        <time>2018-05-19T15:16:23Z</time>
      </trkpt>
      <trkpt lat="45.8131" lon="2.89092">
        <ele>867</ele>
        <time>2018-05-19T15:16:25Z</time>
      </trkpt>
      <trkpt lat="45.8131" lon="2.89078">
        <ele>866</ele>
        <time>2018-05-19T15:16:27Z</time>
      </trkpt>
      <trkpt lat="45.8131" lon="2.89064">
        <ele>866</ele>
        <time>2018-05-19T15:16:29Z</time>
      </trkpt>
      <trkpt lat="45.81312" lon="2.89049">
        <ele>866</ele>
        <time>2018-05-19T15:16:31Z</time>
      </trkpt>
      <trkpt lat="45.81317" lon="2.89036">
        <ele>866</ele>
        <time>2018-05-19T15:16:33Z</time>
      </trkpt>
      <trkpt lat="45.81323" lon="2.89029">
        <ele>867</ele>
        <time>2018-05-19T15:16:35Z</time>
      </trkpt>
      <trkpt lat="45.8133" lon="2.89021">
        <ele>867</ele>
        <time>2018-05-19T15:16:37Z</time>
      </trkpt>
      <trkpt lat="45.8134" lon="2.89012">
        <ele>866</ele>
        <time>2018-05-19T15:16:39Z</time>
      </trkpt>
      <trkpt lat="45.81347" lon="2.89005">
        <ele>867</ele>
        <time>2018-05-19T15:16:41Z</time>
      </trkpt>
      <trkpt lat="45.81355" lon="2.88998">
        <ele>868</ele>
        <time>2018-05-19T15:16:43Z</time>
      </trkpt>
      <trkpt lat="45.81362" lon="2.88992">
        <ele>867</ele>
        <time>2018-05-19T15:16:45Z</time>
      </trkpt>
      <trkpt lat="45.81372" lon="2.88986">
        <ele>867</ele>
        <time>2018-05-19T15:16:47Z</time>
      </trkpt>
      <trkpt lat="45.8138" lon="2.88982">
        <ele>868</ele>
        <time>2018-05-19T15:16:49Z</time>
      </trkpt>
      <trkpt lat="45.81387" lon="2.88978">
        <ele>869</ele>
        <time>2018-05-19T15:16:51Z</time>
      </trkpt>
      <trkpt lat="45.81396" lon="2.88975">
        <ele>869</ele>
        <time>2018-05-19T15:16:53Z</time>
      </trkpt>
      <trkpt lat="45.81403" lon="2.88973">
        <ele>870</ele>
        <time>2018-05-19T15:16:55Z</time>
      </trkpt>
      <trkpt lat="45.81412" lon="2.88967">
        <ele>870</ele>
        <time>2018-05-19T15:16:57Z</time>
      </trkpt>
      <trkpt lat="45.81421" lon="2.8896">
        <ele>869</ele>
        <time>2018-05-19T15:16:59Z</time>
      </trkpt>
      <trkpt lat="45.81428" lon="2.8895">
        <ele>868</ele>
        <time>2018-05-19T15:17:01Z</time>
      </trkpt>
      <trkpt lat="45.81433" lon="2.8894">
        <ele>868</ele>
        <time>2018-05-19T15:17:03Z</time>
      </trkpt>
      <trkpt lat="45.81439" lon="2.88929">
        <ele>867</ele>
        <time>2018-05-19T15:17:05Z</time>
      </trkpt>
      <trkpt lat="45.81445" lon="2.88921">
        <ele>866</ele>
        <time>2018-05-19T15:17:07Z</time>
      </trkpt>
      <trkpt lat="45.81452" lon="2.88913">
        <ele>866</ele>
        <time>2018-05-19T15:17:09Z</time>
      </trkpt>
      <trkpt lat="45.81464" lon="2.88912">
        <ele>867</ele>
        <time>2018-05-19T15:17:11Z</time>
      </trkpt>
      <trkpt lat="45.81476" lon="2.88915">
        <ele>867</ele>
        <time>2018-05-19T15:17:13Z</time>
      </trkpt>
      <trkpt lat="45.81487" lon="2.88918">
        <ele>866</ele>
        <time>2018-05-19T15:17:15Z</time>
      </trkpt>
      <trkpt lat="45.81498" lon="2.88921">
        <ele>868</ele>
        <time>2018-05-19T15:17:17Z</time>
      </trkpt>
      <trkpt lat="45.8151" lon="2.88924">
        <ele>866</ele>
        <time>2018-05-19T15:17:19Z</time>
      </trkpt>
      <trkpt lat="45.81522" lon="2.88918">
        <ele>865</ele>
        <time>2018-05-19T15:17:21Z</time>
      </trkpt>
      <trkpt lat="45.81529" lon="2.88909">
        <ele>864</ele>
        <time>2018-05-19T15:17:23Z</time>
      </trkpt>
      <trkpt lat="45.81534" lon="2.88901">
        <ele>867</ele>
        <time>2018-05-19T15:17:25Z</time>
      </trkpt>
      <trkpt lat="45.81537" lon="2.88889">
        <ele>865</ele>
        <time>2018-05-19T15:17:27Z</time>
      </trkpt>
      <trkpt lat="45.81532" lon="2.88875">
        <ele>863</ele>
        <time>2018-05-19T15:17:29Z</time>
      </trkpt>
      <trkpt lat="45.81532" lon="2.88859">
        <ele>861</ele>
        <time>2018-05-19T15:17:31Z</time>
      </trkpt>
      <trkpt lat="45.81533" lon="2.88841">
        <ele>860</ele>
        <time>2018-05-19T15:17:33Z</time>
      </trkpt>
      <trkpt lat="45.81533" lon="2.88821">
        <ele>859</ele>
        <time>2018-05-19T15:17:35Z</time>
      </trkpt>
      <trkpt lat="45.81534" lon="2.88801">
        <ele>859</ele>
        <time>2018-05-19T15:17:37Z</time>
      </trkpt>
      <trkpt lat="45.81537" lon="2.88781">
        <ele>857</ele>
        <time>2018-05-19T15:17:39Z</time>
      </trkpt>
      <trkpt lat="45.81542" lon="2.88762">
        <ele>856</ele>
        <time>2018-05-19T15:17:41Z</time>
      </trkpt>
      <trkpt lat="45.81544" lon="2.88739">
        <ele>855</ele>
        <time>2018-05-19T15:17:43Z</time>
      </trkpt>
      <trkpt lat="45.81546" lon="2.88716">
        <ele>853</ele>
        <time>2018-05-19T15:17:45Z</time>
      </trkpt>
      <trkpt lat="45.81545" lon="2.88693">
        <ele>852</ele>
        <time>2018-05-19T15:17:47Z</time>
      </trkpt>
      <trkpt lat="45.81546" lon="2.8867">
        <ele>852</ele>
        <time>2018-05-19T15:17:49Z</time>
      </trkpt>
      <trkpt lat="45.81547" lon="2.88649">
        <ele>851</ele>
        <time>2018-05-19T15:17:51Z</time>
      </trkpt>
      <trkpt lat="45.81549" lon="2.88632">
        <ele>849</ele>
        <time>2018-05-19T15:17:53Z</time>
      </trkpt>
      <trkpt lat="45.8155" lon="2.88614">
        <ele>848</ele>
        <time>2018-05-19T15:17:55Z</time>
      </trkpt>
      <trkpt lat="45.81552" lon="2.88592">
        <ele>848</ele>
        <time>2018-05-19T15:17:57Z</time>
      </trkpt>
      <trkpt lat="45.81562" lon="2.88576">
        <ele>847</ele>
        <time>2018-05-19T15:17:59Z</time>
      </trkpt>
      <trkpt lat="45.81568" lon="2.88564">
        <ele>847</ele>
        <time>2018-05-19T15:18:01Z</time>
      </trkpt>
      <trkpt lat="45.81577" lon="2.88558">
        <ele>848</ele>
        <time>2018-05-19T15:18:03Z</time>
      </trkpt>
      <trkpt lat="45.81587" lon="2.88554">
        <ele>849</ele>
        <time>2018-05-19T15:18:05Z</time>
      </trkpt>
      <trkpt lat="45.81597" lon="2.88553">
        <ele>852</ele>
        <time>2018-05-19T15:18:07Z</time>
      </trkpt>
      <trkpt lat="45.81603" lon="2.88554">
        <ele>854</ele>
        <time>2018-05-19T15:18:09Z</time>
      </trkpt>
      <trkpt lat="45.81609" lon="2.8855">
        <ele>855</ele>
        <time>2018-05-19T15:18:13Z</time>
      </trkpt>
      <trkpt lat="45.8162" lon="2.8855">
        <ele>854</ele>
        <time>2018-05-19T15:18:17Z</time>
      </trkpt>
      <trkpt lat="45.81626" lon="2.8855">
        <ele>855</ele>
        <time>2018-05-19T15:18:19Z</time>
      </trkpt>
      <trkpt lat="45.81631" lon="2.88549">
        <ele>856</ele>
        <time>2018-05-19T15:18:21Z</time>
      </trkpt>
      <trkpt lat="45.81637" lon="2.88551">
        <ele>855</ele>
        <time>2018-05-19T15:18:23Z</time>
      </trkpt>
      <trkpt lat="45.81644" lon="2.88553">
        <ele>856</ele>
        <time>2018-05-19T15:18:25Z</time>
      </trkpt>
      <trkpt lat="45.81651" lon="2.88555">
        <ele>856</ele>
        <time>2018-05-19T15:18:27Z</time>
      </trkpt>
      <trkpt lat="45.81657" lon="2.88556">
        <ele>857</ele>
        <time>2018-05-19T15:18:29Z</time>
      </trkpt>
      <trkpt lat="45.81665" lon="2.88561">
        <ele>856</ele>
        <time>2018-05-19T15:18:31Z</time>
      </trkpt>
      <trkpt lat="45.81672" lon="2.88566">
        <ele>855</ele>
        <time>2018-05-19T15:18:33Z</time>
      </trkpt>
      <trkpt lat="45.81682" lon="2.88568">
        <ele>855</ele>
        <time>2018-05-19T15:18:35Z</time>
      </trkpt>
      <trkpt lat="45.81692" lon="2.88569">
        <ele>854</ele>
        <time>2018-05-19T15:18:37Z</time>
      </trkpt>
      <trkpt lat="45.81704" lon="2.88572">
        <ele>851</ele>
        <time>2018-05-19T15:18:39Z</time>
      </trkpt>
      <trkpt lat="45.81714" lon="2.88575">
        <ele>851</ele>
        <time>2018-05-19T15:18:41Z</time>
      </trkpt>
      <trkpt lat="45.81722" lon="2.8857">
        <ele>853</ele>
        <time>2018-05-19T15:18:45Z</time>
      </trkpt>
      <trkpt lat="45.81726" lon="2.88565">
        <ele>854</ele>
        <time>2018-05-19T15:18:47Z</time>
      </trkpt>
      <trkpt lat="45.81731" lon="2.88561">
        <ele>854</ele>
        <time>2018-05-19T15:18:49Z</time>
      </trkpt>
      <trkpt lat="45.81737" lon="2.88554">
        <ele>854</ele>
        <time>2018-05-19T15:18:51Z</time>
      </trkpt>
      <trkpt lat="45.81744" lon="2.88546">
        <ele>853</ele>
        <time>2018-05-19T15:18:53Z</time>
      </trkpt>
      <trkpt lat="45.81751" lon="2.88538">
        <ele>852</ele>
        <time>2018-05-19T15:18:55Z</time>
      </trkpt>
      <trkpt lat="45.8176" lon="2.88535">
        <ele>851</ele>
        <time>2018-05-19T15:18:57Z</time>
      </trkpt>
      <trkpt lat="45.81769" lon="2.88535">
        <ele>850</ele>
        <time>2018-05-19T15:18:59Z</time>
      </trkpt>
      <trkpt lat="45.81779" lon="2.88543">
        <ele>850</ele>
        <time>2018-05-19T15:19:01Z</time>
      </trkpt>
      <trkpt lat="45.81789" lon="2.88553">
        <ele>848</ele>
        <time>2018-05-19T15:19:03Z</time>
      </trkpt>
      <trkpt lat="45.818" lon="2.88562">
        <ele>846</ele>
        <time>2018-05-19T15:19:05Z</time>
      </trkpt>
      <trkpt lat="45.81814" lon="2.88565">
        <ele>845</ele>
        <time>2018-05-19T15:19:07Z</time>
      </trkpt>
      <trkpt lat="45.81826" lon="2.88562">
        <ele>844</ele>
        <time>2018-05-19T15:19:09Z</time>
      </trkpt>
      <trkpt lat="45.81835" lon="2.88554">
        <ele>845</ele>
        <time>2018-05-19T15:19:11Z</time>
      </trkpt>
      <trkpt lat="45.8184" lon="2.88545">
        <ele>846</ele>
        <time>2018-05-19T15:19:13Z</time>
      </trkpt>
      <trkpt lat="45.81845" lon="2.88533">
        <ele>845</ele>
        <time>2018-05-19T15:19:15Z</time>
      </trkpt>
      <trkpt lat="45.81851" lon="2.88521">
        <ele>843</ele>
        <time>2018-05-19T15:19:17Z</time>
      </trkpt>
      <trkpt lat="45.81857" lon="2.88511">
        <ele>842</ele>
        <time>2018-05-19T15:19:19Z</time>
      </trkpt>
      <trkpt lat="45.81864" lon="2.88501">
        <ele>841</ele>
        <time>2018-05-19T15:19:21Z</time>
      </trkpt>
      <trkpt lat="45.81871" lon="2.88491">
        <ele>839</ele>
        <time>2018-05-19T15:19:23Z</time>
      </trkpt>
      <trkpt lat="45.81879" lon="2.8848">
        <ele>839</ele>
        <time>2018-05-19T15:19:25Z</time>
      </trkpt>
      <trkpt lat="45.81889" lon="2.88466">
        <ele>838</ele>
        <time>2018-05-19T15:19:27Z</time>
      </trkpt>
      <trkpt lat="45.81897" lon="2.88451">
        <ele>837</ele>
        <time>2018-05-19T15:19:29Z</time>
      </trkpt>
      <trkpt lat="45.81905" lon="2.88436">
        <ele>836</ele>
        <time>2018-05-19T15:19:31Z</time>
      </trkpt>
      <trkpt lat="45.81912" lon="2.88423">
        <ele>834</ele>
        <time>2018-05-19T15:19:33Z</time>
      </trkpt>
      <trkpt lat="45.81917" lon="2.8841">
        <ele>834</ele>
        <time>2018-05-19T15:19:35Z</time>
      </trkpt>
      <trkpt lat="45.81921" lon="2.88394">
        <ele>832</ele>
        <time>2018-05-19T15:19:37Z</time>
      </trkpt>
      <trkpt lat="45.81922" lon="2.88377">
        <ele>831</ele>
        <time>2018-05-19T15:19:39Z</time>
      </trkpt>
      <trkpt lat="45.81923" lon="2.88359">
        <ele>830</ele>
        <time>2018-05-19T15:19:41Z</time>
      </trkpt>
      <trkpt lat="45.81923" lon="2.88342">
        <ele>829</ele>
        <time>2018-05-19T15:19:43Z</time>
      </trkpt>
      <trkpt lat="45.81922" lon="2.88325">
        <ele>828</ele>
        <time>2018-05-19T15:19:45Z</time>
      </trkpt>
      <trkpt lat="45.81919" lon="2.8831">
        <ele>828</ele>
        <time>2018-05-19T15:19:47Z</time>
      </trkpt>
      <trkpt lat="45.81915" lon="2.88296">
        <ele>829</ele>
        <time>2018-05-19T15:19:49Z</time>
      </trkpt>
      <trkpt lat="45.8191" lon="2.88285">
        <ele>829</ele>
        <time>2018-05-19T15:19:51Z</time>
      </trkpt>
      <trkpt lat="45.81904" lon="2.88273">
        <ele>830</ele>
        <time>2018-05-19T15:19:53Z</time>
      </trkpt>
      <trkpt lat="45.81897" lon="2.8826">
        <ele>831</ele>
        <time>2018-05-19T15:19:55Z</time>
      </trkpt>
      <trkpt lat="45.8189" lon="2.88251">
        <ele>831</ele>
        <time>2018-05-19T15:19:57Z</time>
      </trkpt>
      <trkpt lat="45.81884" lon="2.88241">
        <ele>832</ele>
        <time>2018-05-19T15:19:59Z</time>
      </trkpt>
      <trkpt lat="45.81878" lon="2.88233">
        <ele>833</ele>
        <time>2018-05-19T15:20:01Z</time>
      </trkpt>
      <trkpt lat="45.81869" lon="2.88221">
        <ele>833</ele>
        <time>2018-05-19T15:20:03Z</time>
      </trkpt>
      <trkpt lat="45.81861" lon="2.88213">
        <ele>834</ele>
        <time>2018-05-19T15:20:05Z</time>
      </trkpt>
      <trkpt lat="45.81854" lon="2.88203">
        <ele>834</ele>
        <time>2018-05-19T15:20:07Z</time>
      </trkpt>
      <trkpt lat="45.81845" lon="2.88194">
        <ele>834</ele>
        <time>2018-05-19T15:20:09Z</time>
      </trkpt>
      <trkpt lat="45.81838" lon="2.88186">
        <ele>833</ele>
        <time>2018-05-19T15:20:11Z</time>
      </trkpt>
      <trkpt lat="45.8183" lon="2.88174">
        <ele>833</ele>
        <time>2018-05-19T15:20:13Z</time>
      </trkpt>
      <trkpt lat="45.81825" lon="2.8816">
        <ele>833</ele>
        <time>2018-05-19T15:20:15Z</time>
      </trkpt>
      <trkpt lat="45.81824" lon="2.88147">
        <ele>831</ele>
        <time>2018-05-19T15:20:17Z</time>
      </trkpt>
      <trkpt lat="45.81823" lon="2.88132">
        <ele>831</ele>
        <time>2018-05-19T15:20:19Z</time>
      </trkpt>
      <trkpt lat="45.81824" lon="2.88119">
        <ele>831</ele>
        <time>2018-05-19T15:20:21Z</time>
      </trkpt>
      <trkpt lat="45.81822" lon="2.88102">
        <ele>830</ele>
        <time>2018-05-19T15:20:23Z</time>
      </trkpt>
      <trkpt lat="45.8182" lon="2.88087">
        <ele>829</ele>
        <time>2018-05-19T15:20:25Z</time>
      </trkpt>
      <trkpt lat="45.81817" lon="2.88073">
        <ele>828</ele>
        <time>2018-05-19T15:20:27Z</time>
      </trkpt>
      <trkpt lat="45.81815" lon="2.8806">
        <ele>828</ele>
        <time>2018-05-19T15:20:29Z</time>
      </trkpt>
      <trkpt lat="45.81812" lon="2.88046">
        <ele>828</ele>
        <time>2018-05-19T15:20:31Z</time>
      </trkpt>
      <trkpt lat="45.81813" lon="2.88037">
        <ele>829</ele>
        <time>2018-05-19T15:20:33Z</time>
      </trkpt>
      <trkpt lat="45.81815" lon="2.88027">
        <ele>830</ele>
        <time>2018-05-19T15:20:35Z</time>
      </trkpt>
      <trkpt lat="45.81818" lon="2.88016">
        <ele>830</ele>
        <time>2018-05-19T15:20:37Z</time>
      </trkpt>
      <trkpt lat="45.81821" lon="2.88003">
        <ele>829</ele>
        <time>2018-05-19T15:20:39Z</time>
      </trkpt>
      <trkpt lat="45.81821" lon="2.87988">
        <ele>828</ele>
        <time>2018-05-19T15:20:41Z</time>
      </trkpt>
      <trkpt lat="45.81821" lon="2.87973">
        <ele>828</ele>
        <time>2018-05-19T15:20:43Z</time>
      </trkpt>
      <trkpt lat="45.81822" lon="2.87957">
        <ele>828</ele>
        <time>2018-05-19T15:20:45Z</time>
      </trkpt>
      <trkpt lat="45.81823" lon="2.87943">
        <ele>827</ele>
        <time>2018-05-19T15:20:47Z</time>
      </trkpt>
      <trkpt lat="45.81825" lon="2.87928">
        <ele>827</ele>
        <time>2018-05-19T15:20:49Z</time>
      </trkpt>
      <trkpt lat="45.81826" lon="2.87915">
        <ele>827</ele>
        <time>2018-05-19T15:20:51Z</time>
      </trkpt>
      <trkpt lat="45.81829" lon="2.87904">
        <ele>827</ele>
        <time>2018-05-19T15:20:53Z</time>
      </trkpt>
      <trkpt lat="45.8183" lon="2.87894">
        <ele>826</ele>
        <time>2018-05-19T15:20:55Z</time>
      </trkpt>
      <trkpt lat="45.81832" lon="2.87884">
        <ele>826</ele>
        <time>2018-05-19T15:20:57Z</time>
      </trkpt>
      <trkpt lat="45.81833" lon="2.87874">
        <ele>825</ele>
        <time>2018-05-19T15:20:59Z</time>
      </trkpt>
      <trkpt lat="45.81836" lon="2.87864">
        <ele>825</ele>
        <time>2018-05-19T15:21:01Z</time>
      </trkpt>
      <trkpt lat="45.81838" lon="2.87855">
        <ele>826</ele>
        <time>2018-05-19T15:21:05Z</time>
      </trkpt>
      <trkpt lat="45.81834" lon="2.87863">
        <ele>827</ele>
        <time>2018-05-19T15:21:43Z</time>
      </trkpt>
      <trkpt lat="45.81831" lon="2.87869">
        <ele>829</ele>
        <time>2018-05-19T15:21:45Z</time>
      </trkpt>
      <trkpt lat="45.8183" lon="2.87877">
        <ele>829</ele>
        <time>2018-05-19T15:21:47Z</time>
      </trkpt>
      <trkpt lat="45.81829" lon="2.87886">
        <ele>829</ele>
        <time>2018-05-19T15:21:49Z</time>
      </trkpt>
      <trkpt lat="45.81827" lon="2.87895">
        <ele>829</ele>
        <time>2018-05-19T15:21:51Z</time>
      </trkpt>
      <trkpt lat="45.81826" lon="2.87905">
        <ele>830</ele>
        <time>2018-05-19T15:21:53Z</time>
      </trkpt>
      <trkpt lat="45.81824" lon="2.87916">
        <ele>830</ele>
        <time>2018-05-19T15:21:55Z</time>
      </trkpt>
      <trkpt lat="45.81821" lon="2.87927">
        <ele>830</ele>
        <time>2018-05-19T15:21:57Z</time>
      </trkpt>
      <trkpt lat="45.81819" lon="2.87939">
        <ele>831</ele>
        <time>2018-05-19T15:21:59Z</time>
      </trkpt>
      <trkpt lat="45.81818" lon="2.87951">
        <ele>831</ele>
        <time>2018-05-19T15:22:01Z</time>
      </trkpt>
      <trkpt lat="45.81818" lon="2.87963">
        <ele>831</ele>
        <time>2018-05-19T15:22:03Z</time>
      </trkpt>
      <trkpt lat="45.81817" lon="2.87972">
        <ele>833</ele>
        <time>2018-05-19T15:22:05Z</time>
      </trkpt>
      <trkpt lat="45.81817" lon="2.8798">
        <ele>834</ele>
        <time>2018-05-19T15:22:07Z</time>
      </trkpt>
      <trkpt lat="45.81815" lon="2.87997">
        <ele>837</ele>
        <time>2018-05-19T15:22:11Z</time>
      </trkpt>
      <trkpt lat="45.81814" lon="2.88007">
        <ele>838</ele>
        <time>2018-05-19T15:22:13Z</time>
      </trkpt>
      <trkpt lat="45.81814" lon="2.88016">
        <ele>836</ele>
        <time>2018-05-19T15:22:15Z</time>
      </trkpt>
      <trkpt lat="45.81812" lon="2.88024">
        <ele>838</ele>
        <time>2018-05-19T15:22:17Z</time>
      </trkpt>
      <trkpt lat="45.8181" lon="2.8803">
        <ele>839</ele>
        <time>2018-05-19T15:22:19Z</time>
      </trkpt>
      <trkpt lat="45.81813" lon="2.88038">
        <ele>837</ele>
        <time>2018-05-19T15:22:21Z</time>
      </trkpt>
      <trkpt lat="45.81815" lon="2.88046">
        <ele>836</ele>
        <time>2018-05-19T15:22:23Z</time>
      </trkpt>
      <trkpt lat="45.81815" lon="2.88054">
        <ele>835</ele>
        <time>2018-05-19T15:22:25Z</time>
      </trkpt>
      <trkpt lat="45.81816" lon="2.88061">
        <ele>834</ele>
        <time>2018-05-19T15:22:27Z</time>
      </trkpt>
      <trkpt lat="45.81819" lon="2.88073">
        <ele>834</ele>
        <time>2018-05-19T15:22:31Z</time>
      </trkpt>
      <trkpt lat="45.81818" lon="2.8808">
        <ele>833</ele>
        <time>2018-05-19T15:22:33Z</time>
      </trkpt>
      <trkpt lat="45.81819" lon="2.88087">
        <ele>833</ele>
        <time>2018-05-19T15:22:35Z</time>
      </trkpt>
      <trkpt lat="45.8182" lon="2.88094">
        <ele>833</ele>
        <time>2018-05-19T15:22:37Z</time>
      </trkpt>
      <trkpt lat="45.8182" lon="2.88101">
        <ele>833</ele>
        <time>2018-05-19T15:22:39Z</time>
      </trkpt>
      <trkpt lat="45.8182" lon="2.88107">
        <ele>833</ele>
        <time>2018-05-19T15:22:41Z</time>
      </trkpt>
      <trkpt lat="45.81824" lon="2.88115">
        <ele>833</ele>
        <time>2018-05-19T15:22:45Z</time>
      </trkpt>
      <trkpt lat="45.81829" lon="2.88113">
        <ele>834</ele>
        <time>2018-05-19T15:22:59Z</time>
      </trkpt>
      <trkpt lat="45.81835" lon="2.88109">
        <ele>835</ele>
        <time>2018-05-19T15:23:03Z</time>
      </trkpt>
      <trkpt lat="45.8184" lon="2.88102">
        <ele>835</ele>
        <time>2018-05-19T15:23:07Z</time>
      </trkpt>
      <trkpt lat="45.81839" lon="2.88095">
        <ele>833</ele>
        <time>2018-05-19T15:23:09Z</time>
      </trkpt>
      <trkpt lat="45.81842" lon="2.88089">
        <ele>833</ele>
        <time>2018-05-19T15:23:11Z</time>
      </trkpt>
      <trkpt lat="45.81844" lon="2.88082">
        <ele>834</ele>
        <time>2018-05-19T15:23:13Z</time>
      </trkpt>
      <trkpt lat="45.81849" lon="2.88077">
        <ele>833</ele>
        <time>2018-05-19T15:23:15Z</time>
      </trkpt>
      <trkpt lat="45.81853" lon="2.88069">
        <ele>833</ele>
        <time>2018-05-19T15:23:17Z</time>
      </trkpt>
      <trkpt lat="45.81858" lon="2.88061">
        <ele>832</ele>
        <time>2018-05-19T15:23:19Z</time>
      </trkpt>
      <trkpt lat="45.81862" lon="2.88049">
        <ele>833</ele>
        <time>2018-05-19T15:23:21Z</time>
      </trkpt>
      <trkpt lat="45.81864" lon="2.88039">
        <ele>831</ele>
        <time>2018-05-19T15:23:23Z</time>
      </trkpt>
      <trkpt lat="45.81868" lon="2.88031">
        <ele>831</ele>
        <time>2018-05-19T15:23:25Z</time>
      </trkpt>
      <trkpt lat="45.81873" lon="2.88019">
        <ele>830</ele>
        <time>2018-05-19T15:23:29Z</time>
      </trkpt>
      <trkpt lat="45.81881" lon="2.88011">
        <ele>829</ele>
        <time>2018-05-19T15:23:33Z</time>
      </trkpt>
      <trkpt lat="45.81888" lon="2.88006">
        <ele>830</ele>
        <time>2018-05-19T15:23:37Z</time>
      </trkpt>
      <trkpt lat="45.81893" lon="2.88007">
        <ele>830</ele>
        <time>2018-05-19T15:23:39Z</time>
      </trkpt>
      <trkpt lat="45.819" lon="2.88007">
        <ele>829</ele>
        <time>2018-05-19T15:23:41Z</time>
      </trkpt>
      <trkpt lat="45.81905" lon="2.88008">
        <ele>828</ele>
        <time>2018-05-19T15:23:43Z</time>
      </trkpt>
      <trkpt lat="45.81911" lon="2.88011">
        <ele>828</ele>
        <time>2018-05-19T15:23:55Z</time>
      </trkpt>
      <trkpt lat="45.81916" lon="2.88011">
        <ele>836</ele>
        <time>2018-05-19T15:25:49Z</time>
      </trkpt>
      <trkpt lat="45.8192" lon="2.88006">
        <ele>837</ele>
        <time>2018-05-19T15:26:15Z</time>
      </trkpt>
      <trkpt lat="45.81925" lon="2.88006">
        <ele>836</ele>
        <time>2018-05-19T15:26:23Z</time>
      </trkpt>
      <trkpt lat="45.8193" lon="2.88004">
        <ele>835</ele>
        <time>2018-05-19T15:26:27Z</time>
      </trkpt>
      <trkpt lat="45.81935" lon="2.88">
        <ele>834</ele>
        <time>2018-05-19T15:26:35Z</time>
      </trkpt>
      <trkpt lat="45.8194" lon="2.87997">
        <ele>831</ele>
        <time>2018-05-19T15:26:39Z</time>
      </trkpt>
      <trkpt lat="45.81947" lon="2.87995">
        <ele>830</ele>
        <time>2018-05-19T15:26:43Z</time>
      </trkpt>
      <trkpt lat="45.81957" lon="2.87996">
        <ele>829</ele>
        <time>2018-05-19T15:26:47Z</time>
      </trkpt>
      <trkpt lat="45.81962" lon="2.87995">
        <ele>830</ele>
        <time>2018-05-19T15:26:49Z</time>
      </trkpt>
      <trkpt lat="45.81969" lon="2.87994">
        <ele>831</ele>
        <time>2018-05-19T15:26:51Z</time>
      </trkpt>
      <trkpt lat="45.81975" lon="2.87992">
        <ele>832</ele>
        <time>2018-05-19T15:26:53Z</time>
      </trkpt>
      <trkpt lat="45.81982" lon="2.87992">
        <ele>832</ele>
        <time>2018-05-19T15:26:55Z</time>
      </trkpt>
      <trkpt lat="45.81988" lon="2.87992">
        <ele>833</ele>
        <time>2018-05-19T15:26:57Z</time>
      </trkpt>
      <trkpt lat="45.81995" lon="2.87992">
        <ele>835</ele>
        <time>2018-05-19T15:26:59Z</time>
      </trkpt>
      <trkpt lat="45.82001" lon="2.87992">
        <ele>836</ele>
        <time>2018-05-19T15:27:01Z</time>
      </trkpt>
      <trkpt lat="45.8201" lon="2.87992">
        <ele>838</ele>
        <time>2018-05-19T15:27:03Z</time>
      </trkpt>
      <trkpt lat="45.82018" lon="2.87993">
        <ele>841</ele>
        <time>2018-05-19T15:27:05Z</time>
      </trkpt>
      <trkpt lat="45.82026" lon="2.87994">
        <ele>841</ele>
        <time>2018-05-19T15:27:07Z</time>
      </trkpt>
      <trkpt lat="45.82035" lon="2.87993">
        <ele>836</ele>
        <time>2018-05-19T15:27:09Z</time>
      </trkpt>
      <trkpt lat="45.82044" lon="2.87989">
        <ele>828</ele>
        <time>2018-05-19T15:27:11Z</time>
      </trkpt>
      <trkpt lat="45.82049" lon="2.87984">
        <ele>826</ele>
        <time>2018-05-19T15:27:13Z</time>
      </trkpt>
      <trkpt lat="45.82057" lon="2.87982">
        <ele>823</ele>
        <time>2018-05-19T15:27:15Z</time>
      </trkpt>
      <trkpt lat="45.82066" lon="2.87983">
        <ele>823</ele>
        <time>2018-05-19T15:27:17Z</time>
      </trkpt>
      <trkpt lat="45.82072" lon="2.87983">
        <ele>823</ele>
        <time>2018-05-19T15:27:19Z</time>
      </trkpt>
      <trkpt lat="45.82078" lon="2.87982">
        <ele>823</ele>
        <time>2018-05-19T15:27:21Z</time>
      </trkpt>
      <trkpt lat="45.82083" lon="2.87981">
        <ele>822</ele>
        <time>2018-05-19T15:27:23Z</time>
      </trkpt>
      <trkpt lat="45.8209" lon="2.87981">
        <ele>821</ele>
        <time>2018-05-19T15:27:25Z</time>
      </trkpt>
      <trkpt lat="45.821" lon="2.87983">
        <ele>821</ele>
        <time>2018-05-19T15:27:27Z</time>
      </trkpt>
      <trkpt lat="45.82109" lon="2.87984">
        <ele>819</ele>
        <time>2018-05-19T15:27:29Z</time>
      </trkpt>
      <trkpt lat="45.82116" lon="2.87983">
        <ele>819</ele>
        <time>2018-05-19T15:27:31Z</time>
      </trkpt>
      <trkpt lat="45.82122" lon="2.87983">
        <ele>820</ele>
        <time>2018-05-19T15:27:33Z</time>
      </trkpt>
      <trkpt lat="45.82127" lon="2.87989">
        <ele>819</ele>
        <time>2018-05-19T15:27:35Z</time>
      </trkpt>
      <trkpt lat="45.8213" lon="2.87994">
        <ele>818</ele>
        <time>2018-05-19T15:27:37Z</time>
      </trkpt>
      <trkpt lat="45.82135" lon="2.88001">
        <ele>813</ele>
        <time>2018-05-19T15:27:39Z</time>
      </trkpt>
      <trkpt lat="45.8214" lon="2.88007">
        <ele>808</ele>
        <time>2018-05-19T15:27:41Z</time>
      </trkpt>
      <trkpt lat="45.82146" lon="2.88009">
        <ele>810</ele>
        <time>2018-05-19T15:27:43Z</time>
      </trkpt>
      <trkpt lat="45.82151" lon="2.88008">
        <ele>811</ele>
        <time>2018-05-19T15:27:45Z</time>
      </trkpt>
      <trkpt lat="45.82157" lon="2.88005">
        <ele>813</ele>
        <time>2018-05-19T15:27:49Z</time>
      </trkpt>
      <trkpt lat="45.82168" lon="2.88005">
        <ele>813</ele>
        <time>2018-05-19T15:27:53Z</time>
      </trkpt>
      <trkpt lat="45.82174" lon="2.88007">
        <ele>812</ele>
        <time>2018-05-19T15:27:55Z</time>
      </trkpt>
      <trkpt lat="45.82179" lon="2.88008">
        <ele>813</ele>
        <time>2018-05-19T15:27:57Z</time>
      </trkpt>
      <trkpt lat="45.82186" lon="2.88004">
        <ele>814</ele>
        <time>2018-05-19T15:28:01Z</time>
      </trkpt>
      <trkpt lat="45.8219" lon="2.87999">
        <ele>817</ele>
        <time>2018-05-19T15:28:03Z</time>
      </trkpt>
      <trkpt lat="45.82196" lon="2.87993">
        <ele>818</ele>
        <time>2018-05-19T15:28:07Z</time>
      </trkpt>
      <trkpt lat="45.82204" lon="2.87989">
        <ele>819</ele>
        <time>2018-05-19T15:28:11Z</time>
      </trkpt>
      <trkpt lat="45.82211" lon="2.87984">
        <ele>820</ele>
        <time>2018-05-19T15:28:15Z</time>
      </trkpt>
      <trkpt lat="45.82216" lon="2.87976">
        <ele>823</ele>
        <time>2018-05-19T15:28:19Z</time>
      </trkpt>
      <trkpt lat="45.82221" lon="2.87972">
        <ele>826</ele>
        <time>2018-05-19T15:28:23Z</time>
      </trkpt>
      <trkpt lat="45.82225" lon="2.87964">
        <ele>827</ele>
        <time>2018-05-19T15:28:27Z</time>
      </trkpt>
      <trkpt lat="45.8223" lon="2.87961">
        <ele>828</ele>
        <time>2018-05-19T15:28:31Z</time>
      </trkpt>
      <trkpt lat="45.82236" lon="2.87961">
        <ele>825</ele>
        <time>2018-05-19T15:28:35Z</time>
      </trkpt>
      <trkpt lat="45.82241" lon="2.87961">
        <ele>827</ele>
        <time>2018-05-19T15:28:37Z</time>
      </trkpt>
      <trkpt lat="45.82251" lon="2.87961">
        <ele>828</ele>
        <time>2018-05-19T15:28:41Z</time>
      </trkpt>
      <trkpt lat="45.82257" lon="2.8796">
        <ele>826</ele>
        <time>2018-05-19T15:28:43Z</time>
      </trkpt>
      <trkpt lat="45.82265" lon="2.87961">
        <ele>826</ele>
        <time>2018-05-19T15:28:45Z</time>
      </trkpt>
      <trkpt lat="45.82273" lon="2.87963">
        <ele>826</ele>
        <time>2018-05-19T15:28:47Z</time>
      </trkpt>
      <trkpt lat="45.8228" lon="2.87958">
        <ele>827</ele>
        <time>2018-05-19T15:28:49Z</time>
      </trkpt>
      <trkpt lat="45.82284" lon="2.87955">
        <ele>827</ele>
        <time>2018-05-19T15:28:51Z</time>
      </trkpt>
      <trkpt lat="45.8229" lon="2.87952">
        <ele>825</ele>
        <time>2018-05-19T15:28:55Z</time>
      </trkpt>
      <trkpt lat="45.82295" lon="2.87953">
        <ele>826</ele>
        <time>2018-05-19T15:28:59Z</time>
      </trkpt>
      <trkpt lat="45.82303" lon="2.87956">
        <ele>826</ele>
        <time>2018-05-19T15:29:03Z</time>
      </trkpt>
      <trkpt lat="45.82311" lon="2.87956">
        <ele>828</ele>
        <time>2018-05-19T15:29:07Z</time>
      </trkpt>
      <trkpt lat="45.82317" lon="2.87958">
        <ele>827</ele>
        <time>2018-05-19T15:29:09Z</time>
      </trkpt>
      <trkpt lat="45.82322" lon="2.87962">
        <ele>827</ele>
        <time>2018-05-19T15:29:11Z</time>
      </trkpt>
      <trkpt lat="45.82328" lon="2.87964">
        <ele>826</ele>
        <time>2018-05-19T15:29:13Z</time>
      </trkpt>
      <trkpt lat="45.82333" lon="2.87967">
        <ele>825</ele>
        <time>2018-05-19T15:29:15Z</time>
      </trkpt>
      <trkpt lat="45.82338" lon="2.8797">
        <ele>825</ele>
        <time>2018-05-19T15:29:17Z</time>
      </trkpt>
      <trkpt lat="45.82343" lon="2.87974">
        <ele>825</ele>
        <time>2018-05-19T15:29:19Z</time>
      </trkpt>
      <trkpt lat="45.82348" lon="2.87977">
        <ele>825</ele>
        <time>2018-05-19T15:29:21Z</time>
      </trkpt>
      <trkpt lat="45.82353" lon="2.87981">
        <ele>825</ele>
        <time>2018-05-19T15:29:23Z</time>
      </trkpt>
      <trkpt lat="45.82358" lon="2.87986">
        <ele>825</ele>
        <time>2018-05-19T15:29:25Z</time>
      </trkpt>
      <trkpt lat="45.82363" lon="2.87991">
        <ele>826</ele>
        <time>2018-05-19T15:29:27Z</time>
      </trkpt>
      <trkpt lat="45.82367" lon="2.87996">
        <ele>826</ele>
        <time>2018-05-19T15:29:29Z</time>
      </trkpt>
      <trkpt lat="45.82372" lon="2.88">
        <ele>826</ele>
        <time>2018-05-19T15:29:31Z</time>
      </trkpt>
      <trkpt lat="45.82376" lon="2.88005">
        <ele>826</ele>
        <time>2018-05-19T15:29:33Z</time>
      </trkpt>
      <trkpt lat="45.8238" lon="2.8801">
        <ele>827</ele>
        <time>2018-05-19T15:29:35Z</time>
      </trkpt>
      <trkpt lat="45.82384" lon="2.88015">
        <ele>827</ele>
        <time>2018-05-19T15:29:37Z</time>
      </trkpt>
      <trkpt lat="45.82388" lon="2.88019">
        <ele>827</ele>
        <time>2018-05-19T15:29:39Z</time>
      </trkpt>
      <trkpt lat="45.82391" lon="2.88024">
        <ele>827</ele>
        <time>2018-05-19T15:29:41Z</time>
      </trkpt>
      <trkpt lat="45.82395" lon="2.88029">
        <ele>827</ele>
        <time>2018-05-19T15:29:43Z</time>
      </trkpt>
      <trkpt lat="45.82398" lon="2.88034">
        <ele>828</ele>
        <time>2018-05-19T15:29:45Z</time>
      </trkpt>
      <trkpt lat="45.82402" lon="2.88039">
        <ele>828</ele>
        <time>2018-05-19T15:29:47Z</time>
      </trkpt>
      <trkpt lat="45.82405" lon="2.88044">
        <ele>828</ele>
        <time>2018-05-19T15:29:49Z</time>
      </trkpt>
      <trkpt lat="45.82408" lon="2.88049">
        <ele>828</ele>
        <time>2018-05-19T15:29:51Z</time>
      </trkpt>
      <trkpt lat="45.82411" lon="2.88054">
        <ele>828</ele>
        <time>2018-05-19T15:29:53Z</time>
      </trkpt>
      <trkpt lat="45.82414" lon="2.8806">
        <ele>829</ele>
        <time>2018-05-19T15:29:55Z</time>
      </trkpt>
      <trkpt lat="45.82418" lon="2.88065">
        <ele>829</ele>
        <time>2018-05-19T15:29:57Z</time>
      </trkpt>
      <trkpt lat="45.82423" lon="2.88073">
        <ele>829</ele>
        <time>2018-05-19T15:30:01Z</time>
      </trkpt>
      <trkpt lat="45.82427" lon="2.88084">
        <ele>830</ele>
        <time>2018-05-19T15:30:05Z</time>
      </trkpt>
      <trkpt lat="45.82429" lon="2.8809">
        <ele>830</ele>
        <time>2018-05-19T15:30:07Z</time>
      </trkpt>
      <trkpt lat="45.82432" lon="2.88095">
        <ele>831</ele>
        <time>2018-05-19T15:30:09Z</time>
      </trkpt>
      <trkpt lat="45.82436" lon="2.881">
        <ele>831</ele>
        <time>2018-05-19T15:30:11Z</time>
      </trkpt>
      <trkpt lat="45.82439" lon="2.88105">
        <ele>831</ele>
        <time>2018-05-19T15:30:13Z</time>
      </trkpt>
      <trkpt lat="45.82442" lon="2.88111">
        <ele>831</ele>
        <time>2018-05-19T15:30:15Z</time>
      </trkpt>
      <trkpt lat="45.82445" lon="2.88116">
        <ele>832</ele>
        <time>2018-05-19T15:30:17Z</time>
      </trkpt>
      <trkpt lat="45.82449" lon="2.88121">
        <ele>832</ele>
        <time>2018-05-19T15:30:19Z</time>
      </trkpt>
      <trkpt lat="45.82452" lon="2.88126">
        <ele>833</ele>
        <time>2018-05-19T15:30:21Z</time>
      </trkpt>
      <trkpt lat="45.82456" lon="2.8813">
        <ele>833</ele>
        <time>2018-05-19T15:30:23Z</time>
      </trkpt>
      <trkpt lat="45.8246" lon="2.88134">
        <ele>833</ele>
        <time>2018-05-19T15:30:25Z</time>
      </trkpt>
      <trkpt lat="45.82466" lon="2.88143">
        <ele>834</ele>
        <time>2018-05-19T15:30:29Z</time>
      </trkpt>
      <trkpt lat="45.8247" lon="2.88147">
        <ele>834</ele>
        <time>2018-05-19T15:30:31Z</time>
      </trkpt>
      <trkpt lat="45.82477" lon="2.88156">
        <ele>834</ele>
        <time>2018-05-19T15:30:35Z</time>
      </trkpt>
      <trkpt lat="45.8248" lon="2.8816">
        <ele>834</ele>
        <time>2018-05-19T15:30:37Z</time>
      </trkpt>
      <trkpt lat="45.82484" lon="2.88165">
        <ele>835</ele>
        <time>2018-05-19T15:30:39Z</time>
      </trkpt>
      <trkpt lat="45.82491" lon="2.88173">
        <ele>835</ele>
        <time>2018-05-19T15:30:43Z</time>
      </trkpt>
      <trkpt lat="45.82494" lon="2.88177">
        <ele>835</ele>
        <time>2018-05-19T15:30:45Z</time>
      </trkpt>
      <trkpt lat="45.825" lon="2.88183">
        <ele>836</ele>
        <time>2018-05-19T15:30:49Z</time>
      </trkpt>
      <trkpt lat="45.82506" lon="2.8819">
        <ele>836</ele>
        <time>2018-05-19T15:30:53Z</time>
      </trkpt>
      <trkpt lat="45.8251" lon="2.88196">
        <ele>836</ele>
        <time>2018-05-19T15:30:57Z</time>
      </trkpt>
      <trkpt lat="45.82516" lon="2.88202">
        <ele>837</ele>
        <time>2018-05-19T15:31:01Z</time>
      </trkpt>
      <trkpt lat="45.82524" lon="2.88208">
        <ele>837</ele>
        <time>2018-05-19T15:31:05Z</time>
      </trkpt>
      <trkpt lat="45.82528" lon="2.88212">
        <ele>837</ele>
        <time>2018-05-19T15:31:07Z</time>
      </trkpt>
      <trkpt lat="45.82531" lon="2.88218">
        <ele>837</ele>
        <time>2018-05-19T15:31:09Z</time>
      </trkpt>
      <trkpt lat="45.82535" lon="2.88223">
        <ele>837</ele>
        <time>2018-05-19T15:31:11Z</time>
      </trkpt>
      <trkpt lat="45.82539" lon="2.88227">
        <ele>837</ele>
        <time>2018-05-19T15:31:13Z</time>
      </trkpt>
      <trkpt lat="45.82544" lon="2.88232">
        <ele>837</ele>
        <time>2018-05-19T15:31:15Z</time>
      </trkpt>
      <trkpt lat="45.82548" lon="2.88237">
        <ele>837</ele>
        <time>2018-05-19T15:31:17Z</time>
      </trkpt>
      <trkpt lat="45.82552" lon="2.88243">
        <ele>837</ele>
        <time>2018-05-19T15:31:19Z</time>
      </trkpt>
      <trkpt lat="45.82556" lon="2.88248">
        <ele>837</ele>
        <time>2018-05-19T15:31:21Z</time>
      </trkpt>
      <trkpt lat="45.82561" lon="2.88254">
        <ele>837</ele>
        <time>2018-05-19T15:31:23Z</time>
      </trkpt>
      <trkpt lat="45.82565" lon="2.88259">
        <ele>837</ele>
        <time>2018-05-19T15:31:25Z</time>
      </trkpt>
      <trkpt lat="45.82569" lon="2.88265">
        <ele>838</ele>
        <time>2018-05-19T15:31:27Z</time>
      </trkpt>
      <trkpt lat="45.82572" lon="2.8827">
        <ele>838</ele>
        <time>2018-05-19T15:31:29Z</time>
      </trkpt>
      <trkpt lat="45.82576" lon="2.88276">
        <ele>838</ele>
        <time>2018-05-19T15:31:31Z</time>
      </trkpt>
      <trkpt lat="45.82579" lon="2.88282">
        <ele>838</ele>
        <time>2018-05-19T15:31:33Z</time>
      </trkpt>
      <trkpt lat="45.82582" lon="2.88288">
        <ele>838</ele>
        <time>2018-05-19T15:31:35Z</time>
      </trkpt>
      <trkpt lat="45.82585" lon="2.88294">
        <ele>838</ele>
        <time>2018-05-19T15:31:37Z</time>
      </trkpt>
      <trkpt lat="45.82588" lon="2.883">
        <ele>838</ele>
        <time>2018-05-19T15:31:39Z</time>
      </trkpt>
      <trkpt lat="45.82591" lon="2.88306">
        <ele>839</ele>
        <time>2018-05-19T15:31:41Z</time>
      </trkpt>
      <trkpt lat="45.82594" lon="2.88312">
        <ele>839</ele>
        <time>2018-05-19T15:31:43Z</time>
      </trkpt>
      <trkpt lat="45.82597" lon="2.88318">
        <ele>839</ele>
        <time>2018-05-19T15:31:45Z</time>
      </trkpt>
      <trkpt lat="45.82601" lon="2.88324">
        <ele>839</ele>
        <time>2018-05-19T15:31:47Z</time>
      </trkpt>
      <trkpt lat="45.82604" lon="2.88331">
        <ele>839</ele>
        <time>2018-05-19T15:31:49Z</time>
      </trkpt>
      <trkpt lat="45.82607" lon="2.88338">
        <ele>839</ele>
        <time>2018-05-19T15:31:51Z</time>
      </trkpt>
      <trkpt lat="45.82611" lon="2.88344">
        <ele>839</ele>
        <time>2018-05-19T15:31:53Z</time>
      </trkpt>
      <trkpt lat="45.82614" lon="2.8835">
        <ele>839</ele>
        <time>2018-05-19T15:31:55Z</time>
      </trkpt>
      <trkpt lat="45.82617" lon="2.88356">
        <ele>839</ele>
        <time>2018-05-19T15:31:57Z</time>
      </trkpt>
      <trkpt lat="45.8262" lon="2.88362">
        <ele>839</ele>
        <time>2018-05-19T15:31:59Z</time>
      </trkpt>
      <trkpt lat="45.82623" lon="2.88368">
        <ele>840</ele>
        <time>2018-05-19T15:32:01Z</time>
      </trkpt>
      <trkpt lat="45.82626" lon="2.88375">
        <ele>840</ele>
        <time>2018-05-19T15:32:03Z</time>
      </trkpt>
      <trkpt lat="45.82629" lon="2.88381">
        <ele>840</ele>
        <time>2018-05-19T15:32:05Z</time>
      </trkpt>
      <trkpt lat="45.82633" lon="2.88387">
        <ele>840</ele>
        <time>2018-05-19T15:32:07Z</time>
      </trkpt>
      <trkpt lat="45.82636" lon="2.88393">
        <ele>840</ele>
        <time>2018-05-19T15:32:09Z</time>
      </trkpt>
      <trkpt lat="45.82639" lon="2.884">
        <ele>841</ele>
        <time>2018-05-19T15:32:11Z</time>
      </trkpt>
      <trkpt lat="45.82642" lon="2.88406">
        <ele>841</ele>
        <time>2018-05-19T15:32:13Z</time>
      </trkpt>
      <trkpt lat="45.82646" lon="2.88413">
        <ele>841</ele>
        <time>2018-05-19T15:32:15Z</time>
      </trkpt>
      <trkpt lat="45.82649" lon="2.88419">
        <ele>841</ele>
        <time>2018-05-19T15:32:17Z</time>
      </trkpt>
      <trkpt lat="45.82653" lon="2.88426">
        <ele>841</ele>
        <time>2018-05-19T15:32:19Z</time>
      </trkpt>
      <trkpt lat="45.82657" lon="2.88432">
        <ele>842</ele>
        <time>2018-05-19T15:32:21Z</time>
      </trkpt>
      <trkpt lat="45.8266" lon="2.88438">
        <ele>841</ele>
        <time>2018-05-19T15:32:23Z</time>
      </trkpt>
      <trkpt lat="45.82663" lon="2.88444">
        <ele>842</ele>
        <time>2018-05-19T15:32:25Z</time>
      </trkpt>
      <trkpt lat="45.82666" lon="2.88451">
        <ele>842</ele>
        <time>2018-05-19T15:32:27Z</time>
      </trkpt>
      <trkpt lat="45.82669" lon="2.88457">
        <ele>842</ele>
        <time>2018-05-19T15:32:29Z</time>
      </trkpt>
      <trkpt lat="45.82672" lon="2.88464">
        <ele>843</ele>
        <time>2018-05-19T15:32:31Z</time>
      </trkpt>
      <trkpt lat="45.82675" lon="2.88471">
        <ele>843</ele>
        <time>2018-05-19T15:32:33Z</time>
      </trkpt>
      <trkpt lat="45.82678" lon="2.88477">
        <ele>843</ele>
        <time>2018-05-19T15:32:35Z</time>
      </trkpt>
      <trkpt lat="45.82681" lon="2.88484">
        <ele>843</ele>
        <time>2018-05-19T15:32:37Z</time>
      </trkpt>
      <trkpt lat="45.82684" lon="2.88491">
        <ele>843</ele>
        <time>2018-05-19T15:32:39Z</time>
      </trkpt>
      <trkpt lat="45.82688" lon="2.88498">
        <ele>843</ele>
        <time>2018-05-19T15:32:41Z</time>
      </trkpt>
      <trkpt lat="45.8269" lon="2.88505">
        <ele>843</ele>
        <time>2018-05-19T15:32:43Z</time>
      </trkpt>
      <trkpt lat="45.82693" lon="2.88513">
        <ele>843</ele>
        <time>2018-05-19T15:32:45Z</time>
      </trkpt>
      <trkpt lat="45.82696" lon="2.88521">
        <ele>843</ele>
        <time>2018-05-19T15:32:47Z</time>
      </trkpt>
      <trkpt lat="45.82698" lon="2.88528">
        <ele>843</ele>
        <time>2018-05-19T15:32:49Z</time>
      </trkpt>
      <trkpt lat="45.82701" lon="2.88537">
        <ele>843</ele>
        <time>2018-05-19T15:32:51Z</time>
      </trkpt>
      <trkpt lat="45.82703" lon="2.88546">
        <ele>844</ele>
        <time>2018-05-19T15:32:53Z</time>
      </trkpt>
      <trkpt lat="45.82706" lon="2.88554">
        <ele>844</ele>
        <time>2018-05-19T15:32:55Z</time>
      </trkpt>
      <trkpt lat="45.82708" lon="2.88563">
        <ele>844</ele>
        <time>2018-05-19T15:32:57Z</time>
      </trkpt>
      <trkpt lat="45.82711" lon="2.88571">
        <ele>844</ele>
        <time>2018-05-19T15:32:59Z</time>
      </trkpt>
      <trkpt lat="45.82713" lon="2.8858">
        <ele>845</ele>
        <time>2018-05-19T15:33:01Z</time>
      </trkpt>
      <trkpt lat="45.82715" lon="2.88589">
        <ele>845</ele>
        <time>2018-05-19T15:33:03Z</time>
      </trkpt>
      <trkpt lat="45.82718" lon="2.88598">
        <ele>845</ele>
        <time>2018-05-19T15:33:05Z</time>
      </trkpt>
      <trkpt lat="45.8272" lon="2.88607">
        <ele>845</ele>
        <time>2018-05-19T15:33:07Z</time>
      </trkpt>
      <trkpt lat="45.82722" lon="2.88614">
        <ele>845</ele>
        <time>2018-05-19T15:33:09Z</time>
      </trkpt>
      <trkpt lat="45.82724" lon="2.88621">
        <ele>845</ele>
        <time>2018-05-19T15:33:11Z</time>
      </trkpt>
      <trkpt lat="45.82726" lon="2.88629">
        <ele>845</ele>
        <time>2018-05-19T15:33:13Z</time>
      </trkpt>
      <trkpt lat="45.82729" lon="2.88638">
        <ele>845</ele>
        <time>2018-05-19T15:33:15Z</time>
      </trkpt>
      <trkpt lat="45.82732" lon="2.88647">
        <ele>845</ele>
        <time>2018-05-19T15:33:17Z</time>
      </trkpt>
      <trkpt lat="45.82736" lon="2.88657">
        <ele>845</ele>
        <time>2018-05-19T15:33:19Z</time>
      </trkpt>
      <trkpt lat="45.82738" lon="2.88668">
        <ele>845</ele>
        <time>2018-05-19T15:33:21Z</time>
      </trkpt>
      <trkpt lat="45.82741" lon="2.88678">
        <ele>845</ele>
        <time>2018-05-19T15:33:23Z</time>
      </trkpt>
      <trkpt lat="45.82744" lon="2.88688">
        <ele>845</ele>
        <time>2018-05-19T15:33:25Z</time>
      </trkpt>
      <trkpt lat="45.82747" lon="2.88698">
        <ele>845</ele>
        <time>2018-05-19T15:33:27Z</time>
      </trkpt>
      <trkpt lat="45.8275" lon="2.88706">
        <ele>844</ele>
        <time>2018-05-19T15:33:29Z</time>
      </trkpt>
      <trkpt lat="45.82753" lon="2.88715">
        <ele>845</ele>
        <time>2018-05-19T15:33:31Z</time>
      </trkpt>
      <trkpt lat="45.82755" lon="2.88723">
        <ele>845</ele>
        <time>2018-05-19T15:33:33Z</time>
      </trkpt>
      <trkpt lat="45.82758" lon="2.88732">
        <ele>845</ele>
        <time>2018-05-19T15:33:35Z</time>
      </trkpt>
      <trkpt lat="45.8276" lon="2.88741">
        <ele>845</ele>
        <time>2018-05-19T15:33:37Z</time>
      </trkpt>
      <trkpt lat="45.82762" lon="2.88749">
        <ele>845</ele>
        <time>2018-05-19T15:33:39Z</time>
      </trkpt>
      <trkpt lat="45.82765" lon="2.88757">
        <ele>845</ele>
        <time>2018-05-19T15:33:41Z</time>
      </trkpt>
      <trkpt lat="45.82766" lon="2.88765">
        <ele>846</ele>
        <time>2018-05-19T15:33:43Z</time>
      </trkpt>
      <trkpt lat="45.82769" lon="2.88771">
        <ele>846</ele>
        <time>2018-05-19T15:33:45Z</time>
      </trkpt>
      <trkpt lat="45.82771" lon="2.88778">
        <ele>846</ele>
        <time>2018-05-19T15:33:47Z</time>
      </trkpt>
      <trkpt lat="45.82774" lon="2.88785">
        <ele>846</ele>
        <time>2018-05-19T15:33:49Z</time>
      </trkpt>
      <trkpt lat="45.82775" lon="2.88793">
        <ele>846</ele>
        <time>2018-05-19T15:33:51Z</time>
      </trkpt>
      <trkpt lat="45.82777" lon="2.88801">
        <ele>846</ele>
        <time>2018-05-19T15:33:53Z</time>
      </trkpt>
      <trkpt lat="45.8278" lon="2.88808">
        <ele>846</ele>
        <time>2018-05-19T15:33:55Z</time>
      </trkpt>
      <trkpt lat="45.82782" lon="2.88814">
        <ele>846</ele>
        <time>2018-05-19T15:33:57Z</time>
      </trkpt>
      <trkpt lat="45.82783" lon="2.88821">
        <ele>846</ele>
        <time>2018-05-19T15:33:59Z</time>
      </trkpt>
      <trkpt lat="45.82785" lon="2.88828">
        <ele>846</ele>
        <time>2018-05-19T15:34:03Z</time>
      </trkpt>
      <trkpt lat="45.82786" lon="2.8882">
        <ele>846</ele>
        <time>2018-05-19T15:36:09Z</time>
      </trkpt>
      <trkpt lat="45.82784" lon="2.88813">
        <ele>846</ele>
        <time>2018-05-19T15:36:11Z</time>
      </trkpt>
      <trkpt lat="45.82782" lon="2.88806">
        <ele>846</ele>
        <time>2018-05-19T15:36:13Z</time>
      </trkpt>
      <trkpt lat="45.82779" lon="2.88795">
        <ele>846</ele>
        <time>2018-05-19T15:36:15Z</time>
      </trkpt>
      <trkpt lat="45.82775" lon="2.88785">
        <ele>846</ele>
        <time>2018-05-19T15:36:17Z</time>
      </trkpt>
      <trkpt lat="45.82771" lon="2.88775">
        <ele>846</ele>
        <time>2018-05-19T15:36:19Z</time>
      </trkpt>
      <trkpt lat="45.82768" lon="2.88763">
        <ele>847</ele>
        <time>2018-05-19T15:36:21Z</time>
      </trkpt>
      <trkpt lat="45.82764" lon="2.8875">
        <ele>847</ele>
        <time>2018-05-19T15:36:23Z</time>
      </trkpt>
      <trkpt lat="45.82761" lon="2.88738">
        <ele>847</ele>
        <time>2018-05-19T15:36:25Z</time>
      </trkpt>
      <trkpt lat="45.82757" lon="2.88725">
        <ele>847</ele>
        <time>2018-05-19T15:36:27Z</time>
      </trkpt>
      <trkpt lat="45.82753" lon="2.88713">
        <ele>847</ele>
        <time>2018-05-19T15:36:29Z</time>
      </trkpt>
      <trkpt lat="45.8275" lon="2.887">
        <ele>847</ele>
        <time>2018-05-19T15:36:31Z</time>
      </trkpt>
      <trkpt lat="45.82745" lon="2.88686">
        <ele>847</ele>
        <time>2018-05-19T15:36:33Z</time>
      </trkpt>
      <trkpt lat="45.82741" lon="2.88671">
        <ele>847</ele>
        <time>2018-05-19T15:36:35Z</time>
      </trkpt>
      <trkpt lat="45.82737" lon="2.88657">
        <ele>847</ele>
        <time>2018-05-19T15:36:37Z</time>
      </trkpt>
      <trkpt lat="45.82733" lon="2.88644">
        <ele>847</ele>
        <time>2018-05-19T15:36:39Z</time>
      </trkpt>
      <trkpt lat="45.82729" lon="2.8863">
        <ele>846</ele>
        <time>2018-05-19T15:36:41Z</time>
      </trkpt>
      <trkpt lat="45.82724" lon="2.88615">
        <ele>847</ele>
        <time>2018-05-19T15:36:43Z</time>
      </trkpt>
      <trkpt lat="45.82719" lon="2.886">
        <ele>847</ele>
        <time>2018-05-19T15:36:45Z</time>
      </trkpt>
      <trkpt lat="45.82715" lon="2.88585">
        <ele>847</ele>
        <time>2018-05-19T15:36:47Z</time>
      </trkpt>
      <trkpt lat="45.8271" lon="2.8857">
        <ele>846</ele>
        <time>2018-05-19T15:36:49Z</time>
      </trkpt>
      <trkpt lat="45.82707" lon="2.88555">
        <ele>846</ele>
        <time>2018-05-19T15:36:51Z</time>
      </trkpt>
      <trkpt lat="45.82703" lon="2.8854">
        <ele>845</ele>
        <time>2018-05-19T15:36:53Z</time>
      </trkpt>
      <trkpt lat="45.82698" lon="2.88525">
        <ele>845</ele>
        <time>2018-05-19T15:36:55Z</time>
      </trkpt>
      <trkpt lat="45.82694" lon="2.8851">
        <ele>845</ele>
        <time>2018-05-19T15:36:57Z</time>
      </trkpt>
      <trkpt lat="45.82688" lon="2.88496">
        <ele>844</ele>
        <time>2018-05-19T15:36:59Z</time>
      </trkpt>
      <trkpt lat="45.82682" lon="2.88483">
        <ele>844</ele>
        <time>2018-05-19T15:37:01Z</time>
      </trkpt>
      <trkpt lat="45.8268" lon="2.88473">
        <ele>844</ele>
        <time>2018-05-19T15:37:03Z</time>
      </trkpt>
      <trkpt lat="45.82682" lon="2.88464">
        <ele>844</ele>
        <time>2018-05-19T15:37:05Z</time>
      </trkpt>
      <trkpt lat="45.82685" lon="2.88455">
        <ele>844</ele>
        <time>2018-05-19T15:37:07Z</time>
      </trkpt>
      <trkpt lat="45.82686" lon="2.88445">
        <ele>843</ele>
        <time>2018-05-19T15:37:09Z</time>
      </trkpt>
      <trkpt lat="45.82688" lon="2.88433">
        <ele>842</ele>
        <time>2018-05-19T15:37:11Z</time>
      </trkpt>
      <trkpt lat="45.8269" lon="2.88421">
        <ele>842</ele>
        <time>2018-05-19T15:37:13Z</time>
      </trkpt>
      <trkpt lat="45.82692" lon="2.88408">
        <ele>842</ele>
        <time>2018-05-19T15:37:15Z</time>
      </trkpt>
      <trkpt lat="45.82694" lon="2.88394">
        <ele>841</ele>
        <time>2018-05-19T15:37:17Z</time>
      </trkpt>
      <trkpt lat="45.82697" lon="2.88377">
        <ele>840</ele>
        <time>2018-05-19T15:37:19Z</time>
      </trkpt>
      <trkpt lat="45.82699" lon="2.88358">
        <ele>839</ele>
        <time>2018-05-19T15:37:21Z</time>
      </trkpt>
      <trkpt lat="45.82699" lon="2.88336">
        <ele>838</ele>
        <time>2018-05-19T15:37:23Z</time>
      </trkpt>
      <trkpt lat="45.82699" lon="2.88311">
        <ele>836</ele>
        <time>2018-05-19T15:37:25Z</time>
      </trkpt>
      <trkpt lat="45.827" lon="2.88284">
        <ele>834</ele>
        <time>2018-05-19T15:37:27Z</time>
      </trkpt>
      <trkpt lat="45.82702" lon="2.88258">
        <ele>832</ele>
        <time>2018-05-19T15:37:29Z</time>
      </trkpt>
      <trkpt lat="45.82704" lon="2.88235">
        <ele>830</ele>
        <time>2018-05-19T15:37:31Z</time>
      </trkpt>
      <trkpt lat="45.8271" lon="2.88216">
        <ele>829</ele>
        <time>2018-05-19T15:37:33Z</time>
      </trkpt>
      <trkpt lat="45.82721" lon="2.88207">
        <ele>828</ele>
        <time>2018-05-19T15:37:35Z</time>
      </trkpt>
      <trkpt lat="45.82734" lon="2.88205">
        <ele>827</ele>
        <time>2018-05-19T15:37:37Z</time>
      </trkpt>
      <trkpt lat="45.82743" lon="2.88197">
        <ele>826</ele>
        <time>2018-05-19T15:37:39Z</time>
      </trkpt>
      <trkpt lat="45.82747" lon="2.88179">
        <ele>825</ele>
        <time>2018-05-19T15:37:41Z</time>
      </trkpt>
      <trkpt lat="45.82749" lon="2.88158">
        <ele>824</ele>
        <time>2018-05-19T15:37:43Z</time>
      </trkpt>
      <trkpt lat="45.82753" lon="2.88134">
        <ele>821</ele>
        <time>2018-05-19T15:37:45Z</time>
      </trkpt>
      <trkpt lat="45.8276" lon="2.88114">
        <ele>819</ele>
        <time>2018-05-19T15:37:47Z</time>
      </trkpt>
      <trkpt lat="45.8277" lon="2.88096">
        <ele>817</ele>
        <time>2018-05-19T15:37:49Z</time>
      </trkpt>
      <trkpt lat="45.8278" lon="2.88079">
        <ele>815</ele>
        <time>2018-05-19T15:37:51Z</time>
      </trkpt>
      <trkpt lat="45.82792" lon="2.88062">
        <ele>813</ele>
        <time>2018-05-19T15:37:53Z</time>
      </trkpt>
      <trkpt lat="45.82806" lon="2.88043">
        <ele>811</ele>
        <time>2018-05-19T15:37:55Z</time>
      </trkpt>
      <trkpt lat="45.8282" lon="2.88025">
        <ele>811</ele>
        <time>2018-05-19T15:37:57Z</time>
      </trkpt>
      <trkpt lat="45.82834" lon="2.88005">
        <ele>810</ele>
        <time>2018-05-19T15:37:59Z</time>
      </trkpt>
      <trkpt lat="45.82849" lon="2.87985">
        <ele>809</ele>
        <time>2018-05-19T15:38:01Z</time>
      </trkpt>
      <trkpt lat="45.82864" lon="2.87967">
        <ele>808</ele>
        <time>2018-05-19T15:38:03Z</time>
      </trkpt>
      <trkpt lat="45.82877" lon="2.87953">
        <ele>807</ele>
        <time>2018-05-19T15:38:05Z</time>
      </trkpt>
      <trkpt lat="45.82887" lon="2.87951">
        <ele>806</ele>
        <time>2018-05-19T15:38:07Z</time>
      </trkpt>
      <trkpt lat="45.82896" lon="2.87958">
        <ele>807</ele>
        <time>2018-05-19T15:38:09Z</time>
      </trkpt>
      <trkpt lat="45.82903" lon="2.87964">
        <ele>808</ele>
        <time>2018-05-19T15:38:11Z</time>
      </trkpt>
      <trkpt lat="45.8291" lon="2.87968">
        <ele>807</ele>
        <time>2018-05-19T15:38:13Z</time>
      </trkpt>
      <trkpt lat="45.82917" lon="2.87976">
        <ele>807</ele>
        <time>2018-05-19T15:38:17Z</time>
      </trkpt>
      <trkpt lat="45.82925" lon="2.8798">
        <ele>808</ele>
        <time>2018-05-19T15:38:21Z</time>
      </trkpt>
      <trkpt lat="45.82932" lon="2.87985">
        <ele>810</ele>
        <time>2018-05-19T15:38:25Z</time>
      </trkpt>
      <trkpt lat="45.82936" lon="2.87988">
        <ele>810</ele>
        <time>2018-05-19T15:38:27Z</time>
      </trkpt>
      <trkpt lat="45.82928" lon="2.87983">
        <ele>808</ele>
        <time>2018-05-19T15:38:51Z</time>
      </trkpt>
      <trkpt lat="45.82922" lon="2.87979">
        <ele>808</ele>
        <time>2018-05-19T15:38:53Z</time>
      </trkpt>
      <trkpt lat="45.82916" lon="2.87973">
        <ele>807</ele>
        <time>2018-05-19T15:38:55Z</time>
      </trkpt>
      <trkpt lat="45.82908" lon="2.87966">
        <ele>807</ele>
        <time>2018-05-19T15:38:57Z</time>
      </trkpt>
      <trkpt lat="45.82899" lon="2.8796">
        <ele>806</ele>
        <time>2018-05-19T15:38:59Z</time>
      </trkpt>
      <trkpt lat="45.82892" lon="2.87955">
        <ele>806</ele>
        <time>2018-05-19T15:39:01Z</time>
      </trkpt>
      <trkpt lat="45.82886" lon="2.87952">
        <ele>807</ele>
        <time>2018-05-19T15:39:05Z</time>
      </trkpt>
      <trkpt lat="45.82894" lon="2.87954">
        <ele>807</ele>
        <time>2018-05-19T15:39:43Z</time>
      </trkpt>
      <trkpt lat="45.82898" lon="2.87958">
        <ele>807</ele>
        <time>2018-05-19T15:39:45Z</time>
      </trkpt>
      <trkpt lat="45.82903" lon="2.87961">
        <ele>807</ele>
        <time>2018-05-19T15:39:47Z</time>
      </trkpt>
      <trkpt lat="45.82907" lon="2.87964">
        <ele>808</ele>
        <time>2018-05-19T15:39:49Z</time>
      </trkpt>
      <trkpt lat="45.82912" lon="2.87967">
        <ele>808</ele>
        <time>2018-05-19T15:39:51Z</time>
      </trkpt>
      <trkpt lat="45.82916" lon="2.8797">
        <ele>808</ele>
        <time>2018-05-19T15:39:53Z</time>
      </trkpt>
      <trkpt lat="45.82921" lon="2.87973">
        <ele>808</ele>
        <time>2018-05-19T15:39:55Z</time>
      </trkpt>
      <trkpt lat="45.82925" lon="2.87976">
        <ele>808</ele>
        <time>2018-05-19T15:39:57Z</time>
      </trkpt>
      <trkpt lat="45.82929" lon="2.8798">
        <ele>808</ele>
        <time>2018-05-19T15:39:59Z</time>
      </trkpt>
      <trkpt lat="45.82933" lon="2.87983">
        <ele>809</ele>
        <time>2018-05-19T15:40:01Z</time>
      </trkpt>
      <trkpt lat="45.82941" lon="2.87989">
        <ele>809</ele>
        <time>2018-05-19T15:40:05Z</time>
      </trkpt>
      <trkpt lat="45.82946" lon="2.87993">
        <ele>810</ele>
        <time>2018-05-19T15:40:07Z</time>
      </trkpt>
      <trkpt lat="45.82954" lon="2.87999">
        <ele>810</ele>
        <time>2018-05-19T15:40:11Z</time>
      </trkpt>
      <trkpt lat="45.82962" lon="2.88004">
        <ele>810</ele>
        <time>2018-05-19T15:40:15Z</time>
      </trkpt>
      <trkpt lat="45.82969" lon="2.88009">
        <ele>811</ele>
        <time>2018-05-19T15:40:19Z</time>
      </trkpt>
      <trkpt lat="45.82976" lon="2.88015">
        <ele>812</ele>
        <time>2018-05-19T15:40:23Z</time>
      </trkpt>
      <trkpt lat="45.82982" lon="2.88017">
        <ele>813</ele>
        <time>2018-05-19T15:40:27Z</time>
      </trkpt>
      <trkpt lat="45.82989" lon="2.88017">
        <ele>814</ele>
        <time>2018-05-19T15:40:31Z</time>
      </trkpt>
      <trkpt lat="45.82997" lon="2.88014">
        <ele>815</ele>
        <time>2018-05-19T15:40:35Z</time>
      </trkpt>
      <trkpt lat="45.83005" lon="2.88009">
        <ele>815</ele>
        <time>2018-05-19T15:40:39Z</time>
      </trkpt>
      <trkpt lat="45.83009" lon="2.88007">
        <ele>815</ele>
        <time>2018-05-19T15:40:41Z</time>
      </trkpt>
      <trkpt lat="45.83015" lon="2.88006">
        <ele>817</ele>
        <time>2018-05-19T15:40:45Z</time>
      </trkpt>
      <trkpt lat="45.83022" lon="2.88006">
        <ele>817</ele>
        <time>2018-05-19T15:40:49Z</time>
      </trkpt>
      <trkpt lat="45.83031" lon="2.88006">
        <ele>818</ele>
        <time>2018-05-19T15:40:53Z</time>
      </trkpt>
      <trkpt lat="45.83039" lon="2.88005">
        <ele>819</ele>
        <time>2018-05-19T15:40:57Z</time>
      </trkpt>
      <trkpt lat="45.83047" lon="2.88004">
        <ele>820</ele>
        <time>2018-05-19T15:41:01Z</time>
      </trkpt>
      <trkpt lat="45.83055" lon="2.88007">
        <ele>821</ele>
        <time>2018-05-19T15:41:05Z</time>
      </trkpt>
      <trkpt lat="45.83059" lon="2.88007">
        <ele>821</ele>
        <time>2018-05-19T15:41:07Z</time>
      </trkpt>
      <trkpt lat="45.83064" lon="2.88008">
        <ele>821</ele>
        <time>2018-05-19T15:41:09Z</time>
      </trkpt>
      <trkpt lat="45.83072" lon="2.8801">
        <ele>823</ele>
        <time>2018-05-19T15:41:13Z</time>
      </trkpt>
      <trkpt lat="45.83077" lon="2.88011">
        <ele>823</ele>
        <time>2018-05-19T15:41:15Z</time>
      </trkpt>
      <trkpt lat="45.83085" lon="2.8801">
        <ele>823</ele>
        <time>2018-05-19T15:41:19Z</time>
      </trkpt>
      <trkpt lat="45.8309" lon="2.8801">
        <ele>823</ele>
        <time>2018-05-19T15:41:21Z</time>
      </trkpt>
      <trkpt lat="45.83095" lon="2.88009">
        <ele>823</ele>
        <time>2018-05-19T15:41:23Z</time>
      </trkpt>
      <trkpt lat="45.83104" lon="2.88011">
        <ele>824</ele>
        <time>2018-05-19T15:41:27Z</time>
      </trkpt>
      <trkpt lat="45.83108" lon="2.88014">
        <ele>823</ele>
        <time>2018-05-19T15:41:29Z</time>
      </trkpt>
      <trkpt lat="45.83113" lon="2.88016">
        <ele>823</ele>
        <time>2018-05-19T15:41:31Z</time>
      </trkpt>
      <trkpt lat="45.8312" lon="2.88024">
        <ele>823</ele>
        <time>2018-05-19T15:41:35Z</time>
      </trkpt>
      <trkpt lat="45.83126" lon="2.88032">
        <ele>824</ele>
        <time>2018-05-19T15:41:39Z</time>
      </trkpt>
      <trkpt lat="45.83133" lon="2.8804">
        <ele>824</ele>
        <time>2018-05-19T15:41:43Z</time>
      </trkpt>
      <trkpt lat="45.83139" lon="2.88046">
        <ele>824</ele>
        <time>2018-05-19T15:41:47Z</time>
      </trkpt>
      <trkpt lat="45.83145" lon="2.88052">
        <ele>825</ele>
        <time>2018-05-19T15:41:51Z</time>
      </trkpt>
      <trkpt lat="45.83152" lon="2.88057">
        <ele>826</ele>
        <time>2018-05-19T15:41:55Z</time>
      </trkpt>
      <trkpt lat="45.8316" lon="2.88062">
        <ele>826</ele>
        <time>2018-05-19T15:41:59Z</time>
      </trkpt>
      <trkpt lat="45.83165" lon="2.88064">
        <ele>827</ele>
        <time>2018-05-19T15:42:01Z</time>
      </trkpt>
      <trkpt lat="45.83169" lon="2.88067">
        <ele>826</ele>
        <time>2018-05-19T15:42:03Z</time>
      </trkpt>
      <trkpt lat="45.83174" lon="2.88071">
        <ele>826</ele>
        <time>2018-05-19T15:42:05Z</time>
      </trkpt>
      <trkpt lat="45.8318" lon="2.88074">
        <ele>826</ele>
        <time>2018-05-19T15:42:07Z</time>
      </trkpt>
      <trkpt lat="45.83184" lon="2.88078">
        <ele>827</ele>
        <time>2018-05-19T15:42:09Z</time>
      </trkpt>
      <trkpt lat="45.83189" lon="2.88082">
        <ele>827</ele>
        <time>2018-05-19T15:42:11Z</time>
      </trkpt>
      <trkpt lat="45.83193" lon="2.88085">
        <ele>827</ele>
        <time>2018-05-19T15:42:13Z</time>
      </trkpt>
      <trkpt lat="45.83198" lon="2.88088">
        <ele>828</ele>
        <time>2018-05-19T15:42:15Z</time>
      </trkpt>
      <trkpt lat="45.83203" lon="2.88092">
        <ele>828</ele>
        <time>2018-05-19T15:42:17Z</time>
      </trkpt>
      <trkpt lat="45.83207" lon="2.88094">
        <ele>829</ele>
        <time>2018-05-19T15:42:19Z</time>
      </trkpt>
      <trkpt lat="45.83212" lon="2.88097">
        <ele>829</ele>
        <time>2018-05-19T15:42:21Z</time>
      </trkpt>
      <trkpt lat="45.83216" lon="2.88101">
        <ele>829</ele>
        <time>2018-05-19T15:42:23Z</time>
      </trkpt>
      <trkpt lat="45.83221" lon="2.88104">
        <ele>829</ele>
        <time>2018-05-19T15:42:25Z</time>
      </trkpt>
      <trkpt lat="45.83226" lon="2.88107">
        <ele>830</ele>
        <time>2018-05-19T15:42:27Z</time>
      </trkpt>
      <trkpt lat="45.8323" lon="2.88111">
        <ele>830</ele>
        <time>2018-05-19T15:42:29Z</time>
      </trkpt>
      <trkpt lat="45.83234" lon="2.88115">
        <ele>830</ele>
        <time>2018-05-19T15:42:31Z</time>
      </trkpt>
      <trkpt lat="45.83239" lon="2.88117">
        <ele>831</ele>
        <time>2018-05-19T15:42:33Z</time>
      </trkpt>
      <trkpt lat="45.83243" lon="2.8812">
        <ele>831</ele>
        <time>2018-05-19T15:42:35Z</time>
      </trkpt>
      <trkpt lat="45.83251" lon="2.88126">
        <ele>831</ele>
        <time>2018-05-19T15:42:39Z</time>
      </trkpt>
      <trkpt lat="45.83258" lon="2.88132">
        <ele>831</ele>
        <time>2018-05-19T15:42:43Z</time>
      </trkpt>
      <trkpt lat="45.83266" lon="2.88137">
        <ele>832</ele>
        <time>2018-05-19T15:42:47Z</time>
      </trkpt>
      <trkpt lat="45.8327" lon="2.8814">
        <ele>831</ele>
        <time>2018-05-19T15:42:49Z</time>
      </trkpt>
      <trkpt lat="45.83274" lon="2.88145">
        <ele>831</ele>
        <time>2018-05-19T15:42:51Z</time>
      </trkpt>
      <trkpt lat="45.8328" lon="2.88149">
        <ele>831</ele>
        <time>2018-05-19T15:43:23Z</time>
      </trkpt>
      <trkpt lat="45.83285" lon="2.88152">
        <ele>830</ele>
        <time>2018-05-19T15:43:25Z</time>
      </trkpt>
      <trkpt lat="45.83289" lon="2.88156">
        <ele>831</ele>
        <time>2018-05-19T15:43:27Z</time>
      </trkpt>
      <trkpt lat="45.83294" lon="2.8816">
        <ele>830</ele>
        <time>2018-05-19T15:43:29Z</time>
      </trkpt>
      <trkpt lat="45.83299" lon="2.88164">
        <ele>830</ele>
        <time>2018-05-19T15:43:31Z</time>
      </trkpt>
      <trkpt lat="45.83304" lon="2.88167">
        <ele>831</ele>
        <time>2018-05-19T15:43:33Z</time>
      </trkpt>
      <trkpt lat="45.83309" lon="2.8817">
        <ele>831</ele>
        <time>2018-05-19T15:43:35Z</time>
      </trkpt>
      <trkpt lat="45.83315" lon="2.88175">
        <ele>831</ele>
        <time>2018-05-19T15:43:37Z</time>
      </trkpt>
      <trkpt lat="45.8332" lon="2.88178">
        <ele>831</ele>
        <time>2018-05-19T15:43:39Z</time>
      </trkpt>
      <trkpt lat="45.83326" lon="2.88181">
        <ele>832</ele>
        <time>2018-05-19T15:43:41Z</time>
      </trkpt>
      <trkpt lat="45.83332" lon="2.88182">
        <ele>833</ele>
        <time>2018-05-19T15:43:43Z</time>
      </trkpt>
      <trkpt lat="45.83338" lon="2.88184">
        <ele>833</ele>
        <time>2018-05-19T15:43:45Z</time>
      </trkpt>
      <trkpt lat="45.83343" lon="2.88185">
        <ele>833</ele>
        <time>2018-05-19T15:43:47Z</time>
      </trkpt>
      <trkpt lat="45.83349" lon="2.88187">
        <ele>833</ele>
        <time>2018-05-19T15:43:49Z</time>
      </trkpt>
      <trkpt lat="45.83355" lon="2.88189">
        <ele>834</ele>
        <time>2018-05-19T15:43:51Z</time>
      </trkpt>
      <trkpt lat="45.83361" lon="2.88191">
        <ele>834</ele>
        <time>2018-05-19T15:43:53Z</time>
      </trkpt>
      <trkpt lat="45.83366" lon="2.88192">
        <ele>834</ele>
        <time>2018-05-19T15:43:55Z</time>
      </trkpt>
      <trkpt lat="45.83372" lon="2.88192">
        <ele>834</ele>
        <time>2018-05-19T15:43:57Z</time>
      </trkpt>
      <trkpt lat="45.83377" lon="2.88194">
        <ele>834</ele>
        <time>2018-05-19T15:43:59Z</time>
      </trkpt>
      <trkpt lat="45.83382" lon="2.88196">
        <ele>835</ele>
        <time>2018-05-19T15:44:01Z</time>
      </trkpt>
      <trkpt lat="45.83389" lon="2.88197">
        <ele>835</ele>
        <time>2018-05-19T15:44:03Z</time>
      </trkpt>
      <trkpt lat="45.83394" lon="2.882">
        <ele>835</ele>
        <time>2018-05-19T15:44:05Z</time>
      </trkpt>
      <trkpt lat="45.834" lon="2.88201">
        <ele>835</ele>
        <time>2018-05-19T15:44:07Z</time>
      </trkpt>
      <trkpt lat="45.83406" lon="2.88204">
        <ele>835</ele>
        <time>2018-05-19T15:44:09Z</time>
      </trkpt>
      <trkpt lat="45.83412" lon="2.88205">
        <ele>835</ele>
        <time>2018-05-19T15:44:11Z</time>
      </trkpt>
      <trkpt lat="45.83418" lon="2.88209">
        <ele>835</ele>
        <time>2018-05-19T15:44:13Z</time>
      </trkpt>
      <trkpt lat="45.83424" lon="2.88211">
        <ele>835</ele>
        <time>2018-05-19T15:44:15Z</time>
      </trkpt>
      <trkpt lat="45.83432" lon="2.88214">
        <ele>834</ele>
        <time>2018-05-19T15:44:17Z</time>
      </trkpt>
      <trkpt lat="45.83438" lon="2.88218">
        <ele>834</ele>
        <time>2018-05-19T15:44:19Z</time>
      </trkpt>
      <trkpt lat="45.83446" lon="2.88221">
        <ele>834</ele>
        <time>2018-05-19T15:44:21Z</time>
      </trkpt>
      <trkpt lat="45.83452" lon="2.88223">
        <ele>835</ele>
        <time>2018-05-19T15:44:23Z</time>
      </trkpt>
      <trkpt lat="45.83457" lon="2.88225">
        <ele>835</ele>
        <time>2018-05-19T15:44:25Z</time>
      </trkpt>
      <trkpt lat="45.83452" lon="2.88227">
        <ele>835</ele>
        <time>2018-05-19T15:46:13Z</time>
      </trkpt>
      <trkpt lat="45.83446" lon="2.88224">
        <ele>834</ele>
        <time>2018-05-19T15:46:15Z</time>
      </trkpt>
      <trkpt lat="45.83438" lon="2.88221">
        <ele>834</ele>
        <time>2018-05-19T15:46:17Z</time>
      </trkpt>
      <trkpt lat="45.83429" lon="2.88217">
        <ele>834</ele>
        <time>2018-05-19T15:46:19Z</time>
      </trkpt>
      <trkpt lat="45.8342" lon="2.88213">
        <ele>834</ele>
        <time>2018-05-19T15:46:21Z</time>
      </trkpt>
      <trkpt lat="45.83411" lon="2.88209">
        <ele>834</ele>
        <time>2018-05-19T15:46:23Z</time>
      </trkpt>
      <trkpt lat="45.83403" lon="2.88205">
        <ele>833</ele>
        <time>2018-05-19T15:46:25Z</time>
      </trkpt>
      <trkpt lat="45.83394" lon="2.88202">
        <ele>833</ele>
        <time>2018-05-19T15:46:27Z</time>
      </trkpt>
      <trkpt lat="45.83386" lon="2.882">
        <ele>833</ele>
        <time>2018-05-19T15:46:29Z</time>
      </trkpt>
      <trkpt lat="45.83378" lon="2.88198">
        <ele>833</ele>
        <time>2018-05-19T15:46:31Z</time>
      </trkpt>
      <trkpt lat="45.83368" lon="2.88195">
        <ele>832</ele>
        <time>2018-05-19T15:46:33Z</time>
      </trkpt>
      <trkpt lat="45.83359" lon="2.88192">
        <ele>832</ele>
        <time>2018-05-19T15:46:35Z</time>
      </trkpt>
      <trkpt lat="45.8335" lon="2.88189">
        <ele>831</ele>
        <time>2018-05-19T15:46:37Z</time>
      </trkpt>
      <trkpt lat="45.8334" lon="2.88187">
        <ele>831</ele>
        <time>2018-05-19T15:46:39Z</time>
      </trkpt>
      <trkpt lat="45.8333" lon="2.88184">
        <ele>830</ele>
        <time>2018-05-19T15:46:41Z</time>
      </trkpt>
      <trkpt lat="45.8332" lon="2.88181">
        <ele>830</ele>
        <time>2018-05-19T15:46:43Z</time>
      </trkpt>
      <trkpt lat="45.83313" lon="2.88177">
        <ele>829</ele>
        <time>2018-05-19T15:46:45Z</time>
      </trkpt>
      <trkpt lat="45.8331" lon="2.8817">
        <ele>829</ele>
        <time>2018-05-19T15:46:47Z</time>
      </trkpt>
      <trkpt lat="45.83311" lon="2.88162">
        <ele>828</ele>
        <time>2018-05-19T15:46:49Z</time>
      </trkpt>
      <trkpt lat="45.83314" lon="2.88151">
        <ele>827</ele>
        <time>2018-05-19T15:46:51Z</time>
      </trkpt>
      <trkpt lat="45.83317" lon="2.88137">
        <ele>826</ele>
        <time>2018-05-19T15:46:53Z</time>
      </trkpt>
      <trkpt lat="45.83321" lon="2.8812">
        <ele>825</ele>
        <time>2018-05-19T15:46:55Z</time>
      </trkpt>
      <trkpt lat="45.83325" lon="2.881">
        <ele>823</ele>
        <time>2018-05-19T15:46:57Z</time>
      </trkpt>
      <trkpt lat="45.8333" lon="2.88082">
        <ele>822</ele>
        <time>2018-05-19T15:46:59Z</time>
      </trkpt>
      <trkpt lat="45.83335" lon="2.88063">
        <ele>820</ele>
        <time>2018-05-19T15:47:01Z</time>
      </trkpt>
      <trkpt lat="45.83339" lon="2.88042">
        <ele>819</ele>
        <time>2018-05-19T15:47:03Z</time>
      </trkpt>
      <trkpt lat="45.83342" lon="2.8802">
        <ele>819</ele>
        <time>2018-05-19T15:47:05Z</time>
      </trkpt>
      <trkpt lat="45.83345" lon="2.87999">
        <ele>818</ele>
        <time>2018-05-19T15:47:07Z</time>
      </trkpt>
      <trkpt lat="45.83348" lon="2.87981">
        <ele>818</ele>
        <time>2018-05-19T15:47:09Z</time>
      </trkpt>
      <trkpt lat="45.8335" lon="2.87969">
        <ele>818</ele>
        <time>2018-05-19T15:47:11Z</time>
      </trkpt>
      <trkpt lat="45.83351" lon="2.87959">
        <ele>817</ele>
        <time>2018-05-19T15:47:13Z</time>
      </trkpt>
      <trkpt lat="45.83352" lon="2.87949">
        <ele>818</ele>
        <time>2018-05-19T15:47:15Z</time>
      </trkpt>
      <trkpt lat="45.83352" lon="2.87935">
        <ele>819</ele>
        <time>2018-05-19T15:47:17Z</time>
      </trkpt>
      <trkpt lat="45.83353" lon="2.87923">
        <ele>819</ele>
        <time>2018-05-19T15:47:19Z</time>
      </trkpt>
      <trkpt lat="45.83353" lon="2.8791">
        <ele>819</ele>
        <time>2018-05-19T15:47:21Z</time>
      </trkpt>
      <trkpt lat="45.83353" lon="2.87898">
        <ele>818</ele>
        <time>2018-05-19T15:47:23Z</time>
      </trkpt>
      <trkpt lat="45.83353" lon="2.87886">
        <ele>818</ele>
        <time>2018-05-19T15:47:25Z</time>
      </trkpt>
      <trkpt lat="45.83353" lon="2.87873">
        <ele>817</ele>
        <time>2018-05-19T15:47:27Z</time>
      </trkpt>
      <trkpt lat="45.83353" lon="2.87857">
        <ele>818</ele>
        <time>2018-05-19T15:47:29Z</time>
      </trkpt>
      <trkpt lat="45.83352" lon="2.87843">
        <ele>816</ele>
        <time>2018-05-19T15:47:31Z</time>
      </trkpt>
      <trkpt lat="45.83352" lon="2.8783">
        <ele>816</ele>
        <time>2018-05-19T15:47:33Z</time>
      </trkpt>
      <trkpt lat="45.83352" lon="2.87816">
        <ele>816</ele>
        <time>2018-05-19T15:47:35Z</time>
      </trkpt>
      <trkpt lat="45.8335" lon="2.87805">
        <ele>816</ele>
        <time>2018-05-19T15:47:37Z</time>
      </trkpt>
      <trkpt lat="45.83348" lon="2.87793">
        <ele>816</ele>
        <time>2018-05-19T15:47:39Z</time>
      </trkpt>
      <trkpt lat="45.83346" lon="2.8778">
        <ele>816</ele>
        <time>2018-05-19T15:47:41Z</time>
      </trkpt>
      <trkpt lat="45.83344" lon="2.87767">
        <ele>816</ele>
        <time>2018-05-19T15:47:43Z</time>
      </trkpt>
      <trkpt lat="45.83342" lon="2.87754">
        <ele>816</ele>
        <time>2018-05-19T15:47:45Z</time>
      </trkpt>
      <trkpt lat="45.8334" lon="2.8774">
        <ele>815</ele>
        <time>2018-05-19T15:47:47Z</time>
      </trkpt>
      <trkpt lat="45.83341" lon="2.87726">
        <ele>814</ele>
        <time>2018-05-19T15:47:49Z</time>
      </trkpt>
      <trkpt lat="45.83344" lon="2.87712">
        <ele>813</ele>
        <time>2018-05-19T15:47:51Z</time>
      </trkpt>
      <trkpt lat="45.83349" lon="2.877">
        <ele>813</ele>
        <time>2018-05-19T15:47:53Z</time>
      </trkpt>
      <trkpt lat="45.83352" lon="2.8769">
        <ele>812</ele>
        <time>2018-05-19T15:47:55Z</time>
      </trkpt>
      <trkpt lat="45.83356" lon="2.87684">
        <ele>813</ele>
        <time>2018-05-19T15:47:57Z</time>
      </trkpt>
      <trkpt lat="45.83361" lon="2.87676">
        <ele>812</ele>
        <time>2018-05-19T15:47:59Z</time>
      </trkpt>
      <trkpt lat="45.83362" lon="2.87663">
        <ele>811</ele>
        <time>2018-05-19T15:48:01Z</time>
      </trkpt>
      <trkpt lat="45.83358" lon="2.87649">
        <ele>811</ele>
        <time>2018-05-19T15:48:03Z</time>
      </trkpt>
      <trkpt lat="45.83353" lon="2.87636">
        <ele>810</ele>
        <time>2018-05-19T15:48:05Z</time>
      </trkpt>
      <trkpt lat="45.83351" lon="2.87621">
        <ele>811</ele>
        <time>2018-05-19T15:48:07Z</time>
      </trkpt>
      <trkpt lat="45.83348" lon="2.87606">
        <ele>811</ele>
        <time>2018-05-19T15:48:09Z</time>
      </trkpt>
      <trkpt lat="45.83346" lon="2.87591">
        <ele>811</ele>
        <time>2018-05-19T15:48:11Z</time>
      </trkpt>
      <trkpt lat="45.83342" lon="2.87575">
        <ele>811</ele>
        <time>2018-05-19T15:48:13Z</time>
      </trkpt>
      <trkpt lat="45.83339" lon="2.87556">
        <ele>811</ele>
        <time>2018-05-19T15:48:15Z</time>
      </trkpt>
      <trkpt lat="45.83335" lon="2.87535">
        <ele>811</ele>
        <time>2018-05-19T15:48:17Z</time>
      </trkpt>
      <trkpt lat="45.8333" lon="2.87516">
        <ele>808</ele>
        <time>2018-05-19T15:48:19Z</time>
      </trkpt>
      <trkpt lat="45.83325" lon="2.87495">
        <ele>808</ele>
        <time>2018-05-19T15:48:21Z</time>
      </trkpt>
      <trkpt lat="45.8332" lon="2.87473">
        <ele>806</ele>
        <time>2018-05-19T15:48:23Z</time>
      </trkpt>
      <trkpt lat="45.83314" lon="2.87451">
        <ele>806</ele>
        <time>2018-05-19T15:48:25Z</time>
      </trkpt>
      <trkpt lat="45.83309" lon="2.87429">
        <ele>805</ele>
        <time>2018-05-19T15:48:27Z</time>
      </trkpt>
      <trkpt lat="45.83304" lon="2.87407">
        <ele>804</ele>
        <time>2018-05-19T15:48:29Z</time>
      </trkpt>
      <trkpt lat="45.83298" lon="2.87385">
        <ele>804</ele>
        <time>2018-05-19T15:48:31Z</time>
      </trkpt>
      <trkpt lat="45.83292" lon="2.87362">
        <ele>803</ele>
        <time>2018-05-19T15:48:33Z</time>
      </trkpt>
      <trkpt lat="45.83287" lon="2.87341">
        <ele>803</ele>
        <time>2018-05-19T15:48:35Z</time>
      </trkpt>
      <trkpt lat="45.83285" lon="2.87324">
        <ele>801</ele>
        <time>2018-05-19T15:48:37Z</time>
      </trkpt>
      <trkpt lat="45.83288" lon="2.87306">
        <ele>800</ele>
        <time>2018-05-19T15:48:39Z</time>
      </trkpt>
      <trkpt lat="45.83296" lon="2.87289">
        <ele>798</ele>
        <time>2018-05-19T15:48:41Z</time>
      </trkpt>
      <trkpt lat="45.8331" lon="2.87277">
        <ele>796</ele>
        <time>2018-05-19T15:48:43Z</time>
      </trkpt>
      <trkpt lat="45.83325" lon="2.87267">
        <ele>795</ele>
        <time>2018-05-19T15:48:45Z</time>
      </trkpt>
      <trkpt lat="45.83342" lon="2.87259">
        <ele>794</ele>
        <time>2018-05-19T15:48:47Z</time>
      </trkpt>
      <trkpt lat="45.83355" lon="2.87255">
        <ele>793</ele>
        <time>2018-05-19T15:48:49Z</time>
      </trkpt>
      <trkpt lat="45.83368" lon="2.87257">
        <ele>792</ele>
        <time>2018-05-19T15:48:51Z</time>
      </trkpt>
      <trkpt lat="45.83378" lon="2.87259">
        <ele>793</ele>
        <time>2018-05-19T15:48:53Z</time>
      </trkpt>
      <trkpt lat="45.83387" lon="2.87263">
        <ele>793</ele>
        <time>2018-05-19T15:48:55Z</time>
      </trkpt>
      <trkpt lat="45.83394" lon="2.87265">
        <ele>794</ele>
        <time>2018-05-19T15:48:57Z</time>
      </trkpt>
      <trkpt lat="45.834" lon="2.87263">
        <ele>793</ele>
        <time>2018-05-19T15:48:59Z</time>
      </trkpt>
      <trkpt lat="45.83405" lon="2.87256">
        <ele>793</ele>
        <time>2018-05-19T15:49:01Z</time>
      </trkpt>
      <trkpt lat="45.83412" lon="2.87247">
        <ele>791</ele>
        <time>2018-05-19T15:49:03Z</time>
      </trkpt>
      <trkpt lat="45.83421" lon="2.87238">
        <ele>790</ele>
        <time>2018-05-19T15:49:05Z</time>
      </trkpt>
      <trkpt lat="45.8343" lon="2.87225">
        <ele>789</ele>
        <time>2018-05-19T15:49:07Z</time>
      </trkpt>
      <trkpt lat="45.83435" lon="2.87207">
        <ele>787</ele>
        <time>2018-05-19T15:49:09Z</time>
      </trkpt>
      <trkpt lat="45.83438" lon="2.87184">
        <ele>784</ele>
        <time>2018-05-19T15:49:11Z</time>
      </trkpt>
      <trkpt lat="45.8344" lon="2.87158">
        <ele>782</ele>
        <time>2018-05-19T15:49:13Z</time>
      </trkpt>
      <trkpt lat="45.83441" lon="2.8713">
        <ele>781</ele>
        <time>2018-05-19T15:49:15Z</time>
      </trkpt>
      <trkpt lat="45.83443" lon="2.87103">
        <ele>781</ele>
        <time>2018-05-19T15:49:17Z</time>
      </trkpt>
      <trkpt lat="45.83444" lon="2.87078">
        <ele>782</ele>
        <time>2018-05-19T15:49:19Z</time>
      </trkpt>
      <trkpt lat="45.83446" lon="2.87057">
        <ele>782</ele>
        <time>2018-05-19T15:49:21Z</time>
      </trkpt>
      <trkpt lat="45.83447" lon="2.8704">
        <ele>782</ele>
        <time>2018-05-19T15:49:23Z</time>
      </trkpt>
      <trkpt lat="45.83449" lon="2.87028">
        <ele>782</ele>
        <time>2018-05-19T15:49:25Z</time>
      </trkpt>
      <trkpt lat="45.8345" lon="2.87021">
        <ele>783</ele>
        <time>2018-05-19T15:49:27Z</time>
      </trkpt>
      <trkpt lat="45.83447" lon="2.87012">
        <ele>784</ele>
        <time>2018-05-19T15:49:33Z</time>
      </trkpt>
      <trkpt lat="45.83445" lon="2.87004">
        <ele>784</ele>
        <time>2018-05-19T15:49:35Z</time>
      </trkpt>
      <trkpt lat="45.83444" lon="2.86995">
        <ele>783</ele>
        <time>2018-05-19T15:49:37Z</time>
      </trkpt>
      <trkpt lat="45.83442" lon="2.86985">
        <ele>783</ele>
        <time>2018-05-19T15:49:39Z</time>
      </trkpt>
      <trkpt lat="45.83437" lon="2.86976">
        <ele>783</ele>
        <time>2018-05-19T15:49:41Z</time>
      </trkpt>
      <trkpt lat="45.83434" lon="2.86964">
        <ele>784</ele>
        <time>2018-05-19T15:49:43Z</time>
      </trkpt>
      <trkpt lat="45.83432" lon="2.86954">
        <ele>785</ele>
        <time>2018-05-19T15:49:45Z</time>
      </trkpt>
      <trkpt lat="45.83431" lon="2.86943">
        <ele>786</ele>
        <time>2018-05-19T15:49:47Z</time>
      </trkpt>
      <trkpt lat="45.83429" lon="2.86933">
        <ele>787</ele>
        <time>2018-05-19T15:49:49Z</time>
      </trkpt>
      <trkpt lat="45.83428" lon="2.86925">
        <ele>785</ele>
        <time>2018-05-19T15:49:51Z</time>
      </trkpt>
      <trkpt lat="45.83426" lon="2.86917">
        <ele>784</ele>
        <time>2018-05-19T15:49:53Z</time>
      </trkpt>
      <trkpt lat="45.83425" lon="2.86907">
        <ele>785</ele>
        <time>2018-05-19T15:49:55Z</time>
      </trkpt>
      <trkpt lat="45.83422" lon="2.86897">
        <ele>783</ele>
        <time>2018-05-19T15:49:57Z</time>
      </trkpt>
      <trkpt lat="45.83417" lon="2.86886">
        <ele>784</ele>
        <time>2018-05-19T15:49:59Z</time>
      </trkpt>
      <trkpt lat="45.83414" lon="2.86874">
        <ele>786</ele>
        <time>2018-05-19T15:50:01Z</time>
      </trkpt>
      <trkpt lat="45.83409" lon="2.86865">
        <ele>785</ele>
        <time>2018-05-19T15:50:03Z</time>
      </trkpt>
      <trkpt lat="45.83406" lon="2.8686">
        <ele>786</ele>
        <time>2018-05-19T15:50:09Z</time>
      </trkpt>
      <trkpt lat="45.83404" lon="2.86853">
        <ele>785</ele>
        <time>2018-05-19T15:50:15Z</time>
      </trkpt>
      <trkpt lat="45.83402" lon="2.86846">
        <ele>785</ele>
        <time>2018-05-19T15:50:25Z</time>
      </trkpt>
      <trkpt lat="45.83399" lon="2.86836">
        <ele>787</ele>
        <time>2018-05-19T15:50:29Z</time>
      </trkpt>
      <trkpt lat="45.83397" lon="2.86829">
        <ele>786</ele>
        <time>2018-05-19T15:50:31Z</time>
      </trkpt>
      <trkpt lat="45.83395" lon="2.86822">
        <ele>786</ele>
        <time>2018-05-19T15:50:33Z</time>
      </trkpt>
      <trkpt lat="45.83393" lon="2.86813">
        <ele>786</ele>
        <time>2018-05-19T15:50:35Z</time>
      </trkpt>
      <trkpt lat="45.83391" lon="2.86804">
        <ele>786</ele>
        <time>2018-05-19T15:50:37Z</time>
      </trkpt>
      <trkpt lat="45.83391" lon="2.86796">
        <ele>786</ele>
        <time>2018-05-19T15:50:39Z</time>
      </trkpt>
      <trkpt lat="45.8339" lon="2.86787">
        <ele>787</ele>
        <time>2018-05-19T15:50:41Z</time>
      </trkpt>
      <trkpt lat="45.83389" lon="2.86778">
        <ele>786</ele>
        <time>2018-05-19T15:50:43Z</time>
      </trkpt>
      <trkpt lat="45.83387" lon="2.86768">
        <ele>786</ele>
        <time>2018-05-19T15:50:45Z</time>
      </trkpt>
      <trkpt lat="45.83386" lon="2.86758">
        <ele>786</ele>
        <time>2018-05-19T15:50:47Z</time>
      </trkpt>
      <trkpt lat="45.83383" lon="2.8675">
        <ele>787</ele>
        <time>2018-05-19T15:50:49Z</time>
      </trkpt>
      <trkpt lat="45.83382" lon="2.86743">
        <ele>787</ele>
        <time>2018-05-19T15:50:51Z</time>
      </trkpt>
      <trkpt lat="45.83378" lon="2.86738">
        <ele>785</ele>
        <time>2018-05-19T15:51:29Z</time>
      </trkpt>
      <trkpt lat="45.83375" lon="2.86734">
        <ele>785</ele>
        <time>2018-05-19T15:51:35Z</time>
      </trkpt>
      <trkpt lat="45.8337" lon="2.8673">
        <ele>785</ele>
        <time>2018-05-19T15:51:41Z</time>
      </trkpt>
      <trkpt lat="45.83367" lon="2.86725">
        <ele>786</ele>
        <time>2018-05-19T15:51:49Z</time>
      </trkpt>
      <trkpt lat="45.83367" lon="2.86717">
        <ele>784</ele>
        <time>2018-05-19T15:51:57Z</time>
      </trkpt>
      <trkpt lat="45.83367" lon="2.86708">
        <ele>785</ele>
        <time>2018-05-19T15:52:17Z</time>
      </trkpt>
      <trkpt lat="45.83366" lon="2.867">
        <ele>785</ele>
        <time>2018-05-19T15:52:21Z</time>
      </trkpt>
      <trkpt lat="45.83365" lon="2.86691">
        <ele>785</ele>
        <time>2018-05-19T15:52:25Z</time>
      </trkpt>
      <trkpt lat="45.83364" lon="2.86684">
        <ele>785</ele>
        <time>2018-05-19T15:52:29Z</time>
      </trkpt>
      <trkpt lat="45.83365" lon="2.86675">
        <ele>784</ele>
        <time>2018-05-19T15:52:33Z</time>
      </trkpt>
      <trkpt lat="45.83366" lon="2.86664">
        <ele>783</ele>
        <time>2018-05-19T15:52:37Z</time>
      </trkpt>
      <trkpt lat="45.83371" lon="2.86662">
        <ele>781</ele>
        <time>2018-05-19T15:52:55Z</time>
      </trkpt>
      <trkpt lat="45.83374" lon="2.86666">
        <ele>781</ele>
        <time>2018-05-19T15:53:07Z</time>
      </trkpt>
      <trkpt lat="45.83374" lon="2.86673">
        <ele>782</ele>
        <time>2018-05-19T15:53:13Z</time>
      </trkpt>
      <trkpt lat="45.83376" lon="2.86681">
        <ele>783</ele>
        <time>2018-05-19T15:53:21Z</time>
      </trkpt>
      <trkpt lat="45.83379" lon="2.8669">
        <ele>782</ele>
        <time>2018-05-19T15:53:27Z</time>
      </trkpt>
      <trkpt lat="45.83382" lon="2.86698">
        <ele>783</ele>
        <time>2018-05-19T15:53:33Z</time>
      </trkpt>
      <trkpt lat="45.83385" lon="2.86705">
        <ele>784</ele>
        <time>2018-05-19T15:53:39Z</time>
      </trkpt>
      <trkpt lat="45.83388" lon="2.86711">
        <ele>784</ele>
        <time>2018-05-19T15:53:45Z</time>
      </trkpt>
      <trkpt lat="45.8339" lon="2.86718">
        <ele>784</ele>
        <time>2018-05-19T15:53:51Z</time>
      </trkpt>
      <trkpt lat="45.8339" lon="2.86727">
        <ele>784</ele>
        <time>2018-05-19T15:53:55Z</time>
      </trkpt>
      <trkpt lat="45.83391" lon="2.86735">
        <ele>784</ele>
        <time>2018-05-19T15:54:01Z</time>
      </trkpt>
      <trkpt lat="45.83392" lon="2.86742">
        <ele>785</ele>
        <time>2018-05-19T15:54:15Z</time>
      </trkpt>
      <trkpt lat="45.83396" lon="2.86746">
        <ele>784</ele>
        <time>2018-05-19T15:54:25Z</time>
      </trkpt>
      <trkpt lat="45.83401" lon="2.86741">
        <ele>784</ele>
        <time>2018-05-19T15:54:33Z</time>
      </trkpt>
      <trkpt lat="45.83404" lon="2.86737">
        <ele>785</ele>
        <time>2018-05-19T15:54:39Z</time>
      </trkpt>
      <trkpt lat="45.83406" lon="2.86731">
        <ele>785</ele>
        <time>2018-05-19T15:54:51Z</time>
      </trkpt>
      <trkpt lat="45.83411" lon="2.86728">
        <ele>785</ele>
        <time>2018-05-19T15:54:57Z</time>
      </trkpt>
      <trkpt lat="45.83415" lon="2.86723">
        <ele>786</ele>
        <time>2018-05-19T15:55:07Z</time>
      </trkpt>
      <trkpt lat="45.83417" lon="2.86717">
        <ele>786</ele>
        <time>2018-05-19T15:55:19Z</time>
      </trkpt>
      <trkpt lat="45.8342" lon="2.86709">
        <ele>787</ele>
        <time>2018-05-19T15:55:25Z</time>
      </trkpt>
      <trkpt lat="45.83423" lon="2.86703">
        <ele>788</ele>
        <time>2018-05-19T15:55:29Z</time>
      </trkpt>
      <trkpt lat="45.83425" lon="2.86695">
        <ele>789</ele>
        <time>2018-05-19T15:55:35Z</time>
      </trkpt>
      <trkpt lat="45.83426" lon="2.86689">
        <ele>789</ele>
        <time>2018-05-19T15:55:49Z</time>
      </trkpt>
      <trkpt lat="45.83426" lon="2.86682">
        <ele>789</ele>
        <time>2018-05-19T15:55:53Z</time>
      </trkpt>
      <trkpt lat="45.83426" lon="2.86673">
        <ele>789</ele>
        <time>2018-05-19T15:55:55Z</time>
      </trkpt>
      <trkpt lat="45.83424" lon="2.86662">
        <ele>788</ele>
        <time>2018-05-19T15:55:57Z</time>
      </trkpt>
      <trkpt lat="45.83421" lon="2.86648">
        <ele>787</ele>
        <time>2018-05-19T15:55:59Z</time>
      </trkpt>
      <trkpt lat="45.8342" lon="2.86633">
        <ele>786</ele>
        <time>2018-05-19T15:56:01Z</time>
      </trkpt>
      <trkpt lat="45.83421" lon="2.86616">
        <ele>785</ele>
        <time>2018-05-19T15:56:03Z</time>
      </trkpt>
      <trkpt lat="45.83425" lon="2.86598">
        <ele>785</ele>
        <time>2018-05-19T15:56:05Z</time>
      </trkpt>
      <trkpt lat="45.83431" lon="2.86581">
        <ele>785</ele>
        <time>2018-05-19T15:56:07Z</time>
      </trkpt>
      <trkpt lat="45.83436" lon="2.86564">
        <ele>784</ele>
        <time>2018-05-19T15:56:09Z</time>
      </trkpt>
      <trkpt lat="45.83442" lon="2.86545">
        <ele>783</ele>
        <time>2018-05-19T15:56:11Z</time>
      </trkpt>
      <trkpt lat="45.83448" lon="2.86526">
        <ele>782</ele>
        <time>2018-05-19T15:56:13Z</time>
      </trkpt>
      <trkpt lat="45.83454" lon="2.86506">
        <ele>781</ele>
        <time>2018-05-19T15:56:15Z</time>
      </trkpt>
      <trkpt lat="45.83459" lon="2.86484">
        <ele>781</ele>
        <time>2018-05-19T15:56:17Z</time>
      </trkpt>
      <trkpt lat="45.83463" lon="2.86462">
        <ele>781</ele>
        <time>2018-05-19T15:56:19Z</time>
      </trkpt>
      <trkpt lat="45.83467" lon="2.86439">
        <ele>780</ele>
        <time>2018-05-19T15:56:21Z</time>
      </trkpt>
      <trkpt lat="45.83469" lon="2.86415">
        <ele>778</ele>
        <time>2018-05-19T15:56:23Z</time>
      </trkpt>
      <trkpt lat="45.83469" lon="2.86391">
        <ele>778</ele>
        <time>2018-05-19T15:56:25Z</time>
      </trkpt>
      <trkpt lat="45.83468" lon="2.86366">
        <ele>777</ele>
        <time>2018-05-19T15:56:27Z</time>
      </trkpt>
      <trkpt lat="45.83466" lon="2.86341">
        <ele>776</ele>
        <time>2018-05-19T15:56:29Z</time>
      </trkpt>
      <trkpt lat="45.83461" lon="2.86317">
        <ele>776</ele>
        <time>2018-05-19T15:56:31Z</time>
      </trkpt>
      <trkpt lat="45.83456" lon="2.86293">
        <ele>775</ele>
        <time>2018-05-19T15:56:33Z</time>
      </trkpt>
      <trkpt lat="45.83449" lon="2.8627">
        <ele>775</ele>
        <time>2018-05-19T15:56:35Z</time>
      </trkpt>
      <trkpt lat="45.8344" lon="2.86247">
        <ele>774</ele>
        <time>2018-05-19T15:56:37Z</time>
      </trkpt>
      <trkpt lat="45.8343" lon="2.86225">
        <ele>774</ele>
        <time>2018-05-19T15:56:39Z</time>
      </trkpt>
      <trkpt lat="45.8342" lon="2.86203">
        <ele>774</ele>
        <time>2018-05-19T15:56:41Z</time>
      </trkpt>
      <trkpt lat="45.83411" lon="2.86181">
        <ele>774</ele>
        <time>2018-05-19T15:56:43Z</time>
      </trkpt>
      <trkpt lat="45.83402" lon="2.8616">
        <ele>773</ele>
        <time>2018-05-19T15:56:45Z</time>
      </trkpt>
      <trkpt lat="45.83394" lon="2.86138">
        <ele>772</ele>
        <time>2018-05-19T15:56:47Z</time>
      </trkpt>
      <trkpt lat="45.83388" lon="2.86115">
        <ele>772</ele>
        <time>2018-05-19T15:56:49Z</time>
      </trkpt>
      <trkpt lat="45.83383" lon="2.86091">
        <ele>771</ele>
        <time>2018-05-19T15:56:51Z</time>
      </trkpt>
      <trkpt lat="45.8338" lon="2.86071">
        <ele>771</ele>
        <time>2018-05-19T15:56:53Z</time>
      </trkpt>
      <trkpt lat="45.83378" lon="2.86056">
        <ele>770</ele>
        <time>2018-05-19T15:56:55Z</time>
      </trkpt>
      <trkpt lat="45.83378" lon="2.86039">
        <ele>770</ele>
        <time>2018-05-19T15:56:57Z</time>
      </trkpt>
      <trkpt lat="45.83378" lon="2.86023">
        <ele>770</ele>
        <time>2018-05-19T15:56:59Z</time>
      </trkpt>
      <trkpt lat="45.83379" lon="2.86005">
        <ele>769</ele>
        <time>2018-05-19T15:57:01Z</time>
      </trkpt>
      <trkpt lat="45.83378" lon="2.85988">
        <ele>768</ele>
        <time>2018-05-19T15:57:03Z</time>
      </trkpt>
      <trkpt lat="45.83379" lon="2.85969">
        <ele>768</ele>
        <time>2018-05-19T15:57:05Z</time>
      </trkpt>
      <trkpt lat="45.8338" lon="2.85952">
        <ele>767</ele>
        <time>2018-05-19T15:57:07Z</time>
      </trkpt>
      <trkpt lat="45.8338" lon="2.85933">
        <ele>767</ele>
        <time>2018-05-19T15:57:09Z</time>
      </trkpt>
      <trkpt lat="45.83379" lon="2.85915">
        <ele>767</ele>
        <time>2018-05-19T15:57:11Z</time>
      </trkpt>
      <trkpt lat="45.83377" lon="2.85896">
        <ele>767</ele>
        <time>2018-05-19T15:57:13Z</time>
      </trkpt>
      <trkpt lat="45.83372" lon="2.85877">
        <ele>766</ele>
        <time>2018-05-19T15:57:15Z</time>
      </trkpt>
      <trkpt lat="45.83367" lon="2.85856">
        <ele>765</ele>
        <time>2018-05-19T15:57:17Z</time>
      </trkpt>
      <trkpt lat="45.83361" lon="2.85832">
        <ele>762</ele>
        <time>2018-05-19T15:57:19Z</time>
      </trkpt>
      <trkpt lat="45.83354" lon="2.85807">
        <ele>761</ele>
        <time>2018-05-19T15:57:21Z</time>
      </trkpt>
      <trkpt lat="45.83348" lon="2.85781">
        <ele>759</ele>
        <time>2018-05-19T15:57:23Z</time>
      </trkpt>
      <trkpt lat="45.83342" lon="2.85753">
        <ele>757</ele>
        <time>2018-05-19T15:57:25Z</time>
      </trkpt>
      <trkpt lat="45.83334" lon="2.85724">
        <ele>756</ele>
        <time>2018-05-19T15:57:27Z</time>
      </trkpt>
      <trkpt lat="45.83327" lon="2.85695">
        <ele>754</ele>
        <time>2018-05-19T15:57:29Z</time>
      </trkpt>
      <trkpt lat="45.8332" lon="2.85666">
        <ele>754</ele>
        <time>2018-05-19T15:57:31Z</time>
      </trkpt>
      <trkpt lat="45.83314" lon="2.85641">
        <ele>752</ele>
        <time>2018-05-19T15:57:33Z</time>
      </trkpt>
      <trkpt lat="45.83308" lon="2.85617">
        <ele>750</ele>
        <time>2018-05-19T15:57:35Z</time>
      </trkpt>
      <trkpt lat="45.83303" lon="2.85594">
        <ele>749</ele>
        <time>2018-05-19T15:57:37Z</time>
      </trkpt>
      <trkpt lat="45.83297" lon="2.85568">
        <ele>748</ele>
        <time>2018-05-19T15:57:39Z</time>
      </trkpt>
      <trkpt lat="45.83291" lon="2.8554">
        <ele>746</ele>
        <time>2018-05-19T15:57:41Z</time>
      </trkpt>
      <trkpt lat="45.83283" lon="2.85512">
        <ele>744</ele>
        <time>2018-05-19T15:57:43Z</time>
      </trkpt>
      <trkpt lat="45.83276" lon="2.85483">
        <ele>743</ele>
        <time>2018-05-19T15:57:45Z</time>
      </trkpt>
      <trkpt lat="45.83269" lon="2.85457">
        <ele>741</ele>
        <time>2018-05-19T15:57:47Z</time>
      </trkpt>
      <trkpt lat="45.83265" lon="2.85435">
        <ele>740</ele>
        <time>2018-05-19T15:57:49Z</time>
      </trkpt>
      <trkpt lat="45.83261" lon="2.85417">
        <ele>739</ele>
        <time>2018-05-19T15:57:51Z</time>
      </trkpt>
      <trkpt lat="45.83258" lon="2.85402">
        <ele>738</ele>
        <time>2018-05-19T15:57:53Z</time>
      </trkpt>
      <trkpt lat="45.83254" lon="2.85386">
        <ele>737</ele>
        <time>2018-05-19T15:57:55Z</time>
      </trkpt>
      <trkpt lat="45.83249" lon="2.85369">
        <ele>737</ele>
        <time>2018-05-19T15:57:57Z</time>
      </trkpt>
      <trkpt lat="45.83243" lon="2.85351">
        <ele>737</ele>
        <time>2018-05-19T15:57:59Z</time>
      </trkpt>
      <trkpt lat="45.83238" lon="2.85332">
        <ele>736</ele>
        <time>2018-05-19T15:58:01Z</time>
      </trkpt>
      <trkpt lat="45.83234" lon="2.85316">
        <ele>735</ele>
        <time>2018-05-19T15:58:03Z</time>
      </trkpt>
      <trkpt lat="45.8323" lon="2.85302">
        <ele>735</ele>
        <time>2018-05-19T15:58:05Z</time>
      </trkpt>
      <trkpt lat="45.83226" lon="2.85287">
        <ele>733</ele>
        <time>2018-05-19T15:58:07Z</time>
      </trkpt>
      <trkpt lat="45.83222" lon="2.85272">
        <ele>732</ele>
        <time>2018-05-19T15:58:09Z</time>
      </trkpt>
      <trkpt lat="45.83221" lon="2.85257">
        <ele>731</ele>
        <time>2018-05-19T15:58:11Z</time>
      </trkpt>
      <trkpt lat="45.83221" lon="2.85243">
        <ele>730</ele>
        <time>2018-05-19T15:58:13Z</time>
      </trkpt>
      <trkpt lat="45.83221" lon="2.85231">
        <ele>729</ele>
        <time>2018-05-19T15:58:15Z</time>
      </trkpt>
      <trkpt lat="45.83222" lon="2.85221">
        <ele>728</ele>
        <time>2018-05-19T15:58:17Z</time>
      </trkpt>
      <trkpt lat="45.83222" lon="2.85212">
        <ele>728</ele>
        <time>2018-05-19T15:58:19Z</time>
      </trkpt>
      <trkpt lat="45.83222" lon="2.85201">
        <ele>727</ele>
        <time>2018-05-19T15:58:23Z</time>
      </trkpt>
      <trkpt lat="45.83221" lon="2.85188">
        <ele>726</ele>
        <time>2018-05-19T15:58:27Z</time>
      </trkpt>
      <trkpt lat="45.83219" lon="2.8518">
        <ele>727</ele>
        <time>2018-05-19T15:58:29Z</time>
      </trkpt>
      <trkpt lat="45.83215" lon="2.85175">
        <ele>727</ele>
        <time>2018-05-19T15:58:31Z</time>
      </trkpt>
      <trkpt lat="45.83208" lon="2.85172">
        <ele>727</ele>
        <time>2018-05-19T15:58:33Z</time>
      </trkpt>
      <trkpt lat="45.832" lon="2.8517">
        <ele>727</ele>
        <time>2018-05-19T15:58:35Z</time>
      </trkpt>
      <trkpt lat="45.83193" lon="2.85167">
        <ele>727</ele>
        <time>2018-05-19T15:58:37Z</time>
      </trkpt>
      <trkpt lat="45.83185" lon="2.85166">
        <ele>728</ele>
        <time>2018-05-19T15:58:39Z</time>
      </trkpt>
      <trkpt lat="45.83177" lon="2.85163">
        <ele>728</ele>
        <time>2018-05-19T15:58:41Z</time>
      </trkpt>
      <trkpt lat="45.83168" lon="2.85164">
        <ele>729</ele>
        <time>2018-05-19T15:58:43Z</time>
      </trkpt>
      <trkpt lat="45.83161" lon="2.85163">
        <ele>729</ele>
        <time>2018-05-19T15:58:45Z</time>
      </trkpt>
      <trkpt lat="45.83152" lon="2.8516">
        <ele>729</ele>
        <time>2018-05-19T15:58:47Z</time>
      </trkpt>
      <trkpt lat="45.83144" lon="2.85158">
        <ele>728</ele>
        <time>2018-05-19T15:58:49Z</time>
      </trkpt>
      <trkpt lat="45.83137" lon="2.85161">
        <ele>729</ele>
        <time>2018-05-19T15:58:51Z</time>
      </trkpt>
      <trkpt lat="45.83131" lon="2.85159">
        <ele>729</ele>
        <time>2018-05-19T15:58:53Z</time>
      </trkpt>
      <trkpt lat="45.83125" lon="2.85157">
        <ele>729</ele>
        <time>2018-05-19T15:58:55Z</time>
      </trkpt>
      <trkpt lat="45.83119" lon="2.85154">
        <ele>730</ele>
        <time>2018-05-19T15:58:57Z</time>
      </trkpt>
      <trkpt lat="45.83115" lon="2.8515">
        <ele>730</ele>
        <time>2018-05-19T15:59:11Z</time>
      </trkpt>
      <trkpt lat="45.83112" lon="2.85155">
        <ele>731</ele>
        <time>2018-05-19T15:59:25Z</time>
      </trkpt>
      <trkpt lat="45.83116" lon="2.85158">
        <ele>732</ele>
        <time>2018-05-19T16:12:17Z</time>
      </trkpt>
      <trkpt lat="45.83115" lon="2.85151">
        <ele>734</ele>
        <time>2018-05-19T16:21:13Z</time>
      </trkpt>
      <trkpt lat="45.8312" lon="2.85154">
        <ele>737</ele>
        <time>2018-05-19T16:22:05Z</time>
      </trkpt>
      <trkpt lat="45.83126" lon="2.85158">
        <ele>736</ele>
        <time>2018-05-19T16:22:09Z</time>
      </trkpt>
      <trkpt lat="45.83131" lon="2.8516">
        <ele>737</ele>
        <time>2018-05-19T16:22:11Z</time>
      </trkpt>
      <trkpt lat="45.83136" lon="2.85162">
        <ele>737</ele>
        <time>2018-05-19T16:22:13Z</time>
      </trkpt>
      <trkpt lat="45.8314" lon="2.85166">
        <ele>736</ele>
        <time>2018-05-19T16:22:15Z</time>
      </trkpt>
      <trkpt lat="45.83145" lon="2.85169">
        <ele>735</ele>
        <time>2018-05-19T16:22:17Z</time>
      </trkpt>
      <trkpt lat="45.8315" lon="2.85172">
        <ele>736</ele>
        <time>2018-05-19T16:22:19Z</time>
      </trkpt>
      <trkpt lat="45.83154" lon="2.85175">
        <ele>737</ele>
        <time>2018-05-19T16:22:21Z</time>
      </trkpt>
      <trkpt lat="45.83159" lon="2.8518">
        <ele>738</ele>
        <time>2018-05-19T16:22:23Z</time>
      </trkpt>
      <trkpt lat="45.83164" lon="2.85184">
        <ele>737</ele>
        <time>2018-05-19T16:22:25Z</time>
      </trkpt>
      <trkpt lat="45.83169" lon="2.85189">
        <ele>737</ele>
        <time>2018-05-19T16:22:27Z</time>
      </trkpt>
      <trkpt lat="45.83176" lon="2.85197">
        <ele>735</ele>
        <time>2018-05-19T16:22:31Z</time>
      </trkpt>
      <trkpt lat="45.83183" lon="2.85205">
        <ele>735</ele>
        <time>2018-05-19T16:22:35Z</time>
      </trkpt>
      <trkpt lat="45.8319" lon="2.8521">
        <ele>736</ele>
        <time>2018-05-19T16:22:39Z</time>
      </trkpt>
      <trkpt lat="45.83196" lon="2.85213">
        <ele>735</ele>
        <time>2018-05-19T16:22:43Z</time>
      </trkpt>
      <trkpt lat="45.83204" lon="2.85214">
        <ele>734</ele>
        <time>2018-05-19T16:22:47Z</time>
      </trkpt>
      <trkpt lat="45.83211" lon="2.85218">
        <ele>734</ele>
        <time>2018-05-19T16:22:51Z</time>
      </trkpt>
      <trkpt lat="45.83215" lon="2.85228">
        <ele>734</ele>
        <time>2018-05-19T16:22:55Z</time>
      </trkpt>
      <trkpt lat="45.83216" lon="2.85239">
        <ele>733</ele>
        <time>2018-05-19T16:22:59Z</time>
      </trkpt>
      <trkpt lat="45.83217" lon="2.85251">
        <ele>734</ele>
        <time>2018-05-19T16:23:03Z</time>
      </trkpt>
      <trkpt lat="45.83218" lon="2.85263">
        <ele>734</ele>
        <time>2018-05-19T16:23:07Z</time>
      </trkpt>
      <trkpt lat="45.8322" lon="2.85276">
        <ele>734</ele>
        <time>2018-05-19T16:23:11Z</time>
      </trkpt>
      <trkpt lat="45.83221" lon="2.85282">
        <ele>734</ele>
        <time>2018-05-19T16:23:13Z</time>
      </trkpt>
      <trkpt lat="45.83223" lon="2.85294">
        <ele>734</ele>
        <time>2018-05-19T16:23:17Z</time>
      </trkpt>
      <trkpt lat="45.83225" lon="2.853">
        <ele>734</ele>
        <time>2018-05-19T16:23:19Z</time>
      </trkpt>
      <trkpt lat="45.83227" lon="2.85306">
        <ele>734</ele>
        <time>2018-05-19T16:23:21Z</time>
      </trkpt>
      <trkpt lat="45.83229" lon="2.85312">
        <ele>735</ele>
        <time>2018-05-19T16:23:23Z</time>
      </trkpt>
      <trkpt lat="45.83232" lon="2.85324">
        <ele>735</ele>
        <time>2018-05-19T16:23:27Z</time>
      </trkpt>
      <trkpt lat="45.83233" lon="2.85331">
        <ele>736</ele>
        <time>2018-05-19T16:23:29Z</time>
      </trkpt>
      <trkpt lat="45.83236" lon="2.85337">
        <ele>736</ele>
        <time>2018-05-19T16:23:31Z</time>
      </trkpt>
      <trkpt lat="45.83237" lon="2.85343">
        <ele>736</ele>
        <time>2018-05-19T16:23:33Z</time>
      </trkpt>
      <trkpt lat="45.83239" lon="2.8535">
        <ele>736</ele>
        <time>2018-05-19T16:23:35Z</time>
      </trkpt>
      <trkpt lat="45.83241" lon="2.85357">
        <ele>737</ele>
        <time>2018-05-19T16:23:37Z</time>
      </trkpt>
      <trkpt lat="45.83243" lon="2.85363">
        <ele>738</ele>
        <time>2018-05-19T16:23:39Z</time>
      </trkpt>
      <trkpt lat="45.83246" lon="2.85374">
        <ele>737</ele>
        <time>2018-05-19T16:23:43Z</time>
      </trkpt>
      <trkpt lat="45.83248" lon="2.85381">
        <ele>738</ele>
        <time>2018-05-19T16:23:45Z</time>
      </trkpt>
      <trkpt lat="45.83252" lon="2.85393">
        <ele>738</ele>
        <time>2018-05-19T16:23:49Z</time>
      </trkpt>
      <trkpt lat="45.83253" lon="2.85399">
        <ele>738</ele>
        <time>2018-05-19T16:23:51Z</time>
      </trkpt>
      <trkpt lat="45.83254" lon="2.85405">
        <ele>738</ele>
        <time>2018-05-19T16:23:53Z</time>
      </trkpt>
      <trkpt lat="45.83257" lon="2.85417">
        <ele>741</ele>
        <time>2018-05-19T16:23:57Z</time>
      </trkpt>
      <trkpt lat="45.83258" lon="2.85424">
        <ele>741</ele>
        <time>2018-05-19T16:23:59Z</time>
      </trkpt>
      <trkpt lat="45.8326" lon="2.8543">
        <ele>742</ele>
        <time>2018-05-19T16:24:01Z</time>
      </trkpt>
      <trkpt lat="45.83262" lon="2.85436">
        <ele>742</ele>
        <time>2018-05-19T16:24:03Z</time>
      </trkpt>
      <trkpt lat="45.83263" lon="2.85443">
        <ele>742</ele>
        <time>2018-05-19T16:24:05Z</time>
      </trkpt>
      <trkpt lat="45.83266" lon="2.85455">
        <ele>741</ele>
        <time>2018-05-19T16:24:09Z</time>
      </trkpt>
      <trkpt lat="45.83267" lon="2.85461">
        <ele>741</ele>
        <time>2018-05-19T16:24:11Z</time>
      </trkpt>
      <trkpt lat="45.83269" lon="2.85467">
        <ele>742</ele>
        <time>2018-05-19T16:24:13Z</time>
      </trkpt>
      <trkpt lat="45.83272" lon="2.85478">
        <ele>742</ele>
        <time>2018-05-19T16:24:17Z</time>
      </trkpt>
      <trkpt lat="45.83274" lon="2.85484">
        <ele>743</ele>
        <time>2018-05-19T16:24:19Z</time>
      </trkpt>
      <trkpt lat="45.83276" lon="2.85491">
        <ele>743</ele>
        <time>2018-05-19T16:24:21Z</time>
      </trkpt>
      <trkpt lat="45.83278" lon="2.85503">
        <ele>744</ele>
        <time>2018-05-19T16:24:25Z</time>
      </trkpt>
      <trkpt lat="45.83281" lon="2.85514">
        <ele>744</ele>
        <time>2018-05-19T16:24:29Z</time>
      </trkpt>
      <trkpt lat="45.83282" lon="2.85521">
        <ele>745</ele>
        <time>2018-05-19T16:24:31Z</time>
      </trkpt>
      <trkpt lat="45.83284" lon="2.85527">
        <ele>745</ele>
        <time>2018-05-19T16:24:33Z</time>
      </trkpt>
      <trkpt lat="45.83286" lon="2.85533">
        <ele>745</ele>
        <time>2018-05-19T16:24:35Z</time>
      </trkpt>
      <trkpt lat="45.83287" lon="2.85539">
        <ele>746</ele>
        <time>2018-05-19T16:24:37Z</time>
      </trkpt>
      <trkpt lat="45.8329" lon="2.85551">
        <ele>747</ele>
        <time>2018-05-19T16:24:41Z</time>
      </trkpt>
      <trkpt lat="45.83292" lon="2.85557">
        <ele>748</ele>
        <time>2018-05-19T16:24:43Z</time>
      </trkpt>
      <trkpt lat="45.83294" lon="2.85564">
        <ele>747</ele>
        <time>2018-05-19T16:24:45Z</time>
      </trkpt>
      <trkpt lat="45.83296" lon="2.8557">
        <ele>747</ele>
        <time>2018-05-19T16:24:47Z</time>
      </trkpt>
      <trkpt lat="45.83298" lon="2.85577">
        <ele>748</ele>
        <time>2018-05-19T16:24:49Z</time>
      </trkpt>
      <trkpt lat="45.83299" lon="2.85583">
        <ele>748</ele>
        <time>2018-05-19T16:24:51Z</time>
      </trkpt>
      <trkpt lat="45.83301" lon="2.85596">
        <ele>748</ele>
        <time>2018-05-19T16:24:55Z</time>
      </trkpt>
      <trkpt lat="45.83302" lon="2.85602">
        <ele>749</ele>
        <time>2018-05-19T16:24:57Z</time>
      </trkpt>
      <trkpt lat="45.83306" lon="2.85613">
        <ele>750</ele>
        <time>2018-05-19T16:25:01Z</time>
      </trkpt>
      <trkpt lat="45.83309" lon="2.85625">
        <ele>751</ele>
        <time>2018-05-19T16:25:05Z</time>
      </trkpt>
      <trkpt lat="45.8331" lon="2.85631">
        <ele>751</ele>
        <time>2018-05-19T16:25:07Z</time>
      </trkpt>
      <trkpt lat="45.83312" lon="2.85638">
        <ele>752</ele>
        <time>2018-05-19T16:25:09Z</time>
      </trkpt>
      <trkpt lat="45.83313" lon="2.85644">
        <ele>752</ele>
        <time>2018-05-19T16:25:11Z</time>
      </trkpt>
      <trkpt lat="45.83315" lon="2.85651">
        <ele>752</ele>
        <time>2018-05-19T16:25:13Z</time>
      </trkpt>
      <trkpt lat="45.83317" lon="2.85657">
        <ele>753</ele>
        <time>2018-05-19T16:25:15Z</time>
      </trkpt>
      <trkpt lat="45.83318" lon="2.85663">
        <ele>753</ele>
        <time>2018-05-19T16:25:17Z</time>
      </trkpt>
      <trkpt lat="45.83319" lon="2.8567">
        <ele>754</ele>
        <time>2018-05-19T16:25:19Z</time>
      </trkpt>
      <trkpt lat="45.83322" lon="2.85682">
        <ele>754</ele>
        <time>2018-05-19T16:25:23Z</time>
      </trkpt>
      <trkpt lat="45.83325" lon="2.85694">
        <ele>755</ele>
        <time>2018-05-19T16:25:27Z</time>
      </trkpt>
      <trkpt lat="45.83327" lon="2.85701">
        <ele>755</ele>
        <time>2018-05-19T16:25:29Z</time>
      </trkpt>
      <trkpt lat="45.83329" lon="2.85708">
        <ele>756</ele>
        <time>2018-05-19T16:25:31Z</time>
      </trkpt>
      <trkpt lat="45.8333" lon="2.85715">
        <ele>757</ele>
        <time>2018-05-19T16:25:33Z</time>
      </trkpt>
      <trkpt lat="45.83332" lon="2.85721">
        <ele>757</ele>
        <time>2018-05-19T16:25:35Z</time>
      </trkpt>
      <trkpt lat="45.83333" lon="2.85727">
        <ele>757</ele>
        <time>2018-05-19T16:25:37Z</time>
      </trkpt>
      <trkpt lat="45.83335" lon="2.85733">
        <ele>757</ele>
        <time>2018-05-19T16:25:39Z</time>
      </trkpt>
      <trkpt lat="45.83337" lon="2.8574">
        <ele>757</ele>
        <time>2018-05-19T16:25:41Z</time>
      </trkpt>
      <trkpt lat="45.83338" lon="2.85746">
        <ele>758</ele>
        <time>2018-05-19T16:25:43Z</time>
      </trkpt>
      <trkpt lat="45.83341" lon="2.85758">
        <ele>758</ele>
        <time>2018-05-19T16:25:47Z</time>
      </trkpt>
      <trkpt lat="45.83342" lon="2.85764">
        <ele>758</ele>
        <time>2018-05-19T16:25:49Z</time>
      </trkpt>
      <trkpt lat="45.83344" lon="2.8577">
        <ele>759</ele>
        <time>2018-05-19T16:25:51Z</time>
      </trkpt>
      <trkpt lat="45.83345" lon="2.85777">
        <ele>759</ele>
        <time>2018-05-19T16:25:53Z</time>
      </trkpt>
      <trkpt lat="45.83348" lon="2.85788">
        <ele>761</ele>
        <time>2018-05-19T16:25:57Z</time>
      </trkpt>
      <trkpt lat="45.83352" lon="2.858">
        <ele>762</ele>
        <time>2018-05-19T16:26:01Z</time>
      </trkpt>
      <trkpt lat="45.83354" lon="2.85807">
        <ele>762</ele>
        <time>2018-05-19T16:26:03Z</time>
      </trkpt>
      <trkpt lat="45.83356" lon="2.85813">
        <ele>763</ele>
        <time>2018-05-19T16:26:05Z</time>
      </trkpt>
      <trkpt lat="45.83357" lon="2.8582">
        <ele>763</ele>
        <time>2018-05-19T16:26:07Z</time>
      </trkpt>
      <trkpt lat="45.83359" lon="2.85826">
        <ele>763</ele>
        <time>2018-05-19T16:26:09Z</time>
      </trkpt>
      <trkpt lat="45.83361" lon="2.85832">
        <ele>764</ele>
        <time>2018-05-19T16:26:11Z</time>
      </trkpt>
      <trkpt lat="45.83363" lon="2.85839">
        <ele>764</ele>
        <time>2018-05-19T16:26:13Z</time>
      </trkpt>
      <trkpt lat="45.83364" lon="2.85847">
        <ele>764</ele>
        <time>2018-05-19T16:26:15Z</time>
      </trkpt>
      <trkpt lat="45.83366" lon="2.85853">
        <ele>765</ele>
        <time>2018-05-19T16:26:17Z</time>
      </trkpt>
      <trkpt lat="45.83368" lon="2.8586">
        <ele>765</ele>
        <time>2018-05-19T16:26:19Z</time>
      </trkpt>
      <trkpt lat="45.83371" lon="2.85872">
        <ele>765</ele>
        <time>2018-05-19T16:26:23Z</time>
      </trkpt>
      <trkpt lat="45.83374" lon="2.85884">
        <ele>766</ele>
        <time>2018-05-19T16:26:27Z</time>
      </trkpt>
      <trkpt lat="45.83377" lon="2.85896">
        <ele>767</ele>
        <time>2018-05-19T16:26:31Z</time>
      </trkpt>
      <trkpt lat="45.83378" lon="2.85903">
        <ele>767</ele>
        <time>2018-05-19T16:26:33Z</time>
      </trkpt>
      <trkpt lat="45.83378" lon="2.8591">
        <ele>768</ele>
        <time>2018-05-19T16:26:35Z</time>
      </trkpt>
      <trkpt lat="45.83379" lon="2.85918">
        <ele>767</ele>
        <time>2018-05-19T16:26:37Z</time>
      </trkpt>
      <trkpt lat="45.83379" lon="2.85926">
        <ele>768</ele>
        <time>2018-05-19T16:26:39Z</time>
      </trkpt>
      <trkpt lat="45.8338" lon="2.85934">
        <ele>769</ele>
        <time>2018-05-19T16:26:41Z</time>
      </trkpt>
      <trkpt lat="45.83379" lon="2.85943">
        <ele>769</ele>
        <time>2018-05-19T16:26:43Z</time>
      </trkpt>
      <trkpt lat="45.83379" lon="2.85953">
        <ele>769</ele>
        <time>2018-05-19T16:26:45Z</time>
      </trkpt>
      <trkpt lat="45.83378" lon="2.85962">
        <ele>769</ele>
        <time>2018-05-19T16:26:47Z</time>
      </trkpt>
      <trkpt lat="45.83377" lon="2.85971">
        <ele>770</ele>
        <time>2018-05-19T16:26:49Z</time>
      </trkpt>
      <trkpt lat="45.83377" lon="2.8598">
        <ele>770</ele>
        <time>2018-05-19T16:26:51Z</time>
      </trkpt>
      <trkpt lat="45.83376" lon="2.8599">
        <ele>770</ele>
        <time>2018-05-19T16:26:53Z</time>
      </trkpt>
      <trkpt lat="45.83376" lon="2.85999">
        <ele>770</ele>
        <time>2018-05-19T16:26:55Z</time>
      </trkpt>
      <trkpt lat="45.83375" lon="2.86009">
        <ele>771</ele>
        <time>2018-05-19T16:26:57Z</time>
      </trkpt>
      <trkpt lat="45.83375" lon="2.86019">
        <ele>771</ele>
        <time>2018-05-19T16:26:59Z</time>
      </trkpt>
      <trkpt lat="45.83375" lon="2.86028">
        <ele>772</ele>
        <time>2018-05-19T16:27:01Z</time>
      </trkpt>
      <trkpt lat="45.83374" lon="2.86036">
        <ele>773</ele>
        <time>2018-05-19T16:27:03Z</time>
      </trkpt>
      <trkpt lat="45.83372" lon="2.86042">
        <ele>773</ele>
        <time>2018-05-19T16:27:05Z</time>
      </trkpt>
      <trkpt lat="45.83371" lon="2.86049">
        <ele>772</ele>
        <time>2018-05-19T16:27:07Z</time>
      </trkpt>
      <trkpt lat="45.83371" lon="2.86059">
        <ele>773</ele>
        <time>2018-05-19T16:27:09Z</time>
      </trkpt>
      <trkpt lat="45.83374" lon="2.86069">
        <ele>772</ele>
        <time>2018-05-19T16:27:11Z</time>
      </trkpt>
      <trkpt lat="45.83378" lon="2.86079">
        <ele>772</ele>
        <time>2018-05-19T16:27:13Z</time>
      </trkpt>
      <trkpt lat="45.8338" lon="2.86089">
        <ele>772</ele>
        <time>2018-05-19T16:27:15Z</time>
      </trkpt>
      <trkpt lat="45.83382" lon="2.86099">
        <ele>772</ele>
        <time>2018-05-19T16:27:17Z</time>
      </trkpt>
      <trkpt lat="45.83384" lon="2.86109">
        <ele>772</ele>
        <time>2018-05-19T16:27:19Z</time>
      </trkpt>
      <trkpt lat="45.83386" lon="2.86118">
        <ele>772</ele>
        <time>2018-05-19T16:27:21Z</time>
      </trkpt>
      <trkpt lat="45.83388" lon="2.86127">
        <ele>772</ele>
        <time>2018-05-19T16:27:23Z</time>
      </trkpt>
      <trkpt lat="45.83391" lon="2.86136">
        <ele>772</ele>
        <time>2018-05-19T16:27:25Z</time>
      </trkpt>
      <trkpt lat="45.83395" lon="2.86146">
        <ele>773</ele>
        <time>2018-05-19T16:27:27Z</time>
      </trkpt>
      <trkpt lat="45.83398" lon="2.86156">
        <ele>774</ele>
        <time>2018-05-19T16:27:29Z</time>
      </trkpt>
      <trkpt lat="45.83402" lon="2.86165">
        <ele>774</ele>
        <time>2018-05-19T16:27:31Z</time>
      </trkpt>
      <trkpt lat="45.83405" lon="2.86174">
        <ele>774</ele>
        <time>2018-05-19T16:27:33Z</time>
      </trkpt>
      <trkpt lat="45.83409" lon="2.86184">
        <ele>774</ele>
        <time>2018-05-19T16:27:35Z</time>
      </trkpt>
      <trkpt lat="45.83413" lon="2.86193">
        <ele>774</ele>
        <time>2018-05-19T16:27:37Z</time>
      </trkpt>
      <trkpt lat="45.83416" lon="2.86202">
        <ele>774</ele>
        <time>2018-05-19T16:27:39Z</time>
      </trkpt>
      <trkpt lat="45.83421" lon="2.86211">
        <ele>774</ele>
        <time>2018-05-19T16:27:41Z</time>
      </trkpt>
      <trkpt lat="45.83424" lon="2.86221">
        <ele>774</ele>
        <time>2018-05-19T16:27:43Z</time>
      </trkpt>
      <trkpt lat="45.83428" lon="2.8623">
        <ele>774</ele>
        <time>2018-05-19T16:27:45Z</time>
      </trkpt>
      <trkpt lat="45.83432" lon="2.8624">
        <ele>775</ele>
        <time>2018-05-19T16:27:47Z</time>
      </trkpt>
      <trkpt lat="45.83436" lon="2.8625">
        <ele>775</ele>
        <time>2018-05-19T16:27:49Z</time>
      </trkpt>
      <trkpt lat="45.8344" lon="2.86259">
        <ele>775</ele>
        <time>2018-05-19T16:27:51Z</time>
      </trkpt>
      <trkpt lat="45.83443" lon="2.86269">
        <ele>775</ele>
        <time>2018-05-19T16:27:53Z</time>
      </trkpt>
      <trkpt lat="45.83446" lon="2.86279">
        <ele>775</ele>
        <time>2018-05-19T16:27:55Z</time>
      </trkpt>
      <trkpt lat="45.8345" lon="2.86288">
        <ele>775</ele>
        <time>2018-05-19T16:27:57Z</time>
      </trkpt>
      <trkpt lat="45.83452" lon="2.86298">
        <ele>776</ele>
        <time>2018-05-19T16:27:59Z</time>
      </trkpt>
      <trkpt lat="45.83454" lon="2.86307">
        <ele>776</ele>
        <time>2018-05-19T16:28:01Z</time>
      </trkpt>
      <trkpt lat="45.83457" lon="2.86316">
        <ele>776</ele>
        <time>2018-05-19T16:28:03Z</time>
      </trkpt>
      <trkpt lat="45.8346" lon="2.86326">
        <ele>777</ele>
        <time>2018-05-19T16:28:05Z</time>
      </trkpt>
      <trkpt lat="45.83461" lon="2.86336">
        <ele>777</ele>
        <time>2018-05-19T16:28:07Z</time>
      </trkpt>
      <trkpt lat="45.83462" lon="2.86345">
        <ele>778</ele>
        <time>2018-05-19T16:28:09Z</time>
      </trkpt>
      <trkpt lat="45.83463" lon="2.86354">
        <ele>779</ele>
        <time>2018-05-19T16:28:11Z</time>
      </trkpt>
      <trkpt lat="45.83464" lon="2.86363">
        <ele>779</ele>
        <time>2018-05-19T16:28:13Z</time>
      </trkpt>
      <trkpt lat="45.83465" lon="2.86372">
        <ele>780</ele>
        <time>2018-05-19T16:28:15Z</time>
      </trkpt>
      <trkpt lat="45.83465" lon="2.86381">
        <ele>780</ele>
        <time>2018-05-19T16:28:17Z</time>
      </trkpt>
      <trkpt lat="45.83464" lon="2.8639">
        <ele>780</ele>
        <time>2018-05-19T16:28:19Z</time>
      </trkpt>
      <trkpt lat="45.83464" lon="2.86398">
        <ele>780</ele>
        <time>2018-05-19T16:28:21Z</time>
      </trkpt>
      <trkpt lat="45.83464" lon="2.86407">
        <ele>780</ele>
        <time>2018-05-19T16:28:23Z</time>
      </trkpt>
      <trkpt lat="45.83463" lon="2.86417">
        <ele>781</ele>
        <time>2018-05-19T16:28:25Z</time>
      </trkpt>
      <trkpt lat="45.83463" lon="2.86426">
        <ele>781</ele>
        <time>2018-05-19T16:28:27Z</time>
      </trkpt>
      <trkpt lat="45.83462" lon="2.86435">
        <ele>781</ele>
        <time>2018-05-19T16:28:29Z</time>
      </trkpt>
      <trkpt lat="45.83461" lon="2.86445">
        <ele>781</ele>
        <time>2018-05-19T16:28:31Z</time>
      </trkpt>
      <trkpt lat="45.8346" lon="2.86454">
        <ele>782</ele>
        <time>2018-05-19T16:28:33Z</time>
      </trkpt>
      <trkpt lat="45.83458" lon="2.86461">
        <ele>782</ele>
        <time>2018-05-19T16:28:35Z</time>
      </trkpt>
      <trkpt lat="45.83456" lon="2.8647">
        <ele>782</ele>
        <time>2018-05-19T16:28:37Z</time>
      </trkpt>
      <trkpt lat="45.83454" lon="2.86478">
        <ele>782</ele>
        <time>2018-05-19T16:28:39Z</time>
      </trkpt>
      <trkpt lat="45.83452" lon="2.86486">
        <ele>783</ele>
        <time>2018-05-19T16:28:41Z</time>
      </trkpt>
      <trkpt lat="45.8345" lon="2.86495">
        <ele>784</ele>
        <time>2018-05-19T16:28:43Z</time>
      </trkpt>
      <trkpt lat="45.83448" lon="2.86503">
        <ele>784</ele>
        <time>2018-05-19T16:28:45Z</time>
      </trkpt>
      <trkpt lat="45.83446" lon="2.86512">
        <ele>785</ele>
        <time>2018-05-19T16:28:47Z</time>
      </trkpt>
      <trkpt lat="45.83443" lon="2.8652">
        <ele>785</ele>
        <time>2018-05-19T16:28:49Z</time>
      </trkpt>
      <trkpt lat="45.83441" lon="2.86528">
        <ele>785</ele>
        <time>2018-05-19T16:28:51Z</time>
      </trkpt>
      <trkpt lat="45.83439" lon="2.86536">
        <ele>785</ele>
        <time>2018-05-19T16:28:53Z</time>
      </trkpt>
      <trkpt lat="45.83436" lon="2.86544">
        <ele>786</ele>
        <time>2018-05-19T16:28:55Z</time>
      </trkpt>
      <trkpt lat="45.83434" lon="2.86552">
        <ele>786</ele>
        <time>2018-05-19T16:28:57Z</time>
      </trkpt>
      <trkpt lat="45.83431" lon="2.86559">
        <ele>786</ele>
        <time>2018-05-19T16:28:59Z</time>
      </trkpt>
      <trkpt lat="45.83428" lon="2.86568">
        <ele>786</ele>
        <time>2018-05-19T16:29:01Z</time>
      </trkpt>
      <trkpt lat="45.83426" lon="2.86575">
        <ele>786</ele>
        <time>2018-05-19T16:29:03Z</time>
      </trkpt>
      <trkpt lat="45.83424" lon="2.86583">
        <ele>787</ele>
        <time>2018-05-19T16:29:05Z</time>
      </trkpt>
      <trkpt lat="45.83421" lon="2.86591">
        <ele>787</ele>
        <time>2018-05-19T16:29:07Z</time>
      </trkpt>
      <trkpt lat="45.83419" lon="2.86599">
        <ele>788</ele>
        <time>2018-05-19T16:29:09Z</time>
      </trkpt>
      <trkpt lat="45.83416" lon="2.86606">
        <ele>788</ele>
        <time>2018-05-19T16:29:11Z</time>
      </trkpt>
      <trkpt lat="45.83415" lon="2.86615">
        <ele>788</ele>
        <time>2018-05-19T16:29:13Z</time>
      </trkpt>
      <trkpt lat="45.83413" lon="2.86622">
        <ele>788</ele>
        <time>2018-05-19T16:29:15Z</time>
      </trkpt>
      <trkpt lat="45.83413" lon="2.8663">
        <ele>788</ele>
        <time>2018-05-19T16:29:17Z</time>
      </trkpt>
      <trkpt lat="45.83413" lon="2.86637">
        <ele>788</ele>
        <time>2018-05-19T16:29:19Z</time>
      </trkpt>
      <trkpt lat="45.83413" lon="2.86645">
        <ele>789</ele>
        <time>2018-05-19T16:29:21Z</time>
      </trkpt>
      <trkpt lat="45.83414" lon="2.86653">
        <ele>789</ele>
        <time>2018-05-19T16:29:23Z</time>
      </trkpt>
      <trkpt lat="45.83416" lon="2.8666">
        <ele>789</ele>
        <time>2018-05-19T16:29:25Z</time>
      </trkpt>
      <trkpt lat="45.83417" lon="2.86667">
        <ele>789</ele>
        <time>2018-05-19T16:29:27Z</time>
      </trkpt>
      <trkpt lat="45.8342" lon="2.86674">
        <ele>789</ele>
        <time>2018-05-19T16:29:29Z</time>
      </trkpt>
      <trkpt lat="45.83422" lon="2.86681">
        <ele>789</ele>
        <time>2018-05-19T16:29:31Z</time>
      </trkpt>
      <trkpt lat="45.83426" lon="2.86687">
        <ele>790</ele>
        <time>2018-05-19T16:29:33Z</time>
      </trkpt>
      <trkpt lat="45.8343" lon="2.86693">
        <ele>790</ele>
        <time>2018-05-19T16:29:35Z</time>
      </trkpt>
      <trkpt lat="45.83434" lon="2.86697">
        <ele>790</ele>
        <time>2018-05-19T16:29:37Z</time>
      </trkpt>
      <trkpt lat="45.83438" lon="2.86702">
        <ele>791</ele>
        <time>2018-05-19T16:29:39Z</time>
      </trkpt>
      <trkpt lat="45.83443" lon="2.86707">
        <ele>792</ele>
        <time>2018-05-19T16:29:41Z</time>
      </trkpt>
      <trkpt lat="45.83448" lon="2.86711">
        <ele>792</ele>
        <time>2018-05-19T16:29:43Z</time>
      </trkpt>
      <trkpt lat="45.83453" lon="2.86716">
        <ele>793</ele>
        <time>2018-05-19T16:29:45Z</time>
      </trkpt>
      <trkpt lat="45.83458" lon="2.86722">
        <ele>793</ele>
        <time>2018-05-19T16:29:47Z</time>
      </trkpt>
      <trkpt lat="45.83464" lon="2.8673">
        <ele>793</ele>
        <time>2018-05-19T16:29:49Z</time>
      </trkpt>
      <trkpt lat="45.83469" lon="2.86738">
        <ele>794</ele>
        <time>2018-05-19T16:29:51Z</time>
      </trkpt>
      <trkpt lat="45.83477" lon="2.86744">
        <ele>794</ele>
        <time>2018-05-19T16:29:53Z</time>
      </trkpt>
      <trkpt lat="45.83484" lon="2.86746">
        <ele>794</ele>
        <time>2018-05-19T16:29:55Z</time>
      </trkpt>
      <trkpt lat="45.83491" lon="2.86745">
        <ele>794</ele>
        <time>2018-05-19T16:29:57Z</time>
      </trkpt>
      <trkpt lat="45.83499" lon="2.86742">
        <ele>794</ele>
        <time>2018-05-19T16:29:59Z</time>
      </trkpt>
      <trkpt lat="45.83507" lon="2.86735">
        <ele>793</ele>
        <time>2018-05-19T16:30:01Z</time>
      </trkpt>
      <trkpt lat="45.83515" lon="2.86731">
        <ele>793</ele>
        <time>2018-05-19T16:30:03Z</time>
      </trkpt>
      <trkpt lat="45.83524" lon="2.86731">
        <ele>794</ele>
        <time>2018-05-19T16:30:05Z</time>
      </trkpt>
      <trkpt lat="45.83532" lon="2.86731">
        <ele>794</ele>
        <time>2018-05-19T16:30:07Z</time>
      </trkpt>
      <trkpt lat="45.83539" lon="2.86733">
        <ele>794</ele>
        <time>2018-05-19T16:30:09Z</time>
      </trkpt>
      <trkpt lat="45.83545" lon="2.86734">
        <ele>794</ele>
        <time>2018-05-19T16:30:11Z</time>
      </trkpt>
      <trkpt lat="45.83552" lon="2.86735">
        <ele>795</ele>
        <time>2018-05-19T16:30:13Z</time>
      </trkpt>
      <trkpt lat="45.83559" lon="2.86736">
        <ele>795</ele>
        <time>2018-05-19T16:30:15Z</time>
      </trkpt>
      <trkpt lat="45.83565" lon="2.86737">
        <ele>795</ele>
        <time>2018-05-19T16:30:17Z</time>
      </trkpt>
      <trkpt lat="45.83572" lon="2.86739">
        <ele>796</ele>
        <time>2018-05-19T16:30:19Z</time>
      </trkpt>
      <trkpt lat="45.83579" lon="2.86741">
        <ele>796</ele>
        <time>2018-05-19T16:30:21Z</time>
      </trkpt>
      <trkpt lat="45.83585" lon="2.86742">
        <ele>795</ele>
        <time>2018-05-19T16:30:23Z</time>
      </trkpt>
      <trkpt lat="45.83592" lon="2.86742">
        <ele>796</ele>
        <time>2018-05-19T16:30:25Z</time>
      </trkpt>
      <trkpt lat="45.83598" lon="2.86743">
        <ele>796</ele>
        <time>2018-05-19T16:30:27Z</time>
      </trkpt>
      <trkpt lat="45.83604" lon="2.86745">
        <ele>797</ele>
        <time>2018-05-19T16:30:29Z</time>
      </trkpt>
      <trkpt lat="45.83612" lon="2.86748">
        <ele>798</ele>
        <time>2018-05-19T16:30:31Z</time>
      </trkpt>
      <trkpt lat="45.83618" lon="2.86749">
        <ele>798</ele>
        <time>2018-05-19T16:30:33Z</time>
      </trkpt>
      <trkpt lat="45.83625" lon="2.8675">
        <ele>798</ele>
        <time>2018-05-19T16:30:35Z</time>
      </trkpt>
      <trkpt lat="45.8363" lon="2.86752">
        <ele>800</ele>
        <time>2018-05-19T16:30:37Z</time>
      </trkpt>
      <trkpt lat="45.83636" lon="2.86754">
        <ele>799</ele>
        <time>2018-05-19T16:30:39Z</time>
      </trkpt>
      <trkpt lat="45.83642" lon="2.86754">
        <ele>801</ele>
        <time>2018-05-19T16:30:41Z</time>
      </trkpt>
      <trkpt lat="45.83647" lon="2.86756">
        <ele>801</ele>
        <time>2018-05-19T16:30:43Z</time>
      </trkpt>
      <trkpt lat="45.83653" lon="2.86756">
        <ele>802</ele>
        <time>2018-05-19T16:30:45Z</time>
      </trkpt>
      <trkpt lat="45.83659" lon="2.86756">
        <ele>801</ele>
        <time>2018-05-19T16:30:47Z</time>
      </trkpt>
      <trkpt lat="45.83665" lon="2.86756">
        <ele>802</ele>
        <time>2018-05-19T16:30:49Z</time>
      </trkpt>
      <trkpt lat="45.83672" lon="2.86756">
        <ele>802</ele>
        <time>2018-05-19T16:30:51Z</time>
      </trkpt>
      <trkpt lat="45.8368" lon="2.86757">
        <ele>801</ele>
        <time>2018-05-19T16:30:53Z</time>
      </trkpt>
      <trkpt lat="45.83687" lon="2.86756">
        <ele>802</ele>
        <time>2018-05-19T16:30:55Z</time>
      </trkpt>
      <trkpt lat="45.83694" lon="2.86755">
        <ele>802</ele>
        <time>2018-05-19T16:30:57Z</time>
      </trkpt>
      <trkpt lat="45.83701" lon="2.86753">
        <ele>803</ele>
        <time>2018-05-19T16:30:59Z</time>
      </trkpt>
      <trkpt lat="45.83707" lon="2.86752">
        <ele>803</ele>
        <time>2018-05-19T16:31:01Z</time>
      </trkpt>
      <trkpt lat="45.83712" lon="2.86751">
        <ele>803</ele>
        <time>2018-05-19T16:31:03Z</time>
      </trkpt>
      <trkpt lat="45.83717" lon="2.86748">
        <ele>803</ele>
        <time>2018-05-19T16:31:05Z</time>
      </trkpt>
      <trkpt lat="45.83723" lon="2.86752">
        <ele>804</ele>
        <time>2018-05-19T16:31:09Z</time>
      </trkpt>
      <trkpt lat="45.83725" lon="2.8676">
        <ele>804</ele>
        <time>2018-05-19T16:31:13Z</time>
      </trkpt>
      <trkpt lat="45.83725" lon="2.86768">
        <ele>805</ele>
        <time>2018-05-19T16:31:17Z</time>
      </trkpt>
      <trkpt lat="45.83731" lon="2.86773">
        <ele>804</ele>
        <time>2018-05-19T16:31:39Z</time>
      </trkpt>
      <trkpt lat="45.83735" lon="2.86779">
        <ele>806</ele>
        <time>2018-05-19T16:31:43Z</time>
      </trkpt>
      <trkpt lat="45.83738" lon="2.86785">
        <ele>805</ele>
        <time>2018-05-19T16:31:47Z</time>
      </trkpt>
      <trkpt lat="45.83742" lon="2.8679">
        <ele>804</ele>
        <time>2018-05-19T16:31:51Z</time>
      </trkpt>
      <trkpt lat="45.83746" lon="2.86799">
        <ele>804</ele>
        <time>2018-05-19T16:31:55Z</time>
      </trkpt>
      <trkpt lat="45.83752" lon="2.86807">
        <ele>805</ele>
        <time>2018-05-19T16:31:59Z</time>
      </trkpt>
      <trkpt lat="45.83756" lon="2.86811">
        <ele>805</ele>
        <time>2018-05-19T16:32:01Z</time>
      </trkpt>
      <trkpt lat="45.83761" lon="2.86816">
        <ele>806</ele>
        <time>2018-05-19T16:32:05Z</time>
      </trkpt>
      <trkpt lat="45.83766" lon="2.8682">
        <ele>807</ele>
        <time>2018-05-19T16:32:09Z</time>
      </trkpt>
      <trkpt lat="45.83773" lon="2.86827">
        <ele>807</ele>
        <time>2018-05-19T16:32:13Z</time>
      </trkpt>
      <trkpt lat="45.8378" lon="2.86834">
        <ele>807</ele>
        <time>2018-05-19T16:32:17Z</time>
      </trkpt>
      <trkpt lat="45.83783" lon="2.86838">
        <ele>805</ele>
        <time>2018-05-19T16:32:19Z</time>
      </trkpt>
      <trkpt lat="45.83788" lon="2.86841">
        <ele>805</ele>
        <time>2018-05-19T16:32:21Z</time>
      </trkpt>
      <trkpt lat="45.83792" lon="2.86849">
        <ele>806</ele>
        <time>2018-05-19T16:32:25Z</time>
      </trkpt>
      <trkpt lat="45.83796" lon="2.86857">
        <ele>806</ele>
        <time>2018-05-19T16:32:29Z</time>
      </trkpt>
      <trkpt lat="45.83799" lon="2.86864">
        <ele>807</ele>
        <time>2018-05-19T16:32:33Z</time>
      </trkpt>
      <trkpt lat="45.83793" lon="2.86857">
        <ele>813</ele>
        <time>2018-05-19T16:32:53Z</time>
      </trkpt>
      <trkpt lat="45.83788" lon="2.86845">
        <ele>812</ele>
        <time>2018-05-19T16:32:57Z</time>
      </trkpt>
      <trkpt lat="45.83784" lon="2.86842">
        <ele>811</ele>
        <time>2018-05-19T16:32:59Z</time>
      </trkpt>
      <trkpt lat="45.83779" lon="2.86836">
        <ele>812</ele>
        <time>2018-05-19T16:33:03Z</time>
      </trkpt>
      <trkpt lat="45.83773" lon="2.86831">
        <ele>812</ele>
        <time>2018-05-19T16:33:07Z</time>
      </trkpt>
      <trkpt lat="45.83765" lon="2.86826">
        <ele>810</ele>
        <time>2018-05-19T16:33:11Z</time>
      </trkpt>
      <trkpt lat="45.83762" lon="2.86822">
        <ele>810</ele>
        <time>2018-05-19T16:33:13Z</time>
      </trkpt>
      <trkpt lat="45.83758" lon="2.86817">
        <ele>810</ele>
        <time>2018-05-19T16:33:15Z</time>
      </trkpt>
      <trkpt lat="45.83754" lon="2.86812">
        <ele>809</ele>
        <time>2018-05-19T16:33:17Z</time>
      </trkpt>
      <trkpt lat="45.8375" lon="2.86807">
        <ele>810</ele>
        <time>2018-05-19T16:33:19Z</time>
      </trkpt>
      <trkpt lat="45.83746" lon="2.86801">
        <ele>811</ele>
        <time>2018-05-19T16:33:21Z</time>
      </trkpt>
      <trkpt lat="45.83742" lon="2.86795">
        <ele>810</ele>
        <time>2018-05-19T16:33:23Z</time>
      </trkpt>
      <trkpt lat="45.83737" lon="2.86789">
        <ele>810</ele>
        <time>2018-05-19T16:33:25Z</time>
      </trkpt>
      <trkpt lat="45.83731" lon="2.86783">
        <ele>812</ele>
        <time>2018-05-19T16:33:29Z</time>
      </trkpt>
      <trkpt lat="45.83724" lon="2.8678">
        <ele>812</ele>
        <time>2018-05-19T16:33:33Z</time>
      </trkpt>
      <trkpt lat="45.83724" lon="2.86788">
        <ele>809</ele>
        <time>2018-05-19T16:33:37Z</time>
      </trkpt>
      <trkpt lat="45.83729" lon="2.86798">
        <ele>808</ele>
        <time>2018-05-19T16:33:41Z</time>
      </trkpt>
      <trkpt lat="45.83735" lon="2.86807">
        <ele>808</ele>
        <time>2018-05-19T16:33:45Z</time>
      </trkpt>
      <trkpt lat="45.83739" lon="2.86819">
        <ele>808</ele>
        <time>2018-05-19T16:33:49Z</time>
      </trkpt>
      <trkpt lat="45.83741" lon="2.8683">
        <ele>810</ele>
        <time>2018-05-19T16:33:53Z</time>
      </trkpt>
      <trkpt lat="45.83742" lon="2.86841">
        <ele>810</ele>
        <time>2018-05-19T16:33:57Z</time>
      </trkpt>
      <trkpt lat="45.83742" lon="2.86853">
        <ele>810</ele>
        <time>2018-05-19T16:34:01Z</time>
      </trkpt>
      <trkpt lat="45.83742" lon="2.86861">
        <ele>810</ele>
        <time>2018-05-19T16:34:03Z</time>
      </trkpt>
      <trkpt lat="45.83742" lon="2.86867">
        <ele>811</ele>
        <time>2018-05-19T16:34:05Z</time>
      </trkpt>
      <trkpt lat="45.83743" lon="2.86879">
        <ele>811</ele>
        <time>2018-05-19T16:34:09Z</time>
      </trkpt>
      <trkpt lat="45.83743" lon="2.86889">
        <ele>812</ele>
        <time>2018-05-19T16:34:13Z</time>
      </trkpt>
      <trkpt lat="45.83742" lon="2.869">
        <ele>813</ele>
        <time>2018-05-19T16:34:17Z</time>
      </trkpt>
      <trkpt lat="45.83741" lon="2.86909">
        <ele>813</ele>
        <time>2018-05-19T16:34:21Z</time>
      </trkpt>
      <trkpt lat="45.83743" lon="2.86916">
        <ele>815</ele>
        <time>2018-05-19T16:34:25Z</time>
      </trkpt>
      <trkpt lat="45.83745" lon="2.86923">
        <ele>816</ele>
        <time>2018-05-19T16:34:29Z</time>
      </trkpt>
      <trkpt lat="45.83747" lon="2.86932">
        <ele>818</ele>
        <time>2018-05-19T16:34:33Z</time>
      </trkpt>
      <trkpt lat="45.83747" lon="2.8694">
        <ele>818</ele>
        <time>2018-05-19T16:34:37Z</time>
      </trkpt>
      <trkpt lat="45.83746" lon="2.86948">
        <ele>818</ele>
        <time>2018-05-19T16:34:41Z</time>
      </trkpt>
      <trkpt lat="45.83747" lon="2.86958">
        <ele>820</ele>
        <time>2018-05-19T16:34:45Z</time>
      </trkpt>
      <trkpt lat="45.83748" lon="2.86969">
        <ele>824</ele>
        <time>2018-05-19T16:34:49Z</time>
      </trkpt>
      <trkpt lat="45.83752" lon="2.86979">
        <ele>821</ele>
        <time>2018-05-19T16:34:53Z</time>
      </trkpt>
      <trkpt lat="45.83754" lon="2.86992">
        <ele>822</ele>
        <time>2018-05-19T16:34:57Z</time>
      </trkpt>
      <trkpt lat="45.83755" lon="2.87003">
        <ele>820</ele>
        <time>2018-05-19T16:35:01Z</time>
      </trkpt>
      <trkpt lat="45.83756" lon="2.87015">
        <ele>821</ele>
        <time>2018-05-19T16:35:05Z</time>
      </trkpt>
      <trkpt lat="45.83758" lon="2.87025">
        <ele>823</ele>
        <time>2018-05-19T16:35:09Z</time>
      </trkpt>
      <trkpt lat="45.83757" lon="2.87035">
        <ele>820</ele>
        <time>2018-05-19T16:35:13Z</time>
      </trkpt>
      <trkpt lat="45.83755" lon="2.87047">
        <ele>819</ele>
        <time>2018-05-19T16:35:17Z</time>
      </trkpt>
      <trkpt lat="45.83753" lon="2.87056">
        <ele>820</ele>
        <time>2018-05-19T16:35:21Z</time>
      </trkpt>
      <trkpt lat="45.8375" lon="2.87065">
        <ele>820</ele>
        <time>2018-05-19T16:35:25Z</time>
      </trkpt>
      <trkpt lat="45.83748" lon="2.87071">
        <ele>818</ele>
        <time>2018-05-19T16:35:27Z</time>
      </trkpt>
      <trkpt lat="45.83744" lon="2.87081">
        <ele>818</ele>
        <time>2018-05-19T16:35:31Z</time>
      </trkpt>
      <trkpt lat="45.8374" lon="2.87091">
        <ele>816</ele>
        <time>2018-05-19T16:35:35Z</time>
      </trkpt>
      <trkpt lat="45.83739" lon="2.87099">
        <ele>815</ele>
        <time>2018-05-19T16:35:37Z</time>
      </trkpt>
      <trkpt lat="45.83738" lon="2.87107">
        <ele>816</ele>
        <time>2018-05-19T16:35:39Z</time>
      </trkpt>
      <trkpt lat="45.83737" lon="2.87115">
        <ele>816</ele>
        <time>2018-05-19T16:35:41Z</time>
      </trkpt>
      <trkpt lat="45.83737" lon="2.87123">
        <ele>816</ele>
        <time>2018-05-19T16:35:43Z</time>
      </trkpt>
      <trkpt lat="45.83736" lon="2.87129">
        <ele>815</ele>
        <time>2018-05-19T16:35:45Z</time>
      </trkpt>
      <trkpt lat="45.83737" lon="2.87138">
        <ele>816</ele>
        <time>2018-05-19T16:35:47Z</time>
      </trkpt>
      <trkpt lat="45.83737" lon="2.87145">
        <ele>816</ele>
        <time>2018-05-19T16:35:49Z</time>
      </trkpt>
      <trkpt lat="45.83738" lon="2.87152">
        <ele>817</ele>
        <time>2018-05-19T16:35:51Z</time>
      </trkpt>
      <trkpt lat="45.83738" lon="2.87162">
        <ele>815</ele>
        <time>2018-05-19T16:35:53Z</time>
      </trkpt>
      <trkpt lat="45.83737" lon="2.8717">
        <ele>815</ele>
        <time>2018-05-19T16:35:55Z</time>
      </trkpt>
      <trkpt lat="45.83736" lon="2.87178">
        <ele>817</ele>
        <time>2018-05-19T16:35:57Z</time>
      </trkpt>
      <trkpt lat="45.83735" lon="2.87192">
        <ele>818</ele>
        <time>2018-05-19T16:36:01Z</time>
      </trkpt>
      <trkpt lat="45.83734" lon="2.87199">
        <ele>818</ele>
        <time>2018-05-19T16:36:03Z</time>
      </trkpt>
      <trkpt lat="45.83735" lon="2.87207">
        <ele>820</ele>
        <time>2018-05-19T16:36:05Z</time>
      </trkpt>
      <trkpt lat="45.83735" lon="2.87222">
        <ele>820</ele>
        <time>2018-05-19T16:36:09Z</time>
      </trkpt>
      <trkpt lat="45.83736" lon="2.8723">
        <ele>819</ele>
        <time>2018-05-19T16:36:11Z</time>
      </trkpt>
      <trkpt lat="45.83735" lon="2.8724">
        <ele>818</ele>
        <time>2018-05-19T16:36:13Z</time>
      </trkpt>
      <trkpt lat="45.83737" lon="2.87249">
        <ele>818</ele>
        <time>2018-05-19T16:36:15Z</time>
      </trkpt>
      <trkpt lat="45.83739" lon="2.87258">
        <ele>818</ele>
        <time>2018-05-19T16:36:17Z</time>
      </trkpt>
      <trkpt lat="45.8374" lon="2.87266">
        <ele>818</ele>
        <time>2018-05-19T16:36:19Z</time>
      </trkpt>
      <trkpt lat="45.83741" lon="2.87276">
        <ele>816</ele>
        <time>2018-05-19T16:36:21Z</time>
      </trkpt>
      <trkpt lat="45.83742" lon="2.87286">
        <ele>817</ele>
        <time>2018-05-19T16:36:23Z</time>
      </trkpt>
      <trkpt lat="45.83741" lon="2.87296">
        <ele>818</ele>
        <time>2018-05-19T16:36:25Z</time>
      </trkpt>
      <trkpt lat="45.83739" lon="2.87305">
        <ele>817</ele>
        <time>2018-05-19T16:36:27Z</time>
      </trkpt>
      <trkpt lat="45.83738" lon="2.87316">
        <ele>818</ele>
        <time>2018-05-19T16:36:29Z</time>
      </trkpt>
      <trkpt lat="45.83738" lon="2.87324">
        <ele>817</ele>
        <time>2018-05-19T16:36:31Z</time>
      </trkpt>
      <trkpt lat="45.83736" lon="2.87335">
        <ele>817</ele>
        <time>2018-05-19T16:36:33Z</time>
      </trkpt>
      <trkpt lat="45.83734" lon="2.87344">
        <ele>817</ele>
        <time>2018-05-19T16:36:35Z</time>
      </trkpt>
      <trkpt lat="45.83732" lon="2.87353">
        <ele>817</ele>
        <time>2018-05-19T16:36:37Z</time>
      </trkpt>
      <trkpt lat="45.83729" lon="2.87361">
        <ele>817</ele>
        <time>2018-05-19T16:36:39Z</time>
      </trkpt>
      <trkpt lat="45.83726" lon="2.8737">
        <ele>817</ele>
        <time>2018-05-19T16:36:41Z</time>
      </trkpt>
      <trkpt lat="45.83723" lon="2.87379">
        <ele>817</ele>
        <time>2018-05-19T16:36:43Z</time>
      </trkpt>
      <trkpt lat="45.83719" lon="2.87386">
        <ele>817</ele>
        <time>2018-05-19T16:36:45Z</time>
      </trkpt>
      <trkpt lat="45.83718" lon="2.87393">
        <ele>816</ele>
        <time>2018-05-19T16:36:47Z</time>
      </trkpt>
      <trkpt lat="45.83717" lon="2.87401">
        <ele>815</ele>
        <time>2018-05-19T16:36:49Z</time>
      </trkpt>
      <trkpt lat="45.83715" lon="2.87409">
        <ele>815</ele>
        <time>2018-05-19T16:36:51Z</time>
      </trkpt>
      <trkpt lat="45.83714" lon="2.87416">
        <ele>815</ele>
        <time>2018-05-19T16:36:53Z</time>
      </trkpt>
      <trkpt lat="45.83713" lon="2.87425">
        <ele>816</ele>
        <time>2018-05-19T16:36:55Z</time>
      </trkpt>
      <trkpt lat="45.83714" lon="2.87434">
        <ele>817</ele>
        <time>2018-05-19T16:36:57Z</time>
      </trkpt>
      <trkpt lat="45.83712" lon="2.87443">
        <ele>817</ele>
        <time>2018-05-19T16:36:59Z</time>
      </trkpt>
      <trkpt lat="45.83711" lon="2.87452">
        <ele>817</ele>
        <time>2018-05-19T16:37:01Z</time>
      </trkpt>
      <trkpt lat="45.8371" lon="2.8746">
        <ele>817</ele>
        <time>2018-05-19T16:37:03Z</time>
      </trkpt>
      <trkpt lat="45.83709" lon="2.87469">
        <ele>818</ele>
        <time>2018-05-19T16:37:05Z</time>
      </trkpt>
      <trkpt lat="45.83708" lon="2.87478">
        <ele>818</ele>
        <time>2018-05-19T16:37:07Z</time>
      </trkpt>
      <trkpt lat="45.83707" lon="2.87486">
        <ele>818</ele>
        <time>2018-05-19T16:37:09Z</time>
      </trkpt>
      <trkpt lat="45.83707" lon="2.87494">
        <ele>819</ele>
        <time>2018-05-19T16:37:11Z</time>
      </trkpt>
      <trkpt lat="45.83706" lon="2.87502">
        <ele>819</ele>
        <time>2018-05-19T16:37:13Z</time>
      </trkpt>
      <trkpt lat="45.83706" lon="2.87511">
        <ele>820</ele>
        <time>2018-05-19T16:37:15Z</time>
      </trkpt>
      <trkpt lat="45.83705" lon="2.87518">
        <ele>820</ele>
        <time>2018-05-19T16:37:17Z</time>
      </trkpt>
      <trkpt lat="45.83705" lon="2.87526">
        <ele>820</ele>
        <time>2018-05-19T16:37:19Z</time>
      </trkpt>
      <trkpt lat="45.83705" lon="2.87535">
        <ele>821</ele>
        <time>2018-05-19T16:37:21Z</time>
      </trkpt>
      <trkpt lat="45.83704" lon="2.87543">
        <ele>821</ele>
        <time>2018-05-19T16:37:23Z</time>
      </trkpt>
      <trkpt lat="45.83703" lon="2.87551">
        <ele>821</ele>
        <time>2018-05-19T16:37:25Z</time>
      </trkpt>
      <trkpt lat="45.83704" lon="2.87559">
        <ele>821</ele>
        <time>2018-05-19T16:37:27Z</time>
      </trkpt>
      <trkpt lat="45.83704" lon="2.87568">
        <ele>820</ele>
        <time>2018-05-19T16:37:29Z</time>
      </trkpt>
      <trkpt lat="45.83703" lon="2.87577">
        <ele>820</ele>
        <time>2018-05-19T16:37:31Z</time>
      </trkpt>
      <trkpt lat="45.83702" lon="2.87586">
        <ele>819</ele>
        <time>2018-05-19T16:37:33Z</time>
      </trkpt>
      <trkpt lat="45.83702" lon="2.87594">
        <ele>821</ele>
        <time>2018-05-19T16:37:35Z</time>
      </trkpt>
      <trkpt lat="45.837" lon="2.87603">
        <ele>820</ele>
        <time>2018-05-19T16:37:37Z</time>
      </trkpt>
      <trkpt lat="45.83698" lon="2.87611">
        <ele>821</ele>
        <time>2018-05-19T16:37:39Z</time>
      </trkpt>
      <trkpt lat="45.83696" lon="2.87621">
        <ele>820</ele>
        <time>2018-05-19T16:37:41Z</time>
      </trkpt>
      <trkpt lat="45.83694" lon="2.87632">
        <ele>820</ele>
        <time>2018-05-19T16:37:43Z</time>
      </trkpt>
      <trkpt lat="45.83694" lon="2.87642">
        <ele>820</ele>
        <time>2018-05-19T16:37:45Z</time>
      </trkpt>
      <trkpt lat="45.83693" lon="2.87653">
        <ele>819</ele>
        <time>2018-05-19T16:37:47Z</time>
      </trkpt>
      <trkpt lat="45.83693" lon="2.87665">
        <ele>819</ele>
        <time>2018-05-19T16:37:49Z</time>
      </trkpt>
      <trkpt lat="45.83695" lon="2.87677">
        <ele>819</ele>
        <time>2018-05-19T16:37:51Z</time>
      </trkpt>
      <trkpt lat="45.83696" lon="2.87689">
        <ele>819</ele>
        <time>2018-05-19T16:37:53Z</time>
      </trkpt>
      <trkpt lat="45.83698" lon="2.87702">
        <ele>819</ele>
        <time>2018-05-19T16:37:55Z</time>
      </trkpt>
      <trkpt lat="45.837" lon="2.87716">
        <ele>819</ele>
        <time>2018-05-19T16:37:57Z</time>
      </trkpt>
      <trkpt lat="45.83702" lon="2.87727">
        <ele>819</ele>
        <time>2018-05-19T16:37:59Z</time>
      </trkpt>
      <trkpt lat="45.83702" lon="2.87738">
        <ele>819</ele>
        <time>2018-05-19T16:38:01Z</time>
      </trkpt>
      <trkpt lat="45.83703" lon="2.87747">
        <ele>820</ele>
        <time>2018-05-19T16:38:03Z</time>
      </trkpt>
      <trkpt lat="45.83704" lon="2.87756">
        <ele>821</ele>
        <time>2018-05-19T16:38:05Z</time>
      </trkpt>
      <trkpt lat="45.83705" lon="2.87765">
        <ele>821</ele>
        <time>2018-05-19T16:38:07Z</time>
      </trkpt>
      <trkpt lat="45.83707" lon="2.87773">
        <ele>821</ele>
        <time>2018-05-19T16:38:09Z</time>
      </trkpt>
      <trkpt lat="45.83709" lon="2.8778">
        <ele>822</ele>
        <time>2018-05-19T16:38:11Z</time>
      </trkpt>
      <trkpt lat="45.83711" lon="2.87787">
        <ele>822</ele>
        <time>2018-05-19T16:38:13Z</time>
      </trkpt>
      <trkpt lat="45.83713" lon="2.87793">
        <ele>823</ele>
        <time>2018-05-19T16:38:15Z</time>
      </trkpt>
      <trkpt lat="45.83716" lon="2.87799">
        <ele>824</ele>
        <time>2018-05-19T16:38:17Z</time>
      </trkpt>
      <trkpt lat="45.83719" lon="2.87809">
        <ele>826</ele>
        <time>2018-05-19T16:38:21Z</time>
      </trkpt>
      <trkpt lat="45.83722" lon="2.8782">
        <ele>827</ele>
        <time>2018-05-19T16:38:25Z</time>
      </trkpt>
      <trkpt lat="45.83725" lon="2.8783">
        <ele>828</ele>
        <time>2018-05-19T16:38:29Z</time>
      </trkpt>
      <trkpt lat="45.83727" lon="2.8784">
        <ele>829</ele>
        <time>2018-05-19T16:38:33Z</time>
      </trkpt>
      <trkpt lat="45.83729" lon="2.87854">
        <ele>827</ele>
        <time>2018-05-19T16:38:37Z</time>
      </trkpt>
      <trkpt lat="45.8373" lon="2.87861">
        <ele>827</ele>
        <time>2018-05-19T16:38:39Z</time>
      </trkpt>
      <trkpt lat="45.8373" lon="2.87869">
        <ele>827</ele>
        <time>2018-05-19T16:38:41Z</time>
      </trkpt>
      <trkpt lat="45.8373" lon="2.87877">
        <ele>827</ele>
        <time>2018-05-19T16:38:43Z</time>
      </trkpt>
      <trkpt lat="45.83731" lon="2.87885">
        <ele>827</ele>
        <time>2018-05-19T16:38:45Z</time>
      </trkpt>
      <trkpt lat="45.83731" lon="2.87899">
        <ele>828</ele>
        <time>2018-05-19T16:38:49Z</time>
      </trkpt>
      <trkpt lat="45.8373" lon="2.87914">
        <ele>827</ele>
        <time>2018-05-19T16:38:53Z</time>
      </trkpt>
      <trkpt lat="45.8373" lon="2.87921">
        <ele>827</ele>
        <time>2018-05-19T16:38:55Z</time>
      </trkpt>
      <trkpt lat="45.83731" lon="2.87933">
        <ele>828</ele>
        <time>2018-05-19T16:38:59Z</time>
      </trkpt>
      <trkpt lat="45.83731" lon="2.8794">
        <ele>828</ele>
        <time>2018-05-19T16:39:01Z</time>
      </trkpt>
      <trkpt lat="45.8373" lon="2.87949">
        <ele>828</ele>
        <time>2018-05-19T16:39:03Z</time>
      </trkpt>
      <trkpt lat="45.83729" lon="2.87956">
        <ele>828</ele>
        <time>2018-05-19T16:39:05Z</time>
      </trkpt>
      <trkpt lat="45.83726" lon="2.87964">
        <ele>828</ele>
        <time>2018-05-19T16:39:07Z</time>
      </trkpt>
      <trkpt lat="45.83723" lon="2.87973">
        <ele>827</ele>
        <time>2018-05-19T16:39:09Z</time>
      </trkpt>
      <trkpt lat="45.83721" lon="2.87982">
        <ele>827</ele>
        <time>2018-05-19T16:39:11Z</time>
      </trkpt>
      <trkpt lat="45.8372" lon="2.87992">
        <ele>827</ele>
        <time>2018-05-19T16:39:13Z</time>
      </trkpt>
      <trkpt lat="45.83718" lon="2.88001">
        <ele>827</ele>
        <time>2018-05-19T16:39:15Z</time>
      </trkpt>
      <trkpt lat="45.83717" lon="2.88008">
        <ele>826</ele>
        <time>2018-05-19T16:39:17Z</time>
      </trkpt>
      <trkpt lat="45.83716" lon="2.88017">
        <ele>826</ele>
        <time>2018-05-19T16:39:19Z</time>
      </trkpt>
      <trkpt lat="45.83715" lon="2.88025">
        <ele>826</ele>
        <time>2018-05-19T16:39:21Z</time>
      </trkpt>
      <trkpt lat="45.83714" lon="2.88032">
        <ele>827</ele>
        <time>2018-05-19T16:39:23Z</time>
      </trkpt>
      <trkpt lat="45.83714" lon="2.88044">
        <ele>828</ele>
        <time>2018-05-19T16:39:27Z</time>
      </trkpt>
      <trkpt lat="45.83715" lon="2.88051">
        <ele>829</ele>
        <time>2018-05-19T16:39:29Z</time>
      </trkpt>
      <trkpt lat="45.83716" lon="2.88058">
        <ele>829</ele>
        <time>2018-05-19T16:39:31Z</time>
      </trkpt>
      <trkpt lat="45.83718" lon="2.88067">
        <ele>828</ele>
        <time>2018-05-19T16:39:33Z</time>
      </trkpt>
      <trkpt lat="45.8372" lon="2.88075">
        <ele>828</ele>
        <time>2018-05-19T16:39:35Z</time>
      </trkpt>
      <trkpt lat="45.83721" lon="2.88083">
        <ele>829</ele>
        <time>2018-05-19T16:39:37Z</time>
      </trkpt>
      <trkpt lat="45.83722" lon="2.88092">
        <ele>831</ele>
        <time>2018-05-19T16:39:39Z</time>
      </trkpt>
      <trkpt lat="45.83725" lon="2.88101">
        <ele>831</ele>
        <time>2018-05-19T16:39:41Z</time>
      </trkpt>
      <trkpt lat="45.83727" lon="2.8811">
        <ele>832</ele>
        <time>2018-05-19T16:39:43Z</time>
      </trkpt>
      <trkpt lat="45.83729" lon="2.8812">
        <ele>833</ele>
        <time>2018-05-19T16:39:45Z</time>
      </trkpt>
      <trkpt lat="45.83729" lon="2.88131">
        <ele>833</ele>
        <time>2018-05-19T16:39:47Z</time>
      </trkpt>
      <trkpt lat="45.83729" lon="2.88143">
        <ele>832</ele>
        <time>2018-05-19T16:39:49Z</time>
      </trkpt>
      <trkpt lat="45.83727" lon="2.88156">
        <ele>832</ele>
        <time>2018-05-19T16:39:51Z</time>
      </trkpt>
      <trkpt lat="45.83728" lon="2.88168">
        <ele>832</ele>
        <time>2018-05-19T16:39:53Z</time>
      </trkpt>
      <trkpt lat="45.83731" lon="2.88177">
        <ele>833</ele>
        <time>2018-05-19T16:39:55Z</time>
      </trkpt>
      <trkpt lat="45.83734" lon="2.88185">
        <ele>833</ele>
        <time>2018-05-19T16:39:57Z</time>
      </trkpt>
      <trkpt lat="45.83736" lon="2.88191">
        <ele>834</ele>
        <time>2018-05-19T16:39:59Z</time>
      </trkpt>
      <trkpt lat="45.83738" lon="2.88198">
        <ele>834</ele>
        <time>2018-05-19T16:40:01Z</time>
      </trkpt>
      <trkpt lat="45.83738" lon="2.88209">
        <ele>832</ele>
        <time>2018-05-19T16:40:05Z</time>
      </trkpt>
      <trkpt lat="45.83737" lon="2.88219">
        <ele>833</ele>
        <time>2018-05-19T16:40:09Z</time>
      </trkpt>
      <trkpt lat="45.83735" lon="2.88229">
        <ele>834</ele>
        <time>2018-05-19T16:40:13Z</time>
      </trkpt>
      <trkpt lat="45.83733" lon="2.88236">
        <ele>833</ele>
        <time>2018-05-19T16:40:17Z</time>
      </trkpt>
      <trkpt lat="45.83733" lon="2.88245">
        <ele>835</ele>
        <time>2018-05-19T16:40:21Z</time>
      </trkpt>
      <trkpt lat="45.83734" lon="2.88251">
        <ele>835</ele>
        <time>2018-05-19T16:40:23Z</time>
      </trkpt>
      <trkpt lat="45.83736" lon="2.8826">
        <ele>836</ele>
        <time>2018-05-19T16:40:27Z</time>
      </trkpt>
      <trkpt lat="45.83737" lon="2.88269">
        <ele>837</ele>
        <time>2018-05-19T16:40:31Z</time>
      </trkpt>
      <trkpt lat="45.83739" lon="2.88277">
        <ele>839</ele>
        <time>2018-05-19T16:40:35Z</time>
      </trkpt>
      <trkpt lat="45.83739" lon="2.88287">
        <ele>838</ele>
        <time>2018-05-19T16:40:39Z</time>
      </trkpt>
      <trkpt lat="45.83739" lon="2.88298">
        <ele>838</ele>
        <time>2018-05-19T16:40:43Z</time>
      </trkpt>
      <trkpt lat="45.83738" lon="2.88309">
        <ele>837</ele>
        <time>2018-05-19T16:40:47Z</time>
      </trkpt>
      <trkpt lat="45.83736" lon="2.88319">
        <ele>837</ele>
        <time>2018-05-19T16:40:51Z</time>
      </trkpt>
      <trkpt lat="45.83733" lon="2.8833">
        <ele>838</ele>
        <time>2018-05-19T16:40:55Z</time>
      </trkpt>
      <trkpt lat="45.83729" lon="2.88341">
        <ele>840</ele>
        <time>2018-05-19T16:40:59Z</time>
      </trkpt>
      <trkpt lat="45.83728" lon="2.88348">
        <ele>840</ele>
        <time>2018-05-19T16:41:01Z</time>
      </trkpt>
      <trkpt lat="45.83725" lon="2.88361">
        <ele>839</ele>
        <time>2018-05-19T16:41:05Z</time>
      </trkpt>
      <trkpt lat="45.83724" lon="2.8837">
        <ele>839</ele>
        <time>2018-05-19T16:41:07Z</time>
      </trkpt>
      <trkpt lat="45.83723" lon="2.8838">
        <ele>839</ele>
        <time>2018-05-19T16:41:09Z</time>
      </trkpt>
      <trkpt lat="45.83722" lon="2.88393">
        <ele>838</ele>
        <time>2018-05-19T16:41:11Z</time>
      </trkpt>
      <trkpt lat="45.8372" lon="2.88406">
        <ele>837</ele>
        <time>2018-05-19T16:41:13Z</time>
      </trkpt>
      <trkpt lat="45.83718" lon="2.88419">
        <ele>838</ele>
        <time>2018-05-19T16:41:15Z</time>
      </trkpt>
      <trkpt lat="45.83715" lon="2.8843">
        <ele>838</ele>
        <time>2018-05-19T16:41:17Z</time>
      </trkpt>
      <trkpt lat="45.83713" lon="2.8844">
        <ele>839</ele>
        <time>2018-05-19T16:41:19Z</time>
      </trkpt>
      <trkpt lat="45.83712" lon="2.88449">
        <ele>839</ele>
        <time>2018-05-19T16:41:21Z</time>
      </trkpt>
      <trkpt lat="45.8371" lon="2.88458">
        <ele>838</ele>
        <time>2018-05-19T16:41:23Z</time>
      </trkpt>
      <trkpt lat="45.83707" lon="2.88467">
        <ele>837</ele>
        <time>2018-05-19T16:41:25Z</time>
      </trkpt>
      <trkpt lat="45.83705" lon="2.88477">
        <ele>837</ele>
        <time>2018-05-19T16:41:27Z</time>
      </trkpt>
      <trkpt lat="45.83704" lon="2.88488">
        <ele>838</ele>
        <time>2018-05-19T16:41:29Z</time>
      </trkpt>
      <trkpt lat="45.83705" lon="2.88499">
        <ele>838</ele>
        <time>2018-05-19T16:41:31Z</time>
      </trkpt>
      <trkpt lat="45.83705" lon="2.8851">
        <ele>838</ele>
        <time>2018-05-19T16:41:33Z</time>
      </trkpt>
      <trkpt lat="45.83706" lon="2.88521">
        <ele>839</ele>
        <time>2018-05-19T16:41:35Z</time>
      </trkpt>
      <trkpt lat="45.83708" lon="2.8853">
        <ele>839</ele>
        <time>2018-05-19T16:41:37Z</time>
      </trkpt>
      <trkpt lat="45.83711" lon="2.88536">
        <ele>838</ele>
        <time>2018-05-19T16:41:39Z</time>
      </trkpt>
      <trkpt lat="45.83716" lon="2.88539">
        <ele>839</ele>
        <time>2018-05-19T16:41:41Z</time>
      </trkpt>
      <trkpt lat="45.83722" lon="2.88542">
        <ele>839</ele>
        <time>2018-05-19T16:41:43Z</time>
      </trkpt>
      <trkpt lat="45.83728" lon="2.88548">
        <ele>840</ele>
        <time>2018-05-19T16:41:45Z</time>
      </trkpt>
      <trkpt lat="45.83734" lon="2.88553">
        <ele>840</ele>
        <time>2018-05-19T16:41:47Z</time>
      </trkpt>
      <trkpt lat="45.83741" lon="2.88561">
        <ele>837</ele>
        <time>2018-05-19T16:41:49Z</time>
      </trkpt>
      <trkpt lat="45.83742" lon="2.88569">
        <ele>835</ele>
        <time>2018-05-19T16:41:51Z</time>
      </trkpt>
      <trkpt lat="45.83742" lon="2.88576">
        <ele>835</ele>
        <time>2018-05-19T16:41:53Z</time>
      </trkpt>
      <trkpt lat="45.83736" lon="2.88577">
        <ele>835</ele>
        <time>2018-05-19T16:42:01Z</time>
      </trkpt>
      <trkpt lat="45.83728" lon="2.88579">
        <ele>834</ele>
        <time>2018-05-19T16:42:03Z</time>
      </trkpt>
      <trkpt lat="45.83718" lon="2.88585">
        <ele>834</ele>
        <time>2018-05-19T16:42:05Z</time>
      </trkpt>
      <trkpt lat="45.83711" lon="2.88594">
        <ele>833</ele>
        <time>2018-05-19T16:42:07Z</time>
      </trkpt>
      <trkpt lat="45.83707" lon="2.88608">
        <ele>832</ele>
        <time>2018-05-19T16:42:09Z</time>
      </trkpt>
      <trkpt lat="45.83704" lon="2.88622">
        <ele>831</ele>
        <time>2018-05-19T16:42:11Z</time>
      </trkpt>
      <trkpt lat="45.83701" lon="2.88633">
        <ele>830</ele>
        <time>2018-05-19T16:42:13Z</time>
      </trkpt>
      <trkpt lat="45.83698" lon="2.88641">
        <ele>829</ele>
        <time>2018-05-19T16:42:15Z</time>
      </trkpt>
      <trkpt lat="45.83688" lon="2.88644">
        <ele>828</ele>
        <time>2018-05-19T16:42:19Z</time>
      </trkpt>
      <trkpt lat="45.83681" lon="2.88643">
        <ele>827</ele>
        <time>2018-05-19T16:42:21Z</time>
      </trkpt>
      <trkpt lat="45.83673" lon="2.88644">
        <ele>827</ele>
        <time>2018-05-19T16:42:23Z</time>
      </trkpt>
      <trkpt lat="45.83668" lon="2.8865">
        <ele>828</ele>
        <time>2018-05-19T16:42:25Z</time>
      </trkpt>
      <trkpt lat="45.83669" lon="2.88658">
        <ele>827</ele>
        <time>2018-05-19T16:42:27Z</time>
      </trkpt>
      <trkpt lat="45.83671" lon="2.88669">
        <ele>829</ele>
        <time>2018-05-19T16:42:31Z</time>
      </trkpt>
      <trkpt lat="45.83674" lon="2.88677">
        <ele>829</ele>
        <time>2018-05-19T16:42:35Z</time>
      </trkpt>
      <trkpt lat="45.83677" lon="2.88686">
        <ele>829</ele>
        <time>2018-05-19T16:42:39Z</time>
      </trkpt>
      <trkpt lat="45.83673" lon="2.88698">
        <ele>828</ele>
        <time>2018-05-19T16:42:43Z</time>
      </trkpt>
      <trkpt lat="45.83668" lon="2.88707">
        <ele>828</ele>
        <time>2018-05-19T16:42:45Z</time>
      </trkpt>
      <trkpt lat="45.83669" lon="2.88713">
        <ele>826</ele>
        <time>2018-05-19T16:42:47Z</time>
      </trkpt>
      <trkpt lat="45.83671" lon="2.88719">
        <ele>828</ele>
        <time>2018-05-19T16:43:07Z</time>
      </trkpt>
    </trkseg>
  </trk>
</gpx>